﻿<?xml version="1.0" encoding="utf-8"?><gpx creator="Garmin Desktop App" version="1.1" xsi:schemaLocation="http://www.topografix.com/GPX/1/1 http://www.topografix.com/GPX/1/1/gpx.xsd http://www.garmin.com/xmlschemas/WaypointExtension/v1 http://www8.garmin.com/xmlschemas/WaypointExtensionv1.xsd http://www.garmin.com/xmlschemas/TrackPointExtension/v1 http://www.garmin.com/xmlschemas/TrackPointExtensionv1.xsd http://www.garmin.com/xmlschemas/GpxExtensions/v3 http://www8.garmin.com/xmlschemas/GpxExtensionsv3.xsd http://www.garmin.com/xmlschemas/ActivityExtension/v1 http://www8.garmin.com/xmlschemas/ActivityExtensionv1.xsd http://www.garmin.com/xmlschemas/AdventuresExtensions/v1 http://www8.garmin.com/xmlschemas/AdventuresExtensionv1.xsd http://www.garmin.com/xmlschemas/PressureExtension/v1 http://www.garmin.com/xmlschemas/PressureExtensionv1.xsd http://www.garmin.com/xmlschemas/TripExtensions/v1 http://www.garmin.com/xmlschemas/TripExtensionsv1.xsd http://www.garmin.com/xmlschemas/TripMetaDataExtensions/v1 http://www.garmin.com/xmlschemas/TripMetaDataExtensionsv1.xsd http://www.garmin.com/xmlschemas/ViaPointTransportationModeExtensions/v1 http://www.garmin.com/xmlschemas/ViaPointTransportationModeExtensionsv1.xsd http://www.garmin.com/xmlschemas/CreationTimeExtension/v1 http://www.garmin.com/xmlschemas/CreationTimeExtensionsv1.xsd http://www.garmin.com/xmlschemas/AccelerationExtension/v1 http://www.garmin.com/xmlschemas/AccelerationExtensionv1.xsd http://www.garmin.com/xmlschemas/PowerExtension/v1 http://www.garmin.com/xmlschemas/PowerExtensionv1.xsd http://www.garmin.com/xmlschemas/VideoExtension/v1 http://www.garmin.com/xmlschemas/VideoExtensionv1.xsd" xmlns="http://www.topografix.com/GPX/1/1" xmlns:xsi="http://www.w3.org/2001/XMLSchema-instance" xmlns:wptx1="http://www.garmin.com/xmlschemas/WaypointExtension/v1" xmlns:gpxtrx="http://www.garmin.com/xmlschemas/GpxExtensions/v3" xmlns:gpxtpx="http://www.garmin.com/xmlschemas/TrackPointExtension/v1" xmlns:gpxx="http://www.garmin.com/xmlschemas/GpxExtensions/v3" xmlns:trp="http://www.garmin.com/xmlschemas/TripExtensions/v1" xmlns:adv="http://www.garmin.com/xmlschemas/AdventuresExtensions/v1" xmlns:prs="http://www.garmin.com/xmlschemas/PressureExtension/v1" xmlns:tmd="http://www.garmin.com/xmlschemas/TripMetaDataExtensions/v1" xmlns:vptm="http://www.garmin.com/xmlschemas/ViaPointTransportationModeExtensions/v1" xmlns:ctx="http://www.garmin.com/xmlschemas/CreationTimeExtension/v1" xmlns:gpxacc="http://www.garmin.com/xmlschemas/AccelerationExtension/v1" xmlns:gpxpx="http://www.garmin.com/xmlschemas/PowerExtension/v1" xmlns:vidx1="http://www.garmin.com/xmlschemas/VideoExtension/v1">

  <metadata>
    <link href="http://www.garmin.com">
      <text>Garmin International</text>
    </link>
    <time>2019-08-31T19:47:09Z</time>
    <bounds maxlat="56.395081020891666" maxlon="-1.452484996989369" minlat="54.993169996887445" minlon="-3.437700038775802" />
  </metadata>

  <trk>
    <name>Track vom: 2019-08-31 10:12</name>
    <extensions>
      <gpxx:TrackExtension>
        <gpxx:DisplayColor>DarkGray</gpxx:DisplayColor>
      </gpxx:TrackExtension>
    </extensions>
    <trkseg>
      <trkpt lat="54.993254989385605" lon="-1.452513998374343">
        <ele>13.6</ele>
        <time>2019-08-31T09:12:22Z</time>
      </trkpt>
      <trkpt lat="54.993293965235353" lon="-1.452484996989369">
        <ele>9.75</ele>
        <time>2019-08-31T09:12:47Z</time>
      </trkpt>
      <trkpt lat="54.993277033790946" lon="-1.452521961182356">
        <ele>9.75</ele>
        <time>2019-08-31T09:13:29Z</time>
      </trkpt>
      <trkpt lat="54.993169996887445" lon="-1.452675014734268">
        <ele>9.75</ele>
        <time>2019-08-31T09:13:31Z</time>
      </trkpt>
      <trkpt lat="54.993181983008981" lon="-1.452709967270494">
        <ele>9.75</ele>
        <time>2019-08-31T09:13:32Z</time>
      </trkpt>
      <trkpt lat="54.99320100992918" lon="-1.452763024717569">
        <ele>10.23</ele>
        <time>2019-08-31T09:13:33Z</time>
      </trkpt>
      <trkpt lat="54.993224982172251" lon="-1.452832007780671">
        <ele>10.23</ele>
        <time>2019-08-31T09:13:34Z</time>
      </trkpt>
      <trkpt lat="54.993356997147202" lon="-1.453214976936579">
        <ele>11.19</ele>
        <time>2019-08-31T09:13:38Z</time>
      </trkpt>
      <trkpt lat="54.993387004360557" lon="-1.453299969434738">
        <ele>11.19</ele>
        <time>2019-08-31T09:13:39Z</time>
      </trkpt>
      <trkpt lat="54.99339597299695" lon="-1.453327964991331">
        <ele>11.67</ele>
        <time>2019-08-31T09:13:40Z</time>
      </trkpt>
      <trkpt lat="54.99341499991715" lon="-1.453411029651761">
        <ele>11.67</ele>
        <time>2019-08-31T09:13:41Z</time>
      </trkpt>
      <trkpt lat="54.993425980210304" lon="-1.453461991623044">
        <ele>11.67</ele>
        <time>2019-08-31T09:13:42Z</time>
      </trkpt>
      <trkpt lat="54.99343603849411" lon="-1.453502979129553">
        <ele>11.67</ele>
        <time>2019-08-31T09:13:43Z</time>
      </trkpt>
      <trkpt lat="54.993445007130504" lon="-1.453547989949584">
        <ele>11.19</ele>
        <time>2019-08-31T09:13:44Z</time>
      </trkpt>
      <trkpt lat="54.993456993252039" lon="-1.453600963577628">
        <ele>11.19</ele>
        <time>2019-08-31T09:13:45Z</time>
      </trkpt>
      <trkpt lat="54.993470991030335" lon="-1.453659972175956">
        <ele>10.710000000000001</ele>
        <time>2019-08-31T09:13:46Z</time>
      </trkpt>
      <trkpt lat="54.993482977151871" lon="-1.453717974945903">
        <ele>11.19</ele>
        <time>2019-08-31T09:13:47Z</time>
      </trkpt>
      <trkpt lat="54.993494041264057" lon="-1.453766003251076">
        <ele>11.19</ele>
        <time>2019-08-31T09:13:48Z</time>
      </trkpt>
      <trkpt lat="54.993537040427327" lon="-1.453958032652736">
        <ele>12.630000000000001</ele>
        <time>2019-08-31T09:13:53Z</time>
      </trkpt>
      <trkpt lat="54.993554977700114" lon="-1.454037996008992">
        <ele>12.630000000000001</ele>
        <time>2019-08-31T09:13:54Z</time>
      </trkpt>
      <trkpt lat="54.993820013478398" lon="-1.455226968973875">
        <ele>14.56</ele>
        <time>2019-08-31T09:14:02Z</time>
      </trkpt>
      <trkpt lat="54.993913974612951" lon="-1.455970024690032">
        <ele>16.48</ele>
        <time>2019-08-31T09:14:07Z</time>
      </trkpt>
      <trkpt lat="54.993922021239996" lon="-1.456128023564816">
        <ele>16.960000000000001</ele>
        <time>2019-08-31T09:14:08Z</time>
      </trkpt>
      <trkpt lat="54.99393098987639" lon="-1.456285016611219">
        <ele>16.960000000000001</ele>
        <time>2019-08-31T09:14:09Z</time>
      </trkpt>
      <trkpt lat="54.99395202845335" lon="-1.456673014909029">
        <ele>17.920000000000002</ele>
        <time>2019-08-31T09:14:12Z</time>
      </trkpt>
      <trkpt lat="54.993957979604602" lon="-1.456777034327388">
        <ele>18.399999999999999</ele>
        <time>2019-08-31T09:14:13Z</time>
      </trkpt>
      <trkpt lat="54.993996033445001" lon="-1.457329988479614">
        <ele>18.879999999999999</ele>
        <time>2019-08-31T09:14:21Z</time>
      </trkpt>
      <trkpt lat="54.994003996253014" lon="-1.457413975149393">
        <ele>19.359999999999999</ele>
        <time>2019-08-31T09:14:22Z</time>
      </trkpt>
      <trkpt lat="54.994018999859691" lon="-1.45757700316608">
        <ele>19.359999999999999</ele>
        <time>2019-08-31T09:14:23Z</time>
      </trkpt>
      <trkpt lat="54.994040038436651" lon="-1.45766300149262">
        <ele>19.359999999999999</ele>
        <time>2019-08-31T09:14:24Z</time>
      </trkpt>
      <trkpt lat="54.994065016508102" lon="-1.457760985940695">
        <ele>18.879999999999999</ele>
        <time>2019-08-31T09:14:25Z</time>
      </trkpt>
      <trkpt lat="54.994088988751173" lon="-1.45785796456039">
        <ele>18.879999999999999</ele>
        <time>2019-08-31T09:14:26Z</time>
      </trkpt>
      <trkpt lat="54.994163000956178" lon="-1.458154013380408">
        <ele>18.879999999999999</ele>
        <time>2019-08-31T09:14:29Z</time>
      </trkpt>
      <trkpt lat="54.994192002341151" lon="-1.458270018920302">
        <ele>18.879999999999999</ele>
        <time>2019-08-31T09:14:30Z</time>
      </trkpt>
      <trkpt lat="54.994223015382886" lon="-1.458392981439829">
        <ele>18.879999999999999</ele>
        <time>2019-08-31T09:14:31Z</time>
      </trkpt>
      <trkpt lat="54.994523003697395" lon="-1.459660995751619">
        <ele>19.84</ele>
        <time>2019-08-31T09:14:41Z</time>
      </trkpt>
      <trkpt lat="54.99457698315382" lon="-1.459743976593018">
        <ele>20.809999999999999</ele>
        <time>2019-08-31T09:14:44Z</time>
      </trkpt>
      <trkpt lat="54.99457698315382" lon="-1.459743976593018">
        <ele>20.809999999999999</ele>
        <time>2019-08-31T09:14:45Z</time>
      </trkpt>
      <trkpt lat="54.994962969794869" lon="-1.460023010149598">
        <ele>20.32</ele>
        <time>2019-08-31T09:14:46Z</time>
      </trkpt>
      <trkpt lat="54.994958024471998" lon="-1.460059974342585">
        <ele>20.32</ele>
        <time>2019-08-31T09:14:47Z</time>
      </trkpt>
      <trkpt lat="54.994962969794869" lon="-1.460023010149598">
        <ele>19.84</ele>
        <time>2019-08-31T09:14:49Z</time>
      </trkpt>
      <trkpt lat="54.994952995330095" lon="-1.460102973505855">
        <ele>19.84</ele>
        <time>2019-08-31T09:14:50Z</time>
      </trkpt>
      <trkpt lat="54.994954001158476" lon="-1.460245968773961">
        <ele>19.84</ele>
        <time>2019-08-31T09:14:51Z</time>
      </trkpt>
      <trkpt lat="54.99498400837183" lon="-1.460365997627378">
        <ele>19.84</ele>
        <time>2019-08-31T09:14:52Z</time>
      </trkpt>
      <trkpt lat="54.995051985606551" lon="-1.460445960983634">
        <ele>19.359999999999999</ele>
        <time>2019-08-31T09:14:53Z</time>
      </trkpt>
      <trkpt lat="54.995128009468317" lon="-1.460561966523528">
        <ele>18.879999999999999</ele>
        <time>2019-08-31T09:14:54Z</time>
      </trkpt>
      <trkpt lat="54.995174026116729" lon="-1.460699010640383">
        <ele>18.879999999999999</ele>
        <time>2019-08-31T09:14:55Z</time>
      </trkpt>
      <trkpt lat="54.99522197060287" lon="-1.46084401756525">
        <ele>18.399999999999999</ele>
        <time>2019-08-31T09:14:56Z</time>
      </trkpt>
      <trkpt lat="54.995272010564804" lon="-1.460992963984609">
        <ele>17.920000000000002</ele>
        <time>2019-08-31T09:14:57Z</time>
      </trkpt>
      <trkpt lat="54.995320038869977" lon="-1.461148029193282">
        <ele>17.920000000000002</ele>
        <time>2019-08-31T09:14:58Z</time>
      </trkpt>
      <trkpt lat="54.995489018037915" lon="-1.46180902607739">
        <ele>16.960000000000001</ele>
        <time>2019-08-31T09:15:02Z</time>
      </trkpt>
      <trkpt lat="54.995702002197504" lon="-1.462640007957816">
        <ele>17.920000000000002</ele>
        <time>2019-08-31T09:15:10Z</time>
      </trkpt>
      <trkpt lat="54.995844997465611" lon="-1.463304022327066">
        <ele>17.920000000000002</ele>
        <time>2019-08-31T09:15:21Z</time>
      </trkpt>
      <trkpt lat="54.995863018557429" lon="-1.463383985683322">
        <ele>18.399999999999999</ele>
        <time>2019-08-31T09:15:22Z</time>
      </trkpt>
      <trkpt lat="54.995881961658597" lon="-1.46346403285861">
        <ele>18.399999999999999</ele>
        <time>2019-08-31T09:15:23Z</time>
      </trkpt>
      <trkpt lat="54.995912974700332" lon="-1.463905004784465">
        <ele>19.359999999999999</ele>
        <time>2019-08-31T09:15:27Z</time>
      </trkpt>
      <trkpt lat="54.995949016883969" lon="-1.464035008102655">
        <ele>19.359999999999999</ele>
        <time>2019-08-31T09:15:28Z</time>
      </trkpt>
      <trkpt lat="54.996021017432213" lon="-1.464120000600815">
        <ele>18.879999999999999</ele>
        <time>2019-08-31T09:15:29Z</time>
      </trkpt>
      <trkpt lat="54.996112966910005" lon="-1.464385036379099">
        <ele>18.879999999999999</ele>
        <time>2019-08-31T09:15:31Z</time>
      </trkpt>
      <trkpt lat="54.996160995215178" lon="-1.464524008333683">
        <ele>18.879999999999999</ele>
        <time>2019-08-31T09:15:32Z</time>
      </trkpt>
      <trkpt lat="54.996514962986112" lon="-1.466040965169668">
        <ele>23.690000000000001</ele>
        <time>2019-08-31T09:15:43Z</time>
      </trkpt>
      <trkpt lat="54.996614037081599" lon="-1.466617975383997">
        <ele>27.530000000000001</ele>
        <time>2019-08-31T09:15:49Z</time>
      </trkpt>
      <trkpt lat="54.996603978797793" lon="-1.466814028099179">
        <ele>28.98</ele>
        <time>2019-08-31T09:15:52Z</time>
      </trkpt>
      <trkpt lat="54.996600961312652" lon="-1.466887034475803">
        <ele>29.460000000000001</ele>
        <time>2019-08-31T09:15:53Z</time>
      </trkpt>
      <trkpt lat="54.996551005169749" lon="-1.467060958966613">
        <ele>29.940000000000001</ele>
        <time>2019-08-31T09:15:54Z</time>
      </trkpt>
      <trkpt lat="54.996551005169749" lon="-1.467060958966613">
        <ele>29.940000000000001</ele>
        <time>2019-08-31T09:15:55Z</time>
      </trkpt>
      <trkpt lat="54.996542958542705" lon="-1.467106975615025">
        <ele>30.420000000000002</ele>
        <time>2019-08-31T09:15:56Z</time>
      </trkpt>
      <trkpt lat="54.996527032926679" lon="-1.46720303222537">
        <ele>30.420000000000002</ele>
        <time>2019-08-31T09:15:57Z</time>
      </trkpt>
      <trkpt lat="54.99650901183486" lon="-1.46731099113822">
        <ele>30.420000000000002</ele>
        <time>2019-08-31T09:15:58Z</time>
      </trkpt>
      <trkpt lat="54.996539019048214" lon="-1.467442000284791">
        <ele>30.899999999999999</ele>
        <time>2019-08-31T09:15:59Z</time>
      </trkpt>
      <trkpt lat="54.99657497741282" lon="-1.467587007209659">
        <ele>30.899999999999999</ele>
        <time>2019-08-31T09:16:00Z</time>
      </trkpt>
      <trkpt lat="54.996609007939696" lon="-1.467751963064075">
        <ele>31.379999999999999</ele>
        <time>2019-08-31T09:16:01Z</time>
      </trkpt>
      <trkpt lat="54.99663800932467" lon="-1.467925971373916">
        <ele>31.379999999999999</ele>
        <time>2019-08-31T09:16:02Z</time>
      </trkpt>
      <trkpt lat="54.996657958254218" lon="-1.468100985512137">
        <ele>31.379999999999999</ele>
        <time>2019-08-31T09:16:03Z</time>
      </trkpt>
      <trkpt lat="54.996657958254218" lon="-1.468297960236669">
        <ele>31.379999999999999</ele>
        <time>2019-08-31T09:16:04Z</time>
      </trkpt>
      <trkpt lat="54.99663800932467" lon="-1.468484038487077">
        <ele>31.379999999999999</ele>
        <time>2019-08-31T09:16:05Z</time>
      </trkpt>
      <trkpt lat="54.996594004333019" lon="-1.468682019039989">
        <ele>31.859999999999999</ele>
        <time>2019-08-31T09:16:06Z</time>
      </trkpt>
      <trkpt lat="54.996548993512988" lon="-1.468886034563184">
        <ele>31.379999999999999</ele>
        <time>2019-08-31T09:16:07Z</time>
      </trkpt>
      <trkpt lat="54.996502976864576" lon="-1.469096001237631">
        <ele>31.379999999999999</ele>
        <time>2019-08-31T09:16:08Z</time>
      </trkpt>
      <trkpt lat="54.996453020721674" lon="-1.46930898539722">
        <ele>31.379999999999999</ele>
        <time>2019-08-31T09:16:09Z</time>
      </trkpt>
      <trkpt lat="54.995710970833898" lon="-1.471814000979066">
        <ele>29.940000000000001</ele>
        <time>2019-08-31T09:16:21Z</time>
      </trkpt>
      <trkpt lat="54.995383992791176" lon="-1.473034992814064">
        <ele>30.420000000000002</ele>
        <time>2019-08-31T09:16:29Z</time>
      </trkpt>
      <trkpt lat="54.995344011113048" lon="-1.473141023889184">
        <ele>30.420000000000002</ele>
        <time>2019-08-31T09:16:30Z</time>
      </trkpt>
      <trkpt lat="54.995293971151114" lon="-1.473229033872485">
        <ele>30.899999999999999</ele>
        <time>2019-08-31T09:16:31Z</time>
      </trkpt>
      <trkpt lat="54.995243009179831" lon="-1.473315032199025">
        <ele>30.899999999999999</ele>
        <time>2019-08-31T09:16:32Z</time>
      </trkpt>
      <trkpt lat="54.995176959782839" lon="-1.4734130166471">
        <ele>30.899999999999999</ele>
        <time>2019-08-31T09:16:33Z</time>
      </trkpt>
      <trkpt lat="54.995104037225246" lon="-1.473486023023725">
        <ele>30.420000000000002</ele>
        <time>2019-08-31T09:16:34Z</time>
      </trkpt>
      <trkpt lat="54.995058020576835" lon="-1.473562968894839">
        <ele>30.420000000000002</ele>
        <time>2019-08-31T09:16:35Z</time>
      </trkpt>
      <trkpt lat="54.995026001706719" lon="-1.473681991919875">
        <ele>30.420000000000002</ele>
        <time>2019-08-31T09:16:36Z</time>
      </trkpt>
      <trkpt lat="54.995022984221578" lon="-1.473815012723208">
        <ele>29.940000000000001</ele>
        <time>2019-08-31T09:16:37Z</time>
      </trkpt>
      <trkpt lat="54.995061960071325" lon="-1.473952978849411">
        <ele>29.940000000000001</ele>
        <time>2019-08-31T09:16:38Z</time>
      </trkpt>
      <trkpt lat="54.995103031396866" lon="-1.474111983552575">
        <ele>29.940000000000001</ele>
        <time>2019-08-31T09:16:39Z</time>
      </trkpt>
      <trkpt lat="54.995137983933091" lon="-1.474280962720513">
        <ele>29.940000000000001</ele>
        <time>2019-08-31T09:16:40Z</time>
      </trkpt>
      <trkpt lat="54.99517603777349" lon="-1.474460000172257">
        <ele>29.940000000000001</ele>
        <time>2019-08-31T09:16:41Z</time>
      </trkpt>
      <trkpt lat="54.995203027501702" lon="-1.474662004038692">
        <ele>29.940000000000001</ele>
        <time>2019-08-31T09:16:42Z</time>
      </trkpt>
      <trkpt lat="54.995232028886676" lon="-1.476554973050952">
        <ele>29.940000000000001</ele>
        <time>2019-08-31T09:16:49Z</time>
      </trkpt>
      <trkpt lat="54.995207972824574" lon="-1.478790007531643">
        <ele>30.899999999999999</ele>
        <time>2019-08-31T09:16:59Z</time>
      </trkpt>
      <trkpt lat="54.995231023058295" lon="-1.479503978043795">
        <ele>31.379999999999999</ele>
        <time>2019-08-31T09:17:03Z</time>
      </trkpt>
      <trkpt lat="54.995235968381166" lon="-1.479654014110565">
        <ele>31.859999999999999</ele>
        <time>2019-08-31T09:17:04Z</time>
      </trkpt>
      <trkpt lat="54.995291037485003" lon="-1.480064978823066">
        <ele>32.82</ele>
        <time>2019-08-31T09:17:07Z</time>
      </trkpt>
      <trkpt lat="54.995316015556455" lon="-1.480187019333243">
        <ele>32.82</ele>
        <time>2019-08-31T09:17:08Z</time>
      </trkpt>
      <trkpt lat="54.99532800167799" lon="-1.480407966300845">
        <ele>33.299999999999997</ele>
        <time>2019-08-31T09:17:09Z</time>
      </trkpt>
      <trkpt lat="54.995321966707706" lon="-1.48048197850585">
        <ele>33.299999999999997</ele>
        <time>2019-08-31T09:17:10Z</time>
      </trkpt>
      <trkpt lat="54.995312998071313" lon="-1.480618016794324">
        <ele>33.780000000000001</ele>
        <time>2019-08-31T09:17:11Z</time>
      </trkpt>
      <trkpt lat="54.995334958657622" lon="-1.480759000405669">
        <ele>33.299999999999997</ele>
        <time>2019-08-31T09:17:12Z</time>
      </trkpt>
      <trkpt lat="54.995383992791176" lon="-1.480843992903829">
        <ele>33.299999999999997</ele>
        <time>2019-08-31T09:17:13Z</time>
      </trkpt>
      <trkpt lat="54.995449958369136" lon="-1.480886992067099">
        <ele>33.299999999999997</ele>
        <time>2019-08-31T09:17:14Z</time>
      </trkpt>
      <trkpt lat="54.995519025251269" lon="-1.480922028422356">
        <ele>33.299999999999997</ele>
        <time>2019-08-31T09:17:15Z</time>
      </trkpt>
      <trkpt lat="54.995596976950765" lon="-1.480865031480789">
        <ele>33.299999999999997</ele>
        <time>2019-08-31T09:17:16Z</time>
      </trkpt>
      <trkpt lat="54.995680041611195" lon="-1.480769980698824">
        <ele>33.299999999999997</ele>
        <time>2019-08-31T09:17:17Z</time>
      </trkpt>
      <trkpt lat="54.995777020230889" lon="-1.480741985142231">
        <ele>33.299999999999997</ele>
        <time>2019-08-31T09:17:18Z</time>
      </trkpt>
      <trkpt lat="54.995890008285642" lon="-1.480708960443735">
        <ele>33.780000000000001</ele>
        <time>2019-08-31T09:17:19Z</time>
      </trkpt>
      <trkpt lat="54.996010959148407" lon="-1.48067400790751">
        <ele>33.780000000000001</ele>
        <time>2019-08-31T09:17:20Z</time>
      </trkpt>
      <trkpt lat="54.99696297571063" lon="-1.480210991576314">
        <ele>36.670000000000002</ele>
        <time>2019-08-31T09:17:28Z</time>
      </trkpt>
      <trkpt lat="54.998216992244124" lon="-1.47981402464211">
        <ele>42.439999999999998</ele>
        <time>2019-08-31T09:17:40Z</time>
      </trkpt>
      <trkpt lat="54.998665004968643" lon="-1.479891976341605">
        <ele>44.840000000000003</ele>
        <time>2019-08-31T09:17:47Z</time>
      </trkpt>
      <trkpt lat="54.999004974961281" lon="-1.480003958567977">
        <ele>45.799999999999997</ele>
        <time>2019-08-31T09:17:59Z</time>
      </trkpt>
      <trkpt lat="54.999389033764601" lon="-1.480217026546598">
        <ele>44.840000000000003</ele>
        <time>2019-08-31T09:18:13Z</time>
      </trkpt>
      <trkpt lat="54.999733027070761" lon="-1.480479966849089">
        <ele>43.880000000000003</ele>
        <time>2019-08-31T09:18:27Z</time>
      </trkpt>
      <trkpt lat="55.000104010105133" lon="-1.480866959318519">
        <ele>41.469999999999999</ele>
        <time>2019-08-31T09:18:44Z</time>
      </trkpt>
      <trkpt lat="55.000412967056036" lon="-1.481338022276759">
        <ele>40.030000000000001</ele>
        <time>2019-08-31T09:18:59Z</time>
      </trkpt>
      <trkpt lat="55.000412967056036" lon="-1.481419997289777">
        <ele>40.030000000000001</ele>
        <time>2019-08-31T09:19:03Z</time>
      </trkpt>
      <trkpt lat="55.000423025339842" lon="-1.481486968696117">
        <ele>40.030000000000001</ele>
        <time>2019-08-31T09:19:04Z</time>
      </trkpt>
      <trkpt lat="55.000435011461377" lon="-1.481660977005959">
        <ele>40.030000000000001</ele>
        <time>2019-08-31T09:19:05Z</time>
      </trkpt>
      <trkpt lat="55.000435011461377" lon="-1.481841020286083">
        <ele>40.030000000000001</ele>
        <time>2019-08-31T09:19:06Z</time>
      </trkpt>
      <trkpt lat="55.000421013683081" lon="-1.482043024152517">
        <ele>39.549999999999997</ele>
        <time>2019-08-31T09:19:07Z</time>
      </trkpt>
      <trkpt lat="55.000403998419642" lon="-1.482258019968867">
        <ele>39.07</ele>
        <time>2019-08-31T09:19:08Z</time>
      </trkpt>
      <trkpt lat="55.000383965671062" lon="-1.48247997276485">
        <ele>39.07</ele>
        <time>2019-08-31T09:19:09Z</time>
      </trkpt>
      <trkpt lat="55.000354964286089" lon="-1.48269597440958">
        <ele>38.590000000000003</ele>
        <time>2019-08-31T09:19:10Z</time>
      </trkpt>
      <trkpt lat="55.00011800788343" lon="-1.484363973140717">
        <ele>40.030000000000001</ele>
        <time>2019-08-31T09:19:20Z</time>
      </trkpt>
      <trkpt lat="55.000080959871411" lon="-1.484508980065584">
        <ele>40.030000000000001</ele>
        <time>2019-08-31T09:19:22Z</time>
      </trkpt>
      <trkpt lat="55.000063022598624" lon="-1.484573017805815">
        <ele>40.030000000000001</ele>
        <time>2019-08-31T09:19:23Z</time>
      </trkpt>
      <trkpt lat="55.000042989850044" lon="-1.484643006697297">
        <ele>40.030000000000001</ele>
        <time>2019-08-31T09:19:24Z</time>
      </trkpt>
      <trkpt lat="55.000023040920496" lon="-1.484704026952386">
        <ele>40.030000000000001</ele>
        <time>2019-08-31T09:19:25Z</time>
      </trkpt>
      <trkpt lat="54.999978030100465" lon="-1.484767980873585">
        <ele>40.030000000000001</ele>
        <time>2019-08-31T09:19:26Z</time>
      </trkpt>
      <trkpt lat="54.999927990138531" lon="-1.484836963936687">
        <ele>40.030000000000001</ele>
        <time>2019-08-31T09:19:27Z</time>
      </trkpt>
      <trkpt lat="54.999875016510487" lon="-1.484911981970072">
        <ele>40.030000000000001</ele>
        <time>2019-08-31T09:19:28Z</time>
      </trkpt>
      <trkpt lat="54.99981801956892" lon="-1.484991023316979">
        <ele>40.030000000000001</ele>
        <time>2019-08-31T09:19:29Z</time>
      </trkpt>
      <trkpt lat="54.999660020694137" lon="-1.485081966966391">
        <ele>39.549999999999997</ele>
        <time>2019-08-31T09:19:31Z</time>
      </trkpt>
      <trkpt lat="54.999590031802654" lon="-1.485169976949692">
        <ele>39.07</ele>
        <time>2019-08-31T09:19:32Z</time>
      </trkpt>
      <trkpt lat="54.999534040689468" lon="-1.485301991924644">
        <ele>39.07</ele>
        <time>2019-08-31T09:19:33Z</time>
      </trkpt>
      <trkpt lat="54.999501015990973" lon="-1.485442975535989">
        <ele>38.590000000000003</ele>
        <time>2019-08-31T09:19:34Z</time>
      </trkpt>
      <trkpt lat="54.999468997120857" lon="-1.485582031309605">
        <ele>38.590000000000003</ele>
        <time>2019-08-31T09:19:35Z</time>
      </trkpt>
      <trkpt lat="54.999437984079123" lon="-1.485716979950666">
        <ele>38.109999999999999</ele>
        <time>2019-08-31T09:19:36Z</time>
      </trkpt>
      <trkpt lat="54.999299012124538" lon="-1.486370014026761">
        <ele>37.630000000000003</ele>
        <time>2019-08-31T09:19:41Z</time>
      </trkpt>
      <trkpt lat="54.999244026839733" lon="-1.486710989847779">
        <ele>37.149999999999999</ele>
        <time>2019-08-31T09:19:44Z</time>
      </trkpt>
      <trkpt lat="54.999226005747914" lon="-1.48681903257966">
        <ele>37.149999999999999</ele>
        <time>2019-08-31T09:19:45Z</time>
      </trkpt>
      <trkpt lat="54.999226005747914" lon="-1.486961022019386">
        <ele>37.149999999999999</ele>
        <time>2019-08-31T09:19:46Z</time>
      </trkpt>
      <trkpt lat="54.999254001304507" lon="-1.487060012295842">
        <ele>36.670000000000002</ele>
        <time>2019-08-31T09:19:47Z</time>
      </trkpt>
      <trkpt lat="54.999342011287808" lon="-1.487168977037072">
        <ele>36.670000000000002</ele>
        <time>2019-08-31T09:19:48Z</time>
      </trkpt>
      <trkpt lat="54.999418035149574" lon="-1.487264027819037">
        <ele>36.670000000000002</ele>
        <time>2019-08-31T09:19:49Z</time>
      </trkpt>
      <trkpt lat="54.999522976577282" lon="-1.487261010333896">
        <ele>37.149999999999999</ele>
        <time>2019-08-31T09:19:50Z</time>
      </trkpt>
      <trkpt lat="54.999640993773937" lon="-1.487188003957272">
        <ele>37.149999999999999</ele>
        <time>2019-08-31T09:19:51Z</time>
      </trkpt>
      <trkpt lat="54.999705031514168" lon="-1.487170988693833">
        <ele>37.149999999999999</ele>
        <time>2019-08-31T09:19:52Z</time>
      </trkpt>
      <trkpt lat="54.999793963506818" lon="-1.487148022279143">
        <ele>37.149999999999999</ele>
        <time>2019-08-31T09:19:53Z</time>
      </trkpt>
      <trkpt lat="54.999887002632022" lon="-1.48712296038866">
        <ele>37.149999999999999</ele>
        <time>2019-08-31T09:19:54Z</time>
      </trkpt>
      <trkpt lat="54.999988004565239" lon="-1.487108962610364">
        <ele>37.149999999999999</ele>
        <time>2019-08-31T09:19:55Z</time>
      </trkpt>
      <trkpt lat="55.000099986791611" lon="-1.487136958166957">
        <ele>37.630000000000003</ele>
        <time>2019-08-31T09:19:56Z</time>
      </trkpt>
      <trkpt lat="55.000209035351872" lon="-1.487194960936904">
        <ele>37.630000000000003</ele>
        <time>2019-08-31T09:19:57Z</time>
      </trkpt>
      <trkpt lat="55.000321017578244" lon="-1.487269978970289">
        <ele>37.630000000000003</ele>
        <time>2019-08-31T09:19:58Z</time>
      </trkpt>
      <trkpt lat="55.000438028946519" lon="-1.487348014488816">
        <ele>37.630000000000003</ele>
        <time>2019-08-31T09:19:59Z</time>
      </trkpt>
      <trkpt lat="55.001750970259309" lon="-1.488504968583584">
        <ele>35.710000000000001</ele>
        <time>2019-08-31T09:20:11Z</time>
      </trkpt>
      <trkpt lat="55.002765012905002" lon="-1.489964006468654">
        <ele>40.030000000000001</ele>
        <time>2019-08-31T09:20:20Z</time>
      </trkpt>
      <trkpt lat="55.004499983042479" lon="-1.492461981251836">
        <ele>46.280000000000001</ele>
        <time>2019-08-31T09:20:33Z</time>
      </trkpt>
      <trkpt lat="55.006339978426695" lon="-1.495085014030337">
        <ele>49.649999999999999</ele>
        <time>2019-08-31T09:20:46Z</time>
      </trkpt>
      <trkpt lat="55.008449032902718" lon="-1.497547030448914">
        <ele>46.280000000000001</ele>
        <time>2019-08-31T09:20:59Z</time>
      </trkpt>
      <trkpt lat="55.009489981457591" lon="-1.498560989275575">
        <ele>42.920000000000002</ele>
        <time>2019-08-31T09:21:05Z</time>
      </trkpt>
      <trkpt lat="55.009620990604162" lon="-1.498741032555699">
        <ele>43.399999999999999</ele>
        <time>2019-08-31T09:21:06Z</time>
      </trkpt>
      <trkpt lat="55.010523973032832" lon="-1.500094961374998">
        <ele>51.57</ele>
        <time>2019-08-31T09:21:13Z</time>
      </trkpt>
      <trkpt lat="55.011523012071848" lon="-1.501577971503139">
        <ele>61.659999999999997</ele>
        <time>2019-08-31T09:21:23Z</time>
      </trkpt>
      <trkpt lat="55.01264400780201" lon="-1.503301961347461">
        <ele>67.909999999999997</ele>
        <time>2019-08-31T09:21:34Z</time>
      </trkpt>
      <trkpt lat="55.014051999896765" lon="-1.5054049808532">
        <ele>72.239999999999995</ele>
        <time>2019-08-31T09:21:45Z</time>
      </trkpt>
      <trkpt lat="55.015749000012875" lon="-1.507721990346909">
        <ele>73.680000000000007</ele>
        <time>2019-08-31T09:21:56Z</time>
      </trkpt>
      <trkpt lat="55.017765015363693" lon="-1.510467985644937">
        <ele>74.159999999999997</ele>
        <time>2019-08-31T09:22:07Z</time>
      </trkpt>
      <trkpt lat="55.019705006852746" lon="-1.513109039515257">
        <ele>75.120000000000005</ele>
        <time>2019-08-31T09:22:18Z</time>
      </trkpt>
      <trkpt lat="55.021438971161842" lon="-1.515427976846695">
        <ele>78</ele>
        <time>2019-08-31T09:22:28Z</time>
      </trkpt>
      <trkpt lat="55.02334401011467" lon="-1.517871972173452">
        <ele>82.329999999999998</ele>
        <time>2019-08-31T09:22:39Z</time>
      </trkpt>
      <trkpt lat="55.025488017126918" lon="-1.52016400359571">
        <ele>82.329999999999998</ele>
        <time>2019-08-31T09:22:51Z</time>
      </trkpt>
      <trkpt lat="55.028384970501065" lon="-1.522846966981888">
        <ele>80.890000000000001</ele>
        <time>2019-08-31T09:23:06Z</time>
      </trkpt>
      <trkpt lat="55.030385982245207" lon="-1.524764997884631">
        <ele>77.519999999999996</ele>
        <time>2019-08-31T09:23:17Z</time>
      </trkpt>
      <trkpt lat="55.032108966261148" lon="-1.527063986286521">
        <ele>72.719999999999999</ele>
        <time>2019-08-31T09:23:28Z</time>
      </trkpt>
      <trkpt lat="55.03340195864439" lon="-1.529355011880398">
        <ele>67.909999999999997</ele>
        <time>2019-08-31T09:23:38Z</time>
      </trkpt>
      <trkpt lat="55.034581962972879" lon="-1.532081980258226">
        <ele>66.469999999999999</ele>
        <time>2019-08-31T09:23:49Z</time>
      </trkpt>
      <trkpt lat="55.035998001694679" lon="-1.53565401211381">
        <ele>68.390000000000001</ele>
        <time>2019-08-31T09:24:04Z</time>
      </trkpt>
      <trkpt lat="55.037002991884947" lon="-1.538101024925709">
        <ele>72.239999999999995</ele>
        <time>2019-08-31T09:24:14Z</time>
      </trkpt>
      <trkpt lat="55.038185007870197" lon="-1.540621966123581">
        <ele>77.519999999999996</ele>
        <time>2019-08-31T09:24:23Z</time>
      </trkpt>
      <trkpt lat="55.039945961907506" lon="-1.543913036584854">
        <ele>83.769999999999996</ele>
        <time>2019-08-31T09:24:35Z</time>
      </trkpt>
      <trkpt lat="55.041364012286067" lon="-1.546373041346669">
        <ele>82.329999999999998</ele>
        <time>2019-08-31T09:24:45Z</time>
      </trkpt>
      <trkpt lat="55.042630014941096" lon="-1.548367012292147">
        <ele>79.450000000000003</ele>
        <time>2019-08-31T09:24:54Z</time>
      </trkpt>
      <trkpt lat="55.044490965083241" lon="-1.550552006810904">
        <ele>77.040000000000006</ele>
        <time>2019-08-31T09:25:05Z</time>
      </trkpt>
      <trkpt lat="55.046544028446078" lon="-1.552151022478938">
        <ele>72.719999999999999</ele>
        <time>2019-08-31T09:25:16Z</time>
      </trkpt>
      <trkpt lat="55.048706978559494" lon="-1.553493971005082">
        <ele>67.430000000000007</ele>
        <time>2019-08-31T09:25:27Z</time>
      </trkpt>
      <trkpt lat="55.050702039152384" lon="-1.555264983326197">
        <ele>61.18</ele>
        <time>2019-08-31T09:25:37Z</time>
      </trkpt>
      <trkpt lat="55.052183037623763" lon="-1.557044964283705">
        <ele>55.409999999999997</ele>
        <time>2019-08-31T09:25:45Z</time>
      </trkpt>
      <trkpt lat="55.052793994545937" lon="-1.557787014171481">
        <ele>53.009999999999998</ele>
        <time>2019-08-31T09:25:51Z</time>
      </trkpt>
      <trkpt lat="55.053450968116522" lon="-1.558605004101992">
        <ele>52.530000000000001</ele>
        <time>2019-08-31T09:26:01Z</time>
      </trkpt>
      <trkpt lat="55.053990008309484" lon="-1.559281004592776">
        <ele>51.57</ele>
        <time>2019-08-31T09:26:12Z</time>
      </trkpt>
      <trkpt lat="55.054167034104466" lon="-1.55950304120779">
        <ele>50.130000000000003</ele>
        <time>2019-08-31T09:26:22Z</time>
      </trkpt>
      <trkpt lat="55.054167034104466" lon="-1.55950304120779">
        <ele>50.130000000000003</ele>
        <time>2019-08-31T09:26:46Z</time>
      </trkpt>
      <trkpt lat="55.054167034104466" lon="-1.55950304120779">
        <ele>50.130000000000003</ele>
        <time>2019-08-31T09:27:33Z</time>
      </trkpt>
      <trkpt lat="55.054335007444024" lon="-1.559714013710618">
        <ele>51.090000000000003</ele>
        <time>2019-08-31T09:27:43Z</time>
      </trkpt>
      <trkpt lat="55.054817972704768" lon="-1.560311978682876">
        <ele>51.57</ele>
        <time>2019-08-31T09:27:49Z</time>
      </trkpt>
      <trkpt lat="55.055811982601881" lon="-1.561551997438073">
        <ele>52.530000000000001</ele>
        <time>2019-08-31T09:27:55Z</time>
      </trkpt>
      <trkpt lat="55.057949032634497" lon="-1.564217023551464">
        <ele>55.890000000000001</ele>
        <time>2019-08-31T09:28:07Z</time>
      </trkpt>
      <trkpt lat="55.059760026633739" lon="-1.566476030275226">
        <ele>58.780000000000001</ele>
        <time>2019-08-31T09:28:17Z</time>
      </trkpt>
      <trkpt lat="55.061743017286062" lon="-1.569208027794957">
        <ele>58.780000000000001</ele>
        <time>2019-08-31T09:28:28Z</time>
      </trkpt>
      <trkpt lat="55.062864013016224" lon="-1.571235023438931">
        <ele>56.859999999999999</ele>
        <time>2019-08-31T09:28:37Z</time>
      </trkpt>
      <trkpt lat="55.063698012381792" lon="-1.573156993836165">
        <ele>56.369999999999997</ele>
        <time>2019-08-31T09:28:47Z</time>
      </trkpt>
      <trkpt lat="55.06446504034102" lon="-1.5752740111202">
        <ele>56.859999999999999</ele>
        <time>2019-08-31T09:28:59Z</time>
      </trkpt>
      <trkpt lat="55.064851026982069" lon="-1.576676974073052">
        <ele>57.340000000000003</ele>
        <time>2019-08-31T09:29:10Z</time>
      </trkpt>
      <trkpt lat="55.065000979229808" lon="-1.577289020642638">
        <ele>57.82</ele>
        <time>2019-08-31T09:29:16Z</time>
      </trkpt>
      <trkpt lat="55.065010031685233" lon="-1.577425980940461">
        <ele>57.82</ele>
        <time>2019-08-31T09:29:17Z</time>
      </trkpt>
      <trkpt lat="55.065017994493246" lon="-1.577553972601891">
        <ele>57.82</ele>
        <time>2019-08-31T09:29:18Z</time>
      </trkpt>
      <trkpt lat="55.065009025856853" lon="-1.577675007283688">
        <ele>57.82</ele>
        <time>2019-08-31T09:29:19Z</time>
      </trkpt>
      <trkpt lat="55.064980024471879" lon="-1.577820014208555">
        <ele>57.340000000000003</ele>
        <time>2019-08-31T09:29:20Z</time>
      </trkpt>
      <trkpt lat="55.06493903696537" lon="-1.577947000041604">
        <ele>57.340000000000003</ele>
        <time>2019-08-31T09:29:21Z</time>
      </trkpt>
      <trkpt lat="55.064901988953352" lon="-1.578124025836587">
        <ele>56.859999999999999</ele>
        <time>2019-08-31T09:29:22Z</time>
      </trkpt>
      <trkpt lat="55.064881034195423" lon="-1.578286970034242">
        <ele>56.859999999999999</ele>
        <time>2019-08-31T09:29:23Z</time>
      </trkpt>
      <trkpt lat="55.064886985346675" lon="-1.578499032184482">
        <ele>56.859999999999999</ele>
        <time>2019-08-31T09:29:24Z</time>
      </trkpt>
      <trkpt lat="55.064937025308609" lon="-1.578686032444239">
        <ele>56.859999999999999</ele>
        <time>2019-08-31T09:29:25Z</time>
      </trkpt>
      <trkpt lat="55.065013971179724" lon="-1.578828021883965">
        <ele>56.859999999999999</ele>
        <time>2019-08-31T09:29:26Z</time>
      </trkpt>
      <trkpt lat="55.065087983384728" lon="-1.578934974968433">
        <ele>56.859999999999999</ele>
        <time>2019-08-31T09:29:27Z</time>
      </trkpt>
      <trkpt lat="55.065165013074875" lon="-1.579045029357076">
        <ele>56.859999999999999</ele>
        <time>2019-08-31T09:29:28Z</time>
      </trkpt>
      <trkpt lat="55.06524296477437" lon="-1.579154999926686">
        <ele>56.859999999999999</ele>
        <time>2019-08-31T09:29:29Z</time>
      </trkpt>
      <trkpt lat="55.065582012757659" lon="-1.579464040696621">
        <ele>56.859999999999999</ele>
        <time>2019-08-31T09:29:33Z</time>
      </trkpt>
      <trkpt lat="55.065601961687207" lon="-1.579478038474917">
        <ele>56.859999999999999</ele>
        <time>2019-08-31T09:29:34Z</time>
      </trkpt>
      <trkpt lat="55.065733976662159" lon="-1.579434033483267">
        <ele>56.859999999999999</ele>
        <time>2019-08-31T09:29:35Z</time>
      </trkpt>
      <trkpt lat="55.065811006352305" lon="-1.579407965764403">
        <ele>56.859999999999999</ele>
        <time>2019-08-31T09:29:36Z</time>
      </trkpt>
      <trkpt lat="55.065873032435775" lon="-1.579377958551049">
        <ele>56.369999999999997</ele>
        <time>2019-08-31T09:29:37Z</time>
      </trkpt>
      <trkpt lat="55.065922988578677" lon="-1.579328002408147">
        <ele>56.369999999999997</ele>
        <time>2019-08-31T09:29:38Z</time>
      </trkpt>
      <trkpt lat="55.065980991348624" lon="-1.579190036281943">
        <ele>56.369999999999997</ele>
        <time>2019-08-31T09:29:39Z</time>
      </trkpt>
      <trkpt lat="55.066031031310558" lon="-1.579070007428527">
        <ele>56.369999999999997</ele>
        <time>2019-08-31T09:29:40Z</time>
      </trkpt>
      <trkpt lat="55.066050980240107" lon="-1.578929023817182">
        <ele>55.890000000000001</ele>
        <time>2019-08-31T09:29:41Z</time>
      </trkpt>
      <trkpt lat="55.066073024645448" lon="-1.578773036599159">
        <ele>55.890000000000001</ele>
        <time>2019-08-31T09:29:42Z</time>
      </trkpt>
      <trkpt lat="55.066074030473828" lon="-1.578645966947079">
        <ele>55.409999999999997</ele>
        <time>2019-08-31T09:29:43Z</time>
      </trkpt>
      <trkpt lat="55.066161034628749" lon="-1.578356958925724">
        <ele>55.409999999999997</ele>
        <time>2019-08-31T09:29:45Z</time>
      </trkpt>
      <trkpt lat="55.066218031570315" lon="-1.578231984749436">
        <ele>54.93</ele>
        <time>2019-08-31T09:29:46Z</time>
      </trkpt>
      <trkpt lat="55.066288020461798" lon="-1.578111033886671">
        <ele>54.93</ele>
        <time>2019-08-31T09:29:47Z</time>
      </trkpt>
      <trkpt lat="55.066368989646435" lon="-1.577986981719732">
        <ele>54.93</ele>
        <time>2019-08-31T09:29:48Z</time>
      </trkpt>
      <trkpt lat="55.066478960216045" lon="-1.577915986999869">
        <ele>54.93</ele>
        <time>2019-08-31T09:29:49Z</time>
      </trkpt>
      <trkpt lat="55.066598989069462" lon="-1.577838035300374">
        <ele>54.93</ele>
        <time>2019-08-31T09:29:50Z</time>
      </trkpt>
      <trkpt lat="55.066727986559272" lon="-1.577754970639944">
        <ele>54.93</ele>
        <time>2019-08-31T09:29:51Z</time>
      </trkpt>
      <trkpt lat="55.067870020866394" lon="-1.576980985701084">
        <ele>54.93</ele>
        <time>2019-08-31T09:29:58Z</time>
      </trkpt>
      <trkpt lat="55.069480016827583" lon="-1.575830988585949">
        <ele>55.890000000000001</ele>
        <time>2019-08-31T09:30:08Z</time>
      </trkpt>
      <trkpt lat="55.071156984195113" lon="-1.574631035327911">
        <ele>56.859999999999999</ele>
        <time>2019-08-31T09:30:18Z</time>
      </trkpt>
      <trkpt lat="55.073249023407698" lon="-1.573134027421475">
        <ele>57.82</ele>
        <time>2019-08-31T09:30:30Z</time>
      </trkpt>
      <trkpt lat="55.075795026496053" lon="-1.571311969310045">
        <ele>61.659999999999997</ele>
        <time>2019-08-31T09:30:45Z</time>
      </trkpt>
      <trkpt lat="55.07785496301949" lon="-1.56983700580895">
        <ele>64.069999999999993</ele>
        <time>2019-08-31T09:30:58Z</time>
      </trkpt>
      <trkpt lat="55.079899979755282" lon="-1.568520963191986">
        <ele>64.069999999999993</ele>
        <time>2019-08-31T09:31:08Z</time>
      </trkpt>
      <trkpt lat="55.082166027277708" lon="-1.567633990198374">
        <ele>63.579999999999998</ele>
        <time>2019-08-31T09:31:18Z</time>
      </trkpt>
      <trkpt lat="55.08477003313601" lon="-1.567312963306904">
        <ele>53.490000000000002</ele>
        <time>2019-08-31T09:31:29Z</time>
      </trkpt>
      <trkpt lat="55.087045971304178" lon="-1.56721699051559">
        <ele>51.57</ele>
        <time>2019-08-31T09:31:39Z</time>
      </trkpt>
      <trkpt lat="55.089667998254299" lon="-1.567106014117599">
        <ele>48.68</ele>
        <time>2019-08-31T09:31:51Z</time>
      </trkpt>
      <trkpt lat="55.093270037323236" lon="-1.566953966394067">
        <ele>43.880000000000003</ele>
        <time>2019-08-31T09:32:08Z</time>
      </trkpt>
      <trkpt lat="55.09605098515749" lon="-1.566837038844824">
        <ele>42.439999999999998</ele>
        <time>2019-08-31T09:32:20Z</time>
      </trkpt>
      <trkpt lat="55.09802701883018" lon="-1.566738970577717">
        <ele>44.359999999999999</ele>
        <time>2019-08-31T09:32:30Z</time>
      </trkpt>
      <trkpt lat="55.099953012540936" lon="-1.566665964201093">
        <ele>47.240000000000002</ele>
        <time>2019-08-31T09:32:40Z</time>
      </trkpt>
      <trkpt lat="55.102150999009609" lon="-1.566554987803102">
        <ele>48.200000000000003</ele>
        <time>2019-08-31T09:32:52Z</time>
      </trkpt>
      <trkpt lat="55.103298984467983" lon="-1.566795967519283">
        <ele>48.68</ele>
        <time>2019-08-31T09:32:59Z</time>
      </trkpt>
      <trkpt lat="55.103791002184153" lon="-1.566795967519283">
        <ele>50.609999999999999</ele>
        <time>2019-08-31T09:33:05Z</time>
      </trkpt>
      <trkpt lat="55.104058971628547" lon="-1.566795967519283">
        <ele>52.049999999999997</ele>
        <time>2019-08-31T09:33:09Z</time>
      </trkpt>
      <trkpt lat="55.1041080057621" lon="-1.566817006096244">
        <ele>52.530000000000001</ele>
        <time>2019-08-31T09:33:10Z</time>
      </trkpt>
      <trkpt lat="55.104147987440228" lon="-1.566842989996076">
        <ele>52.530000000000001</ele>
        <time>2019-08-31T09:33:11Z</time>
      </trkpt>
      <trkpt lat="55.104177994653583" lon="-1.566861011087894">
        <ele>52.530000000000001</ele>
        <time>2019-08-31T09:33:12Z</time>
      </trkpt>
      <trkpt lat="55.104198027402163" lon="-1.56687400303781">
        <ele>53.009999999999998</ele>
        <time>2019-08-31T09:33:13Z</time>
      </trkpt>
      <trkpt lat="55.104320989921689" lon="-1.566964024677873">
        <ele>53.009999999999998</ele>
        <time>2019-08-31T09:33:22Z</time>
      </trkpt>
      <trkpt lat="55.104458034038544" lon="-1.567267030477524">
        <ele>52.530000000000001</ele>
        <time>2019-08-31T09:33:24Z</time>
      </trkpt>
      <trkpt lat="55.104501033201814" lon="-1.56747498549521">
        <ele>52.530000000000001</ele>
        <time>2019-08-31T09:33:25Z</time>
      </trkpt>
      <trkpt lat="55.104526011273265" lon="-1.567704984918237">
        <ele>52.530000000000001</ele>
        <time>2019-08-31T09:33:26Z</time>
      </trkpt>
      <trkpt lat="55.104518970474601" lon="-1.56794797629118">
        <ele>52.049999999999997</ele>
        <time>2019-08-31T09:33:27Z</time>
      </trkpt>
      <trkpt lat="55.104468008503318" lon="-1.568200020119548">
        <ele>51.57</ele>
        <time>2019-08-31T09:33:28Z</time>
      </trkpt>
      <trkpt lat="55.10440899990499" lon="-1.568487016484141">
        <ele>50.609999999999999</ele>
        <time>2019-08-31T09:33:29Z</time>
      </trkpt>
      <trkpt lat="55.104024019092321" lon="-1.570833027362824">
        <ele>45.32</ele>
        <time>2019-08-31T09:33:37Z</time>
      </trkpt>
      <trkpt lat="55.103841964155436" lon="-1.57359603792429">
        <ele>48.200000000000003</ele>
        <time>2019-08-31T09:33:48Z</time>
      </trkpt>
      <trkpt lat="55.103777004405856" lon="-1.576603967696428">
        <ele>45.799999999999997</ele>
        <time>2019-08-31T09:34:00Z</time>
      </trkpt>
      <trkpt lat="55.103594027459621" lon="-1.580024035647512">
        <ele>43.399999999999999</ele>
        <time>2019-08-31T09:34:12Z</time>
      </trkpt>
      <trkpt lat="55.103368973359466" lon="-1.583845010027289">
        <ele>45.799999999999997</ele>
        <time>2019-08-31T09:34:25Z</time>
      </trkpt>
      <trkpt lat="55.103095974773169" lon="-1.588518004864454">
        <ele>46.759999999999998</ele>
        <time>2019-08-31T09:34:40Z</time>
      </trkpt>
      <trkpt lat="55.102856000885367" lon="-1.59220302477479">
        <ele>48.200000000000003</ele>
        <time>2019-08-31T09:34:53Z</time>
      </trkpt>
      <trkpt lat="55.102663971483707" lon="-1.594583988189697">
        <ele>48.68</ele>
        <time>2019-08-31T09:35:03Z</time>
      </trkpt>
      <trkpt lat="55.102576967328787" lon="-1.595047004520893">
        <ele>48.200000000000003</ele>
        <time>2019-08-31T09:35:06Z</time>
      </trkpt>
      <trkpt lat="55.1025400031358" lon="-1.595138031989336">
        <ele>48.200000000000003</ele>
        <time>2019-08-31T09:35:07Z</time>
      </trkpt>
      <trkpt lat="55.102502033114433" lon="-1.59523299895227">
        <ele>48.200000000000003</ele>
        <time>2019-08-31T09:35:08Z</time>
      </trkpt>
      <trkpt lat="55.102437995374203" lon="-1.595330983400345">
        <ele>48.200000000000003</ele>
        <time>2019-08-31T09:35:09Z</time>
      </trkpt>
      <trkpt lat="55.102361971512437" lon="-1.595423016697168">
        <ele>48.200000000000003</ele>
        <time>2019-08-31T09:35:10Z</time>
      </trkpt>
      <trkpt lat="55.1022810023278" lon="-1.595548996701837">
        <ele>47.719999999999999</ele>
        <time>2019-08-31T09:35:11Z</time>
      </trkpt>
      <trkpt lat="55.102233979851007" lon="-1.59570598974824">
        <ele>47.719999999999999</ele>
        <time>2019-08-31T09:35:12Z</time>
      </trkpt>
      <trkpt lat="55.10223800316453" lon="-1.595887038856745">
        <ele>47.719999999999999</ele>
        <time>2019-08-31T09:35:13Z</time>
      </trkpt>
      <trkpt lat="55.102247977629304" lon="-1.596063980832696">
        <ele>47.240000000000002</ele>
        <time>2019-08-31T09:35:14Z</time>
      </trkpt>
      <trkpt lat="55.102288965135813" lon="-1.596208987757564">
        <ele>46.759999999999998</ele>
        <time>2019-08-31T09:35:15Z</time>
      </trkpt>
      <trkpt lat="55.102359959855676" lon="-1.596361035481095">
        <ele>46.759999999999998</ele>
        <time>2019-08-31T09:35:16Z</time>
      </trkpt>
      <trkpt lat="55.102423997595906" lon="-1.596533032134175">
        <ele>46.280000000000001</ele>
        <time>2019-08-31T09:35:17Z</time>
      </trkpt>
      <trkpt lat="55.102469008415937" lon="-1.59669597633183">
        <ele>46.280000000000001</ele>
        <time>2019-08-31T09:35:18Z</time>
      </trkpt>
      <trkpt lat="55.10251703672111" lon="-1.596868978813291">
        <ele>46.280000000000001</ele>
        <time>2019-08-31T09:35:19Z</time>
      </trkpt>
      <trkpt lat="55.102573027834296" lon="-1.597072994336486">
        <ele>46.280000000000001</ele>
        <time>2019-08-31T09:35:20Z</time>
      </trkpt>
      <trkpt lat="55.102594988420606" lon="-1.597305005416274">
        <ele>46.280000000000001</ele>
        <time>2019-08-31T09:35:21Z</time>
      </trkpt>
      <trkpt lat="55.102618960663676" lon="-1.597563000395894">
        <ele>46.280000000000001</ele>
        <time>2019-08-31T09:35:22Z</time>
      </trkpt>
      <trkpt lat="55.102850971743464" lon="-1.59993901848793">
        <ele>49.159999999999997</ele>
        <time>2019-08-31T09:35:30Z</time>
      </trkpt>
      <trkpt lat="55.102880978956819" lon="-1.600189972668886">
        <ele>49.649999999999999</ele>
        <time>2019-08-31T09:35:31Z</time>
      </trkpt>
      <trkpt lat="55.103265959769487" lon="-1.603179965168238">
        <ele>52.530000000000001</ele>
        <time>2019-08-31T09:35:43Z</time>
      </trkpt>
      <trkpt lat="55.103653036057949" lon="-1.605813978239894">
        <ele>54.450000000000003</ele>
        <time>2019-08-31T09:35:53Z</time>
      </trkpt>
      <trkpt lat="55.104037011042237" lon="-1.608407003805041">
        <ele>55.409999999999997</ele>
        <time>2019-08-31T09:36:02Z</time>
      </trkpt>
      <trkpt lat="55.104732038453221" lon="-1.61287397146225">
        <ele>56.859999999999999</ele>
        <time>2019-08-31T09:36:17Z</time>
      </trkpt>
      <trkpt lat="55.105126993730664" lon="-1.615457022562623">
        <ele>60.219999999999999</ele>
        <time>2019-08-31T09:36:27Z</time>
      </trkpt>
      <trkpt lat="55.105254985392094" lon="-1.616298984736204">
        <ele>60.700000000000003</ele>
        <time>2019-08-31T09:36:32Z</time>
      </trkpt>
      <trkpt lat="55.105254985392094" lon="-1.616447009146214">
        <ele>60.700000000000003</ele>
        <time>2019-08-31T09:36:33Z</time>
      </trkpt>
      <trkpt lat="55.1052460167557" lon="-1.616571983322501">
        <ele>60.700000000000003</ele>
        <time>2019-08-31T09:36:34Z</time>
      </trkpt>
      <trkpt lat="55.105213997885585" lon="-1.61669896915555">
        <ele>60.700000000000003</ele>
        <time>2019-08-31T09:36:35Z</time>
      </trkpt>
      <trkpt lat="55.105164963752031" lon="-1.616880018264055">
        <ele>60.700000000000003</ele>
        <time>2019-08-31T09:36:36Z</time>
      </trkpt>
      <trkpt lat="55.105085000395775" lon="-1.6169139649719">
        <ele>60.700000000000003</ele>
        <time>2019-08-31T09:36:37Z</time>
      </trkpt>
      <trkpt lat="55.104978969320655" lon="-1.616961993277073">
        <ele>60.700000000000003</ele>
        <time>2019-08-31T09:36:38Z</time>
      </trkpt>
      <trkpt lat="55.10485902428627" lon="-1.616999041289091">
        <ele>61.18</ele>
        <time>2019-08-31T09:36:39Z</time>
      </trkpt>
      <trkpt lat="55.103767029941082" lon="-1.617335993796587">
        <ele>63.579999999999998</ele>
        <time>2019-08-31T09:36:46Z</time>
      </trkpt>
      <trkpt lat="55.102477977052331" lon="-1.617485024034977">
        <ele>66.950000000000003</ele>
        <time>2019-08-31T09:36:55Z</time>
      </trkpt>
      <trkpt lat="55.101217003539205" lon="-1.617589965462685">
        <ele>68.870000000000005</ele>
        <time>2019-08-31T09:37:04Z</time>
      </trkpt>
      <trkpt lat="55.099762994796038" lon="-1.617659032344818">
        <ele>69.829999999999998</ele>
        <time>2019-08-31T09:37:15Z</time>
      </trkpt>
      <trkpt lat="55.099613964557648" lon="-1.617668000981212">
        <ele>69.829999999999998</ele>
        <time>2019-08-31T09:37:16Z</time>
      </trkpt>
      <trkpt lat="55.099458983168006" lon="-1.617671018466353">
        <ele>70.310000000000002</ele>
        <time>2019-08-31T09:37:17Z</time>
      </trkpt>
      <trkpt lat="55.09811301715672" lon="-1.617646040394902">
        <ele>68.870000000000005</ele>
        <time>2019-08-31T09:37:24Z</time>
      </trkpt>
      <trkpt lat="55.096077974885702" lon="-1.617784006521106">
        <ele>67.430000000000007</ele>
        <time>2019-08-31T09:37:34Z</time>
      </trkpt>
      <trkpt lat="55.095356041565537" lon="-1.617947034537792">
        <ele>68.870000000000005</ele>
        <time>2019-08-31T09:37:38Z</time>
      </trkpt>
      <trkpt lat="55.095177004113793" lon="-1.618005959317088">
        <ele>69.829999999999998</ele>
        <time>2019-08-31T09:37:39Z</time>
      </trkpt>
      <trkpt lat="55.094996960833669" lon="-1.618065973743796">
        <ele>70.790000000000006</ele>
        <time>2019-08-31T09:37:40Z</time>
      </trkpt>
      <trkpt lat="55.092865023761988" lon="-1.619055038318038">
        <ele>79.450000000000003</ele>
        <time>2019-08-31T09:37:52Z</time>
      </trkpt>
      <trkpt lat="55.091706980019808" lon="-1.619337005540729">
        <ele>79.930000000000007</ele>
        <time>2019-08-31T09:37:59Z</time>
      </trkpt>
      <trkpt lat="55.090664019808173" lon="-1.619476983323693">
        <ele>78.969999999999999</ele>
        <time>2019-08-31T09:38:07Z</time>
      </trkpt>
      <trkpt lat="55.089546963572502" lon="-1.61955401301384">
        <ele>79.450000000000003</ele>
        <time>2019-08-31T09:38:17Z</time>
      </trkpt>
      <trkpt lat="55.088972970843315" lon="-1.619574967771769">
        <ele>80.890000000000001</ele>
        <time>2019-08-31T09:38:23Z</time>
      </trkpt>
      <trkpt lat="55.088878003880382" lon="-1.619611009955406">
        <ele>80.890000000000001</ele>
        <time>2019-08-31T09:38:24Z</time>
      </trkpt>
      <trkpt lat="55.088786976411939" lon="-1.619723998010159">
        <ele>81.370000000000005</ele>
        <time>2019-08-31T09:38:25Z</time>
      </trkpt>
      <trkpt lat="55.088714975863695" lon="-1.619858024641872">
        <ele>81.370000000000005</ele>
        <time>2019-08-31T09:38:26Z</time>
      </trkpt>
      <trkpt lat="55.088672982528806" lon="-1.620033960789442">
        <ele>81.849999999999994</ele>
        <time>2019-08-31T09:38:27Z</time>
      </trkpt>
      <trkpt lat="55.088646998628974" lon="-1.620228001847863">
        <ele>82.329999999999998</ele>
        <time>2019-08-31T09:38:28Z</time>
      </trkpt>
      <trkpt lat="55.088615985587239" lon="-1.6204350348562">
        <ele>82.810000000000002</ele>
        <time>2019-08-31T09:38:29Z</time>
      </trkpt>
      <trkpt lat="55.088584972545505" lon="-1.62065003067255">
        <ele>83.769999999999996</ele>
        <time>2019-08-31T09:38:30Z</time>
      </trkpt>
      <trkpt lat="55.088516995310783" lon="-1.621112041175365">
        <ele>84.25</ele>
        <time>2019-08-31T09:38:32Z</time>
      </trkpt>
      <trkpt lat="55.088457986712456" lon="-1.621347991749644">
        <ele>85.209999999999994</ele>
        <time>2019-08-31T09:38:33Z</time>
      </trkpt>
      <trkpt lat="55.088390009477735" lon="-1.621587965637445">
        <ele>85.209999999999994</ele>
        <time>2019-08-31T09:38:34Z</time>
      </trkpt>
      <trkpt lat="55.088297976180911" lon="-1.621822994202375">
        <ele>85.689999999999998</ele>
        <time>2019-08-31T09:38:35Z</time>
      </trkpt>
      <trkpt lat="55.088196974247694" lon="-1.622061962261796">
        <ele>85.689999999999998</ele>
        <time>2019-08-31T09:38:36Z</time>
      </trkpt>
      <trkpt lat="55.087102968245745" lon="-1.623694002628326">
        <ele>89.060000000000002</ele>
        <time>2019-08-31T09:38:44Z</time>
      </trkpt>
      <trkpt lat="55.086112981662154" lon="-1.62479798309505">
        <ele>89.060000000000002</ele>
        <time>2019-08-31T09:38:52Z</time>
      </trkpt>
      <trkpt lat="55.08563001640141" lon="-1.625405000522733">
        <ele>89.060000000000002</ele>
        <time>2019-08-31T09:38:57Z</time>
      </trkpt>
      <trkpt lat="55.085579976439476" lon="-1.62552704103291">
        <ele>89.060000000000002</ele>
        <time>2019-08-31T09:38:58Z</time>
      </trkpt>
      <trkpt lat="55.085546029731631" lon="-1.62561597302556">
        <ele>89.540000000000006</ele>
        <time>2019-08-31T09:38:59Z</time>
      </trkpt>
      <trkpt lat="55.085519040003419" lon="-1.625810014083982">
        <ele>90.5</ele>
        <time>2019-08-31T09:39:05Z</time>
      </trkpt>
      <trkpt lat="55.085519962012768" lon="-1.625844966620207">
        <ele>90.5</ele>
        <time>2019-08-31T09:39:06Z</time>
      </trkpt>
      <trkpt lat="55.085530020296574" lon="-1.626083012670279">
        <ele>89.540000000000006</ele>
        <time>2019-08-31T09:39:17Z</time>
      </trkpt>
      <trkpt lat="55.08567301556468" lon="-1.626660022884607">
        <ele>89.540000000000006</ele>
        <time>2019-08-31T09:39:22Z</time>
      </trkpt>
      <trkpt lat="55.085729006677866" lon="-1.626835037022829">
        <ele>89.540000000000006</ele>
        <time>2019-08-31T09:39:23Z</time>
      </trkpt>
      <trkpt lat="55.085741998627782" lon="-1.627035029232502">
        <ele>89.540000000000006</ele>
        <time>2019-08-31T09:39:24Z</time>
      </trkpt>
      <trkpt lat="55.08573898114264" lon="-1.627258993685246">
        <ele>89.540000000000006</ele>
        <time>2019-08-31T09:39:25Z</time>
      </trkpt>
      <trkpt lat="55.085712997242808" lon="-1.627487987279892">
        <ele>90.019999999999996</ele>
        <time>2019-08-31T09:39:26Z</time>
      </trkpt>
      <trkpt lat="55.085687013342977" lon="-1.627727039158344">
        <ele>90.019999999999996</ele>
        <time>2019-08-31T09:39:27Z</time>
      </trkpt>
      <trkpt lat="55.085206981748343" lon="-1.629764009267092">
        <ele>88.099999999999994</ele>
        <time>2019-08-31T09:39:36Z</time>
      </trkpt>
      <trkpt lat="55.085187032818794" lon="-1.630020998418331">
        <ele>87.620000000000005</ele>
        <time>2019-08-31T09:39:37Z</time>
      </trkpt>
      <trkpt lat="55.085167000070214" lon="-1.630283016711474">
        <ele>87.620000000000005</ele>
        <time>2019-08-31T09:39:38Z</time>
      </trkpt>
      <trkpt lat="55.084983017295599" lon="-1.633015014231205">
        <ele>84.730000000000004</ele>
        <time>2019-08-31T09:39:47Z</time>
      </trkpt>
      <trkpt lat="55.084529975429177" lon="-1.637552976608276">
        <ele>79.930000000000007</ele>
        <time>2019-08-31T09:40:00Z</time>
      </trkpt>
      <trkpt lat="55.084114987403154" lon="-1.641659019514918">
        <ele>77.040000000000006</ele>
        <time>2019-08-31T09:40:12Z</time>
      </trkpt>
      <trkpt lat="55.083790021017194" lon="-1.644879011437297">
        <ele>77.519999999999996</ele>
        <time>2019-08-31T09:40:23Z</time>
      </trkpt>
      <trkpt lat="55.083557004109025" lon="-1.647181017324328">
        <ele>76.560000000000002</ele>
        <time>2019-08-31T09:40:32Z</time>
      </trkpt>
      <trkpt lat="55.083506964147091" lon="-1.647686026990414">
        <ele>77.519999999999996</ele>
        <time>2019-08-31T09:40:35Z</time>
      </trkpt>
      <trkpt lat="55.083476034924388" lon="-1.647948967292905">
        <ele>77.519999999999996</ele>
        <time>2019-08-31T09:40:37Z</time>
      </trkpt>
      <trkpt lat="55.083453990519047" lon="-1.648177960887551">
        <ele>78</ele>
        <time>2019-08-31T09:40:38Z</time>
      </trkpt>
      <trkpt lat="55.083358017727733" lon="-1.649136012420058">
        <ele>79.930000000000007</ele>
        <time>2019-08-31T09:40:46Z</time>
      </trkpt>
      <trkpt lat="55.08330998942256" lon="-1.649368023499847">
        <ele>81.370000000000005</ele>
        <time>2019-08-31T09:40:56Z</time>
      </trkpt>
      <trkpt lat="55.083261039108038" lon="-1.649605985730887">
        <ele>82.810000000000002</ele>
        <time>2019-08-31T09:41:10Z</time>
      </trkpt>
      <trkpt lat="55.083261961117387" lon="-1.649718973785639">
        <ele>82.810000000000002</ele>
        <time>2019-08-31T09:41:11Z</time>
      </trkpt>
      <trkpt lat="55.083305966109037" lon="-1.649738000705838">
        <ele>82.810000000000002</ele>
        <time>2019-08-31T09:41:12Z</time>
      </trkpt>
      <trkpt lat="55.0833769608289" lon="-1.649770019575954">
        <ele>82.329999999999998</ele>
        <time>2019-08-31T09:41:13Z</time>
      </trkpt>
      <trkpt lat="55.083471005782485" lon="-1.649812012910843">
        <ele>82.329999999999998</ele>
        <time>2019-08-31T09:41:14Z</time>
      </trkpt>
      <trkpt lat="55.083581982180476" lon="-1.649861969053745">
        <ele>82.329999999999998</ele>
        <time>2019-08-31T09:41:15Z</time>
      </trkpt>
      <trkpt lat="55.083707040175796" lon="-1.649917038157582">
        <ele>81.849999999999994</ele>
        <time>2019-08-31T09:41:16Z</time>
      </trkpt>
      <trkpt lat="55.084752012044191" lon="-1.650404026731849">
        <ele>80.890000000000001</ele>
        <time>2019-08-31T09:41:22Z</time>
      </trkpt>
      <trkpt lat="55.085129030048847" lon="-1.650653975084424">
        <ele>80.409999999999997</ele>
        <time>2019-08-31T09:41:24Z</time>
      </trkpt>
      <trkpt lat="55.085301026701927" lon="-1.650825971737504">
        <ele>80.409999999999997</ele>
        <time>2019-08-31T09:41:25Z</time>
      </trkpt>
      <trkpt lat="55.085471011698246" lon="-1.650996040552855">
        <ele>80.409999999999997</ele>
        <time>2019-08-31T09:41:26Z</time>
      </trkpt>
      <trkpt lat="55.086986962705851" lon="-1.652870988473296">
        <ele>81.370000000000005</ele>
        <time>2019-08-31T09:41:35Z</time>
      </trkpt>
      <trkpt lat="55.08812103420496" lon="-1.654400015249848">
        <ele>80.890000000000001</ele>
        <time>2019-08-31T09:41:43Z</time>
      </trkpt>
      <trkpt lat="55.088242990896106" lon="-1.65464099496603">
        <ele>80.409999999999997</ele>
        <time>2019-08-31T09:41:44Z</time>
      </trkpt>
      <trkpt lat="55.0886370241642" lon="-1.655383966863155">
        <ele>80.409999999999997</ele>
        <time>2019-08-31T09:41:47Z</time>
      </trkpt>
      <trkpt lat="55.090198991820216" lon="-1.657430995255709">
        <ele>79.930000000000007</ele>
        <time>2019-08-31T09:41:57Z</time>
      </trkpt>
      <trkpt lat="55.09166800417006" lon="-1.658714013174176">
        <ele>79.450000000000003</ele>
        <time>2019-08-31T09:42:06Z</time>
      </trkpt>
      <trkpt lat="55.092810960486531" lon="-1.65906798094511">
        <ele>76.560000000000002</ele>
        <time>2019-08-31T09:42:13Z</time>
      </trkpt>
      <trkpt lat="55.094008985906839" lon="-1.659596040844917">
        <ele>69.829999999999998</ele>
        <time>2019-08-31T09:42:21Z</time>
      </trkpt>
      <trkpt lat="55.095827020704746" lon="-1.660286039113998">
        <ele>60.219999999999999</ele>
        <time>2019-08-31T09:42:32Z</time>
      </trkpt>
      <trkpt lat="55.097245993092656" lon="-1.660689963027835">
        <ele>54.93</ele>
        <time>2019-08-31T09:42:41Z</time>
      </trkpt>
      <trkpt lat="55.098556000739336" lon="-1.661189021542668">
        <ele>50.609999999999999</ele>
        <time>2019-08-31T09:42:48Z</time>
      </trkpt>
      <trkpt lat="55.100509990006685" lon="-1.662259977310896">
        <ele>50.130000000000003</ele>
        <time>2019-08-31T09:42:56Z</time>
      </trkpt>
      <trkpt lat="55.1025400031358" lon="-1.663323976099491">
        <ele>54.450000000000003</ele>
        <time>2019-08-31T09:43:06Z</time>
      </trkpt>
      <trkpt lat="55.104469014331698" lon="-1.663909032940865">
        <ele>57.82</ele>
        <time>2019-08-31T09:43:16Z</time>
      </trkpt>
      <trkpt lat="55.106547977775335" lon="-1.663734018802643">
        <ele>58.780000000000001</ele>
        <time>2019-08-31T09:43:26Z</time>
      </trkpt>
      <trkpt lat="55.108744958415627" lon="-1.663803001865745">
        <ele>60.219999999999999</ele>
        <time>2019-08-31T09:43:36Z</time>
      </trkpt>
      <trkpt lat="55.110355960205197" lon="-1.664396021515131">
        <ele>63.579999999999998</ele>
        <time>2019-08-31T09:43:44Z</time>
      </trkpt>
      <trkpt lat="55.112643968313932" lon="-1.665952038019896">
        <ele>68.390000000000001</ele>
        <time>2019-08-31T09:43:58Z</time>
      </trkpt>
      <trkpt lat="55.114865005016327" lon="-1.667528003454208">
        <ele>71.760000000000005</ele>
        <time>2019-08-31T09:44:12Z</time>
      </trkpt>
      <trkpt lat="55.117569006979465" lon="-1.669404041022062">
        <ele>72.719999999999999</ele>
        <time>2019-08-31T09:44:27Z</time>
      </trkpt>
      <trkpt lat="55.120393959805369" lon="-1.671312013641">
        <ele>69.829999999999998</ele>
        <time>2019-08-31T09:44:42Z</time>
      </trkpt>
      <trkpt lat="55.122314002364874" lon="-1.672680024057627">
        <ele>71.760000000000005</ele>
        <time>2019-08-31T09:44:53Z</time>
      </trkpt>
      <trkpt lat="55.125251021236181" lon="-1.674581961706281">
        <ele>77.040000000000006</ele>
        <time>2019-08-31T09:45:09Z</time>
      </trkpt>
      <trkpt lat="55.127629972994328" lon="-1.675436999648809">
        <ele>77.040000000000006</ele>
        <time>2019-08-31T09:45:20Z</time>
      </trkpt>
      <trkpt lat="55.130628012120724" lon="-1.676381975412369">
        <ele>76.079999999999998</ele>
        <time>2019-08-31T09:45:34Z</time>
      </trkpt>
      <trkpt lat="55.133392028510571" lon="-1.677391994744539">
        <ele>76.079999999999998</ele>
        <time>2019-08-31T09:45:48Z</time>
      </trkpt>
      <trkpt lat="55.135250966995955" lon="-1.678760005161166">
        <ele>78.969999999999999</ele>
        <time>2019-08-31T09:45:58Z</time>
      </trkpt>
      <trkpt lat="55.136812012642622" lon="-1.680703014135361">
        <ele>79.930000000000007</ele>
        <time>2019-08-31T09:46:07Z</time>
      </trkpt>
      <trkpt lat="55.138315977528691" lon="-1.683568032458425">
        <ele>81.370000000000005</ele>
        <time>2019-08-31T09:46:17Z</time>
      </trkpt>
      <trkpt lat="55.140422014519572" lon="-1.687903990969062">
        <ele>87.620000000000005</ele>
        <time>2019-08-31T09:46:31Z</time>
      </trkpt>
      <trkpt lat="55.141689023002982" lon="-1.690512020140886">
        <ele>90.019999999999996</ele>
        <time>2019-08-31T09:46:40Z</time>
      </trkpt>
      <trkpt lat="55.143092991784215" lon="-1.693414002656937">
        <ele>91.459999999999994</ele>
        <time>2019-08-31T09:46:51Z</time>
      </trkpt>
      <trkpt lat="55.144979003816843" lon="-1.697313012555242">
        <ele>89.540000000000006</ele>
        <time>2019-08-31T09:47:05Z</time>
      </trkpt>
      <trkpt lat="55.146841965615749" lon="-1.701163994148374">
        <ele>86.180000000000007</ele>
        <time>2019-08-31T09:47:19Z</time>
      </trkpt>
      <trkpt lat="55.14871196821332" lon="-1.705027967691422">
        <ele>91.459999999999994</ele>
        <time>2019-08-31T09:47:33Z</time>
      </trkpt>
      <trkpt lat="55.150315007194877" lon="-1.708088032901287">
        <ele>95.790000000000006</ele>
        <time>2019-08-31T09:47:44Z</time>
      </trkpt>
      <trkpt lat="55.152278970927" lon="-1.711143990978599">
        <ele>98.189999999999998</ele>
        <time>2019-08-31T09:47:56Z</time>
      </trkpt>
      <trkpt lat="55.154725983738899" lon="-1.714392984285951">
        <ele>94.829999999999998</ele>
        <time>2019-08-31T09:48:10Z</time>
      </trkpt>
      <trkpt lat="55.157255977392197" lon="-1.717701992020011">
        <ele>85.209999999999994</ele>
        <time>2019-08-31T09:48:24Z</time>
      </trkpt>
      <trkpt lat="55.160322999581695" lon="-1.721648024395108">
        <ele>72.239999999999995</ele>
        <time>2019-08-31T09:48:40Z</time>
      </trkpt>
      <trkpt lat="55.162188978865743" lon="-1.723403027281165">
        <ele>65.030000000000001</ele>
        <time>2019-08-31T09:48:49Z</time>
      </trkpt>
      <trkpt lat="55.164473969489336" lon="-1.724603986367583">
        <ele>63.100000000000001</ele>
        <time>2019-08-31T09:48:59Z</time>
      </trkpt>
      <trkpt lat="55.16682400368154" lon="-1.724892994388938">
        <ele>58.299999999999997</ele>
        <time>2019-08-31T09:49:09Z</time>
      </trkpt>
      <trkpt lat="55.16882099211216" lon="-1.724417991936207">
        <ele>57.82</ele>
        <time>2019-08-31T09:49:18Z</time>
      </trkpt>
      <trkpt lat="55.17053802497685" lon="-1.723502017557621">
        <ele>53.009999999999998</ele>
        <time>2019-08-31T09:49:27Z</time>
      </trkpt>
      <trkpt lat="55.172078032046556" lon="-1.722285971045494">
        <ele>57.82</ele>
        <time>2019-08-31T09:49:37Z</time>
      </trkpt>
      <trkpt lat="55.174047024920583" lon="-1.721035977825522">
        <ele>62.619999999999997</ele>
        <time>2019-08-31T09:49:49Z</time>
      </trkpt>
      <trkpt lat="55.175234992057085" lon="-1.720259981229901">
        <ele>64.549999999999997</ele>
        <time>2019-08-31T09:49:58Z</time>
      </trkpt>
      <trkpt lat="55.17588802613318" lon="-1.71997600235045">
        <ele>64.549999999999997</ele>
        <time>2019-08-31T09:50:05Z</time>
      </trkpt>
      <trkpt lat="55.176065973937511" lon="-1.719960998743773">
        <ele>64.069999999999993</ele>
        <time>2019-08-31T09:50:10Z</time>
      </trkpt>
      <trkpt lat="55.176087012514472" lon="-1.719974996522069">
        <ele>64.069999999999993</ele>
        <time>2019-08-31T09:50:11Z</time>
      </trkpt>
      <trkpt lat="55.176154989749193" lon="-1.720021013170481">
        <ele>64.549999999999997</ele>
        <time>2019-08-31T09:50:12Z</time>
      </trkpt>
      <trkpt lat="55.176244005560875" lon="-1.720240032300353">
        <ele>64.549999999999997</ele>
        <time>2019-08-31T09:50:13Z</time>
      </trkpt>
      <trkpt lat="55.176287004724145" lon="-1.720410017296672">
        <ele>64.549999999999997</ele>
        <time>2019-08-31T09:50:14Z</time>
      </trkpt>
      <trkpt lat="55.176337966695428" lon="-1.720611015334725">
        <ele>65.030000000000001</ele>
        <time>2019-08-31T09:50:15Z</time>
      </trkpt>
      <trkpt lat="55.176392029970884" lon="-1.720823999494314">
        <ele>65.510000000000005</ele>
        <time>2019-08-31T09:50:16Z</time>
      </trkpt>
      <trkpt lat="55.176443997770548" lon="-1.72102801501751">
        <ele>65.510000000000005</ele>
        <time>2019-08-31T09:50:17Z</time>
      </trkpt>
      <trkpt lat="55.176639966666698" lon="-1.721794037148356">
        <ele>65.510000000000005</ele>
        <time>2019-08-31T09:50:23Z</time>
      </trkpt>
      <trkpt lat="55.17670501023531" lon="-1.722274990752339">
        <ele>65.030000000000001</ele>
        <time>2019-08-31T09:50:31Z</time>
      </trkpt>
      <trkpt lat="55.17666201107204" lon="-1.722310027107596">
        <ele>65.030000000000001</ele>
        <time>2019-08-31T09:50:32Z</time>
      </trkpt>
      <trkpt lat="55.176605014130473" lon="-1.722356965765357">
        <ele>65.030000000000001</ele>
        <time>2019-08-31T09:50:33Z</time>
      </trkpt>
      <trkpt lat="55.176527984440327" lon="-1.722419997677207">
        <ele>65.030000000000001</ele>
        <time>2019-08-31T09:50:34Z</time>
      </trkpt>
      <trkpt lat="55.176432011649013" lon="-1.722499039024115">
        <ele>64.549999999999997</ele>
        <time>2019-08-31T09:50:35Z</time>
      </trkpt>
      <trkpt lat="55.175550989806652" lon="-1.723222984001041">
        <ele>67.430000000000007</ele>
        <time>2019-08-31T09:50:43Z</time>
      </trkpt>
      <trkpt lat="55.175426015630364" lon="-1.723257014527917">
        <ele>68.390000000000001</ele>
        <time>2019-08-31T09:50:44Z</time>
      </trkpt>
      <trkpt lat="55.175315039232373" lon="-1.723288027569652">
        <ele>69.349999999999994</ele>
        <time>2019-08-31T09:50:45Z</time>
      </trkpt>
      <trkpt lat="55.174539964646101" lon="-1.723720030859113">
        <ele>70.790000000000006</ele>
        <time>2019-08-31T09:50:52Z</time>
      </trkpt>
      <trkpt lat="55.174478022381663" lon="-1.72375900670886">
        <ele>70.790000000000006</ele>
        <time>2019-08-31T09:50:53Z</time>
      </trkpt>
      <trkpt lat="55.174376014620066" lon="-1.723734028637409">
        <ele>70.310000000000002</ele>
        <time>2019-08-31T09:50:54Z</time>
      </trkpt>
      <trkpt lat="55.174306025728583" lon="-1.72371600754559">
        <ele>69.829999999999998</ele>
        <time>2019-08-31T09:50:55Z</time>
      </trkpt>
      <trkpt lat="55.174243999645114" lon="-1.723627997562289">
        <ele>69.349999999999994</ele>
        <time>2019-08-31T09:50:56Z</time>
      </trkpt>
      <trkpt lat="55.17417199909687" lon="-1.723526995629072">
        <ele>68.870000000000005</ele>
        <time>2019-08-31T09:50:57Z</time>
      </trkpt>
      <trkpt lat="55.174092035740614" lon="-1.723413001745939">
        <ele>68.870000000000005</ele>
        <time>2019-08-31T09:50:58Z</time>
      </trkpt>
      <trkpt lat="55.173802021890879" lon="-1.723002037033439">
        <ele>68.390000000000001</ele>
        <time>2019-08-31T09:51:01Z</time>
      </trkpt>
      <trkpt lat="55.17367503605783" lon="-1.722893994301558">
        <ele>68.390000000000001</ele>
        <time>2019-08-31T09:51:02Z</time>
      </trkpt>
      <trkpt lat="55.173541009426117" lon="-1.722787041217089">
        <ele>68.390000000000001</ele>
        <time>2019-08-31T09:51:03Z</time>
      </trkpt>
      <trkpt lat="55.173396002501249" lon="-1.722704982385039">
        <ele>68.390000000000001</ele>
        <time>2019-08-31T09:51:04Z</time>
      </trkpt>
      <trkpt lat="55.173240015283227" lon="-1.722653014585376">
        <ele>68.390000000000001</ele>
        <time>2019-08-31T09:51:05Z</time>
      </trkpt>
      <trkpt lat="55.173085033893585" lon="-1.722657959908247">
        <ele>68.390000000000001</ele>
        <time>2019-08-31T09:51:06Z</time>
      </trkpt>
      <trkpt lat="55.172923011705279" lon="-1.722676986828446">
        <ele>68.390000000000001</ele>
        <time>2019-08-31T09:51:07Z</time>
      </trkpt>
      <trkpt lat="55.172763001173735" lon="-1.722724009305239">
        <ele>68.390000000000001</ele>
        <time>2019-08-31T09:51:08Z</time>
      </trkpt>
      <trkpt lat="55.172611037269235" lon="-1.722793998196721">
        <ele>68.390000000000001</ele>
        <time>2019-08-31T09:51:09Z</time>
      </trkpt>
      <trkpt lat="55.172462007030845" lon="-1.722942022606731">
        <ele>67.909999999999997</ele>
        <time>2019-08-31T09:51:10Z</time>
      </trkpt>
      <trkpt lat="55.17232202924788" lon="-1.723083006218076">
        <ele>68.390000000000001</ele>
        <time>2019-08-31T09:51:11Z</time>
      </trkpt>
      <trkpt lat="55.172181967645884" lon="-1.723222984001041">
        <ele>67.909999999999997</ele>
        <time>2019-08-31T09:51:12Z</time>
      </trkpt>
      <trkpt lat="55.172055987641215" lon="-1.723390035331249">
        <ele>67.909999999999997</ele>
        <time>2019-08-31T09:51:13Z</time>
      </trkpt>
      <trkpt lat="55.170811023563147" lon="-1.725045964121819">
        <ele>67.909999999999997</ele>
        <time>2019-08-31T09:51:23Z</time>
      </trkpt>
      <trkpt lat="55.170181039720774" lon="-1.725925980135799">
        <ele>65.510000000000005</ele>
        <time>2019-08-31T09:51:31Z</time>
      </trkpt>
      <trkpt lat="55.170124964788556" lon="-1.726048020645976">
        <ele>65.989999999999995</ele>
        <time>2019-08-31T09:51:32Z</time>
      </trkpt>
      <trkpt lat="55.17008900642395" lon="-1.72618699260056">
        <ele>65.989999999999995</ele>
        <time>2019-08-31T09:51:33Z</time>
      </trkpt>
      <trkpt lat="55.170053970068693" lon="-1.726327976211906">
        <ele>65.989999999999995</ele>
        <time>2019-08-31T09:51:34Z</time>
      </trkpt>
      <trkpt lat="55.170018011704087" lon="-1.726469965651631">
        <ele>65.989999999999995</ele>
        <time>2019-08-31T09:51:35Z</time>
      </trkpt>
      <trkpt lat="55.169720035046339" lon="-1.727585010230541">
        <ele>65.510000000000005</ele>
        <time>2019-08-31T09:51:43Z</time>
      </trkpt>
      <trkpt lat="55.169692961499095" lon="-1.727686012163758">
        <ele>65.030000000000001</ele>
        <time>2019-08-31T09:51:44Z</time>
      </trkpt>
      <trkpt lat="55.169640993699431" lon="-1.727735968306661">
        <ele>64.549999999999997</ele>
        <time>2019-08-31T09:51:45Z</time>
      </trkpt>
      <trkpt lat="55.169001035392284" lon="-1.728360000997782">
        <ele>59.259999999999998</ele>
        <time>2019-08-31T09:51:52Z</time>
      </trkpt>
      <trkpt lat="55.168924005702138" lon="-1.728434013202786">
        <ele>58.780000000000001</ele>
        <time>2019-08-31T09:51:53Z</time>
      </trkpt>
      <trkpt lat="55.168876983225346" lon="-1.728480029851198">
        <ele>57.82</ele>
        <time>2019-08-31T09:51:54Z</time>
      </trkpt>
      <trkpt lat="55.16877899877727" lon="-1.728568039834499">
        <ele>56.859999999999999</ele>
        <time>2019-08-31T09:51:55Z</time>
      </trkpt>
      <trkpt lat="55.168708004057407" lon="-1.728634005412459">
        <ele>56.369999999999997</ele>
        <time>2019-08-31T09:51:56Z</time>
      </trkpt>
      <trkpt lat="55.168632986024022" lon="-1.7287009768188">
        <ele>55.409999999999997</ele>
        <time>2019-08-31T09:51:57Z</time>
      </trkpt>
      <trkpt lat="55.168565008789301" lon="-1.728763002902269">
        <ele>53.969999999999999</ele>
        <time>2019-08-31T09:51:58Z</time>
      </trkpt>
      <trkpt lat="55.168429976329207" lon="-1.728884959593415">
        <ele>51.57</ele>
        <time>2019-08-31T09:52:00Z</time>
      </trkpt>
      <trkpt lat="55.168191008269787" lon="-1.729101967066526">
        <ele>40.990000000000002</ele>
        <time>2019-08-31T09:52:07Z</time>
      </trkpt>
      <trkpt lat="55.168118001893163" lon="-1.729264995083213">
        <ele>34.740000000000002</ele>
        <time>2019-08-31T09:52:16Z</time>
      </trkpt>
      <trkpt lat="55.168055975809693" lon="-1.729404972866178">
        <ele>32.340000000000003</ele>
        <time>2019-08-31T09:52:33Z</time>
      </trkpt>
      <trkpt lat="55.168044995516539" lon="-1.729430034756661">
        <ele>33.299999999999997</ele>
        <time>2019-08-31T09:52:34Z</time>
      </trkpt>
      <trkpt lat="55.168019011616707" lon="-1.729488037526608">
        <ele>33.780000000000001</ele>
        <time>2019-08-31T09:52:35Z</time>
      </trkpt>
      <trkpt lat="55.168019011616707" lon="-1.729488037526608">
        <ele>34.259999999999998</ele>
        <time>2019-08-31T09:52:36Z</time>
      </trkpt>
      <trkpt lat="55.168081037700176" lon="-1.729526007547975">
        <ele>34.740000000000002</ele>
        <time>2019-08-31T09:52:37Z</time>
      </trkpt>
      <trkpt lat="55.168127976357937" lon="-1.729555008932948">
        <ele>34.740000000000002</ele>
        <time>2019-08-31T09:52:38Z</time>
      </trkpt>
      <trkpt lat="55.168183967471123" lon="-1.729589961469173">
        <ele>35.229999999999997</ele>
        <time>2019-08-31T09:52:39Z</time>
      </trkpt>
      <trkpt lat="55.168389994651079" lon="-1.729791965335608">
        <ele>35.710000000000001</ele>
        <time>2019-08-31T09:52:42Z</time>
      </trkpt>
      <trkpt lat="55.168447997421026" lon="-1.729875029996038">
        <ele>36.189999999999998</ele>
        <time>2019-08-31T09:52:43Z</time>
      </trkpt>
      <trkpt lat="55.168460989370942" lon="-1.730025988072157">
        <ele>36.189999999999998</ele>
        <time>2019-08-31T09:52:44Z</time>
      </trkpt>
      <trkpt lat="55.168468030169606" lon="-1.730154985561967">
        <ele>36.670000000000002</ele>
        <time>2019-08-31T09:52:45Z</time>
      </trkpt>
      <trkpt lat="55.16845403239131" lon="-1.730323964729905">
        <ele>37.149999999999999</ele>
        <time>2019-08-31T09:52:46Z</time>
      </trkpt>
      <trkpt lat="55.168421007692814" lon="-1.730471989139915">
        <ele>37.630000000000003</ele>
        <time>2019-08-31T09:52:47Z</time>
      </trkpt>
      <trkpt lat="55.168372979387641" lon="-1.730614984408021">
        <ele>37.630000000000003</ele>
        <time>2019-08-31T09:52:48Z</time>
      </trkpt>
      <trkpt lat="55.16832796856761" lon="-1.730751022696495">
        <ele>38.109999999999999</ele>
        <time>2019-08-31T09:52:49Z</time>
      </trkpt>
      <trkpt lat="55.168276000767946" lon="-1.730904998257756">
        <ele>37.630000000000003</ele>
        <time>2019-08-31T09:52:50Z</time>
      </trkpt>
      <trkpt lat="55.168229984119534" lon="-1.730975992977619">
        <ele>37.630000000000003</ele>
        <time>2019-08-31T09:52:51Z</time>
      </trkpt>
      <trkpt lat="55.168161001056433" lon="-1.73108302988112">
        <ele>37.630000000000003</ele>
        <time>2019-08-31T09:52:52Z</time>
      </trkpt>
      <trkpt lat="55.168085983023047" lon="-1.731198029592633">
        <ele>37.630000000000003</ele>
        <time>2019-08-31T09:52:53Z</time>
      </trkpt>
      <trkpt lat="55.167997973039746" lon="-1.731333984062076">
        <ele>38.109999999999999</ele>
        <time>2019-08-31T09:52:54Z</time>
      </trkpt>
      <trkpt lat="55.167555995285511" lon="-1.731936978176236">
        <ele>40.030000000000001</ele>
        <time>2019-08-31T09:52:59Z</time>
      </trkpt>
      <trkpt lat="55.167479971423745" lon="-1.732089025899768">
        <ele>40.990000000000002</ele>
        <time>2019-08-31T09:53:00Z</time>
      </trkpt>
      <trkpt lat="55.16742599196732" lon="-1.732254987582564">
        <ele>41.950000000000003</ele>
        <time>2019-08-31T09:53:01Z</time>
      </trkpt>
      <trkpt lat="55.167394978925586" lon="-1.73243897035718">
        <ele>42.920000000000002</ele>
        <time>2019-08-31T09:53:02Z</time>
      </trkpt>
      <trkpt lat="55.167363965883851" lon="-1.732625970616937">
        <ele>43.880000000000003</ele>
        <time>2019-08-31T09:53:03Z</time>
      </trkpt>
      <trkpt lat="55.167332030832767" lon="-1.732816994190216">
        <ele>44.840000000000003</ele>
        <time>2019-08-31T09:53:04Z</time>
      </trkpt>
      <trkpt lat="55.167290037497878" lon="-1.733014974743128">
        <ele>45.799999999999997</ele>
        <time>2019-08-31T09:53:05Z</time>
      </trkpt>
      <trkpt lat="55.16723102889955" lon="-1.733215972781181">
        <ele>46.759999999999998</ele>
        <time>2019-08-31T09:53:06Z</time>
      </trkpt>
      <trkpt lat="55.167114017531276" lon="-1.733615035191178">
        <ele>48.68</ele>
        <time>2019-08-31T09:53:08Z</time>
      </trkpt>
      <trkpt lat="55.167055008932948" lon="-1.733818966895342">
        <ele>49.649999999999999</ele>
        <time>2019-08-31T09:53:09Z</time>
      </trkpt>
      <trkpt lat="55.16699600033462" lon="-1.734018959105015">
        <ele>50.609999999999999</ele>
        <time>2019-08-31T09:53:10Z</time>
      </trkpt>
      <trkpt lat="55.166937997564673" lon="-1.7342200409621">
        <ele>51.090000000000003</ele>
        <time>2019-08-31T09:53:11Z</time>
      </trkpt>
      <trkpt lat="55.166882006451488" lon="-1.734422966837883">
        <ele>52.049999999999997</ele>
        <time>2019-08-31T09:53:12Z</time>
      </trkpt>
      <trkpt lat="55.166627028957009" lon="-1.735774967819452">
        <ele>56.369999999999997</ele>
        <time>2019-08-31T09:53:18Z</time>
      </trkpt>
      <trkpt lat="55.166540024802089" lon="-1.737877987325192">
        <ele>61.18</ele>
        <time>2019-08-31T09:53:26Z</time>
      </trkpt>
      <trkpt lat="55.166228972375393" lon="-1.741019021719694">
        <ele>66.950000000000003</ele>
        <time>2019-08-31T09:53:36Z</time>
      </trkpt>
      <trkpt lat="55.165965026244521" lon="-1.743620010092855">
        <ele>64.549999999999997</ele>
        <time>2019-08-31T09:53:45Z</time>
      </trkpt>
      <trkpt lat="55.165668977424502" lon="-1.746287969872356">
        <ele>61.659999999999997</ele>
        <time>2019-08-31T09:53:56Z</time>
      </trkpt>
      <trkpt lat="55.165185006335378" lon="-1.748580001294613">
        <ele>60.700000000000003</ele>
        <time>2019-08-31T09:54:05Z</time>
      </trkpt>
      <trkpt lat="55.164558961987495" lon="-1.751350974664092">
        <ele>59.259999999999998</ele>
        <time>2019-08-31T09:54:15Z</time>
      </trkpt>
      <trkpt lat="55.164376990869641" lon="-1.752498960122466">
        <ele>60.700000000000003</ele>
        <time>2019-08-31T09:54:19Z</time>
      </trkpt>
      <trkpt lat="55.164286969229579" lon="-1.753590032458305">
        <ele>62.140000000000001</ele>
        <time>2019-08-31T09:54:23Z</time>
      </trkpt>
      <trkpt lat="55.164471035823226" lon="-1.756701981648803">
        <ele>67.430000000000007</ele>
        <time>2019-08-31T09:54:34Z</time>
      </trkpt>
      <trkpt lat="55.164758032187819" lon="-1.759586026892066">
        <ele>73.680000000000007</ele>
        <time>2019-08-31T09:54:44Z</time>
      </trkpt>
      <trkpt lat="55.164864985272288" lon="-1.762332022190094">
        <ele>73.680000000000007</ele>
        <time>2019-08-31T09:54:54Z</time>
      </trkpt>
      <trkpt lat="55.164811005815864" lon="-1.763779995962977">
        <ele>72.719999999999999</ele>
        <time>2019-08-31T09:55:01Z</time>
      </trkpt>
      <trkpt lat="55.16480203717947" lon="-1.763943023979664">
        <ele>72.719999999999999</ele>
        <time>2019-08-31T09:55:02Z</time>
      </trkpt>
      <trkpt lat="55.164762977510691" lon="-1.764090964570642">
        <ele>72.719999999999999</ele>
        <time>2019-08-31T09:55:03Z</time>
      </trkpt>
      <trkpt lat="55.16471603885293" lon="-1.764244018122554">
        <ele>72.239999999999995</ele>
        <time>2019-08-31T09:55:04Z</time>
      </trkpt>
      <trkpt lat="55.164669016376138" lon="-1.764398999512196">
        <ele>71.760000000000005</ele>
        <time>2019-08-31T09:55:05Z</time>
      </trkpt>
      <trkpt lat="55.164621993899345" lon="-1.764551969245076">
        <ele>71.269999999999996</ele>
        <time>2019-08-31T09:55:06Z</time>
      </trkpt>
      <trkpt lat="55.164543036371469" lon="-1.764808036386967">
        <ele>70.310000000000002</ele>
        <time>2019-08-31T09:55:08Z</time>
      </trkpt>
      <trkpt lat="55.164527026936412" lon="-1.765024960041046">
        <ele>69.829999999999998</ele>
        <time>2019-08-31T09:55:09Z</time>
      </trkpt>
      <trkpt lat="55.164530966430902" lon="-1.765188993886113">
        <ele>69.349999999999994</ele>
        <time>2019-08-31T09:55:10Z</time>
      </trkpt>
      <trkpt lat="55.164553010836244" lon="-1.765361996367574">
        <ele>68.870000000000005</ele>
        <time>2019-08-31T09:55:11Z</time>
      </trkpt>
      <trkpt lat="55.164575977250934" lon="-1.765544973313808">
        <ele>68.870000000000005</ele>
        <time>2019-08-31T09:55:12Z</time>
      </trkpt>
      <trkpt lat="55.164599027484655" lon="-1.765730967745185">
        <ele>69.349999999999994</ele>
        <time>2019-08-31T09:55:13Z</time>
      </trkpt>
      <trkpt lat="55.164780998602509" lon="-1.767001999542117">
        <ele>70.310000000000002</ele>
        <time>2019-08-31T09:55:20Z</time>
      </trkpt>
      <trkpt lat="55.164788039401174" lon="-1.767168967053294">
        <ele>70.310000000000002</ele>
        <time>2019-08-31T09:55:21Z</time>
      </trkpt>
      <trkpt lat="55.164777981117368" lon="-1.767688980326057">
        <ele>70.790000000000006</ele>
        <time>2019-08-31T09:55:24Z</time>
      </trkpt>
      <trkpt lat="55.164530966430902" lon="-1.769313979893923">
        <ele>74.640000000000001</ele>
        <time>2019-08-31T09:55:31Z</time>
      </trkpt>
      <trkpt lat="55.16439400613308" lon="-1.771812038496137">
        <ele>80.890000000000001</ele>
        <time>2019-08-31T09:55:40Z</time>
      </trkpt>
      <trkpt lat="55.164429964497685" lon="-1.772051006555557">
        <ele>81.370000000000005</ele>
        <time>2019-08-31T09:55:41Z</time>
      </trkpt>
      <trkpt lat="55.164469024166465" lon="-1.772302966564894">
        <ele>80.890000000000001</ele>
        <time>2019-08-31T09:55:42Z</time>
      </trkpt>
      <trkpt lat="55.164508000016212" lon="-1.772563979029656">
        <ele>80.890000000000001</ele>
        <time>2019-08-31T09:55:43Z</time>
      </trkpt>
      <trkpt lat="55.164547981694341" lon="-1.772825997322798">
        <ele>80.409999999999997</ele>
        <time>2019-08-31T09:55:44Z</time>
      </trkpt>
      <trkpt lat="55.164587963372469" lon="-1.77308700978756">
        <ele>80.409999999999997</ele>
        <time>2019-08-31T09:55:45Z</time>
      </trkpt>
      <trkpt lat="55.164626017212868" lon="-1.773341987282038">
        <ele>80.409999999999997</ele>
        <time>2019-08-31T09:55:46Z</time>
      </trkpt>
      <trkpt lat="55.164618976414204" lon="-1.775746000930667">
        <ele>81.370000000000005</ele>
        <time>2019-08-31T09:55:55Z</time>
      </trkpt>
      <trkpt lat="55.164447985589504" lon="-1.778638008981943">
        <ele>79.930000000000007</ele>
        <time>2019-08-31T09:56:05Z</time>
      </trkpt>
      <trkpt lat="55.164396017789841" lon="-1.781091978773475">
        <ele>82.810000000000002</ele>
        <time>2019-08-31T09:56:13Z</time>
      </trkpt>
      <trkpt lat="55.164435999467969" lon="-1.782854022458196">
        <ele>87.140000000000001</ele>
        <time>2019-08-31T09:56:20Z</time>
      </trkpt>
      <trkpt lat="55.164475981146097" lon="-1.783067006617785">
        <ele>87.140000000000001</ele>
        <time>2019-08-31T09:56:21Z</time>
      </trkpt>
      <trkpt lat="55.164518980309367" lon="-1.783225005492568">
        <ele>87.140000000000001</ele>
        <time>2019-08-31T09:56:22Z</time>
      </trkpt>
      <trkpt lat="55.164601961150765" lon="-1.783349979668856">
        <ele>87.140000000000001</ele>
        <time>2019-08-31T09:56:23Z</time>
      </trkpt>
      <trkpt lat="55.164691982790828" lon="-1.783430026844144">
        <ele>87.140000000000001</ele>
        <time>2019-08-31T09:56:24Z</time>
      </trkpt>
      <trkpt lat="55.16480497084558" lon="-1.783502027392387">
        <ele>87.140000000000001</ele>
        <time>2019-08-31T09:56:25Z</time>
      </trkpt>
      <trkpt lat="55.164915025234222" lon="-1.78357201628387">
        <ele>87.140000000000001</ele>
        <time>2019-08-31T09:56:26Z</time>
      </trkpt>
      <trkpt lat="55.165101019665599" lon="-1.783690033480525">
        <ele>87.140000000000001</ele>
        <time>2019-08-31T09:56:28Z</time>
      </trkpt>
      <trkpt lat="55.165173020213842" lon="-1.783849960193038">
        <ele>87.140000000000001</ele>
        <time>2019-08-31T09:56:29Z</time>
      </trkpt>
      <trkpt lat="55.16521199606359" lon="-1.783985998481512">
        <ele>87.140000000000001</ele>
        <time>2019-08-31T09:56:30Z</time>
      </trkpt>
      <trkpt lat="55.165224988013506" lon="-1.784162018448114">
        <ele>87.140000000000001</ele>
        <time>2019-08-31T09:56:31Z</time>
      </trkpt>
      <trkpt lat="55.165238985791802" lon="-1.784354969859123">
        <ele>87.620000000000005</ele>
        <time>2019-08-31T09:56:32Z</time>
      </trkpt>
      <trkpt lat="55.165248960256577" lon="-1.784565020352602">
        <ele>87.620000000000005</ele>
        <time>2019-08-31T09:56:33Z</time>
      </trkpt>
      <trkpt lat="55.165236974135041" lon="-1.784789990633726">
        <ele>87.620000000000005</ele>
        <time>2019-08-31T09:56:34Z</time>
      </trkpt>
      <trkpt lat="55.165170002728701" lon="-1.78606697358191">
        <ele>88.099999999999994</ele>
        <time>2019-08-31T09:56:40Z</time>
      </trkpt>
      <trkpt lat="55.165185006335378" lon="-1.786236958578229">
        <ele>88.579999999999998</ele>
        <time>2019-08-31T09:56:41Z</time>
      </trkpt>
      <trkpt lat="55.165224988013506" lon="-1.786395963281393">
        <ele>88.579999999999998</ele>
        <time>2019-08-31T09:56:42Z</time>
      </trkpt>
      <trkpt lat="55.165295982733369" lon="-1.786524038761854">
        <ele>89.060000000000002</ele>
        <time>2019-08-31T09:56:43Z</time>
      </trkpt>
      <trkpt lat="55.165366977453232" lon="-1.786640966311097">
        <ele>89.060000000000002</ele>
        <time>2019-08-31T09:56:44Z</time>
      </trkpt>
      <trkpt lat="55.165431015193462" lon="-1.786745991557837">
        <ele>89.540000000000006</ele>
        <time>2019-08-31T09:56:45Z</time>
      </trkpt>
      <trkpt lat="55.165539979934692" lon="-1.786957969889045">
        <ele>90.5</ele>
        <time>2019-08-31T09:56:47Z</time>
      </trkpt>
      <trkpt lat="55.165568981319666" lon="-1.787105994299054">
        <ele>90.980000000000004</ele>
        <time>2019-08-31T09:56:48Z</time>
      </trkpt>
      <trkpt lat="55.165563030168414" lon="-1.787245972082019">
        <ele>91.459999999999994</ele>
        <time>2019-08-31T09:56:49Z</time>
      </trkpt>
      <trkpt lat="55.165550960227847" lon="-1.787403970956802">
        <ele>91.939999999999998</ele>
        <time>2019-08-31T09:56:50Z</time>
      </trkpt>
      <trkpt lat="55.165509972721338" lon="-1.78756901063025">
        <ele>92.420000000000002</ele>
        <time>2019-08-31T09:56:51Z</time>
      </trkpt>
      <trkpt lat="55.165465967729688" lon="-1.787743018940091">
        <ele>92.900000000000006</ele>
        <time>2019-08-31T09:56:52Z</time>
      </trkpt>
      <trkpt lat="55.165287014096975" lon="-1.78855799138546">
        <ele>94.349999999999994</ele>
        <time>2019-08-31T09:56:56Z</time>
      </trkpt>
      <trkpt lat="55.165119962766767" lon="-1.790507035329938">
        <ele>93.390000000000001</ele>
        <time>2019-08-31T09:57:04Z</time>
      </trkpt>
      <trkpt lat="55.165123986080289" lon="-1.790896039456129">
        <ele>92.900000000000006</ele>
        <time>2019-08-31T09:57:06Z</time>
      </trkpt>
      <trkpt lat="55.165163967758417" lon="-1.791068036109209">
        <ele>92.900000000000006</ele>
        <time>2019-08-31T09:57:07Z</time>
      </trkpt>
      <trkpt lat="55.16523202881217" lon="-1.791224023327231">
        <ele>92.900000000000006</ele>
        <time>2019-08-31T09:57:08Z</time>
      </trkpt>
      <trkpt lat="55.165378963574767" lon="-1.791558964177966">
        <ele>92.420000000000002</ele>
        <time>2019-08-31T09:57:10Z</time>
      </trkpt>
      <trkpt lat="55.165458004921675" lon="-1.791739007458091">
        <ele>92.420000000000002</ele>
        <time>2019-08-31T09:57:11Z</time>
      </trkpt>
      <trkpt lat="55.165537968277931" lon="-1.791920978575945">
        <ele>92.420000000000002</ele>
        <time>2019-08-31T09:57:12Z</time>
      </trkpt>
      <trkpt lat="55.165574010461569" lon="-1.792134968563914">
        <ele>92.420000000000002</ele>
        <time>2019-08-31T09:57:13Z</time>
      </trkpt>
      <trkpt lat="55.165599994361401" lon="-1.792352981865406">
        <ele>92.900000000000006</ele>
        <time>2019-08-31T09:57:14Z</time>
      </trkpt>
      <trkpt lat="55.165626984089613" lon="-1.792573006823659">
        <ele>92.900000000000006</ele>
        <time>2019-08-31T09:57:15Z</time>
      </trkpt>
      <trkpt lat="55.165795963257551" lon="-1.794943995773792">
        <ele>98.670000000000002</ele>
        <time>2019-08-31T09:57:26Z</time>
      </trkpt>
      <trkpt lat="55.165757993236184" lon="-1.795671964064241">
        <ele>100.59999999999999</ele>
        <time>2019-08-31T09:57:31Z</time>
      </trkpt>
      <trkpt lat="55.165749024599791" lon="-1.795829962939024">
        <ele>101.08</ele>
        <time>2019-08-31T09:57:33Z</time>
      </trkpt>
      <trkpt lat="55.165745001286268" lon="-1.795918978750706">
        <ele>101.56</ele>
        <time>2019-08-31T09:57:34Z</time>
      </trkpt>
      <trkpt lat="55.165734020993114" lon="-1.796117965131998">
        <ele>102.52</ele>
        <time>2019-08-31T09:57:36Z</time>
      </trkpt>
      <trkpt lat="55.165728991851211" lon="-1.796225002035499">
        <ele>103</ele>
        <time>2019-08-31T09:57:37Z</time>
      </trkpt>
      <trkpt lat="55.165721029043198" lon="-1.796344025060535">
        <ele>103.48</ele>
        <time>2019-08-31T09:57:38Z</time>
      </trkpt>
      <trkpt lat="55.165679035708308" lon="-1.796605037525296">
        <ele>104.44</ele>
        <time>2019-08-31T09:57:40Z</time>
      </trkpt>
      <trkpt lat="55.165521036833525" lon="-1.797598963603377">
        <ele>108.29000000000001</ele>
        <time>2019-08-31T09:57:46Z</time>
      </trkpt>
      <trkpt lat="55.165504021570086" lon="-1.797800967469811">
        <ele>108.29000000000001</ele>
        <time>2019-08-31T09:57:47Z</time>
      </trkpt>
      <trkpt lat="55.165423974394798" lon="-1.799827041104436">
        <ele>103.95999999999999</ele>
        <time>2019-08-31T09:57:55Z</time>
      </trkpt>
      <trkpt lat="55.165374018251896" lon="-1.802431968972087">
        <ele>96.75</ele>
        <time>2019-08-31T09:58:06Z</time>
      </trkpt>
      <trkpt lat="55.165405031293631" lon="-1.802654005587101">
        <ele>96.269999999999996</ele>
        <time>2019-08-31T09:58:07Z</time>
      </trkpt>
      <trkpt lat="55.165434032678604" lon="-1.80286799557507">
        <ele>95.310000000000002</ele>
        <time>2019-08-31T09:58:08Z</time>
      </trkpt>
      <trkpt lat="55.165511984378099" lon="-1.803432013839483">
        <ele>94.829999999999998</ele>
        <time>2019-08-31T09:58:11Z</time>
      </trkpt>
      <trkpt lat="55.165527993813157" lon="-1.803595963865519">
        <ele>94.829999999999998</ele>
        <time>2019-08-31T09:58:12Z</time>
      </trkpt>
      <trkpt lat="55.165516007691622" lon="-1.803763015195727">
        <ele>94.829999999999998</ele>
        <time>2019-08-31T09:58:13Z</time>
      </trkpt>
      <trkpt lat="55.165499998256564" lon="-1.803933000192046">
        <ele>94.829999999999998</ele>
        <time>2019-08-31T09:58:14Z</time>
      </trkpt>
      <trkpt lat="55.165468985214829" lon="-1.80411103181541">
        <ele>94.829999999999998</ele>
        <time>2019-08-31T09:58:15Z</time>
      </trkpt>
      <trkpt lat="55.165436966344714" lon="-1.804297026246786">
        <ele>94.829999999999998</ele>
        <time>2019-08-31T09:58:16Z</time>
      </trkpt>
      <trkpt lat="55.16540402546525" lon="-1.804490983486176">
        <ele>94.349999999999994</ele>
        <time>2019-08-31T09:58:17Z</time>
      </trkpt>
      <trkpt lat="55.165056008845568" lon="-1.806699028238654">
        <ele>91.459999999999994</ele>
        <time>2019-08-31T09:58:26Z</time>
      </trkpt>
      <trkpt lat="55.164895998314023" lon="-1.808700039982796">
        <ele>90.019999999999996</ele>
        <time>2019-08-31T09:58:34Z</time>
      </trkpt>
      <trkpt lat="55.164829026907682" lon="-1.809744006022811">
        <ele>89.540000000000006</ele>
        <time>2019-08-31T09:58:39Z</time>
      </trkpt>
      <trkpt lat="55.164844030514359" lon="-1.809949027374387">
        <ele>90.019999999999996</ele>
        <time>2019-08-31T09:58:40Z</time>
      </trkpt>
      <trkpt lat="55.164857022464275" lon="-1.810151031240821">
        <ele>90.019999999999996</ele>
        <time>2019-08-31T09:58:41Z</time>
      </trkpt>
      <trkpt lat="55.164871020242572" lon="-1.810347000136972">
        <ele>90.5</ele>
        <time>2019-08-31T09:58:42Z</time>
      </trkpt>
      <trkpt lat="55.164884012192488" lon="-1.81053701788187">
        <ele>91.459999999999994</ele>
        <time>2019-08-31T09:58:43Z</time>
      </trkpt>
      <trkpt lat="55.164961963891983" lon="-1.81268697604537">
        <ele>96.269999999999996</ele>
        <time>2019-08-31T09:58:54Z</time>
      </trkpt>
      <trkpt lat="55.165021978318691" lon="-1.814245004206896">
        <ele>97.709999999999994</ele>
        <time>2019-08-31T09:59:03Z</time>
      </trkpt>
      <trkpt lat="55.165038993582129" lon="-1.814428986981511">
        <ele>98.189999999999998</ele>
        <time>2019-08-31T09:59:05Z</time>
      </trkpt>
      <trkpt lat="55.165045028552413" lon="-1.814501993358135">
        <ele>98.189999999999998</ele>
        <time>2019-08-31T09:59:06Z</time>
      </trkpt>
      <trkpt lat="55.165098002180457" lon="-1.81494296528399">
        <ele>99.629999999999995</ele>
        <time>2019-08-31T09:59:11Z</time>
      </trkpt>
      <trkpt lat="55.16512599773705" lon="-1.815056037157774">
        <ele>100.11</ele>
        <time>2019-08-31T09:59:12Z</time>
      </trkpt>
      <trkpt lat="55.165172014385462" lon="-1.815129965543747">
        <ele>100.59999999999999</ele>
        <time>2019-08-31T09:59:13Z</time>
      </trkpt>
      <trkpt lat="55.165248038247228" lon="-1.815141029655933">
        <ele>100.59999999999999</ele>
        <time>2019-08-31T09:59:14Z</time>
      </trkpt>
      <trkpt lat="55.165334958583117" lon="-1.815153015777469">
        <ele>100.11</ele>
        <time>2019-08-31T09:59:15Z</time>
      </trkpt>
      <trkpt lat="55.165425986051559" lon="-1.815166007727385">
        <ele>100.59999999999999</ele>
        <time>2019-08-31T09:59:16Z</time>
      </trkpt>
      <trkpt lat="55.165521036833525" lon="-1.815180005505681">
        <ele>100.59999999999999</ele>
        <time>2019-08-31T09:59:17Z</time>
      </trkpt>
      <trkpt lat="55.165593959391117" lon="-1.815189979970455">
        <ele>101.56</ele>
        <time>2019-08-31T09:59:18Z</time>
      </trkpt>
      <trkpt lat="55.165698984637856" lon="-1.815317971631885">
        <ele>102.04000000000001</ele>
        <time>2019-08-31T09:59:19Z</time>
      </trkpt>
      <trkpt lat="55.165776014328003" lon="-1.81541302241385">
        <ele>103</ele>
        <time>2019-08-31T09:59:20Z</time>
      </trkpt>
      <trkpt lat="55.165817001834512" lon="-1.815550988540053">
        <ele>103.95999999999999</ele>
        <time>2019-08-31T09:59:21Z</time>
      </trkpt>
      <trkpt lat="55.165848014876246" lon="-1.815686021000147">
        <ele>104.44</ele>
        <time>2019-08-31T09:59:22Z</time>
      </trkpt>
      <trkpt lat="55.165867963805795" lon="-1.815833961591125">
        <ele>104.92</ele>
        <time>2019-08-31T09:59:23Z</time>
      </trkpt>
      <trkpt lat="55.165849020704627" lon="-1.816002018749714">
        <ele>105.40000000000001</ele>
        <time>2019-08-31T09:59:24Z</time>
      </trkpt>
      <trkpt lat="55.165827982127666" lon="-1.816196981817484">
        <ele>105.88</ele>
        <time>2019-08-31T09:59:25Z</time>
      </trkpt>
      <trkpt lat="55.165801998227835" lon="-1.816420024260879">
        <ele>106.36</ele>
        <time>2019-08-31T09:59:26Z</time>
      </trkpt>
      <trkpt lat="55.165774002671242" lon="-1.816668966785073">
        <ele>106.84</ele>
        <time>2019-08-31T09:59:27Z</time>
      </trkpt>
      <trkpt lat="55.165745001286268" lon="-1.816934002563357">
        <ele>107.31999999999999</ele>
        <time>2019-08-31T09:59:28Z</time>
      </trkpt>
      <trkpt lat="55.165482982993126" lon="-1.819212036207318">
        <ele>107.31999999999999</ele>
        <time>2019-08-31T09:59:36Z</time>
      </trkpt>
      <trkpt lat="55.165109988301992" lon="-1.822447031736374">
        <ele>114.53</ele>
        <time>2019-08-31T09:59:47Z</time>
      </trkpt>
      <trkpt lat="55.164865991100669" lon="-1.824562037363648">
        <ele>118.86</ele>
        <time>2019-08-31T09:59:56Z</time>
      </trkpt>
      <trkpt lat="55.16460900194943" lon="-1.826790031045675">
        <ele>119.34</ele>
        <time>2019-08-31T10:00:04Z</time>
      </trkpt>
      <trkpt lat="55.164542030543089" lon="-1.827373998239636">
        <ele>119.81999999999999</ele>
        <time>2019-08-31T10:00:06Z</time>
      </trkpt>
      <trkpt lat="55.164531972259283" lon="-1.827977998182178">
        <ele>120.78</ele>
        <time>2019-08-31T10:00:08Z</time>
      </trkpt>
      <trkpt lat="55.164539013057947" lon="-1.82828402146697">
        <ele>121.26000000000001</ele>
        <time>2019-08-31T10:00:09Z</time>
      </trkpt>
      <trkpt lat="55.164775969460607" lon="-1.831238977611065">
        <ele>123.19</ele>
        <time>2019-08-31T10:00:18Z</time>
      </trkpt>
      <trkpt lat="55.164944026619196" lon="-1.833886988461018">
        <ele>124.15000000000001</ele>
        <time>2019-08-31T10:00:26Z</time>
      </trkpt>
      <trkpt lat="55.164938997477293" lon="-1.836282033473253">
        <ele>125.11</ele>
        <time>2019-08-31T10:00:34Z</time>
      </trkpt>
      <trkpt lat="55.165033964440227" lon="-1.836850997060537">
        <ele>125.59</ele>
        <time>2019-08-31T10:00:36Z</time>
      </trkpt>
      <trkpt lat="55.165109988301992" lon="-1.837123995646834">
        <ele>126.06999999999999</ele>
        <time>2019-08-31T10:00:37Z</time>
      </trkpt>
      <trkpt lat="55.165566969662905" lon="-1.839044960215688">
        <ele>127.98999999999999</ele>
        <time>2019-08-31T10:00:44Z</time>
      </trkpt>
      <trkpt lat="55.166077008470893" lon="-1.842781025916338">
        <ele>129.91999999999999</ele>
        <time>2019-08-31T10:00:56Z</time>
      </trkpt>
      <trkpt lat="55.166666004806757" lon="-1.847176998853684">
        <ele>131.84</ele>
        <time>2019-08-31T10:01:09Z</time>
      </trkpt>
      <trkpt lat="55.167149975895882" lon="-1.850969977676868">
        <ele>132.31999999999999</ele>
        <time>2019-08-31T10:01:21Z</time>
      </trkpt>
      <trkpt lat="55.167458010837436" lon="-1.85357297770679">
        <ele>130.88</ele>
        <time>2019-08-31T10:01:30Z</time>
      </trkpt>
      <trkpt lat="55.167847014963627" lon="-1.855724025517702">
        <ele>126.06999999999999</ele>
        <time>2019-08-31T10:01:38Z</time>
      </trkpt>
      <trkpt lat="55.168079026043415" lon="-1.856681993231177">
        <ele>122.22</ele>
        <time>2019-08-31T10:01:44Z</time>
      </trkpt>
      <trkpt lat="55.168165024369955" lon="-1.857037972658873">
        <ele>119.81999999999999</ele>
        <time>2019-08-31T10:01:46Z</time>
      </trkpt>
      <trkpt lat="55.168157983571291" lon="-1.857201000675559">
        <ele>117.90000000000001</ele>
        <time>2019-08-31T10:01:47Z</time>
      </trkpt>
      <trkpt lat="55.168142979964614" lon="-1.857409039512277">
        <ele>116.45999999999999</ele>
        <time>2019-08-31T10:01:48Z</time>
      </trkpt>
      <trkpt lat="55.168125964701176" lon="-1.857634009793401">
        <ele>114.53</ele>
        <time>2019-08-31T10:01:49Z</time>
      </trkpt>
      <trkpt lat="55.168078020215034" lon="-1.857800977304578">
        <ele>113.09</ele>
        <time>2019-08-31T10:01:50Z</time>
      </trkpt>
      <trkpt lat="55.168018005788326" lon="-1.858012033626437">
        <ele>112.13</ele>
        <time>2019-08-31T10:01:51Z</time>
      </trkpt>
      <trkpt lat="55.167960003018379" lon="-1.858215965330601">
        <ele>111.17</ele>
        <time>2019-08-31T10:01:52Z</time>
      </trkpt>
      <trkpt lat="55.167868975549936" lon="-1.85857797972858">
        <ele>109.73</ele>
        <time>2019-08-31T10:01:54Z</time>
      </trkpt>
      <trkpt lat="55.167859001085162" lon="-1.858791969716549">
        <ele>109.73</ele>
        <time>2019-08-31T10:01:55Z</time>
      </trkpt>
      <trkpt lat="55.167851038277149" lon="-1.858991039916873">
        <ele>110.20999999999999</ele>
        <time>2019-08-31T10:01:56Z</time>
      </trkpt>
      <trkpt lat="55.167870987206697" lon="-1.859188014641404">
        <ele>111.17</ele>
        <time>2019-08-31T10:01:57Z</time>
      </trkpt>
      <trkpt lat="55.167909963056445" lon="-1.859379038214684">
        <ele>112.13</ele>
        <time>2019-08-31T10:01:58Z</time>
      </trkpt>
      <trkpt lat="55.167946005240083" lon="-1.859555980190635">
        <ele>113.09</ele>
        <time>2019-08-31T10:01:59Z</time>
      </trkpt>
      <trkpt lat="55.168041978031397" lon="-1.860026959329844">
        <ele>115.98</ele>
        <time>2019-08-31T10:02:02Z</time>
      </trkpt>
      <trkpt lat="55.168083971366286" lon="-1.860162997618318">
        <ele>116.45999999999999</ele>
        <time>2019-08-31T10:02:03Z</time>
      </trkpt>
      <trkpt lat="55.168207017704844" lon="-1.860375981777906">
        <ele>116.94</ele>
        <time>2019-08-31T10:02:05Z</time>
      </trkpt>
      <trkpt lat="55.168288992717862" lon="-1.860461980104446">
        <ele>117.42</ele>
        <time>2019-08-31T10:02:06Z</time>
      </trkpt>
      <trkpt lat="55.16854003071785" lon="-1.860727015882731">
        <ele>118.38</ele>
        <time>2019-08-31T10:02:09Z</time>
      </trkpt>
      <trkpt lat="55.168598033487797" lon="-1.860788036137819">
        <ele>118.86</ele>
        <time>2019-08-31T10:02:10Z</time>
      </trkpt>
      <trkpt lat="55.168655030429363" lon="-1.860949974507093">
        <ele>118.86</ele>
        <time>2019-08-31T10:02:11Z</time>
      </trkpt>
      <trkpt lat="55.168706998229027" lon="-1.861094981431961">
        <ele>118.86</ele>
        <time>2019-08-31T10:02:12Z</time>
      </trkpt>
      <trkpt lat="55.16875796020031" lon="-1.861240994185209">
        <ele>118.86</ele>
        <time>2019-08-31T10:02:13Z</time>
      </trkpt>
      <trkpt lat="55.168808000162244" lon="-1.861382983624935">
        <ele>118.86</ele>
        <time>2019-08-31T10:02:14Z</time>
      </trkpt>
      <trkpt lat="55.168856028467417" lon="-1.861517010256648">
        <ele>119.34</ele>
        <time>2019-08-31T10:02:15Z</time>
      </trkpt>
      <trkpt lat="55.168932974338531" lon="-1.861605020239949">
        <ele>119.34</ele>
        <time>2019-08-31T10:02:16Z</time>
      </trkpt>
      <trkpt lat="55.169005980715156" lon="-1.861689006909728">
        <ele>119.81999999999999</ele>
        <time>2019-08-31T10:02:17Z</time>
      </trkpt>
      <trkpt lat="55.169091979041696" lon="-1.86171499080956">
        <ele>119.81999999999999</ele>
        <time>2019-08-31T10:02:18Z</time>
      </trkpt>
      <trkpt lat="55.169189041480422" lon="-1.861743992194533">
        <ele>120.3</ele>
        <time>2019-08-31T10:02:19Z</time>
      </trkpt>
      <trkpt lat="55.169291971251369" lon="-1.861775005236268">
        <ele>120.3</ele>
        <time>2019-08-31T10:02:20Z</time>
      </trkpt>
      <trkpt lat="55.169402025640011" lon="-1.861808029934764">
        <ele>120.78</ele>
        <time>2019-08-31T10:02:21Z</time>
      </trkpt>
      <trkpt lat="55.169511996209621" lon="-1.861884975805879">
        <ele>121.26000000000001</ele>
        <time>2019-08-31T10:02:22Z</time>
      </trkpt>
      <trkpt lat="55.170430988073349" lon="-1.862667007371783">
        <ele>122.70999999999999</ele>
        <time>2019-08-31T10:02:30Z</time>
      </trkpt>
      <trkpt lat="55.171032976359129" lon="-1.86313203535974">
        <ele>122.70999999999999</ele>
        <time>2019-08-31T10:02:35Z</time>
      </trkpt>
      <trkpt lat="55.171148981899023" lon="-1.86323999427259">
        <ele>122.22</ele>
        <time>2019-08-31T10:02:36Z</time>
      </trkpt>
      <trkpt lat="55.171250989660621" lon="-1.863334039226174">
        <ele>122.22</ele>
        <time>2019-08-31T10:02:37Z</time>
      </trkpt>
      <trkpt lat="55.171539997681975" lon="-1.863602008670569">
        <ele>121.73999999999999</ele>
        <time>2019-08-31T10:02:41Z</time>
      </trkpt>
      <trkpt lat="55.171575034037232" lon="-1.863707033917308">
        <ele>121.73999999999999</ele>
        <time>2019-08-31T10:02:42Z</time>
      </trkpt>
      <trkpt lat="55.1715939771384" lon="-1.863818010315299">
        <ele>121.73999999999999</ele>
        <time>2019-08-31T10:02:43Z</time>
      </trkpt>
      <trkpt lat="55.171623984351754" lon="-1.863984977826476">
        <ele>121.73999999999999</ele>
        <time>2019-08-31T10:02:44Z</time>
      </trkpt>
      <trkpt lat="55.171605041250587" lon="-1.864171978086233">
        <ele>122.22</ele>
        <time>2019-08-31T10:02:45Z</time>
      </trkpt>
      <trkpt lat="55.171451987698674" lon="-1.865794965997338">
        <ele>124.15000000000001</ele>
        <time>2019-08-31T10:02:52Z</time>
      </trkpt>
      <trkpt lat="55.171451987698674" lon="-1.865978026762605">
        <ele>124.63</ele>
        <time>2019-08-31T10:02:53Z</time>
      </trkpt>
      <trkpt lat="55.171469002962112" lon="-1.866123033687472">
        <ele>124.63</ele>
        <time>2019-08-31T10:02:54Z</time>
      </trkpt>
      <trkpt lat="55.171495992690325" lon="-1.866239039227366">
        <ele>124.63</ele>
        <time>2019-08-31T10:02:55Z</time>
      </trkpt>
      <trkpt lat="55.171553995460272" lon="-1.866296958178282">
        <ele>125.11</ele>
        <time>2019-08-31T10:02:56Z</time>
      </trkpt>
      <trkpt lat="55.171622978523374" lon="-1.866340041160584">
        <ele>125.59</ele>
        <time>2019-08-31T10:02:57Z</time>
      </trkpt>
      <trkpt lat="55.171711994335055" lon="-1.866317996755242">
        <ele>125.59</ele>
        <time>2019-08-31T10:02:58Z</time>
      </trkpt>
      <trkpt lat="55.171811990439892" lon="-1.866293018683791">
        <ele>125.59</ele>
        <time>2019-08-31T10:02:59Z</time>
      </trkpt>
      <trkpt lat="55.171919027343392" lon="-1.866266028955579">
        <ele>125.59</ele>
        <time>2019-08-31T10:03:00Z</time>
      </trkpt>
      <trkpt lat="55.172026986256242" lon="-1.866239039227366">
        <ele>125.59</ele>
        <time>2019-08-31T10:03:01Z</time>
      </trkpt>
      <trkpt lat="55.172126982361078" lon="-1.866221018135548">
        <ele>125.59</ele>
        <time>2019-08-31T10:03:02Z</time>
      </trkpt>
      <trkpt lat="55.172220021486282" lon="-1.866260999813676">
        <ele>125.59</ele>
        <time>2019-08-31T10:03:03Z</time>
      </trkpt>
      <trkpt lat="55.172309959307313" lon="-1.866329982876778">
        <ele>125.59</ele>
        <time>2019-08-31T10:03:04Z</time>
      </trkpt>
      <trkpt lat="55.172396041452885" lon="-1.866430984809995">
        <ele>125.59</ele>
        <time>2019-08-31T10:03:05Z</time>
      </trkpt>
      <trkpt lat="55.172462007030845" lon="-1.866582026705146">
        <ele>126.06999999999999</ele>
        <time>2019-08-31T10:03:06Z</time>
      </trkpt>
      <trkpt lat="55.172527972608805" lon="-1.866730973124504">
        <ele>125.59</ele>
        <time>2019-08-31T10:03:07Z</time>
      </trkpt>
      <trkpt lat="55.172594022005796" lon="-1.866881009191275">
        <ele>126.06999999999999</ele>
        <time>2019-08-31T10:03:08Z</time>
      </trkpt>
      <trkpt lat="55.172640038654208" lon="-1.867030961439014">
        <ele>126.06999999999999</ele>
        <time>2019-08-31T10:03:09Z</time>
      </trkpt>
      <trkpt lat="55.172659987583756" lon="-1.867204969748855">
        <ele>126.06999999999999</ele>
        <time>2019-08-31T10:03:10Z</time>
      </trkpt>
      <trkpt lat="55.172682031989098" lon="-1.867389036342502">
        <ele>125.59</ele>
        <time>2019-08-31T10:03:11Z</time>
      </trkpt>
      <trkpt lat="55.172704998403788" lon="-1.867587016895413">
        <ele>125.11</ele>
        <time>2019-08-31T10:03:12Z</time>
      </trkpt>
      <trkpt lat="55.172728970646858" lon="-1.867786003276706">
        <ele>124.63</ele>
        <time>2019-08-31T10:03:13Z</time>
      </trkpt>
      <trkpt lat="55.172750009223819" lon="-1.867969986051321">
        <ele>124.63</ele>
        <time>2019-08-31T10:03:14Z</time>
      </trkpt>
      <trkpt lat="55.172804994508624" lon="-1.868113987147808">
        <ele>124.63</ele>
        <time>2019-08-31T10:03:15Z</time>
      </trkpt>
      <trkpt lat="55.172891998663545" lon="-1.868218006566167">
        <ele>124.63</ele>
        <time>2019-08-31T10:03:16Z</time>
      </trkpt>
      <trkpt lat="55.172988977283239" lon="-1.86833300627768">
        <ele>124.63</ele>
        <time>2019-08-31T10:03:17Z</time>
      </trkpt>
      <trkpt lat="55.173103976994753" lon="-1.868469966575503">
        <ele>125.11</ele>
        <time>2019-08-31T10:03:18Z</time>
      </trkpt>
      <trkpt lat="55.174092035740614" lon="-1.869328022003174">
        <ele>127.51000000000001</ele>
        <time>2019-08-31T10:03:26Z</time>
      </trkpt>
      <trkpt lat="55.17419203184545" lon="-1.869454002007842">
        <ele>127.98999999999999</ele>
        <time>2019-08-31T10:03:27Z</time>
      </trkpt>
      <trkpt lat="55.174271995201707" lon="-1.869566990062594">
        <ele>127.51000000000001</ele>
        <time>2019-08-31T10:03:28Z</time>
      </trkpt>
      <trkpt lat="55.174327986314893" lon="-1.869711996987462">
        <ele>127.51000000000001</ele>
        <time>2019-08-31T10:03:29Z</time>
      </trkpt>
      <trkpt lat="55.174372997134924" lon="-1.869863960891962">
        <ele>127.51000000000001</ele>
        <time>2019-08-31T10:03:30Z</time>
      </trkpt>
      <trkpt lat="55.174383977428079" lon="-1.870034029707313">
        <ele>127.98999999999999</ele>
        <time>2019-08-31T10:03:31Z</time>
      </trkpt>
      <trkpt lat="55.174395041540265" lon="-1.870219018310309">
        <ele>128.47</ele>
        <time>2019-08-31T10:03:32Z</time>
      </trkpt>
      <trkpt lat="55.174522027373314" lon="-1.87224199064076">
        <ele>133.75999999999999</ele>
        <time>2019-08-31T10:03:41Z</time>
      </trkpt>
      <trkpt lat="55.17468798905611" lon="-1.875037020072341">
        <ele>138.09</ele>
        <time>2019-08-31T10:03:51Z</time>
      </trkpt>
      <trkpt lat="55.17481598071754" lon="-1.878256006166339">
        <ele>140.97</ele>
        <time>2019-08-31T10:04:02Z</time>
      </trkpt>
      <trkpt lat="55.174788990989327" lon="-1.878505032509565">
        <ele>141.44999999999999</ele>
        <time>2019-08-31T10:04:03Z</time>
      </trkpt>
      <trkpt lat="55.174759989604354" lon="-1.878760010004044">
        <ele>141.93000000000001</ele>
        <time>2019-08-31T10:04:04Z</time>
      </trkpt>
      <trkpt lat="55.174351958557963" lon="-1.882021995261312">
        <ele>140.00999999999999</ele>
        <time>2019-08-31T10:04:15Z</time>
      </trkpt>
      <trkpt lat="55.173753993585706" lon="-1.886514024809003">
        <ele>141.44999999999999</ele>
        <time>2019-08-31T10:04:29Z</time>
      </trkpt>
      <trkpt lat="55.173480994999409" lon="-1.88930100761354">
        <ele>142.88999999999999</ele>
        <time>2019-08-31T10:04:38Z</time>
      </trkpt>
      <trkpt lat="55.173235991969705" lon="-1.892465008422732">
        <ele>142.41</ele>
        <time>2019-08-31T10:04:48Z</time>
      </trkpt>
      <trkpt lat="55.172988977283239" lon="-1.89564099535346">
        <ele>145.30000000000001</ele>
        <time>2019-08-31T10:04:58Z</time>
      </trkpt>
      <trkpt lat="55.172856962308288" lon="-1.897407984361053">
        <ele>146.25999999999999</ele>
        <time>2019-08-31T10:05:05Z</time>
      </trkpt>
      <trkpt lat="55.172847993671894" lon="-1.897561037912965">
        <ele>146.25999999999999</ele>
        <time>2019-08-31T10:05:06Z</time>
      </trkpt>
      <trkpt lat="55.172859979793429" lon="-1.897691963240504">
        <ele>146.25999999999999</ele>
        <time>2019-08-31T10:05:07Z</time>
      </trkpt>
      <trkpt lat="55.17288101837039" lon="-1.897811992093921">
        <ele>146.25999999999999</ele>
        <time>2019-08-31T10:05:08Z</time>
      </trkpt>
      <trkpt lat="55.172911025583744" lon="-1.897888015955687">
        <ele>146.74000000000001</ele>
        <time>2019-08-31T10:05:09Z</time>
      </trkpt>
      <trkpt lat="55.173016972839832" lon="-1.897968985140324">
        <ele>146.74000000000001</ele>
        <time>2019-08-31T10:05:10Z</time>
      </trkpt>
      <trkpt lat="55.173123003914952" lon="-1.898050960153341">
        <ele>146.74000000000001</ele>
        <time>2019-08-31T10:05:11Z</time>
      </trkpt>
      <trkpt lat="55.173243032768369" lon="-1.898143999278545">
        <ele>146.25999999999999</ele>
        <time>2019-08-31T10:05:12Z</time>
      </trkpt>
      <trkpt lat="55.174092035740614" lon="-1.898746993392706">
        <ele>141.44999999999999</ele>
        <time>2019-08-31T10:05:19Z</time>
      </trkpt>
      <trkpt lat="55.174183985218406" lon="-1.898910021409392">
        <ele>140.97</ele>
        <time>2019-08-31T10:05:20Z</time>
      </trkpt>
      <trkpt lat="55.174248022958636" lon="-1.899024015292525">
        <ele>140.97</ele>
        <time>2019-08-31T10:05:21Z</time>
      </trkpt>
      <trkpt lat="55.174293033778667" lon="-1.899142032489181">
        <ele>141.44999999999999</ele>
        <time>2019-08-31T10:05:22Z</time>
      </trkpt>
      <trkpt lat="55.17432102933526" lon="-1.899307994171977">
        <ele>141.93000000000001</ele>
        <time>2019-08-31T10:05:23Z</time>
      </trkpt>
      <trkpt lat="55.174436029046774" lon="-1.900083990767598">
        <ele>145.30000000000001</ele>
        <time>2019-08-31T10:05:27Z</time>
      </trkpt>
      <trkpt lat="55.174438040703535" lon="-1.900298986583948">
        <ele>146.74000000000001</ele>
        <time>2019-08-31T10:05:28Z</time>
      </trkpt>
      <trkpt lat="55.174480034038424" lon="-1.902936017140746">
        <ele>152.50999999999999</ele>
        <time>2019-08-31T10:05:39Z</time>
      </trkpt>
      <trkpt lat="55.174511969089508" lon="-1.904089031741023">
        <ele>152.03</ele>
        <time>2019-08-31T10:05:43Z</time>
      </trkpt>
      <trkpt lat="55.174520015716553" lon="-1.904374016448855">
        <ele>152.03</ele>
        <time>2019-08-31T10:05:44Z</time>
      </trkpt>
      <trkpt lat="55.17438598908484" lon="-1.907245991751552">
        <ele>152.03</ele>
        <time>2019-08-31T10:05:54Z</time>
      </trkpt>
      <trkpt lat="55.174208963289857" lon="-1.910352995619178">
        <ele>149.62</ele>
        <time>2019-08-31T10:06:04Z</time>
      </trkpt>
      <trkpt lat="55.17389003187418" lon="-1.915927967056632">
        <ele>145.78</ele>
        <time>2019-08-31T10:06:21Z</time>
      </trkpt>
      <trkpt lat="55.173622984439135" lon="-1.920612026005983">
        <ele>145.78</ele>
        <time>2019-08-31T10:06:34Z</time>
      </trkpt>
      <trkpt lat="55.173377981409431" lon="-1.924888975918293">
        <ele>151.53999999999999</ele>
        <time>2019-08-31T10:06:46Z</time>
      </trkpt>
      <trkpt lat="55.173216965049505" lon="-1.927707977592945">
        <ele>156.83000000000001</ele>
        <time>2019-08-31T10:06:56Z</time>
      </trkpt>
      <trkpt lat="55.173027031123638" lon="-1.930929981172085">
        <ele>158.75</ele>
        <time>2019-08-31T10:07:06Z</time>
      </trkpt>
      <trkpt lat="55.172854028642178" lon="-1.933843027800322">
        <ele>157.78999999999999</ele>
        <time>2019-08-31T10:07:15Z</time>
      </trkpt>
      <trkpt lat="55.172711033374071" lon="-1.936336979269981">
        <ele>163.56</ele>
        <time>2019-08-31T10:07:25Z</time>
      </trkpt>
      <trkpt lat="55.17262302339077" lon="-1.938033979386091">
        <ele>165.47999999999999</ele>
        <time>2019-08-31T10:07:35Z</time>
      </trkpt>
      <trkpt lat="55.172386988997459" lon="-1.939615979790688">
        <ele>166.93000000000001</ele>
        <time>2019-08-31T10:07:45Z</time>
      </trkpt>
      <trkpt lat="55.172134023159742" lon="-1.941029001027346">
        <ele>167.41</ele>
        <time>2019-08-31T10:07:52Z</time>
      </trkpt>
      <trkpt lat="55.171754993498325" lon="-1.943016014993191">
        <ele>168.84999999999999</ele>
        <time>2019-08-31T10:08:01Z</time>
      </trkpt>
      <trkpt lat="55.171225005760789" lon="-1.945600993931294">
        <ele>170.28999999999999</ele>
        <time>2019-08-31T10:08:12Z</time>
      </trkpt>
      <trkpt lat="55.170622011646628" lon="-1.947367982938886">
        <ele>173.66</ele>
        <time>2019-08-31T10:08:20Z</time>
      </trkpt>
      <trkpt lat="55.169674018397927" lon="-1.950149014592171">
        <ele>180.38</ele>
        <time>2019-08-31T10:08:32Z</time>
      </trkpt>
      <trkpt lat="55.169054009020329" lon="-1.952137034386396">
        <ele>183.75</ele>
        <time>2019-08-31T10:08:41Z</time>
      </trkpt>
      <trkpt lat="55.169020984321833" lon="-1.952380025759339">
        <ele>184.22999999999999</ele>
        <time>2019-08-31T10:08:42Z</time>
      </trkpt>
      <trkpt lat="55.168561991304159" lon="-1.955226017162204">
        <ele>194.31999999999999</ele>
        <time>2019-08-31T10:08:54Z</time>
      </trkpt>
      <trkpt lat="55.168257979676127" lon="-1.95607703179121">
        <ele>197.21000000000001</ele>
        <time>2019-08-31T10:08:58Z</time>
      </trkpt>
      <trkpt lat="55.167178977280855" lon="-1.958695035427809">
        <ele>200.09</ele>
        <time>2019-08-31T10:09:09Z</time>
      </trkpt>
      <trkpt lat="55.166418990120292" lon="-1.960574006661773">
        <ele>204.41999999999999</ele>
        <time>2019-08-31T10:09:18Z</time>
      </trkpt>
      <trkpt lat="55.166030991822481" lon="-1.961501967161894">
        <ele>205.38</ele>
        <time>2019-08-31T10:09:26Z</time>
      </trkpt>
      <trkpt lat="55.165945999324322" lon="-1.961704976856709">
        <ele>203.94</ele>
        <time>2019-08-31T10:09:34Z</time>
      </trkpt>
      <trkpt lat="55.165936024859548" lon="-1.96172802709043">
        <ele>203.46000000000001</ele>
        <time>2019-08-31T10:09:35Z</time>
      </trkpt>
      <trkpt lat="55.165898976847529" lon="-1.96181695908308">
        <ele>202.49000000000001</ele>
        <time>2019-08-31T10:09:44Z</time>
      </trkpt>
      <trkpt lat="55.165887996554375" lon="-1.961844032630324">
        <ele>202.49000000000001</ele>
        <time>2019-08-31T10:09:45Z</time>
      </trkpt>
      <trkpt lat="55.165876010432839" lon="-1.961872028186917">
        <ele>202.00999999999999</ele>
        <time>2019-08-31T10:09:46Z</time>
      </trkpt>
      <trkpt lat="55.165864024311304" lon="-1.961902035400271">
        <ele>202.00999999999999</ele>
        <time>2019-08-31T10:09:47Z</time>
      </trkpt>
      <trkpt lat="55.165871987119317" lon="-1.962011000141501">
        <ele>201.53</ele>
        <time>2019-08-31T10:09:48Z</time>
      </trkpt>
      <trkpt lat="55.165911968797445" lon="-1.962038995698094">
        <ele>201.53</ele>
        <time>2019-08-31T10:09:49Z</time>
      </trkpt>
      <trkpt lat="55.165980029851198" lon="-1.962087024003267">
        <ele>201.05000000000001</ele>
        <time>2019-08-31T10:09:50Z</time>
      </trkpt>
      <trkpt lat="55.166068961843848" lon="-1.962148966267705">
        <ele>200.56999999999999</ele>
        <time>2019-08-31T10:09:51Z</time>
      </trkpt>
      <trkpt lat="55.16617801040411" lon="-1.962225995957851">
        <ele>199.61000000000001</ele>
        <time>2019-08-31T10:09:52Z</time>
      </trkpt>
      <trkpt lat="55.16710496507585" lon="-1.962897973135114">
        <ele>195.77000000000001</ele>
        <time>2019-08-31T10:09:59Z</time>
      </trkpt>
      <trkpt lat="55.167227005586028" lon="-1.962987994775176">
        <ele>195.77000000000001</ele>
        <time>2019-08-31T10:10:00Z</time>
      </trkpt>
      <trkpt lat="55.168206011876464" lon="-1.963699031621218">
        <ele>194.80000000000001</ele>
        <time>2019-08-31T10:10:08Z</time>
      </trkpt>
      <trkpt lat="55.168512035161257" lon="-1.963917966932058">
        <ele>194.31999999999999</ele>
        <time>2019-08-31T10:10:11Z</time>
      </trkpt>
      <trkpt lat="55.169708970934153" lon="-1.964802006259561">
        <ele>191.91999999999999</ele>
        <time>2019-08-31T10:10:21Z</time>
      </trkpt>
      <trkpt lat="55.171131966635585" lon="-1.965628964826465">
        <ele>194.31999999999999</ele>
        <time>2019-08-31T10:10:31Z</time>
      </trkpt>
      <trkpt lat="55.173129960894585" lon="-1.966163981705904">
        <ele>182.31</ele>
        <time>2019-08-31T10:10:43Z</time>
      </trkpt>
      <trkpt lat="55.174580030143261" lon="-1.966551980003715">
        <ele>184.71000000000001</ele>
        <time>2019-08-31T10:10:52Z</time>
      </trkpt>
      <trkpt lat="55.17638498917222" lon="-1.96703502908349">
        <ele>184.71000000000001</ele>
        <time>2019-08-31T10:11:03Z</time>
      </trkpt>
      <trkpt lat="55.178569983690977" lon="-1.967618996277452">
        <ele>174.13999999999999</ele>
        <time>2019-08-31T10:11:16Z</time>
      </trkpt>
      <trkpt lat="55.180061040446162" lon="-1.967994002625346">
        <ele>170.28999999999999</ele>
        <time>2019-08-31T10:11:25Z</time>
      </trkpt>
      <trkpt lat="55.182352988049388" lon="-1.968598002567887">
        <ele>172.21000000000001</ele>
        <time>2019-08-31T10:11:37Z</time>
      </trkpt>
      <trkpt lat="55.184323992580175" lon="-1.969117010012269">
        <ele>170.28999999999999</ele>
        <time>2019-08-31T10:11:47Z</time>
      </trkpt>
      <trkpt lat="55.185663001611829" lon="-1.969469971954823">
        <ele>175.58000000000001</ele>
        <time>2019-08-31T10:11:55Z</time>
      </trkpt>
      <trkpt lat="55.187193034216762" lon="-1.96987297385931">
        <ele>177.5</ele>
        <time>2019-08-31T10:12:06Z</time>
      </trkpt>
      <trkpt lat="55.189089020714164" lon="-1.970373960211873">
        <ele>179.90000000000001</ele>
        <time>2019-08-31T10:12:17Z</time>
      </trkpt>
      <trkpt lat="55.19086497835815" lon="-1.970843011513352">
        <ele>190</ele>
        <time>2019-08-31T10:12:27Z</time>
      </trkpt>
      <trkpt lat="55.193076962605119" lon="-1.971433013677597">
        <ele>203.46000000000001</ele>
        <time>2019-08-31T10:12:39Z</time>
      </trkpt>
      <trkpt lat="55.194627027958632" lon="-1.971846995875239">
        <ele>217.88</ele>
        <time>2019-08-31T10:12:48Z</time>
      </trkpt>
      <trkpt lat="55.195899987593293" lon="-1.972185960039496">
        <ele>229.41</ele>
        <time>2019-08-31T10:12:56Z</time>
      </trkpt>
      <trkpt lat="55.197496991604567" lon="-1.972613018006086">
        <ele>233.25999999999999</ele>
        <time>2019-08-31T10:13:06Z</time>
      </trkpt>
      <trkpt lat="55.198410032317042" lon="-1.972856009379029">
        <ele>231.81</ele>
        <time>2019-08-31T10:13:14Z</time>
      </trkpt>
      <trkpt lat="55.198725024238229" lon="-1.972839999943972">
        <ele>230.37</ele>
        <time>2019-08-31T10:13:18Z</time>
      </trkpt>
      <trkpt lat="55.198751008138061" lon="-1.973013002425432">
        <ele>229.88999999999999</ele>
        <time>2019-08-31T10:13:19Z</time>
      </trkpt>
      <trkpt lat="55.198767017573118" lon="-1.973118027672172">
        <ele>229.41</ele>
        <time>2019-08-31T10:13:20Z</time>
      </trkpt>
      <trkpt lat="55.198785960674286" lon="-1.973246019333601">
        <ele>228.93000000000001</ele>
        <time>2019-08-31T10:13:21Z</time>
      </trkpt>
      <trkpt lat="55.198808005079627" lon="-1.973391026258469">
        <ele>228.44999999999999</ele>
        <time>2019-08-31T10:13:22Z</time>
      </trkpt>
      <trkpt lat="55.198832983151078" lon="-1.973557993769646">
        <ele>227.97</ele>
        <time>2019-08-31T10:13:23Z</time>
      </trkpt>
      <trkpt lat="55.199069017544389" lon="-1.975121973082423">
        <ele>228.44999999999999</ele>
        <time>2019-08-31T10:13:30Z</time>
      </trkpt>
      <trkpt lat="55.199493980035186" lon="-1.977941980585456">
        <ele>228.93000000000001</ele>
        <time>2019-08-31T10:13:41Z</time>
      </trkpt>
      <trkpt lat="55.200038971379399" lon="-1.981582995504141">
        <ele>219.31999999999999</ele>
        <time>2019-08-31T10:13:55Z</time>
      </trkpt>
      <trkpt lat="55.200495030730963" lon="-1.984732998535037">
        <ele>216.91</ele>
        <time>2019-08-31T10:14:07Z</time>
      </trkpt>
      <trkpt lat="55.20098302513361" lon="-1.988105038180947">
        <ele>224.61000000000001</ele>
        <time>2019-08-31T10:14:20Z</time>
      </trkpt>
      <trkpt lat="55.201541008427739" lon="-1.991963982582092">
        <ele>229.41</ele>
        <time>2019-08-31T10:14:34Z</time>
      </trkpt>
      <trkpt lat="55.202072001993656" lon="-1.995655037462711">
        <ele>233.74000000000001</ele>
        <time>2019-08-31T10:14:46Z</time>
      </trkpt>
      <trkpt lat="55.202657980844378" lon="-1.999754039570689">
        <ele>235.18000000000001</ele>
        <time>2019-08-31T10:14:59Z</time>
      </trkpt>
      <trkpt lat="55.203333981335163" lon="-2.004404990002513">
        <ele>238.06</ele>
        <time>2019-08-31T10:15:14Z</time>
      </trkpt>
      <trkpt lat="55.20395097322762" lon="-2.008644975721836">
        <ele>245.75</ele>
        <time>2019-08-31T10:15:28Z</time>
      </trkpt>
      <trkpt lat="55.204479033127427" lon="-2.012279033660889">
        <ele>250.56</ele>
        <time>2019-08-31T10:15:39Z</time>
      </trkpt>
      <trkpt lat="55.205069035291672" lon="-2.016339981928468">
        <ele>252.47999999999999</ele>
        <time>2019-08-31T10:15:52Z</time>
      </trkpt>
      <trkpt lat="55.205531967803836" lon="-2.019540024921298">
        <ele>250.56</ele>
        <time>2019-08-31T10:16:02Z</time>
      </trkpt>
      <trkpt lat="55.205865986645222" lon="-2.021858962252736">
        <ele>254.88999999999999</ele>
        <time>2019-08-31T10:16:10Z</time>
      </trkpt>
      <trkpt lat="55.206403015181422" lon="-2.025598967447877">
        <ele>261.13999999999999</ele>
        <time>2019-08-31T10:16:23Z</time>
      </trkpt>
      <trkpt lat="55.207117991521955" lon="-2.030568011105061">
        <ele>266.89999999999998</ele>
        <time>2019-08-31T10:16:38Z</time>
      </trkpt>
      <trkpt lat="55.207765996456146" lon="-2.035075966268778">
        <ele>277</ele>
        <time>2019-08-31T10:16:52Z</time>
      </trkpt>
      <trkpt lat="55.2082259953022" lon="-2.038280032575131">
        <ele>282.27999999999997</ele>
        <time>2019-08-31T10:17:03Z</time>
      </trkpt>
      <trkpt lat="55.208668978884816" lon="-2.041360968723893">
        <ele>286.13</ele>
        <time>2019-08-31T10:17:13Z</time>
      </trkpt>
      <trkpt lat="55.209099976345897" lon="-2.044353978708386">
        <ele>286.13</ele>
        <time>2019-08-31T10:17:23Z</time>
      </trkpt>
      <trkpt lat="55.20957799628377" lon="-2.04760598950088">
        <ele>288.52999999999997</ele>
        <time>2019-08-31T10:17:35Z</time>
      </trkpt>
      <trkpt lat="55.20987999625504" lon="-2.049639020115137">
        <ele>295.25999999999999</ele>
        <time>2019-08-31T10:17:43Z</time>
      </trkpt>
      <trkpt lat="55.210274029523134" lon="-2.052280995994806">
        <ele>301.02999999999997</ele>
        <time>2019-08-31T10:17:53Z</time>
      </trkpt>
      <trkpt lat="55.210723970085382" lon="-2.055304013192654">
        <ele>309.68000000000001</ele>
        <time>2019-08-31T10:18:03Z</time>
      </trkpt>
      <trkpt lat="55.211321013048291" lon="-2.059292960911989">
        <ele>317.85000000000002</ele>
        <time>2019-08-31T10:18:16Z</time>
      </trkpt>
      <trkpt lat="55.211824011057615" lon="-2.062442963942885">
        <ele>319.77999999999997</ele>
        <time>2019-08-31T10:18:26Z</time>
      </trkpt>
      <trkpt lat="55.212502023205161" lon="-2.06487899646163">
        <ele>313.52999999999997</ele>
        <time>2019-08-31T10:18:34Z</time>
      </trkpt>
      <trkpt lat="55.213284976780415" lon="-2.067688023671508">
        <ele>307.75999999999999</ele>
        <time>2019-08-31T10:18:44Z</time>
      </trkpt>
      <trkpt lat="55.214355010539293" lon="-2.071530036628246">
        <ele>304.38999999999999</ele>
        <time>2019-08-31T10:18:58Z</time>
      </trkpt>
      <trkpt lat="55.215407023206353" lon="-2.075309017673135">
        <ele>289.97000000000003</ele>
        <time>2019-08-31T10:19:10Z</time>
      </trkpt>
      <trkpt lat="55.216186959296465" lon="-2.078109998255968">
        <ele>285.17000000000002</ele>
        <time>2019-08-31T10:19:21Z</time>
      </trkpt>
      <trkpt lat="55.217149034142494" lon="-2.081612963229418">
        <ele>284.69</ele>
        <time>2019-08-31T10:19:35Z</time>
      </trkpt>
      <trkpt lat="55.217956965789199" lon="-2.084748968482018">
        <ele>269.31</ele>
        <time>2019-08-31T10:19:46Z</time>
      </trkpt>
      <trkpt lat="55.218702033162117" lon="-2.087778020650148">
        <ele>271.23000000000002</ele>
        <time>2019-08-31T10:19:58Z</time>
      </trkpt>
      <trkpt lat="55.218936977908015" lon="-2.088617971166968">
        <ele>270.26999999999998</ele>
        <time>2019-08-31T10:20:03Z</time>
      </trkpt>
      <trkpt lat="55.219025993719697" lon="-2.088724002242088">
        <ele>269.31</ele>
        <time>2019-08-31T10:20:04Z</time>
      </trkpt>
      <trkpt lat="55.219122972339392" lon="-2.088807988911867">
        <ele>268.35000000000002</ele>
        <time>2019-08-31T10:20:05Z</time>
      </trkpt>
      <trkpt lat="55.219234032556415" lon="-2.088909996673465">
        <ele>266.89999999999998</ele>
        <time>2019-08-31T10:20:06Z</time>
      </trkpt>
      <trkpt lat="55.219356995075941" lon="-2.089023990556598">
        <ele>265.45999999999998</ele>
        <time>2019-08-31T10:20:07Z</time>
      </trkpt>
      <trkpt lat="55.220852997153997" lon="-2.090266020968556">
        <ele>252.47999999999999</ele>
        <time>2019-08-31T10:20:18Z</time>
      </trkpt>
      <trkpt lat="55.222310023382306" lon="-2.091022990643978">
        <ele>239.99000000000001</ele>
        <time>2019-08-31T10:20:28Z</time>
      </trkpt>
      <trkpt lat="55.222704978659749" lon="-2.091265982016921">
        <ele>238.06</ele>
        <time>2019-08-31T10:20:31Z</time>
      </trkpt>
      <trkpt lat="55.222819978371263" lon="-2.091404031962156">
        <ele>237.58000000000001</ele>
        <time>2019-08-31T10:20:32Z</time>
      </trkpt>
      <trkpt lat="55.223893029615283" lon="-2.093129027634859">
        <ele>229.88999999999999</ele>
        <time>2019-08-31T10:20:42Z</time>
      </trkpt>
      <trkpt lat="55.224554026499391" lon="-2.094204006716609">
        <ele>222.68000000000001</ele>
        <time>2019-08-31T10:20:49Z</time>
      </trkpt>
      <trkpt lat="55.224614040926099" lon="-2.094386983662844">
        <ele>221.72</ele>
        <time>2019-08-31T10:20:50Z</time>
      </trkpt>
      <trkpt lat="55.224647987633944" lon="-2.094595022499561">
        <ele>220.28</ele>
        <time>2019-08-31T10:20:51Z</time>
      </trkpt>
      <trkpt lat="55.224656034260988" lon="-2.09480700083077">
        <ele>219.31999999999999</ele>
        <time>2019-08-31T10:20:52Z</time>
      </trkpt>
      <trkpt lat="55.224665002897382" lon="-2.095031971111894">
        <ele>217.88</ele>
        <time>2019-08-31T10:20:53Z</time>
      </trkpt>
      <trkpt lat="55.224728034809232" lon="-2.096696030348539">
        <ele>208.74000000000001</ele>
        <time>2019-08-31T10:21:01Z</time>
      </trkpt>
      <trkpt lat="55.224731974303722" lon="-2.096800971776247">
        <ele>207.78</ele>
        <time>2019-08-31T10:21:02Z</time>
      </trkpt>
      <trkpt lat="55.22476801648736" lon="-2.096883030608296">
        <ele>206.81999999999999</ele>
        <time>2019-08-31T10:21:03Z</time>
      </trkpt>
      <trkpt lat="55.224816966801882" lon="-2.096994007006288">
        <ele>205.86000000000001</ele>
        <time>2019-08-31T10:21:04Z</time>
      </trkpt>
      <trkpt lat="55.224871030077338" lon="-2.097034994512796">
        <ele>205.38</ele>
        <time>2019-08-31T10:21:05Z</time>
      </trkpt>
      <trkpt lat="55.224960967898369" lon="-2.097105989232659">
        <ele>204.90000000000001</ele>
        <time>2019-08-31T10:21:06Z</time>
      </trkpt>
      <trkpt lat="55.225850036367774" lon="-2.097799004986882">
        <ele>201.53</ele>
        <time>2019-08-31T10:21:13Z</time>
      </trkpt>
      <trkpt lat="55.22732499986887" lon="-2.098949002102017">
        <ele>187.59</ele>
        <time>2019-08-31T10:21:24Z</time>
      </trkpt>
      <trkpt lat="55.228860983625054" lon="-2.100147027522326">
        <ele>168.37</ele>
        <time>2019-08-31T10:21:36Z</time>
      </trkpt>
      <trkpt lat="55.229434976354241" lon="-2.100595040246844">
        <ele>162.12</ele>
        <time>2019-08-31T10:21:42Z</time>
      </trkpt>
      <trkpt lat="55.22949499078095" lon="-2.100641978904605">
        <ele>162.12</ele>
        <time>2019-08-31T10:21:43Z</time>
      </trkpt>
      <trkpt lat="55.229520974680781" lon="-2.100744992494583">
        <ele>161.63999999999999</ele>
        <time>2019-08-31T10:21:44Z</time>
      </trkpt>
      <trkpt lat="55.22953798994422" lon="-2.100812969729304">
        <ele>161.63999999999999</ele>
        <time>2019-08-31T10:21:45Z</time>
      </trkpt>
      <trkpt lat="55.229523992165923" lon="-2.100991001352668">
        <ele>161.16</ele>
        <time>2019-08-31T10:21:46Z</time>
      </trkpt>
      <trkpt lat="55.229511000216007" lon="-2.101171966642141">
        <ele>160.68000000000001</ele>
        <time>2019-08-31T10:21:47Z</time>
      </trkpt>
      <trkpt lat="55.22949499078095" lon="-2.101368019357324">
        <ele>160.19999999999999</ele>
        <time>2019-08-31T10:21:48Z</time>
      </trkpt>
      <trkpt lat="55.229463977739215" lon="-2.101776972413063">
        <ele>159.72</ele>
        <time>2019-08-31T10:21:50Z</time>
      </trkpt>
      <trkpt lat="55.22945199161768" lon="-2.101929020136595">
        <ele>159.72</ele>
        <time>2019-08-31T10:21:51Z</time>
      </trkpt>
      <trkpt lat="55.229507982730865" lon="-2.102159019559622">
        <ele>159.72</ele>
        <time>2019-08-31T10:21:52Z</time>
      </trkpt>
      <trkpt lat="55.229551987722516" lon="-2.102345013990998">
        <ele>159.72</ele>
        <time>2019-08-31T10:21:53Z</time>
      </trkpt>
      <trkpt lat="55.229610996320844" lon="-2.102534025907517">
        <ele>159.24000000000001</ele>
        <time>2019-08-31T10:21:54Z</time>
      </trkpt>
      <trkpt lat="55.229877959936857" lon="-2.103143977001309">
        <ele>158.27000000000001</ele>
        <time>2019-08-31T10:21:58Z</time>
      </trkpt>
      <trkpt lat="55.229965969920158" lon="-2.103222012519836">
        <ele>158.27000000000001</ele>
        <time>2019-08-31T10:21:59Z</time>
      </trkpt>
      <trkpt lat="55.230062026530504" lon="-2.103302981704474">
        <ele>158.75</ele>
        <time>2019-08-31T10:22:00Z</time>
      </trkpt>
      <trkpt lat="55.230264030396938" lon="-2.103471038863063">
        <ele>159.24000000000001</ele>
        <time>2019-08-31T10:22:02Z</time>
      </trkpt>
      <trkpt lat="55.230360003188252" lon="-2.103551002219319">
        <ele>159.72</ele>
        <time>2019-08-31T10:22:03Z</time>
      </trkpt>
      <trkpt lat="55.230472991243005" lon="-2.103576986119151">
        <ele>159.72</ele>
        <time>2019-08-31T10:22:04Z</time>
      </trkpt>
      <trkpt lat="55.230584973469377" lon="-2.103569023311138">
        <ele>159.72</ele>
        <time>2019-08-31T10:22:05Z</time>
      </trkpt>
      <trkpt lat="55.230700979009271" lon="-2.103561982512474">
        <ele>159.72</ele>
        <time>2019-08-31T10:22:06Z</time>
      </trkpt>
      <trkpt lat="55.230930978432298" lon="-2.103546978905797">
        <ele>159.72</ele>
        <time>2019-08-31T10:22:08Z</time>
      </trkpt>
      <trkpt lat="55.231114039197564" lon="-2.103485958650708">
        <ele>158.75</ele>
        <time>2019-08-31T10:22:10Z</time>
      </trkpt>
      <trkpt lat="55.231169024482369" lon="-2.103430973365903">
        <ele>158.75</ele>
        <time>2019-08-31T10:22:11Z</time>
      </trkpt>
      <trkpt lat="55.231232978403568" lon="-2.103304993361235">
        <ele>158.75</ele>
        <time>2019-08-31T10:22:12Z</time>
      </trkpt>
      <trkpt lat="55.231286035850644" lon="-2.103201979771256">
        <ele>158.75</ele>
        <time>2019-08-31T10:22:13Z</time>
      </trkpt>
      <trkpt lat="55.231340015307069" lon="-2.103096032515168">
        <ele>159.24000000000001</ele>
        <time>2019-08-31T10:22:14Z</time>
      </trkpt>
      <trkpt lat="55.231882994994521" lon="-2.102185003459454">
        <ele>160.19999999999999</ele>
        <time>2019-08-31T10:22:24Z</time>
      </trkpt>
      <trkpt lat="55.232003023847938" lon="-2.102043014019728">
        <ele>161.16</ele>
        <time>2019-08-31T10:22:26Z</time>
      </trkpt>
      <trkpt lat="55.232124980539083" lon="-2.10189700126648">
        <ele>161.63999999999999</ele>
        <time>2019-08-31T10:22:28Z</time>
      </trkpt>
      <trkpt lat="55.232179965823889" lon="-2.10183103568852">
        <ele>162.12</ele>
        <time>2019-08-31T10:22:29Z</time>
      </trkpt>
      <trkpt lat="55.232287002727389" lon="-2.101856013759971">
        <ele>162.59999999999999</ele>
        <time>2019-08-31T10:22:30Z</time>
      </trkpt>
      <trkpt lat="55.232325978577137" lon="-2.101942012086511">
        <ele>163.56</ele>
        <time>2019-08-31T10:22:31Z</time>
      </trkpt>
      <trkpt lat="55.232370989397168" lon="-2.102042008191347">
        <ele>164.03999999999999</ele>
        <time>2019-08-31T10:22:32Z</time>
      </trkpt>
      <trkpt lat="55.23241801187396" lon="-2.102146027609706">
        <ele>164.52000000000001</ele>
        <time>2019-08-31T10:22:33Z</time>
      </trkpt>
      <trkpt lat="55.232464028522372" lon="-2.102247029542923">
        <ele>165.47999999999999</ele>
        <time>2019-08-31T10:22:34Z</time>
      </trkpt>
      <trkpt lat="55.232509961351752" lon="-2.102347025647759">
        <ele>166.44999999999999</ele>
        <time>2019-08-31T10:22:35Z</time>
      </trkpt>
      <trkpt lat="55.232564024627209" lon="-2.102465964853764">
        <ele>166.93000000000001</ele>
        <time>2019-08-31T10:22:36Z</time>
      </trkpt>
      <trkpt lat="55.232625966891646" lon="-2.102536037564278">
        <ele>167.88999999999999</ele>
        <time>2019-08-31T10:22:37Z</time>
      </trkpt>
      <trkpt lat="55.232684975489974" lon="-2.102602003142238">
        <ele>167.88999999999999</ele>
        <time>2019-08-31T10:22:38Z</time>
      </trkpt>
      <trkpt lat="55.232736021280289" lon="-2.102660005912185">
        <ele>168.37</ele>
        <time>2019-08-31T10:22:39Z</time>
      </trkpt>
      <trkpt lat="55.232780026271939" lon="-2.102709040045738">
        <ele>168.84999999999999</ele>
        <time>2019-08-31T10:22:40Z</time>
      </trkpt>
      <trkpt lat="55.232862001284957" lon="-2.102801995351911">
        <ele>169.33000000000001</ele>
        <time>2019-08-31T10:22:43Z</time>
      </trkpt>
      <trkpt lat="55.232907012104988" lon="-2.102852035313845">
        <ele>170.77000000000001</ele>
        <time>2019-08-31T10:22:50Z</time>
      </trkpt>
      <trkpt lat="55.232895025983453" lon="-2.102904003113508">
        <ele>171.25</ele>
        <time>2019-08-31T10:22:51Z</time>
      </trkpt>
      <trkpt lat="55.232880022376776" lon="-2.102968962863088">
        <ele>171.25</ele>
        <time>2019-08-31T10:22:52Z</time>
      </trkpt>
      <trkpt lat="55.232856972143054" lon="-2.103067031130195">
        <ele>171.25</ele>
        <time>2019-08-31T10:22:53Z</time>
      </trkpt>
      <trkpt lat="55.23282797075808" lon="-2.103192005306482">
        <ele>171.25</ele>
        <time>2019-08-31T10:22:54Z</time>
      </trkpt>
      <trkpt lat="55.232794024050236" lon="-2.103340029716492">
        <ele>171.25</ele>
        <time>2019-08-31T10:22:55Z</time>
      </trkpt>
      <trkpt lat="55.232753958553076" lon="-2.103512026369572">
        <ele>170.77000000000001</ele>
        <time>2019-08-31T10:22:56Z</time>
      </trkpt>
      <trkpt lat="55.232707019895315" lon="-2.103711012750864">
        <ele>170.77000000000001</ele>
        <time>2019-08-31T10:22:57Z</time>
      </trkpt>
      <trkpt lat="55.232539968565106" lon="-2.105498034507036">
        <ele>166.44999999999999</ele>
        <time>2019-08-31T10:23:04Z</time>
      </trkpt>
      <trkpt lat="55.232455981895328" lon="-2.107014991343021">
        <ele>165</ele>
        <time>2019-08-31T10:23:11Z</time>
      </trkpt>
      <trkpt lat="55.232475008815527" lon="-2.107266029343009">
        <ele>165</ele>
        <time>2019-08-31T10:23:12Z</time>
      </trkpt>
      <trkpt lat="55.232491018250585" lon="-2.10748203098774">
        <ele>164.52000000000001</ele>
        <time>2019-08-31T10:23:13Z</time>
      </trkpt>
      <trkpt lat="55.232527982443571" lon="-2.107689986005426">
        <ele>164.52000000000001</ele>
        <time>2019-08-31T10:23:14Z</time>
      </trkpt>
      <trkpt lat="55.232587996870279" lon="-2.107895007357001">
        <ele>165</ele>
        <time>2019-08-31T10:23:15Z</time>
      </trkpt>
      <trkpt lat="55.23265203461051" lon="-2.108113020658493">
        <ele>165.47999999999999</ele>
        <time>2019-08-31T10:23:16Z</time>
      </trkpt>
      <trkpt lat="55.23271800018847" lon="-2.108333967626095">
        <ele>165.96000000000001</ele>
        <time>2019-08-31T10:23:17Z</time>
      </trkpt>
      <trkpt lat="55.233022011816502" lon="-2.109193028882146">
        <ele>169.81</ele>
        <time>2019-08-31T10:23:21Z</time>
      </trkpt>
      <trkpt lat="55.233079008758068" lon="-2.109419004991651">
        <ele>170.77000000000001</ele>
        <time>2019-08-31T10:23:22Z</time>
      </trkpt>
      <trkpt lat="55.233108010143042" lon="-2.109666019678116">
        <ele>172.21000000000001</ele>
        <time>2019-08-31T10:23:23Z</time>
      </trkpt>
      <trkpt lat="55.233290987089276" lon="-2.112870002165437">
        <ele>183.27000000000001</ele>
        <time>2019-08-31T10:23:35Z</time>
      </trkpt>
      <trkpt lat="55.233375979587436" lon="-2.113119028508663">
        <ele>183.75</ele>
        <time>2019-08-31T10:23:36Z</time>
      </trkpt>
      <trkpt lat="55.23405097424984" lon="-2.115126997232437">
        <ele>193.36000000000001</ele>
        <time>2019-08-31T10:23:44Z</time>
      </trkpt>
      <trkpt lat="55.23409497924149" lon="-2.115351967513561">
        <ele>193.84</ele>
        <time>2019-08-31T10:23:45Z</time>
      </trkpt>
      <trkpt lat="55.234132027253509" lon="-2.11558397859335">
        <ele>194.31999999999999</ele>
        <time>2019-08-31T10:23:46Z</time>
      </trkpt>
      <trkpt lat="55.23422297090292" lon="-2.118069967254996">
        <ele>192.40000000000001</ele>
        <time>2019-08-31T10:23:55Z</time>
      </trkpt>
      <trkpt lat="55.234091039747" lon="-2.12013702839613">
        <ele>188.08000000000001</ele>
        <time>2019-08-31T10:24:03Z</time>
      </trkpt>
      <trkpt lat="55.233934968709946" lon="-2.122221020981669">
        <ele>179.90000000000001</ele>
        <time>2019-08-31T10:24:12Z</time>
      </trkpt>
      <trkpt lat="55.233881995081902" lon="-2.122445991262794">
        <ele>178.94</ele>
        <time>2019-08-31T10:24:13Z</time>
      </trkpt>
      <trkpt lat="55.233806977048516" lon="-2.122659981250763">
        <ele>178.46000000000001</ele>
        <time>2019-08-31T10:24:14Z</time>
      </trkpt>
      <trkpt lat="55.233721984550357" lon="-2.122871037572622">
        <ele>178.46000000000001</ele>
        <time>2019-08-31T10:24:15Z</time>
      </trkpt>
      <trkpt lat="55.233624000102282" lon="-2.123058959841728">
        <ele>177.97999999999999</ele>
        <time>2019-08-31T10:24:16Z</time>
      </trkpt>
      <trkpt lat="55.233084037899971" lon="-2.124237958341837">
        <ele>178.46000000000001</ele>
        <time>2019-08-31T10:24:23Z</time>
      </trkpt>
      <trkpt lat="55.232604006305337" lon="-2.12606898508966">
        <ele>182.31</ele>
        <time>2019-08-31T10:24:31Z</time>
      </trkpt>
      <trkpt lat="55.232451958581805" lon="-2.126699974760413">
        <ele>182.78999999999999</ele>
        <time>2019-08-31T10:24:34Z</time>
      </trkpt>
      <trkpt lat="55.232392027974129" lon="-2.12694900110364">
        <ele>182.78999999999999</ele>
        <time>2019-08-31T10:24:35Z</time>
      </trkpt>
      <trkpt lat="55.232256995514035" lon="-2.129710000008345">
        <ele>182.78999999999999</ele>
        <time>2019-08-31T10:24:45Z</time>
      </trkpt>
      <trkpt lat="55.232336958870292" lon="-2.132523972541094">
        <ele>185.66999999999999</ele>
        <time>2019-08-31T10:24:55Z</time>
      </trkpt>
      <trkpt lat="55.232335031032562" lon="-2.134387018159032">
        <ele>187.59</ele>
        <time>2019-08-31T10:25:02Z</time>
      </trkpt>
      <trkpt lat="55.232322039082646" lon="-2.134645013138652">
        <ele>187.59</ele>
        <time>2019-08-31T10:25:03Z</time>
      </trkpt>
      <trkpt lat="55.231857011094689" lon="-2.137775989249349">
        <ele>196.25</ele>
        <time>2019-08-31T10:25:16Z</time>
      </trkpt>
      <trkpt lat="55.231747962534428" lon="-2.140588033944368">
        <ele>196.25</ele>
        <time>2019-08-31T10:25:27Z</time>
      </trkpt>
      <trkpt lat="55.231576971709728" lon="-2.14450397528708">
        <ele>202.00999999999999</ele>
        <time>2019-08-31T10:25:40Z</time>
      </trkpt>
      <trkpt lat="55.231500025838614" lon="-2.145538972690702">
        <ele>202.97999999999999</ele>
        <time>2019-08-31T10:25:44Z</time>
      </trkpt>
      <trkpt lat="55.231459960341454" lon="-2.145769977942109">
        <ele>202.97999999999999</ele>
        <time>2019-08-31T10:25:45Z</time>
      </trkpt>
      <trkpt lat="55.230896025896072" lon="-2.147760009393096">
        <ele>199.61000000000001</ele>
        <time>2019-08-31T10:25:52Z</time>
      </trkpt>
      <trkpt lat="55.23020401597023" lon="-2.150206016376615">
        <ele>201.05000000000001</ele>
        <time>2019-08-31T10:26:01Z</time>
      </trkpt>
      <trkpt lat="55.22953798994422" lon="-2.152053974568844">
        <ele>199.13</ele>
        <time>2019-08-31T10:26:10Z</time>
      </trkpt>
      <trkpt lat="55.229187961667776" lon="-2.153922971338034">
        <ele>194.31999999999999</ele>
        <time>2019-08-31T10:26:17Z</time>
      </trkpt>
      <trkpt lat="55.228599971160293" lon="-2.157130977138877">
        <ele>184.71000000000001</ele>
        <time>2019-08-31T10:26:29Z</time>
      </trkpt>
      <trkpt lat="55.228478014469147" lon="-2.157968999817967">
        <ele>184.22999999999999</ele>
        <time>2019-08-31T10:26:32Z</time>
      </trkpt>
      <trkpt lat="55.228467034175992" lon="-2.158226994797587">
        <ele>183.75</ele>
        <time>2019-08-31T10:26:33Z</time>
      </trkpt>
      <trkpt lat="55.228521013632417" lon="-2.159258974716067">
        <ele>182.78999999999999</ele>
        <time>2019-08-31T10:26:39Z</time>
      </trkpt>
      <trkpt lat="55.228512967005372" lon="-2.15988602489233">
        <ele>182.31</ele>
        <time>2019-08-31T10:26:48Z</time>
      </trkpt>
      <trkpt lat="55.228551020845771" lon="-2.160847010090947">
        <ele>182.31</ele>
        <time>2019-08-31T10:26:53Z</time>
      </trkpt>
      <trkpt lat="55.228632995858788" lon="-2.163055976852775">
        <ele>183.75</ele>
        <time>2019-08-31T10:27:01Z</time>
      </trkpt>
      <trkpt lat="55.228665014728904" lon="-2.163319000974298">
        <ele>184.22999999999999</ele>
        <time>2019-08-31T10:27:02Z</time>
      </trkpt>
      <trkpt lat="55.229082014411688" lon="-2.166504040360451">
        <ele>176.53999999999999</ele>
        <time>2019-08-31T10:27:13Z</time>
      </trkpt>
      <trkpt lat="55.229423996061087" lon="-2.168831024318934">
        <ele>176.53999999999999</ele>
        <time>2019-08-31T10:27:21Z</time>
      </trkpt>
      <trkpt lat="55.229739993810654" lon="-2.170815020799637">
        <ele>171.72999999999999</ele>
        <time>2019-08-31T10:27:29Z</time>
      </trkpt>
      <trkpt lat="55.230270987376571" lon="-2.173077967017889">
        <ele>159.24000000000001</ele>
        <time>2019-08-31T10:27:38Z</time>
      </trkpt>
      <trkpt lat="55.230755964294076" lon="-2.174584027379751">
        <ele>148.18000000000001</ele>
        <time>2019-08-31T10:27:46Z</time>
      </trkpt>
      <trkpt lat="55.231297016143799" lon="-2.176509015262127">
        <ele>149.62</ele>
        <time>2019-08-31T10:27:58Z</time>
      </trkpt>
      <trkpt lat="55.231352001428604" lon="-2.176888966932893">
        <ele>150.09999999999999</ele>
        <time>2019-08-31T10:28:00Z</time>
      </trkpt>
      <trkpt lat="55.231367005035281" lon="-2.177084013819695">
        <ele>150.58000000000001</ele>
        <time>2019-08-31T10:28:01Z</time>
      </trkpt>
      <trkpt lat="55.231384020298719" lon="-2.177286017686129">
        <ele>151.06</ele>
        <time>2019-08-31T10:28:02Z</time>
      </trkpt>
      <trkpt lat="55.231402041390538" lon="-2.177491961047053">
        <ele>150.58000000000001</ele>
        <time>2019-08-31T10:28:03Z</time>
      </trkpt>
      <trkpt lat="55.231417967006564" lon="-2.177684996277094">
        <ele>150.58000000000001</ele>
        <time>2019-08-31T10:28:04Z</time>
      </trkpt>
      <trkpt lat="55.231460966169834" lon="-2.178018009290099">
        <ele>150.09999999999999</ele>
        <time>2019-08-31T10:28:06Z</time>
      </trkpt>
      <trkpt lat="55.231570014730096" lon="-2.178757963702083">
        <ele>147.69999999999999</ele>
        <time>2019-08-31T10:28:12Z</time>
      </trkpt>
      <trkpt lat="55.231582000851631" lon="-2.178834993392229">
        <ele>147.22</ele>
        <time>2019-08-31T10:28:13Z</time>
      </trkpt>
      <trkpt lat="55.231619970872998" lon="-2.179090976715088">
        <ele>144.34</ele>
        <time>2019-08-31T10:28:19Z</time>
      </trkpt>
      <trkpt lat="55.231619970872998" lon="-2.179090976715088">
        <ele>142.41</ele>
        <time>2019-08-31T10:28:33Z</time>
      </trkpt>
      <trkpt lat="55.231619970872998" lon="-2.179090976715088">
        <ele>142.41</ele>
        <time>2019-08-31T10:28:42Z</time>
      </trkpt>
      <trkpt lat="55.231632962822914" lon="-2.17915995977819">
        <ele>141.44999999999999</ele>
        <time>2019-08-31T10:28:43Z</time>
      </trkpt>
      <trkpt lat="55.231638997793198" lon="-2.179194996133447">
        <ele>141.44999999999999</ele>
        <time>2019-08-31T10:28:44Z</time>
      </trkpt>
      <trkpt lat="55.231674034148455" lon="-2.179376967251301">
        <ele>142.88999999999999</ele>
        <time>2019-08-31T10:28:55Z</time>
      </trkpt>
      <trkpt lat="55.231674034148455" lon="-2.179376967251301">
        <ele>142.88999999999999</ele>
        <time>2019-08-31T10:29:11Z</time>
      </trkpt>
      <trkpt lat="55.231674034148455" lon="-2.179376967251301">
        <ele>142.88999999999999</ele>
        <time>2019-08-31T10:29:29Z</time>
      </trkpt>
      <trkpt lat="55.231674034148455" lon="-2.179376967251301">
        <ele>143.37</ele>
        <time>2019-08-31T10:30:00Z</time>
      </trkpt>
      <trkpt lat="55.231674034148455" lon="-2.179376967251301">
        <ele>142.88999999999999</ele>
        <time>2019-08-31T10:30:20Z</time>
      </trkpt>
      <trkpt lat="55.231674034148455" lon="-2.179376967251301">
        <ele>142.88999999999999</ele>
        <time>2019-08-31T10:30:42Z</time>
      </trkpt>
      <trkpt lat="55.231674034148455" lon="-2.179376967251301">
        <ele>142.88999999999999</ele>
        <time>2019-08-31T10:31:23Z</time>
      </trkpt>
      <trkpt lat="55.231674034148455" lon="-2.179376967251301">
        <ele>142.88999999999999</ele>
        <time>2019-08-31T10:32:04Z</time>
      </trkpt>
      <trkpt lat="55.231674034148455" lon="-2.179376967251301">
        <ele>143.37</ele>
        <time>2019-08-31T10:32:54Z</time>
      </trkpt>
      <trkpt lat="55.231674034148455" lon="-2.179376967251301">
        <ele>143.37</ele>
        <time>2019-08-31T10:33:34Z</time>
      </trkpt>
      <trkpt lat="55.231651989743114" lon="-2.179557010531426">
        <ele>170.28999999999999</ele>
        <time>2019-08-31T10:40:04Z</time>
      </trkpt>
      <trkpt lat="55.231603961437941" lon="-2.179448967799544">
        <ele>153.94999999999999</ele>
        <time>2019-08-31T10:40:12Z</time>
      </trkpt>
      <trkpt lat="55.231646038591862" lon="-2.179533038288355">
        <ele>153.94999999999999</ele>
        <time>2019-08-31T10:40:27Z</time>
      </trkpt>
      <trkpt lat="55.231675961986184" lon="-2.179601015523076">
        <ele>152.99000000000001</ele>
        <time>2019-08-31T10:40:40Z</time>
      </trkpt>
      <trkpt lat="55.231842007488012" lon="-2.180269975215197">
        <ele>152.50999999999999</ele>
        <time>2019-08-31T10:40:48Z</time>
      </trkpt>
      <trkpt lat="55.232075024396181" lon="-2.182173002511263">
        <ele>153.94999999999999</ele>
        <time>2019-08-31T10:40:59Z</time>
      </trkpt>
      <trkpt lat="55.232276022434235" lon="-2.184130009263754">
        <ele>154.43000000000001</ele>
        <time>2019-08-31T10:41:09Z</time>
      </trkpt>
      <trkpt lat="55.232518007978797" lon="-2.186477025970817">
        <ele>152.50999999999999</ele>
        <time>2019-08-31T10:41:20Z</time>
      </trkpt>
      <trkpt lat="55.232798969373107" lon="-2.188293971121311">
        <ele>151.53999999999999</ele>
        <time>2019-08-31T10:41:29Z</time>
      </trkpt>
      <trkpt lat="55.23295403458178" lon="-2.188997967168689">
        <ele>152.50999999999999</ele>
        <time>2019-08-31T10:41:37Z</time>
      </trkpt>
      <trkpt lat="55.233024023473263" lon="-2.189239030703902">
        <ele>152.03</ele>
        <time>2019-08-31T10:41:50Z</time>
      </trkpt>
      <trkpt lat="55.233153020963073" lon="-2.18968603760004">
        <ele>152.03</ele>
        <time>2019-08-31T10:42:02Z</time>
      </trkpt>
      <trkpt lat="55.233295010402799" lon="-2.190079987049103">
        <ele>152.03</ele>
        <time>2019-08-31T10:42:05Z</time>
      </trkpt>
      <trkpt lat="55.233614025637507" lon="-2.190859001129866">
        <ele>152.50999999999999</ele>
        <time>2019-08-31T10:42:10Z</time>
      </trkpt>
      <trkpt lat="55.234534023329616" lon="-2.192405965179205">
        <ele>152.50999999999999</ele>
        <time>2019-08-31T10:42:20Z</time>
      </trkpt>
      <trkpt lat="55.235753003507853" lon="-2.194623984396458">
        <ele>152.50999999999999</ele>
        <time>2019-08-31T10:42:32Z</time>
      </trkpt>
      <trkpt lat="55.236602006480098" lon="-2.196801016107202">
        <ele>153.94999999999999</ele>
        <time>2019-08-31T10:42:42Z</time>
      </trkpt>
      <trkpt lat="55.237586963921785" lon="-2.199336038902402">
        <ele>156.34999999999999</ele>
        <time>2019-08-31T10:42:53Z</time>
      </trkpt>
      <trkpt lat="55.238602012395859" lon="-2.202012967318296">
        <ele>154.91</ele>
        <time>2019-08-31T10:43:04Z</time>
      </trkpt>
      <trkpt lat="55.238954974338412" lon="-2.20307202078402">
        <ele>154.43000000000001</ele>
        <time>2019-08-31T10:43:11Z</time>
      </trkpt>
      <trkpt lat="55.239024041220546" lon="-2.203279975801706">
        <ele>153.94999999999999</ele>
        <time>2019-08-31T10:43:14Z</time>
      </trkpt>
      <trkpt lat="55.239042984321713" lon="-2.203334961086512">
        <ele>153.94999999999999</ele>
        <time>2019-08-31T10:43:15Z</time>
      </trkpt>
      <trkpt lat="55.239177010953426" lon="-2.203737962990999">
        <ele>153.94999999999999</ele>
        <time>2019-08-31T10:43:26Z</time>
      </trkpt>
      <trkpt lat="55.239254962652922" lon="-2.203996041789651">
        <ele>153.47</ele>
        <time>2019-08-31T10:43:35Z</time>
      </trkpt>
      <trkpt lat="55.239597028121352" lon="-2.20526497811079">
        <ele>152.50999999999999</ele>
        <time>2019-08-31T10:43:44Z</time>
      </trkpt>
      <trkpt lat="55.240059038624167" lon="-2.207182003185153">
        <ele>152.03</ele>
        <time>2019-08-31T10:43:54Z</time>
      </trkpt>
      <trkpt lat="55.24073101580143" lon="-2.210036963224411">
        <ele>153.94999999999999</ele>
        <time>2019-08-31T10:44:06Z</time>
      </trkpt>
      <trkpt lat="55.240824976935983" lon="-2.210483970120549">
        <ele>153.94999999999999</ele>
        <time>2019-08-31T10:44:08Z</time>
      </trkpt>
      <trkpt lat="55.240897983312607" lon="-2.210684968158603">
        <ele>153.94999999999999</ele>
        <time>2019-08-31T10:44:09Z</time>
      </trkpt>
      <trkpt lat="55.24187196046114" lon="-2.212852025404573">
        <ele>155.38999999999999</ele>
        <time>2019-08-31T10:44:19Z</time>
      </trkpt>
      <trkpt lat="55.243123965337873" lon="-2.214689003303647">
        <ele>152.03</ele>
        <time>2019-08-31T10:44:28Z</time>
      </trkpt>
      <trkpt lat="55.244624996557832" lon="-2.216319032013416">
        <ele>152.50999999999999</ele>
        <time>2019-08-31T10:44:37Z</time>
      </trkpt>
      <trkpt lat="55.246327025815845" lon="-2.217439021915197">
        <ele>154.91</ele>
        <time>2019-08-31T10:44:46Z</time>
      </trkpt>
      <trkpt lat="55.247659999877214" lon="-2.218060959130526">
        <ele>154.91</ele>
        <time>2019-08-31T10:44:54Z</time>
      </trkpt>
      <trkpt lat="55.249273013323545" lon="-2.218800997361541">
        <ele>159.72</ele>
        <time>2019-08-31T10:45:03Z</time>
      </trkpt>
      <trkpt lat="55.250931959599257" lon="-2.219802970066667">
        <ele>168.84999999999999</ele>
        <time>2019-08-31T10:45:14Z</time>
      </trkpt>
      <trkpt lat="55.251075038686395" lon="-2.219932973384857">
        <ele>168.84999999999999</ele>
        <time>2019-08-31T10:45:15Z</time>
      </trkpt>
      <trkpt lat="55.25196704082191" lon="-2.22161496989429">
        <ele>170.77000000000001</ele>
        <time>2019-08-31T10:45:23Z</time>
      </trkpt>
      <trkpt lat="55.25345197878778" lon="-2.224403964355588">
        <ele>178.46000000000001</ele>
        <time>2019-08-31T10:45:34Z</time>
      </trkpt>
      <trkpt lat="55.255458019673824" lon="-2.228240026161075">
        <ele>183.75</ele>
        <time>2019-08-31T10:45:49Z</time>
      </trkpt>
      <trkpt lat="55.257389964535832" lon="-2.231585998088121">
        <ele>179.90000000000001</ele>
        <time>2019-08-31T10:46:02Z</time>
      </trkpt>
      <trkpt lat="55.25886601768434" lon="-2.233837964013219">
        <ele>180.87</ele>
        <time>2019-08-31T10:46:11Z</time>
      </trkpt>
      <trkpt lat="55.260586990043521" lon="-2.236531991511583">
        <ele>188.08000000000001</ele>
        <time>2019-08-31T10:46:22Z</time>
      </trkpt>
      <trkpt lat="55.262534022331238" lon="-2.239964967593551">
        <ele>197.69</ele>
        <time>2019-08-31T10:46:36Z</time>
      </trkpt>
      <trkpt lat="55.263667004182935" lon="-2.242494039237499">
        <ele>195.28</ele>
        <time>2019-08-31T10:46:46Z</time>
      </trkpt>
      <trkpt lat="55.264614997431636" lon="-2.244548024609685">
        <ele>190.47999999999999</ele>
        <time>2019-08-31T10:46:54Z</time>
      </trkpt>
      <trkpt lat="55.265407003462315" lon="-2.24610798060894">
        <ele>191.91999999999999</ele>
        <time>2019-08-31T10:47:02Z</time>
      </trkpt>
      <trkpt lat="55.266463039442897" lon="-2.248269002884626">
        <ele>191.91999999999999</ele>
        <time>2019-08-31T10:47:13Z</time>
      </trkpt>
      <trkpt lat="55.267384964972734" lon="-2.249959968030453">
        <ele>189.52000000000001</ele>
        <time>2019-08-31T10:47:21Z</time>
      </trkpt>
      <trkpt lat="55.26754598133266" lon="-2.250133976340294">
        <ele>189.03999999999999</ele>
        <time>2019-08-31T10:47:22Z</time>
      </trkpt>
      <trkpt lat="55.268731014803052" lon="-2.251516990363598">
        <ele>190</ele>
        <time>2019-08-31T10:47:30Z</time>
      </trkpt>
      <trkpt lat="55.269781015813351" lon="-2.253280039876699">
        <ele>188.08000000000001</ele>
        <time>2019-08-31T10:47:38Z</time>
      </trkpt>
      <trkpt lat="55.271070990711451" lon="-2.255592020228505">
        <ele>182.78999999999999</ele>
        <time>2019-08-31T10:47:48Z</time>
      </trkpt>
      <trkpt lat="55.271861990913749" lon="-2.257179971784353">
        <ele>184.22999999999999</ele>
        <time>2019-08-31T10:47:55Z</time>
      </trkpt>
      <trkpt lat="55.271969027817249" lon="-2.257352974265814">
        <ele>184.71000000000001</ele>
        <time>2019-08-31T10:47:56Z</time>
      </trkpt>
      <trkpt lat="55.272086039185524" lon="-2.257517008110881">
        <ele>185.66999999999999</ele>
        <time>2019-08-31T10:47:57Z</time>
      </trkpt>
      <trkpt lat="55.272880978882313" lon="-2.258344972506166">
        <ele>187.59</ele>
        <time>2019-08-31T10:48:03Z</time>
      </trkpt>
      <trkpt lat="55.27300301939249" lon="-2.258540019392967">
        <ele>187.59</ele>
        <time>2019-08-31T10:48:04Z</time>
      </trkpt>
      <trkpt lat="55.273115001618862" lon="-2.258745962753892">
        <ele>187.59</ele>
        <time>2019-08-31T10:48:05Z</time>
      </trkpt>
      <trkpt lat="55.273214997723699" lon="-2.258972022682428">
        <ele>188.08000000000001</ele>
        <time>2019-08-31T10:48:06Z</time>
      </trkpt>
      <trkpt lat="55.273313988000154" lon="-2.259194981306791">
        <ele>188.56</ele>
        <time>2019-08-31T10:48:07Z</time>
      </trkpt>
      <trkpt lat="55.27392796240747" lon="-2.261180989444256">
        <ele>190.96000000000001</ele>
        <time>2019-08-31T10:48:15Z</time>
      </trkpt>
      <trkpt lat="55.274816025048494" lon="-2.263600006699562">
        <ele>190.96000000000001</ele>
        <time>2019-08-31T10:48:25Z</time>
      </trkpt>
      <trkpt lat="55.27525900863111" lon="-2.265148982405663">
        <ele>187.59</ele>
        <time>2019-08-31T10:48:32Z</time>
      </trkpt>
      <trkpt lat="55.27583702467382" lon="-2.267464986070991">
        <ele>181.83000000000001</ele>
        <time>2019-08-31T10:48:44Z</time>
      </trkpt>
      <trkpt lat="55.276518976315856" lon="-2.269386034458876">
        <ele>178.46000000000001</ele>
        <time>2019-08-31T10:48:55Z</time>
      </trkpt>
      <trkpt lat="55.276595000177622" lon="-2.269599018618465">
        <ele>178.46000000000001</ele>
        <time>2019-08-31T10:48:56Z</time>
      </trkpt>
      <trkpt lat="55.277023985981941" lon="-2.271763980388641">
        <ele>176.06</ele>
        <time>2019-08-31T10:49:07Z</time>
      </trkpt>
      <trkpt lat="55.277565959841013" lon="-2.273383028805256">
        <ele>174.62</ele>
        <time>2019-08-31T10:49:16Z</time>
      </trkpt>
      <trkpt lat="55.278424015268683" lon="-2.275144988670945">
        <ele>177.97999999999999</ele>
        <time>2019-08-31T10:49:26Z</time>
      </trkpt>
      <trkpt lat="55.279380977153778" lon="-2.277091015130281">
        <ele>182.31</ele>
        <time>2019-08-31T10:49:34Z</time>
      </trkpt>
      <trkpt lat="55.281022991985083" lon="-2.280123000964522">
        <ele>183.75</ele>
        <time>2019-08-31T10:49:45Z</time>
      </trkpt>
      <trkpt lat="55.282173994928598" lon="-2.282655006274581">
        <ele>182.78999999999999</ele>
        <time>2019-08-31T10:49:53Z</time>
      </trkpt>
      <trkpt lat="55.283372020348907" lon="-2.285847002640367">
        <ele>184.22999999999999</ele>
        <time>2019-08-31T10:50:03Z</time>
      </trkpt>
      <trkpt lat="55.284746987745166" lon="-2.288914024829865">
        <ele>185.19</ele>
        <time>2019-08-31T10:50:13Z</time>
      </trkpt>
      <trkpt lat="55.286504002287984" lon="-2.29236301034689">
        <ele>183.75</ele>
        <time>2019-08-31T10:50:25Z</time>
      </trkpt>
      <trkpt lat="55.2881920337677" lon="-2.295768996700645">
        <ele>185.19</ele>
        <time>2019-08-31T10:50:38Z</time>
      </trkpt>
      <trkpt lat="55.288849007338285" lon="-2.297977963462472">
        <ele>190</ele>
        <time>2019-08-31T10:50:45Z</time>
      </trkpt>
      <trkpt lat="55.289770010858774" lon="-2.301279008388519">
        <ele>205.38</ele>
        <time>2019-08-31T10:50:56Z</time>
      </trkpt>
      <trkpt lat="55.291016986593604" lon="-2.304961010813713">
        <ele>211.15000000000001</ele>
        <time>2019-08-31T10:51:08Z</time>
      </trkpt>
      <trkpt lat="55.292142005637288" lon="-2.308411002159119">
        <ele>220.28</ele>
        <time>2019-08-31T10:51:21Z</time>
      </trkpt>
      <trkpt lat="55.292559005320072" lon="-2.310558026656508">
        <ele>227.00999999999999</ele>
        <time>2019-08-31T10:51:29Z</time>
      </trkpt>
      <trkpt lat="55.29311497695744" lon="-2.314299959689379">
        <ele>239.02000000000001</ele>
        <time>2019-08-31T10:51:40Z</time>
      </trkpt>
      <trkpt lat="55.29403698630631" lon="-2.318892991170287">
        <ele>247.68000000000001</ele>
        <time>2019-08-31T10:51:53Z</time>
      </trkpt>
      <trkpt lat="55.29485103674233" lon="-2.322944970801473">
        <ele>253.93000000000001</ele>
        <time>2019-08-31T10:52:05Z</time>
      </trkpt>
      <trkpt lat="55.295853009447455" lon="-2.327967993915081">
        <ele>260.17000000000002</ele>
        <time>2019-08-31T10:52:19Z</time>
      </trkpt>
      <trkpt lat="55.296580977737904" lon="-2.331689978018403">
        <ele>254.88999999999999</ele>
        <time>2019-08-31T10:52:29Z</time>
      </trkpt>
      <trkpt lat="55.297397961840034" lon="-2.33587103895843">
        <ele>248.63999999999999</ele>
        <time>2019-08-31T10:52:41Z</time>
      </trkpt>
      <trkpt lat="55.298072034493089" lon="-2.338065002113581">
        <ele>248.16</ele>
        <time>2019-08-31T10:52:49Z</time>
      </trkpt>
      <trkpt lat="55.298319971188903" lon="-2.338463980704546">
        <ele>247.68000000000001</ele>
        <time>2019-08-31T10:52:51Z</time>
      </trkpt>
      <trkpt lat="55.298457015305758" lon="-2.338647041469812">
        <ele>247.19999999999999</ele>
        <time>2019-08-31T10:52:52Z</time>
      </trkpt>
      <trkpt lat="55.298609985038638" lon="-2.338800011202693">
        <ele>247.19999999999999</ele>
        <time>2019-08-31T10:52:53Z</time>
      </trkpt>
      <trkpt lat="55.299888979643583" lon="-2.340045981109142">
        <ele>248.16</ele>
        <time>2019-08-31T10:53:01Z</time>
      </trkpt>
      <trkpt lat="55.30142798088491" lon="-2.34154399484396">
        <ele>248.16</ele>
        <time>2019-08-31T10:53:10Z</time>
      </trkpt>
      <trkpt lat="55.302482005208731" lon="-2.342599024996162">
        <ele>249.12</ele>
        <time>2019-08-31T10:53:16Z</time>
      </trkpt>
      <trkpt lat="55.304170036688447" lon="-2.343654977157712">
        <ele>242.87</ele>
        <time>2019-08-31T10:53:25Z</time>
      </trkpt>
      <trkpt lat="55.305651035159826" lon="-2.34519699588418">
        <ele>237.09999999999999</ele>
        <time>2019-08-31T10:53:33Z</time>
      </trkpt>
      <trkpt lat="55.307053998112679" lon="-2.347021987661719">
        <ele>230.37</ele>
        <time>2019-08-31T10:53:41Z</time>
      </trkpt>
      <trkpt lat="55.30772396363318" lon="-2.34856903553009">
        <ele>227.97</ele>
        <time>2019-08-31T10:53:47Z</time>
      </trkpt>
      <trkpt lat="55.308511024340987" lon="-2.350887972861528">
        <ele>224.61000000000001</ele>
        <time>2019-08-31T10:53:57Z</time>
      </trkpt>
      <trkpt lat="55.309486007317901" lon="-2.352892002090812">
        <ele>221.24000000000001</ele>
        <time>2019-08-31T10:54:05Z</time>
      </trkpt>
      <trkpt lat="55.311585003510118" lon="-2.356551038101316">
        <ele>217.40000000000001</ele>
        <time>2019-08-31T10:54:19Z</time>
      </trkpt>
      <trkpt lat="55.313119981437922" lon="-2.359261997044087">
        <ele>216.91</ele>
        <time>2019-08-31T10:54:30Z</time>
      </trkpt>
      <trkpt lat="55.314375003799796" lon="-2.361574983224273">
        <ele>219.31999999999999</ele>
        <time>2019-08-31T10:54:41Z</time>
      </trkpt>
      <trkpt lat="55.315491976216435" lon="-2.363662999123335">
        <ele>222.68000000000001</ele>
        <time>2019-08-31T10:54:49Z</time>
      </trkpt>
      <trkpt lat="55.316913966089487" lon="-2.366652991622686">
        <ele>226.53</ele>
        <time>2019-08-31T10:54:59Z</time>
      </trkpt>
      <trkpt lat="55.317933037877083" lon="-2.369429999962449">
        <ele>227.00999999999999</ele>
        <time>2019-08-31T10:55:08Z</time>
      </trkpt>
      <trkpt lat="55.318577019497752" lon="-2.371627986431122">
        <ele>226.53</ele>
        <time>2019-08-31T10:55:16Z</time>
      </trkpt>
      <trkpt lat="55.319040035828948" lon="-2.373265977948904">
        <ele>226.53</ele>
        <time>2019-08-31T10:55:24Z</time>
      </trkpt>
      <trkpt lat="55.319337006658316" lon="-2.37413702532649">
        <ele>227.49000000000001</ele>
        <time>2019-08-31T10:55:32Z</time>
      </trkpt>
      <trkpt lat="55.319558037444949" lon="-2.374786036089063">
        <ele>227.97</ele>
        <time>2019-08-31T10:55:40Z</time>
      </trkpt>
      <trkpt lat="55.319586033001542" lon="-2.374871028587222">
        <ele>227.97</ele>
        <time>2019-08-31T10:55:41Z</time>
      </trkpt>
      <trkpt lat="55.319617968052626" lon="-2.374964989721775">
        <ele>227.97</ele>
        <time>2019-08-31T10:55:42Z</time>
      </trkpt>
      <trkpt lat="55.319654010236263" lon="-2.375071020796895">
        <ele>227.97</ele>
        <time>2019-08-31T10:55:43Z</time>
      </trkpt>
      <trkpt lat="55.319693991914392" lon="-2.37518803216517">
        <ele>227.97</ele>
        <time>2019-08-31T10:55:44Z</time>
      </trkpt>
      <trkpt lat="55.320138987153769" lon="-2.376495022326708">
        <ele>228.93000000000001</ele>
        <time>2019-08-31T10:55:52Z</time>
      </trkpt>
      <trkpt lat="55.320826973766088" lon="-2.378577003255487">
        <ele>232.30000000000001</ele>
        <time>2019-08-31T10:56:01Z</time>
      </trkpt>
      <trkpt lat="55.321196028962731" lon="-2.380231004208326">
        <ele>234.22</ele>
        <time>2019-08-31T10:56:08Z</time>
      </trkpt>
      <trkpt lat="55.321385962888598" lon="-2.382125984877348">
        <ele>233.25999999999999</ele>
        <time>2019-08-31T10:56:18Z</time>
      </trkpt>
      <trkpt lat="55.321630965918303" lon="-2.384755974635482">
        <ele>222.68000000000001</ele>
        <time>2019-08-31T10:56:27Z</time>
      </trkpt>
      <trkpt lat="55.322091970592737" lon="-2.38951999694109">
        <ele>227.97</ele>
        <time>2019-08-31T10:56:42Z</time>
      </trkpt>
      <trkpt lat="55.322634028270841" lon="-2.392852976918221">
        <ele>235.66</ele>
        <time>2019-08-31T10:56:53Z</time>
      </trkpt>
      <trkpt lat="55.323205003514886" lon="-2.395769963040948">
        <ele>240.94999999999999</ele>
        <time>2019-08-31T10:57:02Z</time>
      </trkpt>
      <trkpt lat="55.323480013757944" lon="-2.398259975016117">
        <ele>244.78999999999999</ele>
        <time>2019-08-31T10:57:10Z</time>
      </trkpt>
      <trkpt lat="55.323504991829395" lon="-2.402055971324444">
        <ele>245.27000000000001</ele>
        <time>2019-08-31T10:57:21Z</time>
      </trkpt>
      <trkpt lat="55.323609011247754" lon="-2.406284976750612">
        <ele>243.83000000000001</ele>
        <time>2019-08-31T10:57:33Z</time>
      </trkpt>
      <trkpt lat="55.324075967073441" lon="-2.409603958949447">
        <ele>242.87</ele>
        <time>2019-08-31T10:57:42Z</time>
      </trkpt>
      <trkpt lat="55.324622970074415" lon="-2.413094015792012">
        <ele>244.31</ele>
        <time>2019-08-31T10:57:52Z</time>
      </trkpt>
      <trkpt lat="55.325268963351846" lon="-2.416681973263621">
        <ele>246.72</ele>
        <time>2019-08-31T10:58:03Z</time>
      </trkpt>
      <trkpt lat="55.32538203522563" lon="-2.416966035962105">
        <ele>247.19999999999999</ele>
        <time>2019-08-31T10:58:04Z</time>
      </trkpt>
      <trkpt lat="55.325500974431634" lon="-2.41723501123488">
        <ele>247.19999999999999</ele>
        <time>2019-08-31T10:58:05Z</time>
      </trkpt>
      <trkpt lat="55.325633995234966" lon="-2.417486971244216">
        <ele>247.68000000000001</ele>
        <time>2019-08-31T10:58:06Z</time>
      </trkpt>
      <trkpt lat="55.326877031475306" lon="-2.420022999867797">
        <ele>252</ele>
        <time>2019-08-31T10:58:16Z</time>
      </trkpt>
      <trkpt lat="55.327197974547744" lon="-2.420882983133197">
        <ele>252</ele>
        <time>2019-08-31T10:58:19Z</time>
      </trkpt>
      <trkpt lat="55.327946981415153" lon="-2.422975022345781">
        <ele>251.52000000000001</ele>
        <time>2019-08-31T10:58:26Z</time>
      </trkpt>
      <trkpt lat="55.328461965546012" lon="-2.424619970843196">
        <ele>250.08000000000001</ele>
        <time>2019-08-31T10:58:32Z</time>
      </trkpt>
      <trkpt lat="55.328497001901269" lon="-2.424906967207789">
        <ele>250.08000000000001</ele>
        <time>2019-08-31T10:58:33Z</time>
      </trkpt>
      <trkpt lat="55.32892900519073" lon="-2.427954040467739">
        <ele>250.08000000000001</ele>
        <time>2019-08-31T10:58:43Z</time>
      </trkpt>
      <trkpt lat="55.329615985974669" lon="-2.4306879658252">
        <ele>251.03999999999999</ele>
        <time>2019-08-31T10:58:52Z</time>
      </trkpt>
      <trkpt lat="55.330672021955252" lon="-2.433669995516539">
        <ele>252.47999999999999</ele>
        <time>2019-08-31T10:59:02Z</time>
      </trkpt>
      <trkpt lat="55.331599982455373" lon="-2.437267005443573">
        <ele>257.29000000000002</ele>
        <time>2019-08-31T10:59:13Z</time>
      </trkpt>
      <trkpt lat="55.332836983725429" lon="-2.440149039030075">
        <ele>264.01999999999998</ele>
        <time>2019-08-31T10:59:23Z</time>
      </trkpt>
      <trkpt lat="55.334357963874936" lon="-2.44329996407032">
        <ele>272.67000000000002</ele>
        <time>2019-08-31T10:59:35Z</time>
      </trkpt>
      <trkpt lat="55.335381980985403" lon="-2.445710012689233">
        <ele>275.06999999999999</ele>
        <time>2019-08-31T10:59:44Z</time>
      </trkpt>
      <trkpt lat="55.336705986410379" lon="-2.449865005910397">
        <ele>277</ele>
        <time>2019-08-31T10:59:57Z</time>
      </trkpt>
      <trkpt lat="55.337526993826032" lon="-2.452306989580393">
        <ele>276.04000000000002</ele>
        <time>2019-08-31T11:00:05Z</time>
      </trkpt>
      <trkpt lat="55.338012976571918" lon="-2.453708024695516">
        <ele>273.14999999999998</ele>
        <time>2019-08-31T11:00:10Z</time>
      </trkpt>
      <trkpt lat="55.338055975735188" lon="-2.454025028273463">
        <ele>272.67000000000002</ele>
        <time>2019-08-31T11:00:11Z</time>
      </trkpt>
      <trkpt lat="55.338092017918825" lon="-2.454342031851411">
        <ele>273.14999999999998</ele>
        <time>2019-08-31T11:00:12Z</time>
      </trkpt>
      <trkpt lat="55.33812697045505" lon="-2.454659035429359">
        <ele>273.14999999999998</ele>
        <time>2019-08-31T11:00:13Z</time>
      </trkpt>
      <trkpt lat="55.338129987940192" lon="-2.454974027350545">
        <ele>273.14999999999998</ele>
        <time>2019-08-31T11:00:14Z</time>
      </trkpt>
      <trkpt lat="55.33812303096056" lon="-2.455281978473067">
        <ele>273.63</ele>
        <time>2019-08-31T11:00:15Z</time>
      </trkpt>
      <trkpt lat="55.338115990161896" lon="-2.455585990101099">
        <ele>274.11000000000001</ele>
        <time>2019-08-31T11:00:16Z</time>
      </trkpt>
      <trkpt lat="55.338118001818657" lon="-2.458055969327688">
        <ele>281.31999999999999</ele>
        <time>2019-08-31T11:00:25Z</time>
      </trkpt>
      <trkpt lat="55.338503988459706" lon="-2.459995038807392">
        <ele>289.00999999999999</ele>
        <time>2019-08-31T11:00:32Z</time>
      </trkpt>
      <trkpt lat="55.339378975331783" lon="-2.461619032546878">
        <ele>296.69999999999999</ele>
        <time>2019-08-31T11:00:39Z</time>
      </trkpt>
      <trkpt lat="55.340837007388473" lon="-2.463076980784535">
        <ele>307.27999999999997</ele>
        <time>2019-08-31T11:00:48Z</time>
      </trkpt>
      <trkpt lat="55.342994006350636" lon="-2.464530989527702">
        <ele>320.74000000000001</ele>
        <time>2019-08-31T11:01:00Z</time>
      </trkpt>
      <trkpt lat="55.344274006783962" lon="-2.465046979486942">
        <ele>328.91000000000003</ele>
        <time>2019-08-31T11:01:07Z</time>
      </trkpt>
      <trkpt lat="55.344466036185622" lon="-2.465035999193788">
        <ele>330.35000000000002</ele>
        <time>2019-08-31T11:01:08Z</time>
      </trkpt>
      <trkpt lat="55.344651024788618" lon="-2.464945977553725">
        <ele>331.31</ele>
        <time>2019-08-31T11:01:09Z</time>
      </trkpt>
      <trkpt lat="55.344842970371246" lon="-2.464852016419172">
        <ele>332.26999999999998</ele>
        <time>2019-08-31T11:01:10Z</time>
      </trkpt>
      <trkpt lat="55.34504103474319" lon="-2.464755959808826">
        <ele>333.70999999999998</ele>
        <time>2019-08-31T11:01:11Z</time>
      </trkpt>
      <trkpt lat="55.346262026578188" lon="-2.464188002049923">
        <ele>342.37</ele>
        <time>2019-08-31T11:01:18Z</time>
      </trkpt>
      <trkpt lat="55.346414996311069" lon="-2.464166041463614">
        <ele>343.32999999999998</ele>
        <time>2019-08-31T11:01:19Z</time>
      </trkpt>
      <trkpt lat="55.346572995185852" lon="-2.464172998443246">
        <ele>343.81</ele>
        <time>2019-08-31T11:01:20Z</time>
      </trkpt>
      <trkpt lat="55.346725964918733" lon="-2.464201999828219">
        <ele>344.29000000000002</ele>
        <time>2019-08-31T11:01:21Z</time>
      </trkpt>
      <trkpt lat="55.346885975450277" lon="-2.464278023689985">
        <ele>344.76999999999998</ele>
        <time>2019-08-31T11:01:22Z</time>
      </trkpt>
      <trkpt lat="55.347033999860287" lon="-2.464420013129711">
        <ele>345.25</ele>
        <time>2019-08-31T11:01:23Z</time>
      </trkpt>
      <trkpt lat="55.347180012613535" lon="-2.464558985084295">
        <ele>345.73000000000002</ele>
        <time>2019-08-31T11:01:24Z</time>
      </trkpt>
      <trkpt lat="55.347322002053261" lon="-2.464717989787459">
        <ele>346.20999999999998</ele>
        <time>2019-08-31T11:01:25Z</time>
      </trkpt>
      <trkpt lat="55.347435995936394" lon="-2.464934997260571">
        <ele>346.69</ele>
        <time>2019-08-31T11:01:26Z</time>
      </trkpt>
      <trkpt lat="55.34755501896143" lon="-2.465164996683598">
        <ele>347.17000000000002</ele>
        <time>2019-08-31T11:01:27Z</time>
      </trkpt>
      <trkpt lat="55.347629031166434" lon="-2.465428020805121">
        <ele>348.13</ele>
        <time>2019-08-31T11:01:28Z</time>
      </trkpt>
      <trkpt lat="55.347705977037549" lon="-2.465702025219798">
        <ele>349.10000000000002</ele>
        <time>2019-08-31T11:01:29Z</time>
      </trkpt>
      <trkpt lat="55.347773032262921" lon="-2.465997990220785">
        <ele>350.54000000000002</ele>
        <time>2019-08-31T11:01:30Z</time>
      </trkpt>
      <trkpt lat="55.347823994234204" lon="-2.466304013505578">
        <ele>351.5</ele>
        <time>2019-08-31T11:01:31Z</time>
      </trkpt>
      <trkpt lat="55.348382983356714" lon="-2.470352975651622">
        <ele>367.36000000000001</ele>
        <time>2019-08-31T11:01:44Z</time>
      </trkpt>
      <trkpt lat="55.349002992734313" lon="-2.472531013190746">
        <ele>376.49000000000001</ele>
        <time>2019-08-31T11:01:52Z</time>
      </trkpt>
      <trkpt lat="55.349955009296536" lon="-2.473834985867143">
        <ele>383.69999999999999</ele>
        <time>2019-08-31T11:01:58Z</time>
      </trkpt>
      <trkpt lat="55.351224029436707" lon="-2.474865959957242">
        <ele>392.83999999999997</ele>
        <time>2019-08-31T11:02:05Z</time>
      </trkpt>
      <trkpt lat="55.351358978077769" lon="-2.475023958832026">
        <ele>393.80000000000001</ele>
        <time>2019-08-31T11:02:06Z</time>
      </trkpt>
      <trkpt lat="55.351482024416327" lon="-2.475205007940531">
        <ele>395.24000000000001</ele>
        <time>2019-08-31T11:02:07Z</time>
      </trkpt>
      <trkpt lat="55.351569028571248" lon="-2.475455040112138">
        <ele>396.68000000000001</ele>
        <time>2019-08-31T11:02:08Z</time>
      </trkpt>
      <trkpt lat="55.351656032726169" lon="-2.475705994293094">
        <ele>397.63999999999999</ele>
        <time>2019-08-31T11:02:09Z</time>
      </trkpt>
      <trkpt lat="55.351739013567567" lon="-2.475944962352514">
        <ele>399.07999999999998</ele>
        <time>2019-08-31T11:02:10Z</time>
      </trkpt>
      <trkpt lat="55.351819982752204" lon="-2.476177979260683">
        <ele>400.52999999999997</ele>
        <time>2019-08-31T11:02:11Z</time>
      </trkpt>
      <trkpt lat="55.351930037140846" lon="-2.476379983127117">
        <ele>401.49000000000001</ele>
        <time>2019-08-31T11:02:12Z</time>
      </trkpt>
      <trkpt lat="55.352018969133496" lon="-2.47653697617352">
        <ele>402.93000000000001</ele>
        <time>2019-08-31T11:02:13Z</time>
      </trkpt>
      <trkpt lat="55.35217696800828" lon="-2.47670503333211">
        <ele>403.88999999999999</ele>
        <time>2019-08-31T11:02:14Z</time>
      </trkpt>
      <trkpt lat="55.352314012125134" lon="-2.476849034428597">
        <ele>404.85000000000002</ele>
        <time>2019-08-31T11:02:15Z</time>
      </trkpt>
      <trkpt lat="55.352457007393241" lon="-2.476956993341446">
        <ele>406.29000000000002</ele>
        <time>2019-08-31T11:02:16Z</time>
      </trkpt>
      <trkpt lat="55.352611988782883" lon="-2.476992029696703">
        <ele>407.74000000000001</ele>
        <time>2019-08-31T11:02:17Z</time>
      </trkpt>
      <trkpt lat="55.352773005142808" lon="-2.477028993889689">
        <ele>409.18000000000001</ele>
        <time>2019-08-31T11:02:18Z</time>
      </trkpt>
      <trkpt lat="55.352933015674353" lon="-2.477066041901708">
        <ele>410.13999999999999</ele>
        <time>2019-08-31T11:02:19Z</time>
      </trkpt>
      <trkpt lat="55.353442970663309" lon="-2.477168971672654">
        <ele>414.47000000000003</ele>
        <time>2019-08-31T11:02:24Z</time>
      </trkpt>
      <trkpt lat="55.353560987859964" lon="-2.477190010249615">
        <ele>415.91000000000003</ele>
        <time>2019-08-31T11:02:26Z</time>
      </trkpt>
      <trkpt lat="55.353627959266305" lon="-2.47720199637115">
        <ele>416.38999999999999</ele>
        <time>2019-08-31T11:02:27Z</time>
      </trkpt>
      <trkpt lat="55.353834992274642" lon="-2.477612039074302">
        <ele>419.26999999999998</ele>
        <time>2019-08-31T11:02:32Z</time>
      </trkpt>
      <trkpt lat="55.354054011404514" lon="-2.477757968008518">
        <ele>419.26999999999998</ele>
        <time>2019-08-31T11:02:42Z</time>
      </trkpt>
      <trkpt lat="55.354054011404514" lon="-2.477757968008518">
        <ele>419.26999999999998</ele>
        <time>2019-08-31T11:02:43Z</time>
      </trkpt>
      <trkpt lat="55.35413196310401" lon="-2.477810019627214">
        <ele>418.79000000000002</ele>
        <time>2019-08-31T11:02:44Z</time>
      </trkpt>
      <trkpt lat="55.354163981974125" lon="-2.477830974385142">
        <ele>418.79000000000002</ele>
        <time>2019-08-31T11:02:45Z</time>
      </trkpt>
      <trkpt lat="55.354204969480634" lon="-2.477858969941735">
        <ele>418.79000000000002</ele>
        <time>2019-08-31T11:02:46Z</time>
      </trkpt>
      <trkpt lat="55.354314018040895" lon="-2.477931976318359">
        <ele>418.31</ele>
        <time>2019-08-31T11:02:54Z</time>
      </trkpt>
      <trkpt lat="55.35439096391201" lon="-2.478087963536382">
        <ele>417.82999999999998</ele>
        <time>2019-08-31T11:03:05Z</time>
      </trkpt>
      <trkpt lat="55.35439096391201" lon="-2.478087963536382">
        <ele>417.35000000000002</ele>
        <time>2019-08-31T11:03:22Z</time>
      </trkpt>
      <trkpt lat="55.35439096391201" lon="-2.478087963536382">
        <ele>417.35000000000002</ele>
        <time>2019-08-31T11:03:52Z</time>
      </trkpt>
      <trkpt lat="55.35439096391201" lon="-2.478087963536382">
        <ele>416.87</ele>
        <time>2019-08-31T11:04:22Z</time>
      </trkpt>
      <trkpt lat="55.354489032179117" lon="-2.478287033736706">
        <ele>416.87</ele>
        <time>2019-08-31T11:04:23Z</time>
      </trkpt>
      <trkpt lat="55.35445298999548" lon="-2.478285022079945">
        <ele>424.07999999999998</ele>
        <time>2019-08-31T11:13:33Z</time>
      </trkpt>
      <trkpt lat="55.354448966681957" lon="-2.478265995159745">
        <ele>421.19</ele>
        <time>2019-08-31T11:14:04Z</time>
      </trkpt>
      <trkpt lat="55.354462964460254" lon="-2.478289967402816">
        <ele>422.16000000000003</ele>
        <time>2019-08-31T11:14:24Z</time>
      </trkpt>
      <trkpt lat="55.35447402857244" lon="-2.478291979059577">
        <ele>422.16000000000003</ele>
        <time>2019-08-31T11:14:38Z</time>
      </trkpt>
      <trkpt lat="55.354573018848896" lon="-2.478374959900975">
        <ele>422.63999999999999</ele>
        <time>2019-08-31T11:14:55Z</time>
      </trkpt>
      <trkpt lat="55.354588022455573" lon="-2.478378983214498">
        <ele>422.63999999999999</ele>
        <time>2019-08-31T11:15:30Z</time>
      </trkpt>
      <trkpt lat="55.354589028283954" lon="-2.478377977386117">
        <ele>422.63999999999999</ele>
        <time>2019-08-31T11:16:10Z</time>
      </trkpt>
      <trkpt lat="55.354589028283954" lon="-2.478377977386117">
        <ele>422.63999999999999</ele>
        <time>2019-08-31T11:16:17Z</time>
      </trkpt>
      <trkpt lat="55.354835037142038" lon="-2.478994969278574">
        <ele>421.68000000000001</ele>
        <time>2019-08-31T11:16:26Z</time>
      </trkpt>
      <trkpt lat="55.355108035728335" lon="-2.479820000007749">
        <ele>416.87</ele>
        <time>2019-08-31T11:16:35Z</time>
      </trkpt>
      <trkpt lat="55.355177018791437" lon="-2.479869034141302">
        <ele>416.38999999999999</ele>
        <time>2019-08-31T11:16:36Z</time>
      </trkpt>
      <trkpt lat="55.355284977704287" lon="-2.480013035237789">
        <ele>414.94999999999999</ele>
        <time>2019-08-31T11:16:39Z</time>
      </trkpt>
      <trkpt lat="55.355316996574402" lon="-2.480116970837116">
        <ele>413.98000000000002</ele>
        <time>2019-08-31T11:16:40Z</time>
      </trkpt>
      <trkpt lat="55.355630982667208" lon="-2.481429995968938">
        <ele>407.25999999999999</ele>
        <time>2019-08-31T11:16:47Z</time>
      </trkpt>
      <trkpt lat="55.355783030390739" lon="-2.483752034604549">
        <ele>397.63999999999999</ele>
        <time>2019-08-31T11:16:56Z</time>
      </trkpt>
      <trkpt lat="55.355873974040151" lon="-2.486395016312599">
        <ele>390.91000000000003</ele>
        <time>2019-08-31T11:17:06Z</time>
      </trkpt>
      <trkpt lat="55.356481997296214" lon="-2.488725017756224">
        <ele>382.25999999999999</ele>
        <time>2019-08-31T11:17:15Z</time>
      </trkpt>
      <trkpt lat="55.357552031055093" lon="-2.490527965128422">
        <ele>372.17000000000002</ele>
        <time>2019-08-31T11:17:23Z</time>
      </trkpt>
      <trkpt lat="55.359314996749163" lon="-2.492660991847515">
        <ele>360.63</ele>
        <time>2019-08-31T11:17:34Z</time>
      </trkpt>
      <trkpt lat="55.361234033480287" lon="-2.495032986626029">
        <ele>346.69</ele>
        <time>2019-08-31T11:17:46Z</time>
      </trkpt>
      <trkpt lat="55.361657990142703" lon="-2.495945021510124">
        <ele>342.85000000000002</ele>
        <time>2019-08-31T11:17:50Z</time>
      </trkpt>
      <trkpt lat="55.361732002347708" lon="-2.49619203619659">
        <ele>341.88999999999999</ele>
        <time>2019-08-31T11:17:51Z</time>
      </trkpt>
      <trkpt lat="55.361776007339358" lon="-2.4964539706707">
        <ele>340.92000000000002</ele>
        <time>2019-08-31T11:17:52Z</time>
      </trkpt>
      <trkpt lat="55.361931994557381" lon="-2.497372962534428">
        <ele>338.04000000000002</ele>
        <time>2019-08-31T11:17:56Z</time>
      </trkpt>
      <trkpt lat="55.361953033134341" lon="-2.497501038014889">
        <ele>337.07999999999998</ele>
        <time>2019-08-31T11:17:57Z</time>
      </trkpt>
      <trkpt lat="55.362051017582417" lon="-2.497659958899021">
        <ele>336.12</ele>
        <time>2019-08-31T11:17:58Z</time>
      </trkpt>
      <trkpt lat="55.362125029787421" lon="-2.497781999409199">
        <ele>335.63999999999999</ele>
        <time>2019-08-31T11:17:59Z</time>
      </trkpt>
      <trkpt lat="55.36218898370862" lon="-2.497888030484319">
        <ele>335.16000000000003</ele>
        <time>2019-08-31T11:18:00Z</time>
      </trkpt>
      <trkpt lat="55.362270958721638" lon="-2.497924994677305">
        <ele>334.19999999999999</ele>
        <time>2019-08-31T11:18:01Z</time>
      </trkpt>
      <trkpt lat="55.362368021160364" lon="-2.497968999668956">
        <ele>333.70999999999998</ele>
        <time>2019-08-31T11:18:02Z</time>
      </trkpt>
      <trkpt lat="55.362455025315285" lon="-2.497977968305349">
        <ele>333.23000000000002</ele>
        <time>2019-08-31T11:18:03Z</time>
      </trkpt>
      <trkpt lat="55.362552003934979" lon="-2.497920971363783">
        <ele>332.26999999999998</ele>
        <time>2019-08-31T11:18:04Z</time>
      </trkpt>
      <trkpt lat="55.362654011696577" lon="-2.497861962765455">
        <ele>331.79000000000002</ele>
        <time>2019-08-31T11:18:05Z</time>
      </trkpt>
      <trkpt lat="55.362722994759679" lon="-2.497742017731071">
        <ele>330.82999999999998</ele>
        <time>2019-08-31T11:18:06Z</time>
      </trkpt>
      <trkpt lat="55.362787032499909" lon="-2.497578989714384">
        <ele>329.87</ele>
        <time>2019-08-31T11:18:07Z</time>
      </trkpt>
      <trkpt lat="55.362851992249489" lon="-2.497414033859968">
        <ele>328.91000000000003</ele>
        <time>2019-08-31T11:18:08Z</time>
      </trkpt>
      <trkpt lat="55.362895997241139" lon="-2.497237008064985">
        <ele>328.43000000000001</ele>
        <time>2019-08-31T11:18:09Z</time>
      </trkpt>
      <trkpt lat="55.362930027768016" lon="-2.497037015855312">
        <ele>327.47000000000003</ele>
        <time>2019-08-31T11:18:10Z</time>
      </trkpt>
      <trkpt lat="55.363379968330264" lon="-2.494957968592644">
        <ele>322.18000000000001</ele>
        <time>2019-08-31T11:18:19Z</time>
      </trkpt>
      <trkpt lat="55.363448029384017" lon="-2.494737021625042">
        <ele>321.22000000000003</ele>
        <time>2019-08-31T11:18:20Z</time>
      </trkpt>
      <trkpt lat="55.363511983305216" lon="-2.494526971131563">
        <ele>320.74000000000001</ele>
        <time>2019-08-31T11:18:21Z</time>
      </trkpt>
      <trkpt lat="55.363596975803375" lon="-2.494362015277147">
        <ele>319.77999999999997</ele>
        <time>2019-08-31T11:18:22Z</time>
      </trkpt>
      <trkpt lat="55.36369202658534" lon="-2.49424098059535">
        <ele>318.81</ele>
        <time>2019-08-31T11:18:23Z</time>
      </trkpt>
      <trkpt lat="55.3637770190835" lon="-2.494133021682501">
        <ele>317.85000000000002</ele>
        <time>2019-08-31T11:18:24Z</time>
      </trkpt>
      <trkpt lat="55.363878021016717" lon="-2.494113994762301">
        <ele>317.37</ele>
        <time>2019-08-31T11:18:25Z</time>
      </trkpt>
      <trkpt lat="55.36397298797965" lon="-2.494096979498863">
        <ele>316.41000000000003</ele>
        <time>2019-08-31T11:18:26Z</time>
      </trkpt>
      <trkpt lat="55.364054962992668" lon="-2.494141990318894">
        <ele>315.44999999999999</ele>
        <time>2019-08-31T11:18:27Z</time>
      </trkpt>
      <trkpt lat="55.364131992682815" lon="-2.494237963110209">
        <ele>314.49000000000001</ele>
        <time>2019-08-31T11:18:28Z</time>
      </trkpt>
      <trkpt lat="55.364200975745916" lon="-2.494364026933909">
        <ele>314.00999999999999</ele>
        <time>2019-08-31T11:18:29Z</time>
      </trkpt>
      <trkpt lat="55.364247998222709" lon="-2.494536023586988">
        <ele>313.05000000000001</ele>
        <time>2019-08-31T11:18:30Z</time>
      </trkpt>
      <trkpt lat="55.364274987950921" lon="-2.494731992483139">
        <ele>312.56999999999999</ele>
        <time>2019-08-31T11:18:31Z</time>
      </trkpt>
      <trkpt lat="55.364302983507514" lon="-2.494937013834715">
        <ele>312.08999999999997</ele>
        <time>2019-08-31T11:18:32Z</time>
      </trkpt>
      <trkpt lat="55.364332990720868" lon="-2.495153015479446">
        <ele>311.60000000000002</ele>
        <time>2019-08-31T11:18:33Z</time>
      </trkpt>
      <trkpt lat="55.364448996260762" lon="-2.496006963774562">
        <ele>309.19999999999999</ele>
        <time>2019-08-31T11:18:37Z</time>
      </trkpt>
      <trkpt lat="55.364474980160594" lon="-2.496201004832983">
        <ele>308.24000000000001</ele>
        <time>2019-08-31T11:18:38Z</time>
      </trkpt>
      <trkpt lat="55.364540023729205" lon="-2.496351962909102">
        <ele>307.75999999999999</ele>
        <time>2019-08-31T11:18:39Z</time>
      </trkpt>
      <trkpt lat="55.364625016227365" lon="-2.496468974277377">
        <ele>307.27999999999997</ele>
        <time>2019-08-31T11:18:40Z</time>
      </trkpt>
      <trkpt lat="55.364712020382285" lon="-2.496586991474032">
        <ele>306.80000000000001</ele>
        <time>2019-08-31T11:18:41Z</time>
      </trkpt>
      <trkpt lat="55.364813022315502" lon="-2.496642982587218">
        <ele>306.31999999999999</ele>
        <time>2019-08-31T11:18:42Z</time>
      </trkpt>
      <trkpt lat="55.364922992885113" lon="-2.496694028377533">
        <ele>305.36000000000001</ele>
        <time>2019-08-31T11:18:43Z</time>
      </trkpt>
      <trkpt lat="55.365032041445374" lon="-2.496744990348816">
        <ele>304.88</ele>
        <time>2019-08-31T11:18:44Z</time>
      </trkpt>
      <trkpt lat="55.365143017843366" lon="-2.496704002842307">
        <ele>304.38999999999999</ele>
        <time>2019-08-31T11:18:45Z</time>
      </trkpt>
      <trkpt lat="55.36526002921164" lon="-2.496650023385882">
        <ele>303.43000000000001</ele>
        <time>2019-08-31T11:18:46Z</time>
      </trkpt>
      <trkpt lat="55.365375028923154" lon="-2.496586991474032">
        <ele>302.47000000000003</ele>
        <time>2019-08-31T11:18:47Z</time>
      </trkpt>
      <trkpt lat="55.365477036684752" lon="-2.49645296484232">
        <ele>301.50999999999999</ele>
        <time>2019-08-31T11:18:48Z</time>
      </trkpt>
      <trkpt lat="55.365580972284079" lon="-2.496318016201258">
        <ele>300.55000000000001</ele>
        <time>2019-08-31T11:18:49Z</time>
      </trkpt>
      <trkpt lat="55.365673005580902" lon="-2.496162028983235">
        <ele>300.06999999999999</ele>
        <time>2019-08-31T11:18:50Z</time>
      </trkpt>
      <trkpt lat="55.365749029442668" lon="-2.495965976268053">
        <ele>299.11000000000001</ele>
        <time>2019-08-31T11:18:51Z</time>
      </trkpt>
      <trkpt lat="55.365828992798924" lon="-2.495763972401619">
        <ele>298.63</ele>
        <time>2019-08-31T11:18:52Z</time>
      </trkpt>
      <trkpt lat="55.365890013054013" lon="-2.495534978806973">
        <ele>297.67000000000002</ele>
        <time>2019-08-31T11:18:53Z</time>
      </trkpt>
      <trkpt lat="55.365952961146832" lon="-2.495290981605649">
        <ele>297.18000000000001</ele>
        <time>2019-08-31T11:18:54Z</time>
      </trkpt>
      <trkpt lat="55.366018004715443" lon="-2.495039021596313">
        <ele>296.69999999999999</ele>
        <time>2019-08-31T11:18:55Z</time>
      </trkpt>
      <trkpt lat="55.366398962214589" lon="-2.49370202422142">
        <ele>293.33999999999997</ele>
        <time>2019-08-31T11:19:00Z</time>
      </trkpt>
      <trkpt lat="55.366502981632948" lon="-2.493436988443136">
        <ele>292.38</ele>
        <time>2019-08-31T11:19:01Z</time>
      </trkpt>
      <trkpt lat="55.366610018536448" lon="-2.4931660015136">
        <ele>291.42000000000002</ele>
        <time>2019-08-31T11:19:02Z</time>
      </trkpt>
      <trkpt lat="55.366751002147794" lon="-2.492939019575715">
        <ele>290.45999999999998</ele>
        <time>2019-08-31T11:19:03Z</time>
      </trkpt>
      <trkpt lat="55.366888968273997" lon="-2.49271597713232">
        <ele>289.49000000000001</ele>
        <time>2019-08-31T11:19:04Z</time>
      </trkpt>
      <trkpt lat="55.36723698489368" lon="-2.492337031289935">
        <ele>286.61000000000001</ele>
        <time>2019-08-31T11:19:06Z</time>
      </trkpt>
      <trkpt lat="55.368656041100621" lon="-2.491489034146071">
        <ele>276.51999999999998</ele>
        <time>2019-08-31T11:19:13Z</time>
      </trkpt>
      <trkpt lat="55.370586980134249" lon="-2.490977989509702">
        <ele>263.06</ele>
        <time>2019-08-31T11:19:21Z</time>
      </trkpt>
      <trkpt lat="55.372460000216961" lon="-2.490817978978157">
        <ele>262.57999999999998</ele>
        <time>2019-08-31T11:19:29Z</time>
      </trkpt>
      <trkpt lat="55.373815018683672" lon="-2.491525998339057">
        <ele>266.42000000000002</ele>
        <time>2019-08-31T11:19:35Z</time>
      </trkpt>
      <trkpt lat="55.375812007114291" lon="-2.493435982614756">
        <ele>269.79000000000002</ele>
        <time>2019-08-31T11:19:45Z</time>
      </trkpt>
      <trkpt lat="55.378340994939208" lon="-2.495445962995291">
        <ele>253.44</ele>
        <time>2019-08-31T11:19:57Z</time>
      </trkpt>
      <trkpt lat="55.38042901083827" lon="-2.496305024251342">
        <ele>247.68000000000001</ele>
        <time>2019-08-31T11:20:06Z</time>
      </trkpt>
      <trkpt lat="55.382988005876541" lon="-2.496808022260666">
        <ele>247.68000000000001</ele>
        <time>2019-08-31T11:20:17Z</time>
      </trkpt>
      <trkpt lat="55.384582998231053" lon="-2.49632497318089">
        <ele>254.41</ele>
        <time>2019-08-31T11:20:24Z</time>
      </trkpt>
      <trkpt lat="55.386153012514114" lon="-2.496049962937832">
        <ele>261.62</ele>
        <time>2019-08-31T11:20:32Z</time>
      </trkpt>
      <trkpt lat="55.386535981670022" lon="-2.49617200344801">
        <ele>262.57999999999998</ele>
        <time>2019-08-31T11:20:34Z</time>
      </trkpt>
      <trkpt lat="55.386715019121766" lon="-2.496295971795917">
        <ele>263.06</ele>
        <time>2019-08-31T11:20:35Z</time>
      </trkpt>
      <trkpt lat="55.386894978582859" lon="-2.496440978720784">
        <ele>264.01999999999998</ele>
        <time>2019-08-31T11:20:36Z</time>
      </trkpt>
      <trkpt lat="55.38745497353375" lon="-2.496894020587206">
        <ele>265.94</ele>
        <time>2019-08-31T11:20:39Z</time>
      </trkpt>
      <trkpt lat="55.387628981843591" lon="-2.497033998370171">
        <ele>266.42000000000002</ele>
        <time>2019-08-31T11:20:40Z</time>
      </trkpt>
      <trkpt lat="55.387800978496671" lon="-2.497173976153135">
        <ele>266.89999999999998</ele>
        <time>2019-08-31T11:20:41Z</time>
      </trkpt>
      <trkpt lat="55.387978004291654" lon="-2.497316971421242">
        <ele>267.38</ele>
        <time>2019-08-31T11:20:42Z</time>
      </trkpt>
      <trkpt lat="55.388153018429875" lon="-2.497458038851619">
        <ele>267.86000000000001</ele>
        <time>2019-08-31T11:20:43Z</time>
      </trkpt>
      <trkpt lat="55.389638040214777" lon="-2.498102020472288">
        <ele>264.98000000000002</ele>
        <time>2019-08-31T11:20:50Z</time>
      </trkpt>
      <trkpt lat="55.391380973160267" lon="-2.498851027339697">
        <ele>258.25</ele>
        <time>2019-08-31T11:20:58Z</time>
      </trkpt>
      <trkpt lat="55.393024999648333" lon="-2.499088989570737">
        <ele>252.96000000000001</ele>
        <time>2019-08-31T11:21:05Z</time>
      </trkpt>
      <trkpt lat="55.394852003082633" lon="-2.498867958784103">
        <ele>254.41</ele>
        <time>2019-08-31T11:21:13Z</time>
      </trkpt>
      <trkpt lat="55.396449007093906" lon="-2.498926967382431">
        <ele>252</ele>
        <time>2019-08-31T11:21:21Z</time>
      </trkpt>
      <trkpt lat="55.398162016645074" lon="-2.49916099011898">
        <ele>243.83000000000001</ele>
        <time>2019-08-31T11:21:30Z</time>
      </trkpt>
      <trkpt lat="55.398645987734199" lon="-2.499347990378737">
        <ele>240.94999999999999</ele>
        <time>2019-08-31T11:21:33Z</time>
      </trkpt>
      <trkpt lat="55.399978961795568" lon="-2.500201016664505">
        <ele>233.74000000000001</ele>
        <time>2019-08-31T11:21:40Z</time>
      </trkpt>
      <trkpt lat="55.402465034276247" lon="-2.501811012625694">
        <ele>215.47</ele>
        <time>2019-08-31T11:21:52Z</time>
      </trkpt>
      <trkpt lat="55.404124986380339" lon="-2.502928990870714">
        <ele>214.50999999999999</ele>
        <time>2019-08-31T11:22:01Z</time>
      </trkpt>
      <trkpt lat="55.404424974694848" lon="-2.503167958930135">
        <ele>213.06999999999999</ele>
        <time>2019-08-31T11:22:03Z</time>
      </trkpt>
      <trkpt lat="55.404564030468464" lon="-2.503355965018272">
        <ele>212.59</ele>
        <time>2019-08-31T11:22:04Z</time>
      </trkpt>
      <trkpt lat="55.405176999047399" lon="-2.504148976877332">
        <ele>208.25999999999999</ele>
        <time>2019-08-31T11:22:08Z</time>
      </trkpt>
      <trkpt lat="55.406312998384237" lon="-2.505378015339375">
        <ele>202.49000000000001</ele>
        <time>2019-08-31T11:22:15Z</time>
      </trkpt>
      <trkpt lat="55.407380014657974" lon="-2.506373031064868">
        <ele>195.28</ele>
        <time>2019-08-31T11:22:21Z</time>
      </trkpt>
      <trkpt lat="55.408948017284274" lon="-2.507402999326587">
        <ele>181.83000000000001</ele>
        <time>2019-08-31T11:22:29Z</time>
      </trkpt>
      <trkpt lat="55.409654024988413" lon="-2.507671974599361">
        <ele>174.62</ele>
        <time>2019-08-31T11:22:33Z</time>
      </trkpt>
      <trkpt lat="55.409854017198086" lon="-2.50766602344811">
        <ele>172.69</ele>
        <time>2019-08-31T11:22:34Z</time>
      </trkpt>
      <trkpt lat="55.411307020112872" lon="-2.507653031498194">
        <ele>161.63999999999999</ele>
        <time>2019-08-31T11:22:41Z</time>
      </trkpt>
      <trkpt lat="55.413180040195584" lon="-2.507771970704198">
        <ele>145.30000000000001</ele>
        <time>2019-08-31T11:22:50Z</time>
      </trkpt>
      <trkpt lat="55.414805961772799" lon="-2.508080005645752">
        <ele>139.53</ele>
        <time>2019-08-31T11:22:58Z</time>
      </trkpt>
      <trkpt lat="55.416479995474219" lon="-2.509092036634684">
        <ele>139.53</ele>
        <time>2019-08-31T11:23:06Z</time>
      </trkpt>
      <trkpt lat="55.418010028079152" lon="-2.510850979015231">
        <ele>140.00999999999999</ele>
        <time>2019-08-31T11:23:13Z</time>
      </trkpt>
      <trkpt lat="55.41905801743269" lon="-2.512504979968071">
        <ele>143.37</ele>
        <time>2019-08-31T11:23:19Z</time>
      </trkpt>
      <trkpt lat="55.419715996831656" lon="-2.513836026191711">
        <ele>146.25999999999999</ele>
        <time>2019-08-31T11:23:25Z</time>
      </trkpt>
      <trkpt lat="55.419803000986576" lon="-2.514087986201048">
        <ele>146.25999999999999</ele>
        <time>2019-08-31T11:23:26Z</time>
      </trkpt>
      <trkpt lat="55.419868966564536" lon="-2.514385040849447">
        <ele>146.74000000000001</ele>
        <time>2019-08-31T11:23:27Z</time>
      </trkpt>
      <trkpt lat="55.419930992648005" lon="-2.514663990586996">
        <ele>146.74000000000001</ele>
        <time>2019-08-31T11:23:28Z</time>
      </trkpt>
      <trkpt lat="55.419951025396585" lon="-2.514946963638067">
        <ele>146.74000000000001</ele>
        <time>2019-08-31T11:23:29Z</time>
      </trkpt>
      <trkpt lat="55.419968962669373" lon="-2.515220968052745">
        <ele>146.25999999999999</ele>
        <time>2019-08-31T11:23:30Z</time>
      </trkpt>
      <trkpt lat="55.419986983761191" lon="-2.515490027144551">
        <ele>146.25999999999999</ele>
        <time>2019-08-31T11:23:31Z</time>
      </trkpt>
      <trkpt lat="55.419982960447669" lon="-2.515761014074087">
        <ele>146.25999999999999</ele>
        <time>2019-08-31T11:23:32Z</time>
      </trkpt>
      <trkpt lat="55.419954964891076" lon="-2.516020014882088">
        <ele>145.78</ele>
        <time>2019-08-31T11:23:33Z</time>
      </trkpt>
      <trkpt lat="55.419922024011612" lon="-2.516278009861708">
        <ele>145.30000000000001</ele>
        <time>2019-08-31T11:23:34Z</time>
      </trkpt>
      <trkpt lat="55.419866032898426" lon="-2.516531981527805">
        <ele>144.81999999999999</ele>
        <time>2019-08-31T11:23:35Z</time>
      </trkpt>
      <trkpt lat="55.41963703930378" lon="-2.517571002244949">
        <ele>141.93000000000001</ele>
        <time>2019-08-31T11:23:39Z</time>
      </trkpt>
      <trkpt lat="55.419578030705452" lon="-2.517838971689344">
        <ele>140.97</ele>
        <time>2019-08-31T11:23:40Z</time>
      </trkpt>
      <trkpt lat="55.419573001563549" lon="-2.518116999417543">
        <ele>140.00999999999999</ele>
        <time>2019-08-31T11:23:41Z</time>
      </trkpt>
      <trkpt lat="55.419579958543181" lon="-2.518400978296995">
        <ele>139.05000000000001</ele>
        <time>2019-08-31T11:23:42Z</time>
      </trkpt>
      <trkpt lat="55.419585993513465" lon="-2.518678000196815">
        <ele>138.56999999999999</ele>
        <time>2019-08-31T11:23:43Z</time>
      </trkpt>
      <trkpt lat="55.419625975191593" lon="-2.518915040418506">
        <ele>138.09</ele>
        <time>2019-08-31T11:23:44Z</time>
      </trkpt>
      <trkpt lat="55.419695964083076" lon="-2.519151996821165">
        <ele>137.61000000000001</ele>
        <time>2019-08-31T11:23:45Z</time>
      </trkpt>
      <trkpt lat="55.419767964631319" lon="-2.51939800567925">
        <ele>138.09</ele>
        <time>2019-08-31T11:23:46Z</time>
      </trkpt>
      <trkpt lat="55.419866032898426" lon="-2.519640997052193">
        <ele>138.09</ele>
        <time>2019-08-31T11:23:47Z</time>
      </trkpt>
      <trkpt lat="55.41998497210443" lon="-2.519876025617123">
        <ele>138.09</ele>
        <time>2019-08-31T11:23:48Z</time>
      </trkpt>
      <trkpt lat="55.421213004738092" lon="-2.522416999563575">
        <ele>143.37</ele>
        <time>2019-08-31T11:23:59Z</time>
      </trkpt>
      <trkpt lat="55.421652970835567" lon="-2.524353973567486">
        <ele>146.74000000000001</ele>
        <time>2019-08-31T11:24:06Z</time>
      </trkpt>
      <trkpt lat="55.422269040718675" lon="-2.52724296413362">
        <ele>143.37</ele>
        <time>2019-08-31T11:24:15Z</time>
      </trkpt>
      <trkpt lat="55.422365013509989" lon="-2.527500037103891">
        <ele>142.88999999999999</ele>
        <time>2019-08-31T11:24:16Z</time>
      </trkpt>
      <trkpt lat="55.422461992129683" lon="-2.527759037911892">
        <ele>142.41</ele>
        <time>2019-08-31T11:24:17Z</time>
      </trkpt>
      <trkpt lat="55.422585960477591" lon="-2.527985014021397">
        <ele>141.93000000000001</ele>
        <time>2019-08-31T11:24:18Z</time>
      </trkpt>
      <trkpt lat="55.42271101847291" lon="-2.528190035372973">
        <ele>141.44999999999999</ele>
        <time>2019-08-31T11:24:19Z</time>
      </trkpt>
      <trkpt lat="55.422858959063888" lon="-2.528322972357273">
        <ele>140.97</ele>
        <time>2019-08-31T11:24:20Z</time>
      </trkpt>
      <trkpt lat="55.423016035929322" lon="-2.528454987332225">
        <ele>140.97</ele>
        <time>2019-08-31T11:24:21Z</time>
      </trkpt>
      <trkpt lat="55.423180991783738" lon="-2.528578033670783">
        <ele>140.49000000000001</ele>
        <time>2019-08-31T11:24:22Z</time>
      </trkpt>
      <trkpt lat="55.423367992043495" lon="-2.52867802977562">
        <ele>140.00999999999999</ele>
        <time>2019-08-31T11:24:23Z</time>
      </trkpt>
      <trkpt lat="55.423574019223452" lon="-2.52878800034523">
        <ele>139.53</ele>
        <time>2019-08-31T11:24:24Z</time>
      </trkpt>
      <trkpt lat="55.425279987975955" lon="-2.529656030237675">
        <ele>133.28</ele>
        <time>2019-08-31T11:24:31Z</time>
      </trkpt>
      <trkpt lat="55.427863961085677" lon="-2.530943993479013">
        <ele>128.47</ele>
        <time>2019-08-31T11:24:41Z</time>
      </trkpt>
      <trkpt lat="55.428991997614503" lon="-2.531506000086665">
        <ele>125.59</ele>
        <time>2019-08-31T11:24:47Z</time>
      </trkpt>
      <trkpt lat="55.431158971041441" lon="-2.532666977494955">
        <ele>127.03</ele>
        <time>2019-08-31T11:24:58Z</time>
      </trkpt>
      <trkpt lat="55.432447018101811" lon="-2.534251995384693">
        <ele>132.31999999999999</ele>
        <time>2019-08-31T11:25:06Z</time>
      </trkpt>
      <trkpt lat="55.433404985815287" lon="-2.536587025970221">
        <ele>131.84</ele>
        <time>2019-08-31T11:25:14Z</time>
      </trkpt>
      <trkpt lat="55.434275027364492" lon="-2.538952985778451">
        <ele>128.94999999999999</ele>
        <time>2019-08-31T11:25:21Z</time>
      </trkpt>
      <trkpt lat="55.435445979237556" lon="-2.541327998042107">
        <ele>128.47</ele>
        <time>2019-08-31T11:25:29Z</time>
      </trkpt>
      <trkpt lat="55.436735032126307" lon="-2.542596012353897">
        <ele>132.31999999999999</ele>
        <time>2019-08-31T11:25:36Z</time>
      </trkpt>
      <trkpt lat="55.439107026904821" lon="-2.544517982751131">
        <ele>134.24000000000001</ele>
        <time>2019-08-31T11:25:48Z</time>
      </trkpt>
      <trkpt lat="55.440091984346509" lon="-2.546096965670586">
        <ele>129.91999999999999</ele>
        <time>2019-08-31T11:25:54Z</time>
      </trkpt>
      <trkpt lat="55.441396040841937" lon="-2.548687979578972">
        <ele>122.22</ele>
        <time>2019-08-31T11:26:03Z</time>
      </trkpt>
      <trkpt lat="55.442513013258576" lon="-2.549819033592939">
        <ele>121.26000000000001</ele>
        <time>2019-08-31T11:26:09Z</time>
      </trkpt>
      <trkpt lat="55.444100964814425" lon="-2.550646997988224">
        <ele>127.51000000000001</ele>
        <time>2019-08-31T11:26:17Z</time>
      </trkpt>
      <trkpt lat="55.444593988358974" lon="-2.550956960767508">
        <ele>128.94999999999999</ele>
        <time>2019-08-31T11:26:20Z</time>
      </trkpt>
      <trkpt lat="55.445542987436056" lon="-2.551678977906704">
        <ele>129.91999999999999</ele>
        <time>2019-08-31T11:26:26Z</time>
      </trkpt>
      <trkpt lat="55.445715989917517" lon="-2.551736980676651">
        <ele>130.88</ele>
        <time>2019-08-31T11:26:27Z</time>
      </trkpt>
      <trkpt lat="55.445891004055738" lon="-2.551789032295346">
        <ele>131.36000000000001</ele>
        <time>2019-08-31T11:26:28Z</time>
      </trkpt>
      <trkpt lat="55.44640900567174" lon="-2.551796995103359">
        <ele>133.28</ele>
        <time>2019-08-31T11:26:31Z</time>
      </trkpt>
      <trkpt lat="55.446591982617974" lon="-2.55186103284359">
        <ele>133.75999999999999</ele>
        <time>2019-08-31T11:26:32Z</time>
      </trkpt>
      <trkpt lat="55.447952030226588" lon="-2.552496967837215">
        <ele>135.19999999999999</ele>
        <time>2019-08-31T11:26:39Z</time>
      </trkpt>
      <trkpt lat="55.449522966518998" lon="-2.553728017956018">
        <ele>126.06999999999999</ele>
        <time>2019-08-31T11:26:47Z</time>
      </trkpt>
      <trkpt lat="55.451228013262153" lon="-2.554955966770649">
        <ele>115.01000000000001</ele>
        <time>2019-08-31T11:26:55Z</time>
      </trkpt>
      <trkpt lat="55.452627958729863" lon="-2.555947965011001">
        <ele>115.5</ele>
        <time>2019-08-31T11:27:03Z</time>
      </trkpt>
      <trkpt lat="55.453453995287418" lon="-2.556403018534184">
        <ele>116.45999999999999</ele>
        <time>2019-08-31T11:27:08Z</time>
      </trkpt>
      <trkpt lat="55.453631021082401" lon="-2.556456997990608">
        <ele>116.94</ele>
        <time>2019-08-31T11:27:09Z</time>
      </trkpt>
      <trkpt lat="55.455146972090006" lon="-2.556666964665055">
        <ele>112.13</ele>
        <time>2019-08-31T11:27:17Z</time>
      </trkpt>
      <trkpt lat="55.455998992547393" lon="-2.556793028488755">
        <ele>106.36</ele>
        <time>2019-08-31T11:27:23Z</time>
      </trkpt>
      <trkpt lat="55.456119021400809" lon="-2.556848013773561">
        <ele>105.40000000000001</ele>
        <time>2019-08-31T11:27:24Z</time>
      </trkpt>
      <trkpt lat="55.456226980313659" lon="-2.556936023756862">
        <ele>103.95999999999999</ele>
        <time>2019-08-31T11:27:25Z</time>
      </trkpt>
      <trkpt lat="55.456968024373055" lon="-2.557610012590885">
        <ele>98.670000000000002</ele>
        <time>2019-08-31T11:27:33Z</time>
      </trkpt>
      <trkpt lat="55.457652993500233" lon="-2.558285007253289">
        <ele>94.349999999999994</ele>
        <time>2019-08-31T11:27:39Z</time>
      </trkpt>
      <trkpt lat="55.457858014851809" lon="-2.558450968936086">
        <ele>93.870000000000005</ele>
        <time>2019-08-31T11:27:41Z</time>
      </trkpt>
      <trkpt lat="55.457975026220083" lon="-2.558498997241259">
        <ele>93.390000000000001</ele>
        <time>2019-08-31T11:27:42Z</time>
      </trkpt>
      <trkpt lat="55.458102012053132" lon="-2.558550965040922">
        <ele>93.390000000000001</ele>
        <time>2019-08-31T11:27:43Z</time>
      </trkpt>
      <trkpt lat="55.458864010870457" lon="-2.558795968070626">
        <ele>92.420000000000002</ele>
        <time>2019-08-31T11:27:48Z</time>
      </trkpt>
      <trkpt lat="55.459006000310183" lon="-2.558826981112361">
        <ele>92.420000000000002</ele>
        <time>2019-08-31T11:27:49Z</time>
      </trkpt>
      <trkpt lat="55.459159975871444" lon="-2.558785993605852">
        <ele>92.420000000000002</ele>
        <time>2019-08-31T11:27:50Z</time>
      </trkpt>
      <trkpt lat="55.459314035251737" lon="-2.558744000270963">
        <ele>92.420000000000002</ele>
        <time>2019-08-31T11:27:51Z</time>
      </trkpt>
      <trkpt lat="55.459478991106153" lon="-2.558698989450932">
        <ele>92.420000000000002</ele>
        <time>2019-08-31T11:27:52Z</time>
      </trkpt>
      <trkpt lat="55.459634978324175" lon="-2.558599999174476">
        <ele>91.939999999999998</ele>
        <time>2019-08-31T11:27:53Z</time>
      </trkpt>
      <trkpt lat="55.459799012169242" lon="-2.558496985584498">
        <ele>91.939999999999998</ele>
        <time>2019-08-31T11:27:54Z</time>
      </trkpt>
      <trkpt lat="55.459959022700787" lon="-2.558337980881333">
        <ele>92.420000000000002</ele>
        <time>2019-08-31T11:27:55Z</time>
      </trkpt>
      <trkpt lat="55.460108974948525" lon="-2.558128014206886">
        <ele>92.900000000000006</ele>
        <time>2019-08-31T11:27:56Z</time>
      </trkpt>
      <trkpt lat="55.460266973823309" lon="-2.557904971763492">
        <ele>92.900000000000006</ele>
        <time>2019-08-31T11:27:57Z</time>
      </trkpt>
      <trkpt lat="55.460430001839995" lon="-2.557675978168845">
        <ele>92.900000000000006</ele>
        <time>2019-08-31T11:27:58Z</time>
      </trkpt>
      <trkpt lat="55.461498023942113" lon="-2.555638002231717">
        <ele>91.459999999999994</ele>
        <time>2019-08-31T11:28:06Z</time>
      </trkpt>
      <trkpt lat="55.462377034127712" lon="-2.553052017465234">
        <ele>90.5</ele>
        <time>2019-08-31T11:28:15Z</time>
      </trkpt>
      <trkpt lat="55.462474012747407" lon="-2.552878009155393">
        <ele>90.5</ele>
        <time>2019-08-31T11:28:16Z</time>
      </trkpt>
      <trkpt lat="55.462605021893978" lon="-2.552824029698968">
        <ele>90.5</ele>
        <time>2019-08-31T11:28:17Z</time>
      </trkpt>
      <trkpt lat="55.462747011333704" lon="-2.55276401527226">
        <ele>90.019999999999996</ele>
        <time>2019-08-31T11:28:18Z</time>
      </trkpt>
      <trkpt lat="55.462895035743713" lon="-2.55270198918879">
        <ele>90.019999999999996</ele>
        <time>2019-08-31T11:28:19Z</time>
      </trkpt>
      <trkpt lat="55.464072022587061" lon="-2.552694026380777">
        <ele>91.459999999999994</ele>
        <time>2019-08-31T11:28:26Z</time>
      </trkpt>
      <trkpt lat="55.464235972613096" lon="-2.552709029987454">
        <ele>91.459999999999994</ele>
        <time>2019-08-31T11:28:27Z</time>
      </trkpt>
      <trkpt lat="55.46439397148788" lon="-2.552785975858569">
        <ele>91.459999999999994</ele>
        <time>2019-08-31T11:28:28Z</time>
      </trkpt>
      <trkpt lat="55.465774973854423" lon="-2.553741009905934">
        <ele>89.060000000000002</ele>
        <time>2019-08-31T11:28:36Z</time>
      </trkpt>
      <trkpt lat="55.466961013153195" lon="-2.554704006761313">
        <ele>88.099999999999994</ele>
        <time>2019-08-31T11:28:44Z</time>
      </trkpt>
      <trkpt lat="55.467501981183887" lon="-2.555032996460795">
        <ele>86.659999999999997</ele>
        <time>2019-08-31T11:28:48Z</time>
      </trkpt>
      <trkpt lat="55.467627039179206" lon="-2.555071972310543">
        <ele>86.659999999999997</ele>
        <time>2019-08-31T11:28:49Z</time>
      </trkpt>
      <trkpt lat="55.467760981991887" lon="-2.555114971473813">
        <ele>86.180000000000007</ele>
        <time>2019-08-31T11:28:50Z</time>
      </trkpt>
      <trkpt lat="55.46787497587502" lon="-2.55508697591722">
        <ele>86.180000000000007</ele>
        <time>2019-08-31T11:28:51Z</time>
      </trkpt>
      <trkpt lat="55.468000033870339" lon="-2.555016987025738">
        <ele>86.180000000000007</ele>
        <time>2019-08-31T11:28:52Z</time>
      </trkpt>
      <trkpt lat="55.468112016096711" lon="-2.554923025891185">
        <ele>86.180000000000007</ele>
        <time>2019-08-31T11:28:53Z</time>
      </trkpt>
      <trkpt lat="55.468219975009561" lon="-2.554809032008052">
        <ele>86.180000000000007</ele>
        <time>2019-08-31T11:28:54Z</time>
      </trkpt>
      <trkpt lat="55.468318965286016" lon="-2.554649021476507">
        <ele>86.180000000000007</ele>
        <time>2019-08-31T11:28:55Z</time>
      </trkpt>
      <trkpt lat="55.468424996361136" lon="-2.554479036480188">
        <ele>86.659999999999997</ele>
        <time>2019-08-31T11:28:56Z</time>
      </trkpt>
      <trkpt lat="55.468534966930747" lon="-2.554298993200064">
        <ele>86.659999999999997</ele>
        <time>2019-08-31T11:28:57Z</time>
      </trkpt>
      <trkpt lat="55.469189006835222" lon="-2.553413026034832">
        <ele>85.209999999999994</ele>
        <time>2019-08-31T11:29:02Z</time>
      </trkpt>
      <trkpt lat="55.469581028446555" lon="-2.553083030506969">
        <ele>83.769999999999996</ele>
        <time>2019-08-31T11:29:05Z</time>
      </trkpt>
      <trkpt lat="55.469712037593126" lon="-2.552992003038526">
        <ele>83.290000000000006</ele>
        <time>2019-08-31T11:29:06Z</time>
      </trkpt>
      <trkpt lat="55.46985100954771" lon="-2.552984040230513">
        <ele>82.810000000000002</ele>
        <time>2019-08-31T11:29:07Z</time>
      </trkpt>
      <trkpt lat="55.469992998987436" lon="-2.552975993603468">
        <ele>82.810000000000002</ele>
        <time>2019-08-31T11:29:08Z</time>
      </trkpt>
      <trkpt lat="55.470135994255543" lon="-2.552972976118326">
        <ele>82.329999999999998</ele>
        <time>2019-08-31T11:29:09Z</time>
      </trkpt>
      <trkpt lat="55.470290975645185" lon="-2.553012035787106">
        <ele>81.849999999999994</ele>
        <time>2019-08-31T11:29:10Z</time>
      </trkpt>
      <trkpt lat="55.471472991630435" lon="-2.553247986361384">
        <ele>79.450000000000003</ele>
        <time>2019-08-31T11:29:18Z</time>
      </trkpt>
      <trkpt lat="55.47161104157567" lon="-2.553361980244517">
        <ele>79.450000000000003</ele>
        <time>2019-08-31T11:29:19Z</time>
      </trkpt>
      <trkpt lat="55.471729980781674" lon="-2.553460970520973">
        <ele>79.450000000000003</ele>
        <time>2019-08-31T11:29:20Z</time>
      </trkpt>
      <trkpt lat="55.47184799797833" lon="-2.55355903878808">
        <ele>79.450000000000003</ele>
        <time>2019-08-31T11:29:21Z</time>
      </trkpt>
      <trkpt lat="55.471969032660127" lon="-2.553660040721297">
        <ele>79.450000000000003</ele>
        <time>2019-08-31T11:29:22Z</time>
      </trkpt>
      <trkpt lat="55.472087971866131" lon="-2.553759030997753">
        <ele>79.450000000000003</ele>
        <time>2019-08-31T11:29:23Z</time>
      </trkpt>
      <trkpt lat="55.472215041518211" lon="-2.553863972425461">
        <ele>78.969999999999999</ele>
        <time>2019-08-31T11:29:24Z</time>
      </trkpt>
      <trkpt lat="55.472344039008021" lon="-2.553970003500581">
        <ele>78</ele>
        <time>2019-08-31T11:29:25Z</time>
      </trkpt>
      <trkpt lat="55.472469013184309" lon="-2.55407502874732">
        <ele>77.040000000000006</ele>
        <time>2019-08-31T11:29:26Z</time>
      </trkpt>
      <trkpt lat="55.472604967653751" lon="-2.554122973233461">
        <ele>76.079999999999998</ele>
        <time>2019-08-31T11:29:27Z</time>
      </trkpt>
      <trkpt lat="55.472740000113845" lon="-2.55416396073997">
        <ele>75.120000000000005</ele>
        <time>2019-08-31T11:29:28Z</time>
      </trkpt>
      <trkpt lat="55.472872015088797" lon="-2.55420402623713">
        <ele>74.640000000000001</ele>
        <time>2019-08-31T11:29:29Z</time>
      </trkpt>
      <trkpt lat="55.472994977608323" lon="-2.554235961288214">
        <ele>73.680000000000007</ele>
        <time>2019-08-31T11:29:30Z</time>
      </trkpt>
      <trkpt lat="55.473954034969211" lon="-2.554264040663838">
        <ele>67.909999999999997</ele>
        <time>2019-08-31T11:29:39Z</time>
      </trkpt>
      <trkpt lat="55.475220959633589" lon="-2.553980983793736">
        <ele>67.430000000000007</ele>
        <time>2019-08-31T11:29:50Z</time>
      </trkpt>
      <trkpt lat="55.475326990708709" lon="-2.553900014609098">
        <ele>67.430000000000007</ele>
        <time>2019-08-31T11:29:51Z</time>
      </trkpt>
      <trkpt lat="55.475425980985165" lon="-2.55379700101912">
        <ele>67.909999999999997</ele>
        <time>2019-08-31T11:29:52Z</time>
      </trkpt>
      <trkpt lat="55.476299962028861" lon="-2.55272202193737">
        <ele>71.269999999999996</ele>
        <time>2019-08-31T11:30:02Z</time>
      </trkpt>
      <trkpt lat="55.476859034970403" lon="-2.552110981196165">
        <ele>74.640000000000001</ele>
        <time>2019-08-31T11:30:11Z</time>
      </trkpt>
      <trkpt lat="55.476946039125323" lon="-2.552078040316701">
        <ele>74.640000000000001</ele>
        <time>2019-08-31T11:30:12Z</time>
      </trkpt>
      <trkpt lat="55.477020973339677" lon="-2.552049960941076">
        <ele>74.640000000000001</ele>
        <time>2019-08-31T11:30:13Z</time>
      </trkpt>
      <trkpt lat="55.477382987737656" lon="-2.55192800424993">
        <ele>74.159999999999997</ele>
        <time>2019-08-31T11:30:19Z</time>
      </trkpt>
      <trkpt lat="55.477435039356351" lon="-2.551920041441917">
        <ele>74.159999999999997</ele>
        <time>2019-08-31T11:30:20Z</time>
      </trkpt>
      <trkpt lat="55.47747896052897" lon="-2.551914006471634">
        <ele>74.159999999999997</ele>
        <time>2019-08-31T11:30:21Z</time>
      </trkpt>
      <trkpt lat="55.477601001039147" lon="-2.552073011174798">
        <ele>74.159999999999997</ele>
        <time>2019-08-31T11:30:22Z</time>
      </trkpt>
      <trkpt lat="55.477607036009431" lon="-2.552158003672957">
        <ele>74.159999999999997</ele>
        <time>2019-08-31T11:30:23Z</time>
      </trkpt>
      <trkpt lat="55.477610975503922" lon="-2.5522490311414">
        <ele>74.159999999999997</ele>
        <time>2019-08-31T11:30:24Z</time>
      </trkpt>
      <trkpt lat="55.477612987160683" lon="-2.552330000326037">
        <ele>74.159999999999997</ele>
        <time>2019-08-31T11:30:25Z</time>
      </trkpt>
      <trkpt lat="55.477614998817444" lon="-2.552406024187803">
        <ele>74.159999999999997</ele>
        <time>2019-08-31T11:30:26Z</time>
      </trkpt>
      <trkpt lat="55.477617010474205" lon="-2.552479030564427">
        <ele>74.159999999999997</ele>
        <time>2019-08-31T11:30:27Z</time>
      </trkpt>
      <trkpt lat="55.477632014080882" lon="-2.553141033276916">
        <ele>70.790000000000006</ele>
        <time>2019-08-31T11:30:38Z</time>
      </trkpt>
      <trkpt lat="55.477438978850842" lon="-2.553039025515318">
        <ele>71.269999999999996</ele>
        <time>2019-08-31T11:30:44Z</time>
      </trkpt>
      <trkpt lat="55.47743302769959" lon="-2.553006000816822">
        <ele>71.269999999999996</ele>
        <time>2019-08-31T11:30:54Z</time>
      </trkpt>
      <trkpt lat="55.477448031306267" lon="-2.55287398584187">
        <ele>71.269999999999996</ele>
        <time>2019-08-31T11:30:58Z</time>
      </trkpt>
      <trkpt lat="55.477445013821125" lon="-2.552774995565414">
        <ele>70.790000000000006</ele>
        <time>2019-08-31T11:31:15Z</time>
      </trkpt>
      <trkpt lat="55.477445013821125" lon="-2.552774995565414">
        <ele>70.790000000000006</ele>
        <time>2019-08-31T11:31:17Z</time>
      </trkpt>
      <trkpt lat="55.477315010502934" lon="-2.552692014724016">
        <ele>75.599999999999994</ele>
        <time>2019-08-31T11:31:23Z</time>
      </trkpt>
      <trkpt lat="55.477116024121642" lon="-2.552739959210157">
        <ele>76.079999999999998</ele>
        <time>2019-08-31T11:31:34Z</time>
      </trkpt>
      <trkpt lat="55.477090962231159" lon="-2.552638035267592">
        <ele>75.599999999999994</ele>
        <time>2019-08-31T11:31:49Z</time>
      </trkpt>
      <trkpt lat="55.477107977494597" lon="-2.552604004740715">
        <ele>78</ele>
        <time>2019-08-31T12:54:22Z</time>
      </trkpt>
      <trkpt lat="55.477085011079907" lon="-2.552618002519012">
        <ele>69.829999999999998</ele>
        <time>2019-08-31T12:54:54Z</time>
      </trkpt>
      <trkpt lat="55.477080987766385" lon="-2.55259302444756">
        <ele>78</ele>
        <time>2019-08-31T12:55:32Z</time>
      </trkpt>
      <trkpt lat="55.47709196805954" lon="-2.552601993083954">
        <ele>78.969999999999999</ele>
        <time>2019-08-31T12:56:15Z</time>
      </trkpt>
      <trkpt lat="55.477088028565049" lon="-2.552600987255573">
        <ele>78.480000000000004</ele>
        <time>2019-08-31T12:57:06Z</time>
      </trkpt>
      <trkpt lat="55.477086016908288" lon="-2.552600987255573">
        <ele>78.480000000000004</ele>
        <time>2019-08-31T12:57:47Z</time>
      </trkpt>
      <trkpt lat="55.477084005251527" lon="-2.552601993083954">
        <ele>78.969999999999999</ele>
        <time>2019-08-31T12:58:27Z</time>
      </trkpt>
      <trkpt lat="55.477084005251527" lon="-2.552601993083954">
        <ele>78.969999999999999</ele>
        <time>2019-08-31T12:58:40Z</time>
      </trkpt>
      <trkpt lat="55.476921983063221" lon="-2.55261498503387">
        <ele>75.599999999999994</ele>
        <time>2019-08-31T12:58:47Z</time>
      </trkpt>
      <trkpt lat="55.477029019966722" lon="-2.552776001393795">
        <ele>69.349999999999994</ele>
        <time>2019-08-31T12:58:53Z</time>
      </trkpt>
      <trkpt lat="55.477164974436164" lon="-2.552716992795467">
        <ele>66.469999999999999</ele>
        <time>2019-08-31T12:58:56Z</time>
      </trkpt>
      <trkpt lat="55.47732800245285" lon="-2.552637029439211">
        <ele>63.100000000000001</ele>
        <time>2019-08-31T12:59:01Z</time>
      </trkpt>
      <trkpt lat="55.477383993566036" lon="-2.55291698500514">
        <ele>60.219999999999999</ele>
        <time>2019-08-31T12:59:08Z</time>
      </trkpt>
      <trkpt lat="55.477398997172713" lon="-2.553099039942026">
        <ele>59.259999999999998</ele>
        <time>2019-08-31T12:59:18Z</time>
      </trkpt>
      <trkpt lat="55.477464962750673" lon="-2.553208004683256">
        <ele>62.140000000000001</ele>
        <time>2019-08-31T12:59:31Z</time>
      </trkpt>
      <trkpt lat="55.477523971349001" lon="-2.553210016340017">
        <ele>65.030000000000001</ele>
        <time>2019-08-31T12:59:46Z</time>
      </trkpt>
      <trkpt lat="55.47756495885551" lon="-2.553204987198114">
        <ele>66.469999999999999</ele>
        <time>2019-08-31T12:59:50Z</time>
      </trkpt>
      <trkpt lat="55.477632014080882" lon="-2.553148996084929">
        <ele>66.950000000000003</ele>
        <time>2019-08-31T12:59:52Z</time>
      </trkpt>
      <trkpt lat="55.477630002424121" lon="-2.553060986101627">
        <ele>66.950000000000003</ele>
        <time>2019-08-31T12:59:53Z</time>
      </trkpt>
      <trkpt lat="55.477626984938979" lon="-2.552932994440198">
        <ele>66.950000000000003</ele>
        <time>2019-08-31T12:59:54Z</time>
      </trkpt>
      <trkpt lat="55.477622961625457" lon="-2.552772983908653">
        <ele>67.430000000000007</ele>
        <time>2019-08-31T12:59:55Z</time>
      </trkpt>
      <trkpt lat="55.477620027959347" lon="-2.552605010569096">
        <ele>67.430000000000007</ele>
        <time>2019-08-31T12:59:56Z</time>
      </trkpt>
      <trkpt lat="55.47760896384716" lon="-2.552176024764776">
        <ele>67.430000000000007</ele>
        <time>2019-08-31T12:59:59Z</time>
      </trkpt>
      <trkpt lat="55.477603012695909" lon="-2.552089020609856">
        <ele>67.430000000000007</ele>
        <time>2019-08-31T13:00:00Z</time>
      </trkpt>
      <trkpt lat="55.477661015465856" lon="-2.551880981773138">
        <ele>67.430000000000007</ele>
        <time>2019-08-31T13:00:01Z</time>
      </trkpt>
      <trkpt lat="55.47771499492228" lon="-2.551868995651603">
        <ele>67.430000000000007</ele>
        <time>2019-08-31T13:00:02Z</time>
      </trkpt>
      <trkpt lat="55.477780038490891" lon="-2.551853992044926">
        <ele>67.430000000000007</ele>
        <time>2019-08-31T13:00:03Z</time>
      </trkpt>
      <trkpt lat="55.477856984362006" lon="-2.55184200592339">
        <ele>67.430000000000007</ele>
        <time>2019-08-31T13:00:04Z</time>
      </trkpt>
      <trkpt lat="55.477938959375024" lon="-2.551830019801855">
        <ele>67.909999999999997</ele>
        <time>2019-08-31T13:00:05Z</time>
      </trkpt>
      <trkpt lat="55.478672962635756" lon="-2.551717031747103">
        <ele>68.390000000000001</ele>
        <time>2019-08-31T13:00:11Z</time>
      </trkpt>
      <trkpt lat="55.479799993336201" lon="-2.55141201429069">
        <ele>70.790000000000006</ele>
        <time>2019-08-31T13:00:20Z</time>
      </trkpt>
      <trkpt lat="55.480616977438331" lon="-2.550747999921441">
        <ele>72.239999999999995</ele>
        <time>2019-08-31T13:00:30Z</time>
      </trkpt>
      <trkpt lat="55.481663038954139" lon="-2.549781985580921">
        <ele>72.239999999999995</ele>
        <time>2019-08-31T13:00:42Z</time>
      </trkpt>
      <trkpt lat="55.4828289616853" lon="-2.548715975135565">
        <ele>72.719999999999999</ele>
        <time>2019-08-31T13:00:57Z</time>
      </trkpt>
      <trkpt lat="55.483776032924652" lon="-2.547416025772691">
        <ele>72.719999999999999</ele>
        <time>2019-08-31T13:01:08Z</time>
      </trkpt>
      <trkpt lat="55.484381038695574" lon="-2.545991018414497">
        <ele>70.310000000000002</ele>
        <time>2019-08-31T13:01:18Z</time>
      </trkpt>
      <trkpt lat="55.484443986788392" lon="-2.545840982347727">
        <ele>70.790000000000006</ele>
        <time>2019-08-31T13:01:19Z</time>
      </trkpt>
      <trkpt lat="55.484587987884879" lon="-2.545560020953417">
        <ele>70.790000000000006</ele>
        <time>2019-08-31T13:01:21Z</time>
      </trkpt>
      <trkpt lat="55.48467599786818" lon="-2.545464970171452">
        <ele>71.269999999999996</ele>
        <time>2019-08-31T13:01:22Z</time>
      </trkpt>
      <trkpt lat="55.484841959550977" lon="-2.5452880281955">
        <ele>71.760000000000005</ele>
        <time>2019-08-31T13:01:24Z</time>
      </trkpt>
      <trkpt lat="55.485004987567663" lon="-2.545156013220549">
        <ele>71.760000000000005</ele>
        <time>2019-08-31T13:01:26Z</time>
      </trkpt>
      <trkpt lat="55.485099032521248" lon="-2.545134974643588">
        <ele>71.760000000000005</ele>
        <time>2019-08-31T13:01:27Z</time>
      </trkpt>
      <trkpt lat="55.48519098199904" lon="-2.54511795938015">
        <ele>71.760000000000005</ele>
        <time>2019-08-31T13:01:28Z</time>
      </trkpt>
      <trkpt lat="55.485278991982341" lon="-2.545150984078646">
        <ele>71.760000000000005</ele>
        <time>2019-08-31T13:01:29Z</time>
      </trkpt>
      <trkpt lat="55.4853639844805" lon="-2.545183002948761">
        <ele>72.239999999999995</ele>
        <time>2019-08-31T13:01:30Z</time>
      </trkpt>
      <trkpt lat="55.485450988635421" lon="-2.545216027647257">
        <ele>72.239999999999995</ele>
        <time>2019-08-31T13:01:31Z</time>
      </trkpt>
      <trkpt lat="55.486219022423029" lon="-2.545582987368107">
        <ele>70.310000000000002</ele>
        <time>2019-08-31T13:01:40Z</time>
      </trkpt>
      <trkpt lat="55.486627975478768" lon="-2.545756995677948">
        <ele>68.390000000000001</ele>
        <time>2019-08-31T13:01:50Z</time>
      </trkpt>
      <trkpt lat="55.48680198378861" lon="-2.546037035062909">
        <ele>66.950000000000003</ele>
        <time>2019-08-31T13:02:00Z</time>
      </trkpt>
      <trkpt lat="55.486812964081764" lon="-2.546031000092626">
        <ele>65.510000000000005</ele>
        <time>2019-08-31T13:02:26Z</time>
      </trkpt>
      <trkpt lat="55.486810030415654" lon="-2.546037035062909">
        <ele>65.030000000000001</ele>
        <time>2019-08-31T13:02:56Z</time>
      </trkpt>
      <trkpt lat="55.486810030415654" lon="-2.546037035062909">
        <ele>65.030000000000001</ele>
        <time>2019-08-31T13:03:18Z</time>
      </trkpt>
      <trkpt lat="55.486691007390618" lon="-2.545962017029524">
        <ele>-9.960000000000001</ele>
        <time>2019-08-31T13:06:25Z</time>
      </trkpt>
      <trkpt lat="55.486770970746875" lon="-2.546027982607484">
        <ele>33.780000000000001</ele>
        <time>2019-08-31T13:06:43Z</time>
      </trkpt>
      <trkpt lat="55.486793015152216" lon="-2.54606100730598">
        <ele>38.109999999999999</ele>
        <time>2019-08-31T13:07:13Z</time>
      </trkpt>
      <trkpt lat="55.486766025424004" lon="-2.546063018962741">
        <ele>40.509999999999998</ele>
        <time>2019-08-31T13:07:46Z</time>
      </trkpt>
      <trkpt lat="55.486809024587274" lon="-2.546024965122342">
        <ele>41.950000000000003</ele>
        <time>2019-08-31T13:08:18Z</time>
      </trkpt>
      <trkpt lat="55.486949002370238" lon="-2.545936033129692">
        <ele>51.57</ele>
        <time>2019-08-31T13:08:28Z</time>
      </trkpt>
      <trkpt lat="55.487041035667062" lon="-2.545706033706665">
        <ele>62.619999999999997</ele>
        <time>2019-08-31T13:08:36Z</time>
      </trkpt>
      <trkpt lat="55.487115969881415" lon="-2.545694969594479">
        <ele>63.100000000000001</ele>
        <time>2019-08-31T13:08:37Z</time>
      </trkpt>
      <trkpt lat="55.487150000408292" lon="-2.54567401483655">
        <ele>63.579999999999998</ele>
        <time>2019-08-31T13:08:38Z</time>
      </trkpt>
      <trkpt lat="55.487217977643013" lon="-2.54563101567328">
        <ele>64.069999999999993</ele>
        <time>2019-08-31T13:08:39Z</time>
      </trkpt>
      <trkpt lat="55.487292995676398" lon="-2.545583993196487">
        <ele>64.069999999999993</ele>
        <time>2019-08-31T13:08:40Z</time>
      </trkpt>
      <trkpt lat="55.488054994493723" lon="-2.545104967430234">
        <ele>65.989999999999995</ele>
        <time>2019-08-31T13:08:48Z</time>
      </trkpt>
      <trkpt lat="55.489170039072633" lon="-2.544825011864305">
        <ele>66.469999999999999</ele>
        <time>2019-08-31T13:08:58Z</time>
      </trkpt>
      <trkpt lat="55.490452973172069" lon="-2.544998014345765">
        <ele>65.510000000000005</ele>
        <time>2019-08-31T13:09:07Z</time>
      </trkpt>
      <trkpt lat="55.491978982463479" lon="-2.544916961342096">
        <ele>61.18</ele>
        <time>2019-08-31T13:09:16Z</time>
      </trkpt>
      <trkpt lat="55.492993025109172" lon="-2.545080995187163">
        <ele>57.340000000000003</ele>
        <time>2019-08-31T13:09:22Z</time>
      </trkpt>
      <trkpt lat="55.493156975135207" lon="-2.545107984915376">
        <ele>57.340000000000003</ele>
        <time>2019-08-31T13:09:23Z</time>
      </trkpt>
      <trkpt lat="55.493815960362554" lon="-2.54524402320385">
        <ele>55.890000000000001</ele>
        <time>2019-08-31T13:09:27Z</time>
      </trkpt>
      <trkpt lat="55.495271980762482" lon="-2.545571001246572">
        <ele>53.009999999999998</ele>
        <time>2019-08-31T13:09:36Z</time>
      </trkpt>
      <trkpt lat="55.496432958170772" lon="-2.545715002343059">
        <ele>56.859999999999999</ele>
        <time>2019-08-31T13:09:43Z</time>
      </trkpt>
      <trkpt lat="55.497152041643858" lon="-2.545629004016519">
        <ele>58.299999999999997</ele>
        <time>2019-08-31T13:09:47Z</time>
      </trkpt>
      <trkpt lat="55.498585011810064" lon="-2.545425994321704">
        <ele>63.100000000000001</ele>
        <time>2019-08-31T13:09:55Z</time>
      </trkpt>
      <trkpt lat="55.498754996806383" lon="-2.545489026233554">
        <ele>63.100000000000001</ele>
        <time>2019-08-31T13:09:56Z</time>
      </trkpt>
      <trkpt lat="55.498935040086508" lon="-2.545555997639895">
        <ele>63.100000000000001</ele>
        <time>2019-08-31T13:09:57Z</time>
      </trkpt>
      <trkpt lat="55.499300993978977" lon="-2.545692035928369">
        <ele>63.100000000000001</ele>
        <time>2019-08-31T13:09:59Z</time>
      </trkpt>
      <trkpt lat="55.499486988410354" lon="-2.54576101899147">
        <ele>63.579999999999998</ele>
        <time>2019-08-31T13:10:00Z</time>
      </trkpt>
      <trkpt lat="55.499681029468775" lon="-2.545764036476612">
        <ele>64.069999999999993</ele>
        <time>2019-08-31T13:10:01Z</time>
      </trkpt>
      <trkpt lat="55.499884039163589" lon="-2.545737968757749">
        <ele>64.549999999999997</ele>
        <time>2019-08-31T13:10:02Z</time>
      </trkpt>
      <trkpt lat="55.500090988352895" lon="-2.545712990686297">
        <ele>65.030000000000001</ele>
        <time>2019-08-31T13:10:03Z</time>
      </trkpt>
      <trkpt lat="55.502167018130422" lon="-2.545252991840243">
        <ele>76.560000000000002</ele>
        <time>2019-08-31T13:10:14Z</time>
      </trkpt>
      <trkpt lat="55.502844024449587" lon="-2.545190965756774">
        <ele>79.930000000000007</ele>
        <time>2019-08-31T13:10:18Z</time>
      </trkpt>
      <trkpt lat="55.503016021102667" lon="-2.545210998505354">
        <ele>79.930000000000007</ele>
        <time>2019-08-31T13:10:19Z</time>
      </trkpt>
      <trkpt lat="55.503178965300322" lon="-2.545261960476637">
        <ele>80.409999999999997</ele>
        <time>2019-08-31T13:10:20Z</time>
      </trkpt>
      <trkpt lat="55.503336964175105" lon="-2.545372014865279">
        <ele>80.409999999999997</ele>
        <time>2019-08-31T13:10:21Z</time>
      </trkpt>
      <trkpt lat="55.503494963049889" lon="-2.54548198543489">
        <ele>80.890000000000001</ele>
        <time>2019-08-31T13:10:22Z</time>
      </trkpt>
      <trkpt lat="55.503651034086943" lon="-2.545591033995152">
        <ele>80.890000000000001</ele>
        <time>2019-08-31T13:10:23Z</time>
      </trkpt>
      <trkpt lat="55.504209017381072" lon="-2.546198973432183">
        <ele>82.329999999999998</ele>
        <time>2019-08-31T13:10:27Z</time>
      </trkpt>
      <trkpt lat="55.504883006215096" lon="-2.547754989936948">
        <ele>86.659999999999997</ele>
        <time>2019-08-31T13:10:34Z</time>
      </trkpt>
      <trkpt lat="55.504977973178029" lon="-2.54833996295929">
        <ele>87.140000000000001</ele>
        <time>2019-08-31T13:10:36Z</time>
      </trkpt>
      <trkpt lat="55.505012003704906" lon="-2.548620002344251">
        <ele>87.620000000000005</ele>
        <time>2019-08-31T13:10:37Z</time>
      </trkpt>
      <trkpt lat="55.505012003704906" lon="-2.548910016193986">
        <ele>87.620000000000005</ele>
        <time>2019-08-31T13:10:38Z</time>
      </trkpt>
      <trkpt lat="55.505012003704906" lon="-2.549201035872102">
        <ele>88.099999999999994</ele>
        <time>2019-08-31T13:10:39Z</time>
      </trkpt>
      <trkpt lat="55.504981996491551" lon="-2.549514016136527">
        <ele>88.099999999999994</ele>
        <time>2019-08-31T13:10:40Z</time>
      </trkpt>
      <trkpt lat="55.504932962357998" lon="-2.549793971702457">
        <ele>88.099999999999994</ele>
        <time>2019-08-31T13:10:41Z</time>
      </trkpt>
      <trkpt lat="55.504658035933971" lon="-2.552146017551422">
        <ele>85.689999999999998</ele>
        <time>2019-08-31T13:10:49Z</time>
      </trkpt>
      <trkpt lat="55.504802037030458" lon="-2.55493501201272">
        <ele>83.769999999999996</ele>
        <time>2019-08-31T13:10:58Z</time>
      </trkpt>
      <trkpt lat="55.505073023959994" lon="-2.559358980506659">
        <ele>84.25</ele>
        <time>2019-08-31T13:11:12Z</time>
      </trkpt>
      <trkpt lat="55.505224987864494" lon="-2.559989970177412">
        <ele>83.769999999999996</ele>
        <time>2019-08-31T13:11:14Z</time>
      </trkpt>
      <trkpt lat="55.505304029211402" lon="-2.560298005118966">
        <ele>83.769999999999996</ele>
        <time>2019-08-31T13:11:15Z</time>
      </trkpt>
      <trkpt lat="55.505639975890517" lon="-2.561843041330576">
        <ele>82.329999999999998</ele>
        <time>2019-08-31T13:11:20Z</time>
      </trkpt>
      <trkpt lat="55.505678029730916" lon="-2.562167001888156">
        <ele>81.849999999999994</ele>
        <time>2019-08-31T13:11:21Z</time>
      </trkpt>
      <trkpt lat="55.505720023065805" lon="-2.56251803599298">
        <ele>81.370000000000005</ele>
        <time>2019-08-31T13:11:22Z</time>
      </trkpt>
      <trkpt lat="55.505763022229075" lon="-2.564835967496038">
        <ele>76.079999999999998</ele>
        <time>2019-08-31T13:11:30Z</time>
      </trkpt>
      <trkpt lat="55.505694961175323" lon="-2.56544298492372">
        <ele>74.640000000000001</ele>
        <time>2019-08-31T13:11:32Z</time>
      </trkpt>
      <trkpt lat="55.50566696561873" lon="-2.56570097990334">
        <ele>74.159999999999997</ele>
        <time>2019-08-31T13:11:33Z</time>
      </trkpt>
      <trkpt lat="55.505634024739265" lon="-2.565994011238217">
        <ele>73.680000000000007</ele>
        <time>2019-08-31T13:11:34Z</time>
      </trkpt>
      <trkpt lat="55.505597982555628" lon="-2.56619299761951">
        <ele>73.200000000000003</ele>
        <time>2019-08-31T13:11:35Z</time>
      </trkpt>
      <trkpt lat="55.505548026412725" lon="-2.566465996205807">
        <ele>72.719999999999999</ele>
        <time>2019-08-31T13:11:36Z</time>
      </trkpt>
      <trkpt lat="55.505057014524937" lon="-2.568156039342284">
        <ele>72.239999999999995</ele>
        <time>2019-08-31T13:11:46Z</time>
      </trkpt>
      <trkpt lat="55.504693994298577" lon="-2.56948197260499">
        <ele>74.159999999999997</ele>
        <time>2019-08-31T13:11:53Z</time>
      </trkpt>
      <trkpt lat="55.504597015678883" lon="-2.569980025291443">
        <ele>74.640000000000001</ele>
        <time>2019-08-31T13:11:55Z</time>
      </trkpt>
      <trkpt lat="55.504564996808767" lon="-2.570229973644018">
        <ele>74.640000000000001</ele>
        <time>2019-08-31T13:11:56Z</time>
      </trkpt>
      <trkpt lat="55.504542030394077" lon="-2.570477994158864">
        <ele>74.640000000000001</ele>
        <time>2019-08-31T13:11:57Z</time>
      </trkpt>
      <trkpt lat="55.504556028172374" lon="-2.570721991360188">
        <ele>74.640000000000001</ele>
        <time>2019-08-31T13:11:58Z</time>
      </trkpt>
      <trkpt lat="55.504630962386727" lon="-2.570975041016936">
        <ele>74.159999999999997</ele>
        <time>2019-08-31T13:11:59Z</time>
      </trkpt>
      <trkpt lat="55.504728024825454" lon="-2.571218032389879">
        <ele>74.159999999999997</ele>
        <time>2019-08-31T13:12:00Z</time>
      </trkpt>
      <trkpt lat="55.504830032587051" lon="-2.571473009884358">
        <ele>73.680000000000007</ele>
        <time>2019-08-31T13:12:01Z</time>
      </trkpt>
      <trkpt lat="55.504976967349648" lon="-2.571666967123747">
        <ele>72.719999999999999</ele>
        <time>2019-08-31T13:12:02Z</time>
      </trkpt>
      <trkpt lat="55.5051280092448" lon="-2.571819014847279">
        <ele>72.239999999999995</ele>
        <time>2019-08-31T13:12:03Z</time>
      </trkpt>
      <trkpt lat="55.505267987027764" lon="-2.571954969316721">
        <ele>72.239999999999995</ele>
        <time>2019-08-31T13:12:04Z</time>
      </trkpt>
      <trkpt lat="55.505413999781013" lon="-2.572076003998518">
        <ele>71.760000000000005</ele>
        <time>2019-08-31T13:12:05Z</time>
      </trkpt>
      <trkpt lat="55.506842024624348" lon="-2.573256008327007">
        <ele>67.909999999999997</ele>
        <time>2019-08-31T13:12:14Z</time>
      </trkpt>
      <trkpt lat="55.508067039772868" lon="-2.574307015165687">
        <ele>65.510000000000005</ele>
        <time>2019-08-31T13:12:22Z</time>
      </trkpt>
      <trkpt lat="55.509176971390843" lon="-2.575604030862451">
        <ele>65.510000000000005</ele>
        <time>2019-08-31T13:12:30Z</time>
      </trkpt>
      <trkpt lat="55.510181961581111" lon="-2.576904986053705">
        <ele>68.390000000000001</ele>
        <time>2019-08-31T13:12:38Z</time>
      </trkpt>
      <trkpt lat="55.511704031378031" lon="-2.578965006396174">
        <ele>76.079999999999998</ele>
        <time>2019-08-31T13:12:50Z</time>
      </trkpt>
      <trkpt lat="55.512795019894838" lon="-2.580133024603128">
        <ele>80.409999999999997</ele>
        <time>2019-08-31T13:12:58Z</time>
      </trkpt>
      <trkpt lat="55.513865975663066" lon="-2.580752028152347">
        <ele>83.769999999999996</ele>
        <time>2019-08-31T13:13:07Z</time>
      </trkpt>
      <trkpt lat="55.514550022780895" lon="-2.580955037847161">
        <ele>84.25</ele>
        <time>2019-08-31T13:13:13Z</time>
      </trkpt>
      <trkpt lat="55.514944978058338" lon="-2.580935005098581">
        <ele>84.730000000000004</ele>
        <time>2019-08-31T13:13:16Z</time>
      </trkpt>
      <trkpt lat="55.515073975548148" lon="-2.580872979015112">
        <ele>84.730000000000004</ele>
        <time>2019-08-31T13:13:17Z</time>
      </trkpt>
      <trkpt lat="55.515203978866339" lon="-2.580785974860191">
        <ele>84.730000000000004</ele>
        <time>2019-08-31T13:13:18Z</time>
      </trkpt>
      <trkpt lat="55.51533599384129" lon="-2.58069796487689">
        <ele>85.209999999999994</ele>
        <time>2019-08-31T13:13:19Z</time>
      </trkpt>
      <trkpt lat="55.515471026301384" lon="-2.58060802705586">
        <ele>85.209999999999994</ele>
        <time>2019-08-31T13:13:20Z</time>
      </trkpt>
      <trkpt lat="55.515603963285685" lon="-2.580506019294262">
        <ele>85.689999999999998</ele>
        <time>2019-08-31T13:13:21Z</time>
      </trkpt>
      <trkpt lat="55.516556985676289" lon="-2.579803029075265">
        <ele>88.579999999999998</ele>
        <time>2019-08-31T13:13:28Z</time>
      </trkpt>
      <trkpt lat="55.516810035333037" lon="-2.57972801104188">
        <ele>90.019999999999996</ele>
        <time>2019-08-31T13:13:30Z</time>
      </trkpt>
      <trkpt lat="55.516928974539042" lon="-2.579775033518672">
        <ele>90.5</ele>
        <time>2019-08-31T13:13:31Z</time>
      </trkpt>
      <trkpt lat="55.517061995342374" lon="-2.579831024631858">
        <ele>90.980000000000004</ele>
        <time>2019-08-31T13:13:32Z</time>
      </trkpt>
      <trkpt lat="55.517187975347042" lon="-2.579934038221836">
        <ele>91.939999999999998</ele>
        <time>2019-08-31T13:13:33Z</time>
      </trkpt>
      <trkpt lat="55.517324013635516" lon="-2.580050965771079">
        <ele>92.420000000000002</ele>
        <time>2019-08-31T13:13:34Z</time>
      </trkpt>
      <trkpt lat="55.518466969951987" lon="-2.581043969839811">
        <ele>96.269999999999996</ele>
        <time>2019-08-31T13:13:42Z</time>
      </trkpt>
      <trkpt lat="55.519735990092158" lon="-2.582489009946585">
        <ele>100.11</ele>
        <time>2019-08-31T13:13:51Z</time>
      </trkpt>
      <trkpt lat="55.520582981407642" lon="-2.584332022815943">
        <ele>98.189999999999998</ele>
        <time>2019-08-31T13:13:58Z</time>
      </trkpt>
      <trkpt lat="55.520676020532846" lon="-2.584660006687045">
        <ele>98.189999999999998</ele>
        <time>2019-08-31T13:13:59Z</time>
      </trkpt>
      <trkpt lat="55.521441958844662" lon="-2.58755000308156">
        <ele>97.230000000000004</ele>
        <time>2019-08-31T13:14:08Z</time>
      </trkpt>
      <trkpt lat="55.521660977974534" lon="-2.588090971112251">
        <ele>98.189999999999998</ele>
        <time>2019-08-31T13:14:10Z</time>
      </trkpt>
      <trkpt lat="55.521790981292725" lon="-2.588325999677181">
        <ele>98.670000000000002</ele>
        <time>2019-08-31T13:14:11Z</time>
      </trkpt>
      <trkpt lat="55.521935988217592" lon="-2.588529009371996">
        <ele>99.629999999999995</ele>
        <time>2019-08-31T13:14:12Z</time>
      </trkpt>
      <trkpt lat="55.522232037037611" lon="-2.588922036811709">
        <ele>101.08</ele>
        <time>2019-08-31T13:14:14Z</time>
      </trkpt>
      <trkpt lat="55.522559015080333" lon="-2.589249014854431">
        <ele>102.52</ele>
        <time>2019-08-31T13:14:16Z</time>
      </trkpt>
      <trkpt lat="55.52401402965188" lon="-2.590207988396287">
        <ele>105.40000000000001</ele>
        <time>2019-08-31T13:14:24Z</time>
      </trkpt>
      <trkpt lat="55.525513971224427" lon="-2.590610990300775">
        <ele>110.69</ele>
        <time>2019-08-31T13:14:32Z</time>
      </trkpt>
      <trkpt lat="55.526002971455455" lon="-2.590680979192257">
        <ele>112.13</ele>
        <time>2019-08-31T13:14:35Z</time>
      </trkpt>
      <trkpt lat="55.526155019178987" lon="-2.590746022760868">
        <ele>112.13</ele>
        <time>2019-08-31T13:14:36Z</time>
      </trkpt>
      <trkpt lat="55.526312012225389" lon="-2.590865967795253">
        <ele>112.61</ele>
        <time>2019-08-31T13:14:37Z</time>
      </trkpt>
      <trkpt lat="55.527643980458379" lon="-2.592245964333415">
        <ele>117.42</ele>
        <time>2019-08-31T13:14:45Z</time>
      </trkpt>
      <trkpt lat="55.528757013380527" lon="-2.593749007210136">
        <ele>124.63</ele>
        <time>2019-08-31T13:14:53Z</time>
      </trkpt>
      <trkpt lat="55.528878970071673" lon="-2.593966014683247">
        <ele>125.59</ele>
        <time>2019-08-31T13:14:54Z</time>
      </trkpt>
      <trkpt lat="55.529823023825884" lon="-2.596242958679795">
        <ele>133.28</ele>
        <time>2019-08-31T13:15:03Z</time>
      </trkpt>
      <trkpt lat="55.530993975698948" lon="-2.598803965374827">
        <ele>140.00999999999999</ele>
        <time>2019-08-31T13:15:13Z</time>
      </trkpt>
      <trkpt lat="55.532171968370676" lon="-2.601260030642152">
        <ele>145.30000000000001</ele>
        <time>2019-08-31T13:15:24Z</time>
      </trkpt>
      <trkpt lat="55.532782003283501" lon="-2.602489991113544">
        <ele>146.25999999999999</ele>
        <time>2019-08-31T13:15:30Z</time>
      </trkpt>
      <trkpt lat="55.532890968024731" lon="-2.602712027728558">
        <ele>146.74000000000001</ele>
        <time>2019-08-31T13:15:31Z</time>
      </trkpt>
      <trkpt lat="55.534313963726163" lon="-2.605628008022904">
        <ele>152.99000000000001</ele>
        <time>2019-08-31T13:15:43Z</time>
      </trkpt>
      <trkpt lat="55.535785993561149" lon="-2.608639039099217">
        <ele>171.72999999999999</ele>
        <time>2019-08-31T13:15:55Z</time>
      </trkpt>
      <trkpt lat="55.53658202290535" lon="-2.61004401370883">
        <ele>182.31</ele>
        <time>2019-08-31T13:16:01Z</time>
      </trkpt>
      <trkpt lat="55.538080958649516" lon="-2.611795999109745">
        <ele>178.94</ele>
        <time>2019-08-31T13:16:09Z</time>
      </trkpt>
      <trkpt lat="55.540296966210008" lon="-2.614336973056197">
        <ele>154.91</ele>
        <time>2019-08-31T13:16:20Z</time>
      </trkpt>
      <trkpt lat="55.542464023455977" lon="-2.616559015586972">
        <ele>147.69999999999999</ele>
        <time>2019-08-31T13:16:31Z</time>
      </trkpt>
      <trkpt lat="55.544347018003464" lon="-2.61849096044898">
        <ele>144.34</ele>
        <time>2019-08-31T13:16:41Z</time>
      </trkpt>
      <trkpt lat="55.546039994806051" lon="-2.62022702023387">
        <ele>140.97</ele>
        <time>2019-08-31T13:16:50Z</time>
      </trkpt>
      <trkpt lat="55.54771302267909" lon="-2.621942963451147">
        <ele>135.68000000000001</ele>
        <time>2019-08-31T13:17:00Z</time>
      </trkpt>
      <trkpt lat="55.549054965376854" lon="-2.623550025746226">
        <ele>136.16</ele>
        <time>2019-08-31T13:17:08Z</time>
      </trkpt>
      <trkpt lat="55.550733022391796" lon="-2.625737031921744">
        <ele>140.00999999999999</ele>
        <time>2019-08-31T13:17:18Z</time>
      </trkpt>
      <trkpt lat="55.552016040310264" lon="-2.627567974850535">
        <ele>130.88</ele>
        <time>2019-08-31T13:17:25Z</time>
      </trkpt>
      <trkpt lat="55.552853979170322" lon="-2.629114016890526">
        <ele>127.98999999999999</ele>
        <time>2019-08-31T13:17:31Z</time>
      </trkpt>
      <trkpt lat="55.553558981046081" lon="-2.630472974851728">
        <ele>127.03</ele>
        <time>2019-08-31T13:17:38Z</time>
      </trkpt>
      <trkpt lat="55.553669035434723" lon="-2.630690988153219">
        <ele>127.03</ele>
        <time>2019-08-31T13:17:39Z</time>
      </trkpt>
      <trkpt lat="55.554734962061048" lon="-2.6327970251441">
        <ele>122.70999999999999</ele>
        <time>2019-08-31T13:17:47Z</time>
      </trkpt>
      <trkpt lat="55.555895017459989" lon="-2.635087966918945">
        <ele>113.09</ele>
        <time>2019-08-31T13:17:56Z</time>
      </trkpt>
      <trkpt lat="55.556713007390499" lon="-2.636685976758599">
        <ele>115.01000000000001</ele>
        <time>2019-08-31T13:18:03Z</time>
      </trkpt>
      <trkpt lat="55.557850012555718" lon="-2.638891004025936">
        <ele>106.36</ele>
        <time>2019-08-31T13:18:11Z</time>
      </trkpt>
      <trkpt lat="55.559006966650486" lon="-2.641137018799782">
        <ele>98.189999999999998</ele>
        <time>2019-08-31T13:18:20Z</time>
      </trkpt>
      <trkpt lat="55.56032401509583" lon="-2.643713029101491">
        <ele>90.980000000000004</ele>
        <time>2019-08-31T13:18:32Z</time>
      </trkpt>
      <trkpt lat="55.561536960303783" lon="-2.646137997508049">
        <ele>87.620000000000005</ele>
        <time>2019-08-31T13:18:42Z</time>
      </trkpt>
      <trkpt lat="55.56202101521194" lon="-2.646990017965436">
        <ele>87.620000000000005</ele>
        <time>2019-08-31T13:18:46Z</time>
      </trkpt>
      <trkpt lat="55.562170967459679" lon="-2.647125972434878">
        <ele>87.620000000000005</ele>
        <time>2019-08-31T13:18:47Z</time>
      </trkpt>
      <trkpt lat="55.562324021011591" lon="-2.647261004894972">
        <ele>87.140000000000001</ele>
        <time>2019-08-31T13:18:48Z</time>
      </trkpt>
      <trkpt lat="55.562482019886374" lon="-2.647367035970092">
        <ele>87.140000000000001</ele>
        <time>2019-08-31T13:18:49Z</time>
      </trkpt>
      <trkpt lat="55.5626430362463" lon="-2.647452028468251">
        <ele>87.620000000000005</ele>
        <time>2019-08-31T13:18:50Z</time>
      </trkpt>
      <trkpt lat="55.562806986272335" lon="-2.64753500930965">
        <ele>87.620000000000005</ele>
        <time>2019-08-31T13:18:51Z</time>
      </trkpt>
      <trkpt lat="55.562982000410557" lon="-2.647561999037862">
        <ele>87.620000000000005</ele>
        <time>2019-08-31T13:18:52Z</time>
      </trkpt>
      <trkpt lat="55.564877986907959" lon="-2.647813959047198">
        <ele>91.939999999999998</ele>
        <time>2019-08-31T13:19:03Z</time>
      </trkpt>
      <trkpt lat="55.566076012328267" lon="-2.64794496819377">
        <ele>95.790000000000006</ele>
        <time>2019-08-31T13:19:12Z</time>
      </trkpt>
      <trkpt lat="55.567362969741225" lon="-2.648259960114956">
        <ele>96.269999999999996</ele>
        <time>2019-08-31T13:19:22Z</time>
      </trkpt>
      <trkpt lat="55.568410037085414" lon="-2.648744015023112">
        <ele>91.939999999999998</ele>
        <time>2019-08-31T13:19:32Z</time>
      </trkpt>
      <trkpt lat="55.568562000989914" lon="-2.648908970877528">
        <ele>91.459999999999994</ele>
        <time>2019-08-31T13:19:35Z</time>
      </trkpt>
      <trkpt lat="55.568594019860029" lon="-2.648953981697559">
        <ele>91.459999999999994</ele>
        <time>2019-08-31T13:19:36Z</time>
      </trkpt>
      <trkpt lat="55.568621009588242" lon="-2.648992035537958">
        <ele>91.459999999999994</ele>
        <time>2019-08-31T13:19:37Z</time>
      </trkpt>
      <trkpt lat="55.568729974329472" lon="-2.649145005270839">
        <ele>92.420000000000002</ele>
        <time>2019-08-31T13:19:47Z</time>
      </trkpt>
      <trkpt lat="55.568930972367525" lon="-2.649433007463813">
        <ele>93.390000000000001</ele>
        <time>2019-08-31T13:19:57Z</time>
      </trkpt>
      <trkpt lat="55.569144040346146" lon="-2.649819999933243">
        <ele>93.390000000000001</ele>
        <time>2019-08-31T13:20:01Z</time>
      </trkpt>
      <trkpt lat="55.569209000095725" lon="-2.649937011301518">
        <ele>92.900000000000006</ele>
        <time>2019-08-31T13:20:02Z</time>
      </trkpt>
      <trkpt lat="55.570064960047603" lon="-2.651696959510446">
        <ele>92.900000000000006</ele>
        <time>2019-08-31T13:20:14Z</time>
      </trkpt>
      <trkpt lat="55.570965008810163" lon="-2.653908021748066">
        <ele>97.709999999999994</ele>
        <time>2019-08-31T13:20:26Z</time>
      </trkpt>
      <trkpt lat="55.571701023727655" lon="-2.65643198043108">
        <ele>96.269999999999996</ele>
        <time>2019-08-31T13:20:38Z</time>
      </trkpt>
      <trkpt lat="55.572250038385391" lon="-2.658611023798585">
        <ele>98.189999999999998</ele>
        <time>2019-08-31T13:20:48Z</time>
      </trkpt>
      <trkpt lat="55.573092000558972" lon="-2.660781014710665">
        <ele>95.790000000000006</ele>
        <time>2019-08-31T13:20:59Z</time>
      </trkpt>
      <trkpt lat="55.574134960770607" lon="-2.662884034216404">
        <ele>96.269999999999996</ele>
        <time>2019-08-31T13:21:11Z</time>
      </trkpt>
      <trkpt lat="55.575233995914459" lon="-2.664067978039384">
        <ele>100.59999999999999</ele>
        <time>2019-08-31T13:21:19Z</time>
      </trkpt>
      <trkpt lat="55.577066028490663" lon="-2.665709992870688">
        <ele>101.56</ele>
        <time>2019-08-31T13:21:29Z</time>
      </trkpt>
      <trkpt lat="55.578949023038149" lon="-2.667448986321688">
        <ele>103.48</ele>
        <time>2019-08-31T13:21:39Z</time>
      </trkpt>
      <trkpt lat="55.581021029502153" lon="-2.669363999739289">
        <ele>106.84</ele>
        <time>2019-08-31T13:21:50Z</time>
      </trkpt>
      <trkpt lat="55.583473993465304" lon="-2.671689977869391">
        <ele>116.94</ele>
        <time>2019-08-31T13:22:04Z</time>
      </trkpt>
      <trkpt lat="55.584938982501626" lon="-2.672434961423278">
        <ele>121.26000000000001</ele>
        <time>2019-08-31T13:22:12Z</time>
      </trkpt>
      <trkpt lat="55.586572028696537" lon="-2.672522971406579">
        <ele>123.67</ele>
        <time>2019-08-31T13:22:21Z</time>
      </trkpt>
      <trkpt lat="55.588381011039019" lon="-2.672452982515097">
        <ele>125.11</ele>
        <time>2019-08-31T13:22:32Z</time>
      </trkpt>
      <trkpt lat="55.588888032361865" lon="-2.672298001125455">
        <ele>125.11</ele>
        <time>2019-08-31T13:22:35Z</time>
      </trkpt>
      <trkpt lat="55.589049970731139" lon="-2.672191970050335">
        <ele>125.11</ele>
        <time>2019-08-31T13:22:36Z</time>
      </trkpt>
      <trkpt lat="55.590376993641257" lon="-2.67101900652051">
        <ele>123.67</ele>
        <time>2019-08-31T13:22:44Z</time>
      </trkpt>
      <trkpt lat="55.591214010491967" lon="-2.670458005741239">
        <ele>123.67</ele>
        <time>2019-08-31T13:22:49Z</time>
      </trkpt>
      <trkpt lat="55.591391958296299" lon="-2.670390028506517">
        <ele>123.19</ele>
        <time>2019-08-31T13:22:50Z</time>
      </trkpt>
      <trkpt lat="55.591574013233185" lon="-2.670320961624384">
        <ele>123.19</ele>
        <time>2019-08-31T13:22:51Z</time>
      </trkpt>
      <trkpt lat="55.592507002875209" lon="-2.670357003808022">
        <ele>125.11</ele>
        <time>2019-08-31T13:22:57Z</time>
      </trkpt>
      <trkpt lat="55.593573013320565" lon="-2.670531012117863">
        <ele>126.06999999999999</ele>
        <time>2019-08-31T13:23:06Z</time>
      </trkpt>
      <trkpt lat="55.594999026507139" lon="-2.67080401070416">
        <ele>123.19</ele>
        <time>2019-08-31T13:23:18Z</time>
      </trkpt>
      <trkpt lat="55.595444021746516" lon="-2.670906018465757">
        <ele>122.22</ele>
        <time>2019-08-31T13:23:22Z</time>
      </trkpt>
      <trkpt lat="55.595537982881069" lon="-2.67095304094255">
        <ele>121.73999999999999</ele>
        <time>2019-08-31T13:23:23Z</time>
      </trkpt>
      <trkpt lat="55.595626998692751" lon="-2.671351013705134">
        <ele>121.26000000000001</ele>
        <time>2019-08-31T13:23:24Z</time>
      </trkpt>
      <trkpt lat="55.59562599286437" lon="-2.671326035633683">
        <ele>121.26000000000001</ele>
        <time>2019-08-31T13:23:25Z</time>
      </trkpt>
      <trkpt lat="55.595706962049007" lon="-2.671460984274745">
        <ele>120.78</ele>
        <time>2019-08-31T13:23:26Z</time>
      </trkpt>
      <trkpt lat="55.595794972032309" lon="-2.671582018956542">
        <ele>120.78</ele>
        <time>2019-08-31T13:23:27Z</time>
      </trkpt>
      <trkpt lat="55.595893040299416" lon="-2.671776982024312">
        <ele>120.3</ele>
        <time>2019-08-31T13:23:28Z</time>
      </trkpt>
      <trkpt lat="55.595927992835641" lon="-2.672004969790578">
        <ele>119.81999999999999</ele>
        <time>2019-08-31T13:23:29Z</time>
      </trkpt>
      <trkpt lat="55.595973003655672" lon="-2.672249972820282">
        <ele>119.81999999999999</ele>
        <time>2019-08-31T13:23:30Z</time>
      </trkpt>
      <trkpt lat="55.596023965626955" lon="-2.672479972243309">
        <ele>119.34</ele>
        <time>2019-08-31T13:23:31Z</time>
      </trkpt>
      <trkpt lat="55.596668031066656" lon="-2.674705032259226">
        <ele>116.94</ele>
        <time>2019-08-31T13:23:40Z</time>
      </trkpt>
      <trkpt lat="55.59753698296845" lon="-2.67774498090148">
        <ele>117.42</ele>
        <time>2019-08-31T13:23:51Z</time>
      </trkpt>
      <trkpt lat="55.598539039492607" lon="-2.681566039100289">
        <ele>119.81999999999999</ele>
        <time>2019-08-31T13:24:03Z</time>
      </trkpt>
      <trkpt lat="55.598942041397095" lon="-2.684472966939211">
        <ele>121.26000000000001</ele>
        <time>2019-08-31T13:24:12Z</time>
      </trkpt>
      <trkpt lat="55.599005995318294" lon="-2.687624981626868">
        <ele>120.3</ele>
        <time>2019-08-31T13:24:21Z</time>
      </trkpt>
      <trkpt lat="55.598449017852545" lon="-2.691129958257079">
        <ele>117.42</ele>
        <time>2019-08-31T13:24:31Z</time>
      </trkpt>
      <trkpt lat="55.598174007609487" lon="-2.694570980966091">
        <ele>116.45999999999999</ele>
        <time>2019-08-31T13:24:40Z</time>
      </trkpt>
      <trkpt lat="55.598040986806154" lon="-2.699690982699394">
        <ele>113.56999999999999</ele>
        <time>2019-08-31T13:24:53Z</time>
      </trkpt>
      <trkpt lat="55.598021037876606" lon="-2.704812996089459">
        <ele>114.53</ele>
        <time>2019-08-31T13:25:07Z</time>
      </trkpt>
      <trkpt lat="55.597783997654915" lon="-2.707688994705677">
        <ele>116.45999999999999</ele>
        <time>2019-08-31T13:25:16Z</time>
      </trkpt>
      <trkpt lat="55.597435981035233" lon="-2.709461012855172">
        <ele>116.94</ele>
        <time>2019-08-31T13:25:23Z</time>
      </trkpt>
      <trkpt lat="55.59695796109736" lon="-2.711847005411983">
        <ele>114.53</ele>
        <time>2019-08-31T13:25:34Z</time>
      </trkpt>
      <trkpt lat="55.596567029133439" lon="-2.714742030948401">
        <ele>110.69</ele>
        <time>2019-08-31T13:25:44Z</time>
      </trkpt>
      <trkpt lat="55.596495028585196" lon="-2.718034023419023">
        <ele>108.29000000000001</ele>
        <time>2019-08-31T13:25:53Z</time>
      </trkpt>
      <trkpt lat="55.596521012485027" lon="-2.723296014592052">
        <ele>103.95999999999999</ele>
        <time>2019-08-31T13:26:07Z</time>
      </trkpt>
      <trkpt lat="55.596564011648297" lon="-2.726899981498718">
        <ele>102.04000000000001</ele>
        <time>2019-08-31T13:26:17Z</time>
      </trkpt>
      <trkpt lat="55.596660990267992" lon="-2.731023039668798">
        <ele>102.52</ele>
        <time>2019-08-31T13:26:27Z</time>
      </trkpt>
      <trkpt lat="55.596823012456298" lon="-2.735553039237857">
        <ele>103</ele>
        <time>2019-08-31T13:26:39Z</time>
      </trkpt>
      <trkpt lat="55.597019987180829" lon="-2.738874033093453">
        <ele>105.40000000000001</ele>
        <time>2019-08-31T13:26:49Z</time>
      </trkpt>
      <trkpt lat="55.597512004896998" lon="-2.741700997576118">
        <ele>107.81</ele>
        <time>2019-08-31T13:26:58Z</time>
      </trkpt>
      <trkpt lat="55.598233016207814" lon="-2.744292011484504">
        <ele>108.29000000000001</ele>
        <time>2019-08-31T13:27:09Z</time>
      </trkpt>
      <trkpt lat="55.599113032221794" lon="-2.746267961338162">
        <ele>110.20999999999999</ele>
        <time>2019-08-31T13:27:19Z</time>
      </trkpt>
      <trkpt lat="55.600199997425079" lon="-2.748361006379128">
        <ele>113.56999999999999</ele>
        <time>2019-08-31T13:27:29Z</time>
      </trkpt>
      <trkpt lat="55.600956967100501" lon="-2.749789031222463">
        <ele>117.42</ele>
        <time>2019-08-31T13:27:37Z</time>
      </trkpt>
      <trkpt lat="55.601095017045736" lon="-2.750049959868193">
        <ele>118.38</ele>
        <time>2019-08-31T13:27:39Z</time>
      </trkpt>
      <trkpt lat="55.601123012602329" lon="-2.750225979834795">
        <ele>118.86</ele>
        <time>2019-08-31T13:27:40Z</time>
      </trkpt>
      <trkpt lat="55.601145979017019" lon="-2.750388002023101">
        <ele>119.34</ele>
        <time>2019-08-31T13:27:41Z</time>
      </trkpt>
      <trkpt lat="55.60138301923871" lon="-2.751829018816352">
        <ele>118.86</ele>
        <time>2019-08-31T13:27:50Z</time>
      </trkpt>
      <trkpt lat="55.601444039493799" lon="-2.752289017662406">
        <ele>118.86</ele>
        <time>2019-08-31T13:27:52Z</time>
      </trkpt>
      <trkpt lat="55.601467005908489" lon="-2.752542989328504">
        <ele>118.86</ele>
        <time>2019-08-31T13:27:53Z</time>
      </trkpt>
      <trkpt lat="55.601478992030025" lon="-2.752809030935168">
        <ele>118.38</ele>
        <time>2019-08-31T13:27:54Z</time>
      </trkpt>
      <trkpt lat="55.601454013958573" lon="-2.753084963187575">
        <ele>117.90000000000001</ele>
        <time>2019-08-31T13:27:55Z</time>
      </trkpt>
      <trkpt lat="55.601428030058742" lon="-2.753372965380549">
        <ele>117.90000000000001</ele>
        <time>2019-08-31T13:27:56Z</time>
      </trkpt>
      <trkpt lat="55.601071966812015" lon="-2.756623970344663">
        <ele>112.13</ele>
        <time>2019-08-31T13:28:07Z</time>
      </trkpt>
      <trkpt lat="55.60065396130085" lon="-2.760389959439635">
        <ele>108.77</ele>
        <time>2019-08-31T13:28:19Z</time>
      </trkpt>
      <trkpt lat="55.600183987990022" lon="-2.764648972079158">
        <ele>107.81</ele>
        <time>2019-08-31T13:28:32Z</time>
      </trkpt>
      <trkpt lat="55.600118022412062" lon="-2.767749018967152">
        <ele>107.81</ele>
        <time>2019-08-31T13:28:42Z</time>
      </trkpt>
      <trkpt lat="55.600347016006708" lon="-2.770272977650166">
        <ele>109.25</ele>
        <time>2019-08-31T13:28:51Z</time>
      </trkpt>
      <trkpt lat="55.600429996848106" lon="-2.770950989797711">
        <ele>109.73</ele>
        <time>2019-08-31T13:28:55Z</time>
      </trkpt>
      <trkpt lat="55.60041700489819" lon="-2.771091973409057">
        <ele>109.73</ele>
        <time>2019-08-31T13:28:56Z</time>
      </trkpt>
      <trkpt lat="55.60039596632123" lon="-2.77122600004077">
        <ele>110.20999999999999</ele>
        <time>2019-08-31T13:28:57Z</time>
      </trkpt>
      <trkpt lat="55.600377023220062" lon="-2.771348962560296">
        <ele>110.20999999999999</ele>
        <time>2019-08-31T13:28:58Z</time>
      </trkpt>
      <trkpt lat="55.600357996299863" lon="-2.771472008898854">
        <ele>110.20999999999999</ele>
        <time>2019-08-31T13:28:59Z</time>
      </trkpt>
      <trkpt lat="55.600312985479832" lon="-2.771766968071461">
        <ele>110.20999999999999</ele>
        <time>2019-08-31T13:29:01Z</time>
      </trkpt>
      <trkpt lat="55.600290019065142" lon="-2.771922033280134">
        <ele>110.20999999999999</ele>
        <time>2019-08-31T13:29:02Z</time>
      </trkpt>
      <trkpt lat="55.600267974659801" lon="-2.772079026326537">
        <ele>110.69</ele>
        <time>2019-08-31T13:29:03Z</time>
      </trkpt>
      <trkpt lat="55.600246014073491" lon="-2.772228978574276">
        <ele>110.20999999999999</ele>
        <time>2019-08-31T13:29:04Z</time>
      </trkpt>
      <trkpt lat="55.600282978266478" lon="-2.772394018247724">
        <ele>110.69</ele>
        <time>2019-08-31T13:29:05Z</time>
      </trkpt>
      <trkpt lat="55.600327989086509" lon="-2.772528966888785">
        <ele>110.69</ele>
        <time>2019-08-31T13:29:06Z</time>
      </trkpt>
      <trkpt lat="55.600374005734921" lon="-2.772665005177259">
        <ele>110.69</ele>
        <time>2019-08-31T13:29:07Z</time>
      </trkpt>
      <trkpt lat="55.600452041253448" lon="-2.772765001282096">
        <ele>110.69</ele>
        <time>2019-08-31T13:29:08Z</time>
      </trkpt>
      <trkpt lat="55.600548014044762" lon="-2.772840019315481">
        <ele>110.69</ele>
        <time>2019-08-31T13:29:09Z</time>
      </trkpt>
      <trkpt lat="55.600653039291501" lon="-2.772940015420318">
        <ele>110.69</ele>
        <time>2019-08-31T13:29:10Z</time>
      </trkpt>
      <trkpt lat="55.600762004032731" lon="-2.773054009303451">
        <ele>110.69</ele>
        <time>2019-08-31T13:29:11Z</time>
      </trkpt>
      <trkpt lat="55.600997032597661" lon="-2.773299012333155">
        <ele>110.20999999999999</ele>
        <time>2019-08-31T13:29:13Z</time>
      </trkpt>
      <trkpt lat="55.601108008995652" lon="-2.773446030914784">
        <ele>110.20999999999999</ele>
        <time>2019-08-31T13:29:14Z</time>
      </trkpt>
      <trkpt lat="55.601199036464095" lon="-2.773640993982554">
        <ele>110.20999999999999</ele>
        <time>2019-08-31T13:29:15Z</time>
      </trkpt>
      <trkpt lat="55.601287968456745" lon="-2.773863030597568">
        <ele>110.69</ele>
        <time>2019-08-31T13:29:16Z</time>
      </trkpt>
      <trkpt lat="55.601371033117175" lon="-2.774107027798891">
        <ele>111.17</ele>
        <time>2019-08-31T13:29:17Z</time>
      </trkpt>
      <trkpt lat="55.60250099748373" lon="-2.777405977249146">
        <ele>114.53</ele>
        <time>2019-08-31T13:29:30Z</time>
      </trkpt>
      <trkpt lat="55.603478997945786" lon="-2.780265966430306">
        <ele>118.38</ele>
        <time>2019-08-31T13:29:41Z</time>
      </trkpt>
      <trkpt lat="55.604204032570124" lon="-2.78250502422452">
        <ele>123.19</ele>
        <time>2019-08-31T13:29:51Z</time>
      </trkpt>
      <trkpt lat="55.604600999504328" lon="-2.784536965191364">
        <ele>125.59</ele>
        <time>2019-08-31T13:29:59Z</time>
      </trkpt>
      <trkpt lat="55.604632012546062" lon="-2.784982966259122">
        <ele>125.59</ele>
        <time>2019-08-31T13:30:01Z</time>
      </trkpt>
      <trkpt lat="55.604641987010837" lon="-2.785177007317543">
        <ele>125.59</ele>
        <time>2019-08-31T13:30:02Z</time>
      </trkpt>
      <trkpt lat="55.604650033637881" lon="-2.785347998142242">
        <ele>126.06999999999999</ele>
        <time>2019-08-31T13:30:03Z</time>
      </trkpt>
      <trkpt lat="55.604682974517345" lon="-2.786020981147885">
        <ele>127.51000000000001</ele>
        <time>2019-08-31T13:30:08Z</time>
      </trkpt>
      <trkpt lat="55.604664031416178" lon="-2.786097005009651">
        <ele>127.98999999999999</ele>
        <time>2019-08-31T13:30:09Z</time>
      </trkpt>
      <trkpt lat="55.604649027809501" lon="-2.78615802526474">
        <ele>127.98999999999999</ele>
        <time>2019-08-31T13:30:10Z</time>
      </trkpt>
      <trkpt lat="55.604636035859585" lon="-2.786206975579262">
        <ele>128.47</ele>
        <time>2019-08-31T13:30:11Z</time>
      </trkpt>
      <trkpt lat="55.60462698340416" lon="-2.786243017762899">
        <ele>128.94999999999999</ele>
        <time>2019-08-31T13:30:12Z</time>
      </trkpt>
      <trkpt lat="55.604548025876284" lon="-2.786562032997608">
        <ele>129.91999999999999</ele>
        <time>2019-08-31T13:30:21Z</time>
      </trkpt>
      <trkpt lat="55.604424979537725" lon="-2.787007028236985">
        <ele>130.40000000000001</ele>
        <time>2019-08-31T13:30:24Z</time>
      </trkpt>
      <trkpt lat="55.604424979537725" lon="-2.78716703876853">
        <ele>130.40000000000001</ele>
        <time>2019-08-31T13:30:25Z</time>
      </trkpt>
      <trkpt lat="55.604459010064602" lon="-2.787340963259339">
        <ele>130.40000000000001</ele>
        <time>2019-08-31T13:30:26Z</time>
      </trkpt>
      <trkpt lat="55.604516007006168" lon="-2.787466021254659">
        <ele>130.88</ele>
        <time>2019-08-31T13:30:27Z</time>
      </trkpt>
      <trkpt lat="55.604532016441226" lon="-2.787501979619265">
        <ele>130.88</ele>
        <time>2019-08-31T13:30:28Z</time>
      </trkpt>
      <trkpt lat="55.604677023366094" lon="-2.787573980167508">
        <ele>130.88</ele>
        <time>2019-08-31T13:30:29Z</time>
      </trkpt>
      <trkpt lat="55.604704013094306" lon="-2.787587977945805">
        <ele>130.88</ele>
        <time>2019-08-31T13:30:30Z</time>
      </trkpt>
      <trkpt lat="55.604890007525682" lon="-2.787829963490367">
        <ele>130.40000000000001</ele>
        <time>2019-08-31T13:30:31Z</time>
      </trkpt>
      <trkpt lat="55.604934012517333" lon="-2.787990979850292">
        <ele>130.40000000000001</ele>
        <time>2019-08-31T13:30:32Z</time>
      </trkpt>
      <trkpt lat="55.604977011680603" lon="-2.788149984553456">
        <ele>130.88</ele>
        <time>2019-08-31T13:30:33Z</time>
      </trkpt>
      <trkpt lat="55.605020010843873" lon="-2.788306977599859">
        <ele>131.36000000000001</ele>
        <time>2019-08-31T13:30:34Z</time>
      </trkpt>
      <trkpt lat="55.605063010007143" lon="-2.788461958989501">
        <ele>131.84</ele>
        <time>2019-08-31T13:30:35Z</time>
      </trkpt>
      <trkpt lat="55.605656029656529" lon="-2.79015501961112">
        <ele>136.63999999999999</ele>
        <time>2019-08-31T13:30:46Z</time>
      </trkpt>
      <trkpt lat="55.605922993272543" lon="-2.790830014273524">
        <ele>139.05000000000001</ele>
        <time>2019-08-31T13:30:51Z</time>
      </trkpt>
      <trkpt lat="55.605973033234477" lon="-2.790958005934954">
        <ele>139.53</ele>
        <time>2019-08-31T13:30:52Z</time>
      </trkpt>
      <trkpt lat="55.606530010700226" lon="-2.792892968282104">
        <ele>141.93000000000001</ele>
        <time>2019-08-31T13:31:05Z</time>
      </trkpt>
      <trkpt lat="55.606816001236439" lon="-2.79382998123765">
        <ele>141.93000000000001</ele>
        <time>2019-08-31T13:31:11Z</time>
      </trkpt>
      <trkpt lat="55.607158988714218" lon="-2.794568007811904">
        <ele>142.88999999999999</ele>
        <time>2019-08-31T13:31:19Z</time>
      </trkpt>
      <trkpt lat="55.607536006718874" lon="-2.795151975005865">
        <ele>142.41</ele>
        <time>2019-08-31T13:31:27Z</time>
      </trkpt>
      <trkpt lat="55.60817495919764" lon="-2.796108014881611">
        <ele>138.56999999999999</ele>
        <time>2019-08-31T13:31:37Z</time>
      </trkpt>
      <trkpt lat="55.608212007209659" lon="-2.796176997944713">
        <ele>138.09</ele>
        <time>2019-08-31T13:31:38Z</time>
      </trkpt>
      <trkpt lat="55.608643004670739" lon="-2.796952994540334">
        <ele>132.80000000000001</ele>
        <time>2019-08-31T13:31:48Z</time>
      </trkpt>
      <trkpt lat="55.609282962977886" lon="-2.798069966956973">
        <ele>129.43000000000001</ele>
        <time>2019-08-31T13:31:58Z</time>
      </trkpt>
      <trkpt lat="55.610039010643959" lon="-2.799402019008994">
        <ele>132.31999999999999</ele>
        <time>2019-08-31T13:32:09Z</time>
      </trkpt>
      <trkpt lat="55.61060001142323" lon="-2.800313970074058">
        <ele>133.75999999999999</ele>
        <time>2019-08-31T13:32:17Z</time>
      </trkpt>
      <trkpt lat="55.610843002796173" lon="-2.800739016383886">
        <ele>132.80000000000001</ele>
        <time>2019-08-31T13:32:21Z</time>
      </trkpt>
      <trkpt lat="55.610897988080978" lon="-2.800835995003581">
        <ele>132.80000000000001</ele>
        <time>2019-08-31T13:32:22Z</time>
      </trkpt>
      <trkpt lat="55.611320016905665" lon="-2.801552983000875">
        <ele>131.84</ele>
        <time>2019-08-31T13:32:30Z</time>
      </trkpt>
      <trkpt lat="55.611359998583794" lon="-2.801620038226247">
        <ele>131.84</ele>
        <time>2019-08-31T13:32:31Z</time>
      </trkpt>
      <trkpt lat="55.611434010788798" lon="-2.801743000745773">
        <ele>131.36000000000001</ele>
        <time>2019-08-31T13:32:33Z</time>
      </trkpt>
      <trkpt lat="55.611468041315675" lon="-2.80179999768734">
        <ele>131.36000000000001</ele>
        <time>2019-08-31T13:32:34Z</time>
      </trkpt>
      <trkpt lat="55.611503999680281" lon="-2.801861017942429">
        <ele>131.36000000000001</ele>
        <time>2019-08-31T13:32:35Z</time>
      </trkpt>
      <trkpt lat="55.611542975530028" lon="-2.801925977692008">
        <ele>130.88</ele>
        <time>2019-08-31T13:32:36Z</time>
      </trkpt>
      <trkpt lat="55.611583963036537" lon="-2.801994038745761">
        <ele>130.88</ele>
        <time>2019-08-31T13:32:37Z</time>
      </trkpt>
      <trkpt lat="55.611626962199807" lon="-2.802066039294004">
        <ele>130.88</ele>
        <time>2019-08-31T13:32:38Z</time>
      </trkpt>
      <trkpt lat="55.611764006316662" lon="-2.802297966554761">
        <ele>130.88</ele>
        <time>2019-08-31T13:32:41Z</time>
      </trkpt>
      <trkpt lat="55.611809017136693" lon="-2.802376002073288">
        <ele>130.40000000000001</ele>
        <time>2019-08-31T13:32:42Z</time>
      </trkpt>
      <trkpt lat="55.611859979107976" lon="-2.802457977086306">
        <ele>130.40000000000001</ele>
        <time>2019-08-31T13:32:43Z</time>
      </trkpt>
      <trkpt lat="55.611913958564401" lon="-2.802543975412846">
        <ele>130.40000000000001</ele>
        <time>2019-08-31T13:32:44Z</time>
      </trkpt>
      <trkpt lat="55.611966010183096" lon="-2.80266098678112">
        <ele>130.40000000000001</ele>
        <time>2019-08-31T13:32:45Z</time>
      </trkpt>
      <trkpt lat="55.61229701153934" lon="-2.803409993648529">
        <ele>125.11</ele>
        <time>2019-08-31T13:32:54Z</time>
      </trkpt>
      <trkpt lat="55.612351996824145" lon="-2.803529016673565">
        <ele>124.15000000000001</ele>
        <time>2019-08-31T13:32:56Z</time>
      </trkpt>
      <trkpt lat="55.612412011250854" lon="-2.803653990849853">
        <ele>123.67</ele>
        <time>2019-08-31T13:32:58Z</time>
      </trkpt>
      <trkpt lat="55.612643016502261" lon="-2.804093034937978">
        <ele>123.19</ele>
        <time>2019-08-31T13:33:04Z</time>
      </trkpt>
      <trkpt lat="55.612765979021788" lon="-2.804231001064181">
        <ele>122.70999999999999</ele>
        <time>2019-08-31T13:33:06Z</time>
      </trkpt>
      <trkpt lat="55.612949039787054" lon="-2.804436022415757">
        <ele>122.22</ele>
        <time>2019-08-31T13:33:09Z</time>
      </trkpt>
      <trkpt lat="55.612986003980041" lon="-2.804551022127271">
        <ele>121.73999999999999</ele>
        <time>2019-08-31T13:33:10Z</time>
      </trkpt>
      <trkpt lat="55.613013999536633" lon="-2.804682031273842">
        <ele>121.73999999999999</ele>
        <time>2019-08-31T13:33:11Z</time>
      </trkpt>
      <trkpt lat="55.613080970942974" lon="-2.804991994053125">
        <ele>123.19</ele>
        <time>2019-08-31T13:33:13Z</time>
      </trkpt>
      <trkpt lat="55.613152971491218" lon="-2.805145969614387">
        <ele>123.67</ele>
        <time>2019-08-31T13:33:14Z</time>
      </trkpt>
      <trkpt lat="55.613863002508879" lon="-2.806103015318513">
        <ele>125.59</ele>
        <time>2019-08-31T13:33:22Z</time>
      </trkpt>
      <trkpt lat="55.614383015781641" lon="-2.806728975847364">
        <ele>126.06999999999999</ele>
        <time>2019-08-31T13:33:30Z</time>
      </trkpt>
      <trkpt lat="55.614600023254752" lon="-2.806931985542178">
        <ele>126.06999999999999</ele>
        <time>2019-08-31T13:33:38Z</time>
      </trkpt>
      <trkpt lat="55.614651991054416" lon="-2.806981019675732">
        <ele>126.06999999999999</ele>
        <time>2019-08-31T13:33:42Z</time>
      </trkpt>
      <trkpt lat="55.614846032112837" lon="-2.807136001065373">
        <ele>126.06999999999999</ele>
        <time>2019-08-31T13:33:45Z</time>
      </trkpt>
      <trkpt lat="55.614931024610996" lon="-2.807185035198927">
        <ele>125.59</ele>
        <time>2019-08-31T13:33:46Z</time>
      </trkpt>
      <trkpt lat="55.615173010155559" lon="-2.807277990505099">
        <ele>124.15000000000001</ele>
        <time>2019-08-31T13:33:49Z</time>
      </trkpt>
      <trkpt lat="55.615244004875422" lon="-2.807318978011608">
        <ele>123.67</ele>
        <time>2019-08-31T13:33:50Z</time>
      </trkpt>
      <trkpt lat="55.615302007645369" lon="-2.807393996044993">
        <ele>122.70999999999999</ele>
        <time>2019-08-31T13:33:51Z</time>
      </trkpt>
      <trkpt lat="55.615360010415316" lon="-2.807486029341817">
        <ele>122.22</ele>
        <time>2019-08-31T13:33:52Z</time>
      </trkpt>
      <trkpt lat="55.615416001528502" lon="-2.807574039325118">
        <ele>121.73999999999999</ele>
        <time>2019-08-31T13:33:53Z</time>
      </trkpt>
      <trkpt lat="55.615566959604621" lon="-2.807812001556158">
        <ele>120.78</ele>
        <time>2019-08-31T13:33:56Z</time>
      </trkpt>
      <trkpt lat="55.615609036758542" lon="-2.807879978790879">
        <ele>120.3</ele>
        <time>2019-08-31T13:33:57Z</time>
      </trkpt>
      <trkpt lat="55.615819003432989" lon="-2.808208968490362">
        <ele>118.38</ele>
        <time>2019-08-31T13:34:02Z</time>
      </trkpt>
      <trkpt lat="55.615967027842999" lon="-2.808429999276996">
        <ele>117.90000000000001</ele>
        <time>2019-08-31T13:34:06Z</time>
      </trkpt>
      <trkpt lat="55.616073980927467" lon="-2.808591015636921">
        <ele>116.94</ele>
        <time>2019-08-31T13:34:09Z</time>
      </trkpt>
      <trkpt lat="55.616114968433976" lon="-2.80865203589201">
        <ele>116.94</ele>
        <time>2019-08-31T13:34:10Z</time>
      </trkpt>
      <trkpt lat="55.616155033931136" lon="-2.808712972328067">
        <ele>116.94</ele>
        <time>2019-08-31T13:34:11Z</time>
      </trkpt>
      <trkpt lat="55.616197027266026" lon="-2.808774998411536">
        <ele>116.94</ele>
        <time>2019-08-31T13:34:12Z</time>
      </trkpt>
      <trkpt lat="55.616238014772534" lon="-2.808837024495006">
        <ele>116.94</ele>
        <time>2019-08-31T13:34:13Z</time>
      </trkpt>
      <trkpt lat="55.616281013935804" lon="-2.808900978416205">
        <ele>116.45999999999999</ele>
        <time>2019-08-31T13:34:14Z</time>
      </trkpt>
      <trkpt lat="55.616367012262344" lon="-2.809030981734395">
        <ele>116.45999999999999</ele>
        <time>2019-08-31T13:34:16Z</time>
      </trkpt>
      <trkpt lat="55.61670103110373" lon="-2.809446975588799">
        <ele>116.45999999999999</ele>
        <time>2019-08-31T13:34:22Z</time>
      </trkpt>
      <trkpt lat="55.616770014166832" lon="-2.809497015550733">
        <ele>116.45999999999999</ele>
        <time>2019-08-31T13:34:23Z</time>
      </trkpt>
      <trkpt lat="55.616831034421921" lon="-2.809539008885622">
        <ele>116.45999999999999</ele>
        <time>2019-08-31T13:34:24Z</time>
      </trkpt>
      <trkpt lat="55.61689498834312" lon="-2.809550995007157">
        <ele>116.94</ele>
        <time>2019-08-31T13:34:25Z</time>
      </trkpt>
      <trkpt lat="55.616955002769828" lon="-2.809562981128693">
        <ele>116.94</ele>
        <time>2019-08-31T13:34:26Z</time>
      </trkpt>
      <trkpt lat="55.617009988054633" lon="-2.809573039412499">
        <ele>117.42</ele>
        <time>2019-08-31T13:34:27Z</time>
      </trkpt>
      <trkpt lat="55.617063967511058" lon="-2.809583013877273">
        <ele>117.42</ele>
        <time>2019-08-31T13:34:28Z</time>
      </trkpt>
      <trkpt lat="55.617115013301373" lon="-2.809592988342047">
        <ele>117.90000000000001</ele>
        <time>2019-08-31T13:34:29Z</time>
      </trkpt>
      <trkpt lat="55.617181984707713" lon="-2.809632970020175">
        <ele>118.38</ele>
        <time>2019-08-31T13:34:30Z</time>
      </trkpt>
      <trkpt lat="55.617212997749448" lon="-2.809721985831857">
        <ele>118.38</ele>
        <time>2019-08-31T13:34:31Z</time>
      </trkpt>
      <trkpt lat="55.617245016619563" lon="-2.809812007471919">
        <ele>117.90000000000001</ele>
        <time>2019-08-31T13:34:32Z</time>
      </trkpt>
      <trkpt lat="55.617277035489678" lon="-2.809904962778091">
        <ele>117.90000000000001</ele>
        <time>2019-08-31T13:34:33Z</time>
      </trkpt>
      <trkpt lat="55.617312993854284" lon="-2.809998001903296">
        <ele>117.90000000000001</ele>
        <time>2019-08-31T13:34:34Z</time>
      </trkpt>
      <trkpt lat="55.61751801520586" lon="-2.810470992699266">
        <ele>118.38</ele>
        <time>2019-08-31T13:34:39Z</time>
      </trkpt>
      <trkpt lat="55.61773301102221" lon="-2.81088799238205">
        <ele>119.34</ele>
        <time>2019-08-31T13:34:43Z</time>
      </trkpt>
      <trkpt lat="55.618007015436888" lon="-2.81136098317802">
        <ele>119.34</ele>
        <time>2019-08-31T13:34:48Z</time>
      </trkpt>
      <trkpt lat="55.618201978504658" lon="-2.811545971781015">
        <ele>118.86</ele>
        <time>2019-08-31T13:34:52Z</time>
      </trkpt>
      <trkpt lat="55.618409011512995" lon="-2.811734983697534">
        <ele>117.90000000000001</ele>
        <time>2019-08-31T13:35:01Z</time>
      </trkpt>
      <trkpt lat="55.618743030354381" lon="-2.811917038634419">
        <ele>118.38</ele>
        <time>2019-08-31T13:35:09Z</time>
      </trkpt>
      <trkpt lat="55.618849983438849" lon="-2.811975041404367">
        <ele>118.86</ele>
        <time>2019-08-31T13:35:12Z</time>
      </trkpt>
      <trkpt lat="55.618916032835841" lon="-2.811989961192012">
        <ele>118.86</ele>
        <time>2019-08-31T13:35:13Z</time>
      </trkpt>
      <trkpt lat="55.618947967886925" lon="-2.811917960643768">
        <ele>118.86</ele>
        <time>2019-08-31T13:35:14Z</time>
      </trkpt>
      <trkpt lat="55.618987027555704" lon="-2.811831040307879">
        <ele>118.86</ele>
        <time>2019-08-31T13:35:15Z</time>
      </trkpt>
      <trkpt lat="55.619024997577071" lon="-2.811744958162308">
        <ele>119.34</ele>
        <time>2019-08-31T13:35:16Z</time>
      </trkpt>
      <trkpt lat="55.619250973686576" lon="-2.811238020658493">
        <ele>117.42</ele>
        <time>2019-08-31T13:35:25Z</time>
      </trkpt>
      <trkpt lat="55.619441997259855" lon="-2.810811968520284">
        <ele>118.38</ele>
        <time>2019-08-31T13:35:33Z</time>
      </trkpt>
      <trkpt lat="55.619670990854502" lon="-2.810728987678886">
        <ele>120.3</ele>
        <time>2019-08-31T13:35:37Z</time>
      </trkpt>
      <trkpt lat="55.619723964482546" lon="-2.810848010703921">
        <ele>120.78</ele>
        <time>2019-08-31T13:35:38Z</time>
      </trkpt>
      <trkpt lat="55.620370963588357" lon="-2.811541026458144">
        <ele>121.26000000000001</ele>
        <time>2019-08-31T13:35:45Z</time>
      </trkpt>
      <trkpt lat="55.621039001271129" lon="-2.812362033873797">
        <ele>124.63</ele>
        <time>2019-08-31T13:35:54Z</time>
      </trkpt>
      <trkpt lat="55.621437979862094" lon="-2.813151022419334">
        <ele>125.11</ele>
        <time>2019-08-31T13:36:00Z</time>
      </trkpt>
      <trkpt lat="55.62181600369513" lon="-2.814376959577203">
        <ele>126.55</ele>
        <time>2019-08-31T13:36:09Z</time>
      </trkpt>
      <trkpt lat="55.621989006176591" lon="-2.814812986180186">
        <ele>127.51000000000001</ele>
        <time>2019-08-31T13:36:12Z</time>
      </trkpt>
      <trkpt lat="55.622060000896454" lon="-2.814964028075337">
        <ele>127.51000000000001</ele>
        <time>2019-08-31T13:36:13Z</time>
      </trkpt>
      <trkpt lat="55.622284971177578" lon="-2.815449004992843">
        <ele>128.94999999999999</ele>
        <time>2019-08-31T13:36:16Z</time>
      </trkpt>
      <trkpt lat="55.622355965897441" lon="-2.815631981939077">
        <ele>129.43000000000001</ele>
        <time>2019-08-31T13:36:17Z</time>
      </trkpt>
      <trkpt lat="55.62297698110342" lon="-2.817280031740665">
        <ele>133.28</ele>
        <time>2019-08-31T13:36:27Z</time>
      </trkpt>
      <trkpt lat="55.623475033789873" lon="-2.818380994722247">
        <ele>136.16</ele>
        <time>2019-08-31T13:36:34Z</time>
      </trkpt>
      <trkpt lat="55.623954981565475" lon="-2.820257032290101">
        <ele>138.56999999999999</ele>
        <time>2019-08-31T13:36:46Z</time>
      </trkpt>
      <trkpt lat="55.624148016795516" lon="-2.821012996137142">
        <ele>140.00999999999999</ele>
        <time>2019-08-31T13:36:51Z</time>
      </trkpt>
      <trkpt lat="55.624204007908702" lon="-2.82115800306201">
        <ele>140.49000000000001</ele>
        <time>2019-08-31T13:36:52Z</time>
      </trkpt>
      <trkpt lat="55.624269973486662" lon="-2.821290018036962">
        <ele>140.97</ele>
        <time>2019-08-31T13:36:53Z</time>
      </trkpt>
      <trkpt lat="55.624348009005189" lon="-2.821423960849643">
        <ele>141.44999999999999</ele>
        <time>2019-08-31T13:36:54Z</time>
      </trkpt>
      <trkpt lat="55.624434007331729" lon="-2.821536026895046">
        <ele>141.93000000000001</ele>
        <time>2019-08-31T13:36:55Z</time>
      </trkpt>
      <trkpt lat="55.624518999829888" lon="-2.821648009121418">
        <ele>141.93000000000001</ele>
        <time>2019-08-31T13:36:56Z</time>
      </trkpt>
      <trkpt lat="55.624615978449583" lon="-2.821748005226255">
        <ele>142.41</ele>
        <time>2019-08-31T13:36:57Z</time>
      </trkpt>
      <trkpt lat="55.624808007851243" lon="-2.821940034627914">
        <ele>142.41</ele>
        <time>2019-08-31T13:36:59Z</time>
      </trkpt>
      <trkpt lat="55.624916972592473" lon="-2.822048999369144">
        <ele>142.88999999999999</ele>
        <time>2019-08-31T13:37:00Z</time>
      </trkpt>
      <trkpt lat="55.624991990625858" lon="-2.822176991030574">
        <ele>143.37</ele>
        <time>2019-08-31T13:37:01Z</time>
      </trkpt>
      <trkpt lat="55.625686012208462" lon="-2.823399994522333">
        <ele>145.78</ele>
        <time>2019-08-31T13:37:09Z</time>
      </trkpt>
      <trkpt lat="55.626242989674211" lon="-2.824400961399078">
        <ele>145.30000000000001</ele>
        <time>2019-08-31T13:37:15Z</time>
      </trkpt>
      <trkpt lat="55.62634801492095" lon="-2.824576981365681">
        <ele>145.30000000000001</ele>
        <time>2019-08-31T13:37:16Z</time>
      </trkpt>
      <trkpt lat="55.627464987337589" lon="-2.826439021155238">
        <ele>146.74000000000001</ele>
        <time>2019-08-31T13:37:26Z</time>
      </trkpt>
      <trkpt lat="55.627821972593665" lon="-2.827033968642354">
        <ele>147.69999999999999</ele>
        <time>2019-08-31T13:37:30Z</time>
      </trkpt>
      <trkpt lat="55.627900008112192" lon="-2.827162966132164">
        <ele>148.18000000000001</ele>
        <time>2019-08-31T13:37:31Z</time>
      </trkpt>
      <trkpt lat="55.628701988607645" lon="-2.828674977645278">
        <ele>151.06</ele>
        <time>2019-08-31T13:37:41Z</time>
      </trkpt>
      <trkpt lat="55.629471028223634" lon="-2.83125601708889">
        <ele>154.91</ele>
        <time>2019-08-31T13:37:52Z</time>
      </trkpt>
      <trkpt lat="55.629794988781214" lon="-2.832174003124237">
        <ele>155.38999999999999</ele>
        <time>2019-08-31T13:37:56Z</time>
      </trkpt>
      <trkpt lat="55.629912000149488" lon="-2.832381958141923">
        <ele>155.87</ele>
        <time>2019-08-31T13:37:57Z</time>
      </trkpt>
      <trkpt lat="55.630042003467679" lon="-2.832589996978641">
        <ele>156.34999999999999</ele>
        <time>2019-08-31T13:37:58Z</time>
      </trkpt>
      <trkpt lat="55.63019203953445" lon="-2.832772973924875">
        <ele>156.83000000000001</ele>
        <time>2019-08-31T13:37:59Z</time>
      </trkpt>
      <trkpt lat="55.630368981510401" lon="-2.832868024706841">
        <ele>157.31</ele>
        <time>2019-08-31T13:38:00Z</time>
      </trkpt>
      <trkpt lat="55.630543995648623" lon="-2.832958968356252">
        <ele>158.27000000000001</ele>
        <time>2019-08-31T13:38:01Z</time>
      </trkpt>
      <trkpt lat="55.630714986473322" lon="-2.833038009703159">
        <ele>158.75</ele>
        <time>2019-08-31T13:38:02Z</time>
      </trkpt>
      <trkpt lat="55.630882037803531" lon="-2.833056030794978">
        <ele>159.72</ele>
        <time>2019-08-31T13:38:03Z</time>
      </trkpt>
      <trkpt lat="55.631061997264624" lon="-2.83301898278296">
        <ele>160.19999999999999</ele>
        <time>2019-08-31T13:38:04Z</time>
      </trkpt>
      <trkpt lat="55.631231982260942" lon="-2.832983024418354">
        <ele>161.16</ele>
        <time>2019-08-31T13:38:05Z</time>
      </trkpt>
      <trkpt lat="55.631389981135726" lon="-2.832883028313518">
        <ele>162.12</ele>
        <time>2019-08-31T13:38:06Z</time>
      </trkpt>
      <trkpt lat="55.631539011374116" lon="-2.832751013338566">
        <ele>163.08000000000001</ele>
        <time>2019-08-31T13:38:07Z</time>
      </trkpt>
      <trkpt lat="55.631683012470603" lon="-2.832613969221711">
        <ele>163.56</ele>
        <time>2019-08-31T13:38:08Z</time>
      </trkpt>
      <trkpt lat="55.631817961111665" lon="-2.832445995882154">
        <ele>164.52000000000001</ele>
        <time>2019-08-31T13:38:09Z</time>
      </trkpt>
      <trkpt lat="55.631921980530024" lon="-2.832228988409042">
        <ele>165</ele>
        <time>2019-08-31T13:38:10Z</time>
      </trkpt>
      <trkpt lat="55.632023988291621" lon="-2.832008041441441">
        <ele>165.47999999999999</ele>
        <time>2019-08-31T13:38:11Z</time>
      </trkpt>
      <trkpt lat="55.632124990224838" lon="-2.831781981512904">
        <ele>165.96000000000001</ele>
        <time>2019-08-31T13:38:12Z</time>
      </trkpt>
      <trkpt lat="55.632213000208139" lon="-2.831547036767006">
        <ele>166.44999999999999</ele>
        <time>2019-08-31T13:38:13Z</time>
      </trkpt>
      <trkpt lat="55.632661012932658" lon="-2.83044096082449">
        <ele>167.88999999999999</ele>
        <time>2019-08-31T13:38:18Z</time>
      </trkpt>
      <trkpt lat="55.633001988753676" lon="-2.829818017780781">
        <ele>168.37</ele>
        <time>2019-08-31T13:38:21Z</time>
      </trkpt>
      <trkpt lat="55.634121978655457" lon="-2.828673971816897">
        <ele>169.33000000000001</ele>
        <time>2019-08-31T13:38:28Z</time>
      </trkpt>
      <trkpt lat="55.635472973808646" lon="-2.827347032725811">
        <ele>173.66</ele>
        <time>2019-08-31T13:38:36Z</time>
      </trkpt>
      <trkpt lat="55.636152997612953" lon="-2.826810004189611">
        <ele>174.62</ele>
        <time>2019-08-31T13:38:40Z</time>
      </trkpt>
      <trkpt lat="55.636330023407936" lon="-2.826711013913155">
        <ele>174.62</ele>
        <time>2019-08-31T13:38:41Z</time>
      </trkpt>
      <trkpt lat="55.636514006182551" lon="-2.826664997264743">
        <ele>174.62</ele>
        <time>2019-08-31T13:38:42Z</time>
      </trkpt>
      <trkpt lat="55.636696983128786" lon="-2.826618980616331">
        <ele>174.62</ele>
        <time>2019-08-31T13:38:43Z</time>
      </trkpt>
      <trkpt lat="55.636884989216924" lon="-2.82661403529346">
        <ele>174.62</ele>
        <time>2019-08-31T13:38:44Z</time>
      </trkpt>
      <trkpt lat="55.637266030535102" lon="-2.826674971729517">
        <ele>173.66</ele>
        <time>2019-08-31T13:38:46Z</time>
      </trkpt>
      <trkpt lat="55.637453030794859" lon="-2.826749989762902">
        <ele>173.66</ele>
        <time>2019-08-31T13:38:47Z</time>
      </trkpt>
      <trkpt lat="55.638002967461944" lon="-2.82708702608943">
        <ele>172.21000000000001</ele>
        <time>2019-08-31T13:38:50Z</time>
      </trkpt>
      <trkpt lat="55.638170018792152" lon="-2.827254999428988">
        <ele>171.72999999999999</ele>
        <time>2019-08-31T13:38:51Z</time>
      </trkpt>
      <trkpt lat="55.638336986303329" lon="-2.827420961111784">
        <ele>171.25</ele>
        <time>2019-08-31T13:38:52Z</time>
      </trkpt>
      <trkpt lat="55.638752980157733" lon="-2.828134009614587">
        <ele>170.28999999999999</ele>
        <time>2019-08-31T13:38:55Z</time>
      </trkpt>
      <trkpt lat="55.64001303166151" lon="-2.830713959410787">
        <ele>169.33000000000001</ele>
        <time>2019-08-31T13:39:05Z</time>
      </trkpt>
      <trkpt lat="55.640259040519595" lon="-2.831254005432129">
        <ele>169.81</ele>
        <time>2019-08-31T13:39:07Z</time>
      </trkpt>
      <trkpt lat="55.640346966683865" lon="-2.831547958776355">
        <ele>169.81</ele>
        <time>2019-08-31T13:39:08Z</time>
      </trkpt>
      <trkpt lat="55.640435982495546" lon="-2.831847025081515">
        <ele>169.81</ele>
        <time>2019-08-31T13:39:09Z</time>
      </trkpt>
      <trkpt lat="55.640613008290529" lon="-2.832439038902521">
        <ele>170.28999999999999</ele>
        <time>2019-08-31T13:39:11Z</time>
      </trkpt>
      <trkpt lat="55.640681991353631" lon="-2.832744978368282">
        <ele>170.28999999999999</ele>
        <time>2019-08-31T13:39:12Z</time>
      </trkpt>
      <trkpt lat="55.641329996287823" lon="-2.835777970030904">
        <ele>169.81</ele>
        <time>2019-08-31T13:39:21Z</time>
      </trkpt>
      <trkpt lat="55.641381964087486" lon="-2.836124980822206">
        <ele>169.81</ele>
        <time>2019-08-31T13:39:22Z</time>
      </trkpt>
      <trkpt lat="55.641655968502164" lon="-2.839839002117515">
        <ele>171.72999999999999</ele>
        <time>2019-08-31T13:39:32Z</time>
      </trkpt>
      <trkpt lat="55.641720006242394" lon="-2.842726986855269">
        <ele>170.28999999999999</ele>
        <time>2019-08-31T13:39:40Z</time>
      </trkpt>
      <trkpt lat="55.641971966251731" lon="-2.845081966370344">
        <ele>168.37</ele>
        <time>2019-08-31T13:39:48Z</time>
      </trkpt>
      <trkpt lat="55.642100963741541" lon="-2.845607008785009">
        <ele>167.41</ele>
        <time>2019-08-31T13:39:50Z</time>
      </trkpt>
      <trkpt lat="55.642748968675733" lon="-2.847411967813969">
        <ele>163.08000000000001</ele>
        <time>2019-08-31T13:39:58Z</time>
      </trkpt>
      <trkpt lat="55.642880983650684" lon="-2.84758597612381">
        <ele>162.59999999999999</ele>
        <time>2019-08-31T13:39:59Z</time>
      </trkpt>
      <trkpt lat="55.643015010282397" lon="-2.847763001918793">
        <ele>161.63999999999999</ele>
        <time>2019-08-31T13:40:00Z</time>
      </trkpt>
      <trkpt lat="55.643274011090398" lon="-2.848131973296404">
        <ele>160.19999999999999</ele>
        <time>2019-08-31T13:40:02Z</time>
      </trkpt>
      <trkpt lat="55.643384987488389" lon="-2.84833699464798">
        <ele>159.72</ele>
        <time>2019-08-31T13:40:03Z</time>
      </trkpt>
      <trkpt lat="55.643495041877031" lon="-2.848540004342794">
        <ele>159.24000000000001</ele>
        <time>2019-08-31T13:40:04Z</time>
      </trkpt>
      <trkpt lat="55.64358196221292" lon="-2.84878701902926">
        <ele>158.75</ele>
        <time>2019-08-31T13:40:05Z</time>
      </trkpt>
      <trkpt lat="55.643669972196221" lon="-2.849039984866977">
        <ele>158.75</ele>
        <time>2019-08-31T13:40:06Z</time>
      </trkpt>
      <trkpt lat="55.643759993836284" lon="-2.849300997331739">
        <ele>159.24000000000001</ele>
        <time>2019-08-31T13:40:07Z</time>
      </trkpt>
      <trkpt lat="55.644521992653608" lon="-2.852159980684519">
        <ele>166.44999999999999</ele>
        <time>2019-08-31T13:40:17Z</time>
      </trkpt>
      <trkpt lat="55.644675968214869" lon="-2.852743025869131">
        <ele>167.41</ele>
        <time>2019-08-31T13:40:19Z</time>
      </trkpt>
      <trkpt lat="55.644755009561777" lon="-2.853024993091822">
        <ele>167.88999999999999</ele>
        <time>2019-08-31T13:40:20Z</time>
      </trkpt>
      <trkpt lat="55.645252978429198" lon="-2.854701960459352">
        <ele>169.33000000000001</ele>
        <time>2019-08-31T13:40:26Z</time>
      </trkpt>
      <trkpt lat="55.645353980362415" lon="-2.854943023994565">
        <ele>169.81</ele>
        <time>2019-08-31T13:40:27Z</time>
      </trkpt>
      <trkpt lat="55.645485995337367" lon="-2.855124995112419">
        <ele>169.81</ele>
        <time>2019-08-31T13:40:28Z</time>
      </trkpt>
      <trkpt lat="55.645623961463571" lon="-2.855315012857318">
        <ele>170.28999999999999</ele>
        <time>2019-08-31T13:40:29Z</time>
      </trkpt>
      <trkpt lat="55.645767040550709" lon="-2.855511987581849">
        <ele>170.28999999999999</ele>
        <time>2019-08-31T13:40:30Z</time>
      </trkpt>
      <trkpt lat="55.646658958867192" lon="-2.856734991073608">
        <ele>168.84999999999999</ele>
        <time>2019-08-31T13:40:36Z</time>
      </trkpt>
      <trkpt lat="55.646810000762343" lon="-2.856930959969759">
        <ele>168.37</ele>
        <time>2019-08-31T13:40:37Z</time>
      </trkpt>
      <trkpt lat="55.648861974477768" lon="-2.859462965279818">
        <ele>167.88999999999999</ele>
        <time>2019-08-31T13:40:50Z</time>
      </trkpt>
      <trkpt lat="55.650042984634638" lon="-2.860813038423657">
        <ele>167.41</ele>
        <time>2019-08-31T13:40:57Z</time>
      </trkpt>
      <trkpt lat="55.651238998398185" lon="-2.862358996644616">
        <ele>166.44999999999999</ele>
        <time>2019-08-31T13:41:05Z</time>
      </trkpt>
      <trkpt lat="55.652157990261912" lon="-2.864006040617824">
        <ele>165.96000000000001</ele>
        <time>2019-08-31T13:41:12Z</time>
      </trkpt>
      <trkpt lat="55.652789985761046" lon="-2.865022011101246">
        <ele>165.96000000000001</ele>
        <time>2019-08-31T13:41:17Z</time>
      </trkpt>
      <trkpt lat="55.652943039312959" lon="-2.865166012197733">
        <ele>165.96000000000001</ele>
        <time>2019-08-31T13:41:18Z</time>
      </trkpt>
      <trkpt lat="55.65419596619904" lon="-2.866589007899165">
        <ele>167.88999999999999</ele>
        <time>2019-08-31T13:41:26Z</time>
      </trkpt>
      <trkpt lat="55.655227024108171" lon="-2.86808299832046">
        <ele>169.33000000000001</ele>
        <time>2019-08-31T13:41:33Z</time>
      </trkpt>
      <trkpt lat="55.655575962737203" lon="-2.868380974978209">
        <ele>169.33000000000001</ele>
        <time>2019-08-31T13:41:35Z</time>
      </trkpt>
      <trkpt lat="55.655747959390283" lon="-2.868497986346483">
        <ele>169.81</ele>
        <time>2019-08-31T13:41:36Z</time>
      </trkpt>
      <trkpt lat="55.656483974307775" lon="-2.868840973824263">
        <ele>172.69</ele>
        <time>2019-08-31T13:41:40Z</time>
      </trkpt>
      <trkpt lat="55.656679021194577" lon="-2.868860000744462">
        <ele>173.66</ele>
        <time>2019-08-31T13:41:41Z</time>
      </trkpt>
      <trkpt lat="55.656867027282715" lon="-2.868850026279688">
        <ele>173.66</ele>
        <time>2019-08-31T13:41:42Z</time>
      </trkpt>
      <trkpt lat="55.657054027542472" lon="-2.868809038773179">
        <ele>174.13999999999999</ele>
        <time>2019-08-31T13:41:43Z</time>
      </trkpt>
      <trkpt lat="55.657235998660326" lon="-2.868750030174851">
        <ele>174.13999999999999</ele>
        <time>2019-08-31T13:41:44Z</time>
      </trkpt>
      <trkpt lat="55.65741503611207" lon="-2.868660008534789">
        <ele>174.13999999999999</ele>
        <time>2019-08-31T13:41:45Z</time>
      </trkpt>
      <trkpt lat="55.657582003623247" lon="-2.868540985509753">
        <ele>174.13999999999999</ele>
        <time>2019-08-31T13:41:46Z</time>
      </trkpt>
      <trkpt lat="55.657743019983172" lon="-2.868379969149828">
        <ele>173.66</ele>
        <time>2019-08-31T13:41:47Z</time>
      </trkpt>
      <trkpt lat="55.657894983887672" lon="-2.868191041052342">
        <ele>173.66</ele>
        <time>2019-08-31T13:41:48Z</time>
      </trkpt>
      <trkpt lat="55.658036973327398" lon="-2.867981996387243">
        <ele>173.16999999999999</ele>
        <time>2019-08-31T13:41:49Z</time>
      </trkpt>
      <trkpt lat="55.658163959160447" lon="-2.867757026106119">
        <ele>172.69</ele>
        <time>2019-08-31T13:41:50Z</time>
      </trkpt>
      <trkpt lat="55.658284993842244" lon="-2.867515962570906">
        <ele>172.21000000000001</ele>
        <time>2019-08-31T13:41:51Z</time>
      </trkpt>
      <trkpt lat="55.658407034352422" lon="-2.867271965369582">
        <ele>171.72999999999999</ele>
        <time>2019-08-31T13:41:52Z</time>
      </trkpt>
      <trkpt lat="55.658494960516691" lon="-2.866988992318511">
        <ele>171.72999999999999</ele>
        <time>2019-08-31T13:41:53Z</time>
      </trkpt>
      <trkpt lat="55.658581964671612" lon="-2.866700990125537">
        <ele>171.25</ele>
        <time>2019-08-31T13:41:54Z</time>
      </trkpt>
      <trkpt lat="55.658652037382126" lon="-2.866404019296169">
        <ele>170.77000000000001</ele>
        <time>2019-08-31T13:41:55Z</time>
      </trkpt>
      <trkpt lat="55.658699981868267" lon="-2.866091039031744">
        <ele>170.77000000000001</ele>
        <time>2019-08-31T13:41:56Z</time>
      </trkpt>
      <trkpt lat="55.658737029880285" lon="-2.865763977169991">
        <ele>170.77000000000001</ele>
        <time>2019-08-31T13:41:57Z</time>
      </trkpt>
      <trkpt lat="55.659131985157728" lon="-2.863212022930384">
        <ele>172.21000000000001</ele>
        <time>2019-08-31T13:42:05Z</time>
      </trkpt>
      <trkpt lat="55.659386040642858" lon="-2.862376011908054">
        <ele>172.69</ele>
        <time>2019-08-31T13:42:08Z</time>
      </trkpt>
      <trkpt lat="55.660354988649487" lon="-2.860749000683427">
        <ele>172.21000000000001</ele>
        <time>2019-08-31T13:42:15Z</time>
      </trkpt>
      <trkpt lat="55.660522039979696" lon="-2.860573986545205">
        <ele>172.69</ele>
        <time>2019-08-31T13:42:16Z</time>
      </trkpt>
      <trkpt lat="55.661055967211723" lon="-2.860230999067426">
        <ele>173.16999999999999</ele>
        <time>2019-08-31T13:42:19Z</time>
      </trkpt>
      <trkpt lat="55.661227963864803" lon="-2.860171990469098">
        <ele>173.16999999999999</ele>
        <time>2019-08-31T13:42:20Z</time>
      </trkpt>
      <trkpt lat="55.661407001316547" lon="-2.86015497520566">
        <ele>173.16999999999999</ele>
        <time>2019-08-31T13:42:21Z</time>
      </trkpt>
      <trkpt lat="55.662069004029036" lon="-2.860171990469098">
        <ele>173.16999999999999</ele>
        <time>2019-08-31T13:42:25Z</time>
      </trkpt>
      <trkpt lat="55.6622280087322" lon="-2.860223958268762">
        <ele>173.66</ele>
        <time>2019-08-31T13:42:26Z</time>
      </trkpt>
      <trkpt lat="55.66302303224802" lon="-2.860765010118485">
        <ele>173.66</ele>
        <time>2019-08-31T13:42:31Z</time>
      </trkpt>
      <trkpt lat="55.663163010030985" lon="-2.860915968194604">
        <ele>173.66</ele>
        <time>2019-08-31T13:42:32Z</time>
      </trkpt>
      <trkpt lat="55.663279015570879" lon="-2.861149990931153">
        <ele>173.66</ele>
        <time>2019-08-31T13:42:33Z</time>
      </trkpt>
      <trkpt lat="55.66338999196887" lon="-2.861386025324464">
        <ele>174.13999999999999</ele>
        <time>2019-08-31T13:42:34Z</time>
      </trkpt>
      <trkpt lat="55.663502980023623" lon="-2.861630022525787">
        <ele>174.62</ele>
        <time>2019-08-31T13:42:35Z</time>
      </trkpt>
      <trkpt lat="55.663608005270362" lon="-2.861900003626943">
        <ele>174.62</ele>
        <time>2019-08-31T13:42:36Z</time>
      </trkpt>
      <trkpt lat="55.66454803571105" lon="-2.864424968138337">
        <ele>175.09999999999999</ele>
        <time>2019-08-31T13:42:45Z</time>
      </trkpt>
      <trkpt lat="55.664619030430913" lon="-2.864725962281227">
        <ele>175.09999999999999</ele>
        <time>2019-08-31T13:42:46Z</time>
      </trkpt>
      <trkpt lat="55.664643002673984" lon="-2.865044977515936">
        <ele>175.09999999999999</ele>
        <time>2019-08-31T13:42:47Z</time>
      </trkpt>
      <trkpt lat="55.664667980745435" lon="-2.865369021892548">
        <ele>175.09999999999999</ele>
        <time>2019-08-31T13:42:48Z</time>
      </trkpt>
      <trkpt lat="55.664692958816886" lon="-2.865695999935269">
        <ele>175.09999999999999</ele>
        <time>2019-08-31T13:42:49Z</time>
      </trkpt>
      <trkpt lat="55.664913989603519" lon="-2.868018038570881">
        <ele>172.21000000000001</ele>
        <time>2019-08-31T13:42:56Z</time>
      </trkpt>
      <trkpt lat="55.664907032623887" lon="-2.86836395971477">
        <ele>172.21000000000001</ele>
        <time>2019-08-31T13:42:57Z</time>
      </trkpt>
      <trkpt lat="55.664839977398515" lon="-2.871443973854184">
        <ele>172.69</ele>
        <time>2019-08-31T13:43:06Z</time>
      </trkpt>
      <trkpt lat="55.664772000163794" lon="-2.874379986897111">
        <ele>171.72999999999999</ele>
        <time>2019-08-31T13:43:16Z</time>
      </trkpt>
      <trkpt lat="55.664982972666621" lon="-2.876078998669982">
        <ele>171.72999999999999</ele>
        <time>2019-08-31T13:43:22Z</time>
      </trkpt>
      <trkpt lat="55.66532202064991" lon="-2.877194965258241">
        <ele>171.72999999999999</ele>
        <time>2019-08-31T13:43:26Z</time>
      </trkpt>
      <trkpt lat="55.665441965684295" lon="-2.877401998266578">
        <ele>171.72999999999999</ele>
        <time>2019-08-31T13:43:27Z</time>
      </trkpt>
      <trkpt lat="55.665557971224189" lon="-2.877602996304631">
        <ele>171.72999999999999</ele>
        <time>2019-08-31T13:43:28Z</time>
      </trkpt>
      <trkpt lat="55.66570901311934" lon="-2.87770600989461">
        <ele>171.72999999999999</ele>
        <time>2019-08-31T13:43:29Z</time>
      </trkpt>
      <trkpt lat="55.665854020044208" lon="-2.877805000171065">
        <ele>171.72999999999999</ele>
        <time>2019-08-31T13:43:30Z</time>
      </trkpt>
      <trkpt lat="55.666002966463566" lon="-2.877884963527322">
        <ele>171.72999999999999</ele>
        <time>2019-08-31T13:43:31Z</time>
      </trkpt>
      <trkpt lat="55.666165994480252" lon="-2.877898039296269">
        <ele>172.21000000000001</ele>
        <time>2019-08-31T13:43:32Z</time>
      </trkpt>
      <trkpt lat="55.666327010840178" lon="-2.877851016819477">
        <ele>172.21000000000001</ele>
        <time>2019-08-31T13:43:33Z</time>
      </trkpt>
      <trkpt lat="55.666489033028483" lon="-2.877769963815808">
        <ele>172.21000000000001</ele>
        <time>2019-08-31T13:43:34Z</time>
      </trkpt>
      <trkpt lat="55.666650971397758" lon="-2.877688994631171">
        <ele>172.69</ele>
        <time>2019-08-31T13:43:35Z</time>
      </trkpt>
      <trkpt lat="55.66680503077805" lon="-2.877576006576419">
        <ele>173.16999999999999</ele>
        <time>2019-08-31T13:43:36Z</time>
      </trkpt>
      <trkpt lat="55.666945008561015" lon="-2.87742898799479">
        <ele>173.66</ele>
        <time>2019-08-31T13:43:37Z</time>
      </trkpt>
      <trkpt lat="55.66708599217236" lon="-2.877280963584781">
        <ele>174.13999999999999</ele>
        <time>2019-08-31T13:43:38Z</time>
      </trkpt>
      <trkpt lat="55.668240012601018" lon="-2.875707009807229">
        <ele>176.06</ele>
        <time>2019-08-31T13:43:46Z</time>
      </trkpt>
      <trkpt lat="55.669678011909127" lon="-2.873728964477778">
        <ele>176.53999999999999</ele>
        <time>2019-08-31T13:43:55Z</time>
      </trkpt>
      <trkpt lat="55.670833960175514" lon="-2.872203039005399">
        <ele>182.31</ele>
        <time>2019-08-31T13:44:04Z</time>
      </trkpt>
      <trkpt lat="55.672473963350058" lon="-2.87003698758781">
        <ele>189.52000000000001</ele>
        <time>2019-08-31T13:44:16Z</time>
      </trkpt>
      <trkpt lat="55.673926966264844" lon="-2.868177965283394">
        <ele>192.40000000000001</ele>
        <time>2019-08-31T13:44:26Z</time>
      </trkpt>
      <trkpt lat="55.675426991656423" lon="-2.866563023999333">
        <ele>194.31999999999999</ele>
        <time>2019-08-31T13:44:36Z</time>
      </trkpt>
      <trkpt lat="55.675746006891131" lon="-2.86632196046412">
        <ele>195.28</ele>
        <time>2019-08-31T13:44:38Z</time>
      </trkpt>
      <trkpt lat="55.675921021029353" lon="-2.866252977401018">
        <ele>196.25</ele>
        <time>2019-08-31T13:44:39Z</time>
      </trkpt>
      <trkpt lat="55.676767006516457" lon="-2.865917030721903">
        <ele>199.13</ele>
        <time>2019-08-31T13:44:44Z</time>
      </trkpt>
      <trkpt lat="55.67735499702394" lon="-2.865715026855469">
        <ele>200.56999999999999</ele>
        <time>2019-08-31T13:44:48Z</time>
      </trkpt>
      <trkpt lat="55.677494974806905" lon="-2.865737993270159">
        <ele>201.05000000000001</ele>
        <time>2019-08-31T13:44:49Z</time>
      </trkpt>
      <trkpt lat="55.677641993388534" lon="-2.865808987990022">
        <ele>201.05000000000001</ele>
        <time>2019-08-31T13:44:50Z</time>
      </trkpt>
      <trkpt lat="55.677806027233601" lon="-2.865886017680168">
        <ele>201.05000000000001</ele>
        <time>2019-08-31T13:44:51Z</time>
      </trkpt>
      <trkpt lat="55.677990010008216" lon="-2.865994982421398">
        <ele>200.56999999999999</ele>
        <time>2019-08-31T13:44:52Z</time>
      </trkpt>
      <trkpt lat="55.678959041833878" lon="-2.866704007610679">
        <ele>199.13</ele>
        <time>2019-08-31T13:44:58Z</time>
      </trkpt>
      <trkpt lat="55.679722968488932" lon="-2.86763297393918">
        <ele>197.21000000000001</ele>
        <time>2019-08-31T13:45:04Z</time>
      </trkpt>
      <trkpt lat="55.679865041747689" lon="-2.867792984470725">
        <ele>196.72999999999999</ele>
        <time>2019-08-31T13:45:05Z</time>
      </trkpt>
      <trkpt lat="55.680009964853525" lon="-2.867958024144173">
        <ele>196.72999999999999</ele>
        <time>2019-08-31T13:45:06Z</time>
      </trkpt>
      <trkpt lat="55.680151032283902" lon="-2.868117028847337">
        <ele>196.25</ele>
        <time>2019-08-31T13:45:07Z</time>
      </trkpt>
      <trkpt lat="55.680297967046499" lon="-2.868203027173877">
        <ele>195.77000000000001</ele>
        <time>2019-08-31T13:45:08Z</time>
      </trkpt>
      <trkpt lat="55.680456971749663" lon="-2.868282990530133">
        <ele>195.28</ele>
        <time>2019-08-31T13:45:09Z</time>
      </trkpt>
      <trkpt lat="55.680624023079872" lon="-2.86836395971477">
        <ele>194.80000000000001</ele>
        <time>2019-08-31T13:45:10Z</time>
      </trkpt>
      <trkpt lat="55.680805994197726" lon="-2.868436966091394">
        <ele>194.31999999999999</ele>
        <time>2019-08-31T13:45:11Z</time>
      </trkpt>
      <trkpt lat="55.680986037477851" lon="-2.868508966639638">
        <ele>193.36000000000001</ele>
        <time>2019-08-31T13:45:12Z</time>
      </trkpt>
      <trkpt lat="55.681167002767324" lon="-2.868592031300068">
        <ele>192.88</ele>
        <time>2019-08-31T13:45:13Z</time>
      </trkpt>
      <trkpt lat="55.681336987763643" lon="-2.868721028789878">
        <ele>192.40000000000001</ele>
        <time>2019-08-31T13:45:14Z</time>
      </trkpt>
      <trkpt lat="55.68182498216629" lon="-2.869090000167489">
        <ele>190.96000000000001</ele>
        <time>2019-08-31T13:45:17Z</time>
      </trkpt>
      <trkpt lat="55.683250995352864" lon="-2.869547987356782">
        <ele>186.63</ele>
        <time>2019-08-31T13:45:25Z</time>
      </trkpt>
      <trkpt lat="55.683428021147847" lon="-2.869570031762123">
        <ele>186.15000000000001</ele>
        <time>2019-08-31T13:45:26Z</time>
      </trkpt>
      <trkpt lat="55.68360697478056" lon="-2.869538012892008">
        <ele>186.15000000000001</ele>
        <time>2019-08-31T13:45:27Z</time>
      </trkpt>
      <trkpt lat="55.683793975040317" lon="-2.869503982365131">
        <ele>185.66999999999999</ele>
        <time>2019-08-31T13:45:28Z</time>
      </trkpt>
      <trkpt lat="55.683963960036635" lon="-2.869389988481998">
        <ele>185.19</ele>
        <time>2019-08-31T13:45:29Z</time>
      </trkpt>
      <trkpt lat="55.684127993881702" lon="-2.869225032627583">
        <ele>184.71000000000001</ele>
        <time>2019-08-31T13:45:30Z</time>
      </trkpt>
      <trkpt lat="55.684299990534782" lon="-2.869053035974503">
        <ele>184.71000000000001</ele>
        <time>2019-08-31T13:45:31Z</time>
      </trkpt>
      <trkpt lat="55.684450026601553" lon="-2.868823036551476">
        <ele>184.22999999999999</ele>
        <time>2019-08-31T13:45:32Z</time>
      </trkpt>
      <trkpt lat="55.68459696136415" lon="-2.86855498328805">
        <ele>183.75</ele>
        <time>2019-08-31T13:45:33Z</time>
      </trkpt>
      <trkpt lat="55.684740962460637" lon="-2.868290031328797">
        <ele>183.27000000000001</ele>
        <time>2019-08-31T13:45:34Z</time>
      </trkpt>
      <trkpt lat="55.685707982629538" lon="-2.866322966292501">
        <ele>181.83000000000001</ele>
        <time>2019-08-31T13:45:42Z</time>
      </trkpt>
      <trkpt lat="55.686517003923655" lon="-2.864887984469533">
        <ele>182.78999999999999</ele>
        <time>2019-08-31T13:45:49Z</time>
      </trkpt>
      <trkpt lat="55.687129972502589" lon="-2.863986007869244">
        <ele>183.27000000000001</ele>
        <time>2019-08-31T13:45:53Z</time>
      </trkpt>
      <trkpt lat="55.687288977205753" lon="-2.863791966810823">
        <ele>184.22999999999999</ele>
        <time>2019-08-31T13:45:54Z</time>
      </trkpt>
      <trkpt lat="55.687438007444143" lon="-2.863633967936039">
        <ele>184.71000000000001</ele>
        <time>2019-08-31T13:45:55Z</time>
      </trkpt>
      <trkpt lat="55.68777403794229" lon="-2.863431964069605">
        <ele>185.66999999999999</ele>
        <time>2019-08-31T13:45:57Z</time>
      </trkpt>
      <trkpt lat="55.687937987968326" lon="-2.863332973793149">
        <ele>185.66999999999999</ele>
        <time>2019-08-31T13:45:58Z</time>
      </trkpt>
      <trkpt lat="55.688953958451748" lon="-2.862999038770795">
        <ele>183.75</ele>
        <time>2019-08-31T13:46:05Z</time>
      </trkpt>
      <trkpt lat="55.690090041607618" lon="-2.862556977197528">
        <ele>180.38</ele>
        <time>2019-08-31T13:46:15Z</time>
      </trkpt>
      <trkpt lat="55.690203029662371" lon="-2.862490005791187">
        <ele>179.90000000000001</ele>
        <time>2019-08-31T13:46:16Z</time>
      </trkpt>
      <trkpt lat="55.690908031538129" lon="-2.862156992778182">
        <ele>179.41999999999999</ele>
        <time>2019-08-31T13:46:22Z</time>
      </trkpt>
      <trkpt lat="55.691551007330418" lon="-2.862092033028603">
        <ele>178.46000000000001</ele>
        <time>2019-08-31T13:46:29Z</time>
      </trkpt>
      <trkpt lat="55.69241601973772" lon="-2.861737981438637">
        <ele>178.94</ele>
        <time>2019-08-31T13:46:40Z</time>
      </trkpt>
      <trkpt lat="55.693253958597779" lon="-2.861659023910761">
        <ele>181.34999999999999</ele>
        <time>2019-08-31T13:46:48Z</time>
      </trkpt>
      <trkpt lat="55.693365018814802" lon="-2.861719960346818">
        <ele>181.34999999999999</ele>
        <time>2019-08-31T13:46:49Z</time>
      </trkpt>
      <trkpt lat="55.693481024354696" lon="-2.861785003915429">
        <ele>181.34999999999999</ele>
        <time>2019-08-31T13:46:50Z</time>
      </trkpt>
      <trkpt lat="55.693602981045842" lon="-2.86185298115015">
        <ele>181.83000000000001</ele>
        <time>2019-08-31T13:46:51Z</time>
      </trkpt>
      <trkpt lat="55.693707000464201" lon="-2.861982984468341">
        <ele>181.83000000000001</ele>
        <time>2019-08-31T13:46:52Z</time>
      </trkpt>
      <trkpt lat="55.693813031539321" lon="-2.862118016928434">
        <ele>181.34999999999999</ele>
        <time>2019-08-31T13:46:53Z</time>
      </trkpt>
      <trkpt lat="55.693916967138648" lon="-2.862249026075006">
        <ele>181.34999999999999</ele>
        <time>2019-08-31T13:46:54Z</time>
      </trkpt>
      <trkpt lat="55.694573018699884" lon="-2.863079002127051">
        <ele>182.31</ele>
        <time>2019-08-31T13:47:01Z</time>
      </trkpt>
      <trkpt lat="55.69544498808682" lon="-2.864181976765394">
        <ele>180.38</ele>
        <time>2019-08-31T13:47:11Z</time>
      </trkpt>
      <trkpt lat="55.695602986961603" lon="-2.864346010610461">
        <ele>179.90000000000001</ele>
        <time>2019-08-31T13:47:13Z</time>
      </trkpt>
      <trkpt lat="55.695985034108162" lon="-2.864819001406431">
        <ele>179.90000000000001</ele>
        <time>2019-08-31T13:47:18Z</time>
      </trkpt>
      <trkpt lat="55.69645500741899" lon="-2.865887023508549">
        <ele>180.38</ele>
        <time>2019-08-31T13:47:25Z</time>
      </trkpt>
      <trkpt lat="55.697003016248345" lon="-2.868162039667368">
        <ele>181.83000000000001</ele>
        <time>2019-08-31T13:47:37Z</time>
      </trkpt>
      <trkpt lat="55.697351032868028" lon="-2.87027302198112">
        <ele>187.59</ele>
        <time>2019-08-31T13:47:47Z</time>
      </trkpt>
      <trkpt lat="55.697715980932117" lon="-2.872130032628775">
        <ele>190.96000000000001</ele>
        <time>2019-08-31T13:47:56Z</time>
      </trkpt>
      <trkpt lat="55.698197018355131" lon="-2.874202039092779">
        <ele>194.80000000000001</ele>
        <time>2019-08-31T13:48:06Z</time>
      </trkpt>
      <trkpt lat="55.698416959494352" lon="-2.874959008768201">
        <ele>195.28</ele>
        <time>2019-08-31T13:48:09Z</time>
      </trkpt>
      <trkpt lat="55.698515027761459" lon="-2.875217003747821">
        <ele>194.80000000000001</ele>
        <time>2019-08-31T13:48:10Z</time>
      </trkpt>
      <trkpt lat="55.699532004073262" lon="-2.877325974404812">
        <ele>194.80000000000001</ele>
        <time>2019-08-31T13:48:18Z</time>
      </trkpt>
      <trkpt lat="55.700417971238494" lon="-2.879781033843756">
        <ele>194.31999999999999</ele>
        <time>2019-08-31T13:48:26Z</time>
      </trkpt>
      <trkpt lat="55.700759030878544" lon="-2.881104033440352">
        <ele>193.84</ele>
        <time>2019-08-31T13:48:30Z</time>
      </trkpt>
      <trkpt lat="55.701293963938951" lon="-2.884603980928659">
        <ele>193.36000000000001</ele>
        <time>2019-08-31T13:48:40Z</time>
      </trkpt>
      <trkpt lat="55.70135397836566" lon="-2.884915033355355">
        <ele>193.36000000000001</ele>
        <time>2019-08-31T13:48:41Z</time>
      </trkpt>
      <trkpt lat="55.701968958601356" lon="-2.887188959866762">
        <ele>193.84</ele>
        <time>2019-08-31T13:48:49Z</time>
      </trkpt>
      <trkpt lat="55.702725006267428" lon="-2.888717986643314">
        <ele>193.84</ele>
        <time>2019-08-31T13:48:56Z</time>
      </trkpt>
      <trkpt lat="55.703488010913134" lon="-2.889776034280658">
        <ele>194.80000000000001</ele>
        <time>2019-08-31T13:49:02Z</time>
      </trkpt>
      <trkpt lat="55.703639974817634" lon="-2.88984602317214">
        <ele>195.77000000000001</ele>
        <time>2019-08-31T13:49:03Z</time>
      </trkpt>
      <trkpt lat="55.703794034197927" lon="-2.889892039820552">
        <ele>196.25</ele>
        <time>2019-08-31T13:49:04Z</time>
      </trkpt>
      <trkpt lat="55.703962007537484" lon="-2.88986798375845">
        <ele>196.72999999999999</ele>
        <time>2019-08-31T13:49:05Z</time>
      </trkpt>
      <trkpt lat="55.704121012240648" lon="-2.88980302400887">
        <ele>197.21000000000001</ele>
        <time>2019-08-31T13:49:06Z</time>
      </trkpt>
      <trkpt lat="55.704284962266684" lon="-2.889676038175821">
        <ele>197.69</ele>
        <time>2019-08-31T13:49:07Z</time>
      </trkpt>
      <trkpt lat="55.704421000555158" lon="-2.889494989067316">
        <ele>198.16999999999999</ele>
        <time>2019-08-31T13:49:08Z</time>
      </trkpt>
      <trkpt lat="55.704568019136786" lon="-2.889254009351134">
        <ele>198.65000000000001</ele>
        <time>2019-08-31T13:49:09Z</time>
      </trkpt>
      <trkpt lat="55.704652005806565" lon="-2.88900800049305">
        <ele>198.65000000000001</ele>
        <time>2019-08-31T13:49:10Z</time>
      </trkpt>
      <trkpt lat="55.704746972769499" lon="-2.888728966936469">
        <ele>199.13</ele>
        <time>2019-08-31T13:49:11Z</time>
      </trkpt>
      <trkpt lat="55.704934978857636" lon="-2.88819101639092">
        <ele>199.61000000000001</ele>
        <time>2019-08-31T13:49:13Z</time>
      </trkpt>
      <trkpt lat="55.70504997856915" lon="-2.887952970340848">
        <ele>199.61000000000001</ele>
        <time>2019-08-31T13:49:14Z</time>
      </trkpt>
      <trkpt lat="55.705171013250947" lon="-2.88772196508944">
        <ele>200.09</ele>
        <time>2019-08-31T13:49:15Z</time>
      </trkpt>
      <trkpt lat="55.705309985205531" lon="-2.887496994808316">
        <ele>200.09</ele>
        <time>2019-08-31T13:49:16Z</time>
      </trkpt>
      <trkpt lat="55.705453986302018" lon="-2.887298008427024">
        <ele>200.09</ele>
        <time>2019-08-31T13:49:17Z</time>
      </trkpt>
      <trkpt lat="55.705880960449576" lon="-2.886773971840739">
        <ele>201.05000000000001</ele>
        <time>2019-08-31T13:49:20Z</time>
      </trkpt>
      <trkpt lat="55.70603895932436" lon="-2.886631982401013">
        <ele>201.05000000000001</ele>
        <time>2019-08-31T13:49:21Z</time>
      </trkpt>
      <trkpt lat="55.706201987341046" lon="-2.88649401627481">
        <ele>200.56999999999999</ele>
        <time>2019-08-31T13:49:22Z</time>
      </trkpt>
      <trkpt lat="55.706581017002463" lon="-2.886326964944601">
        <ele>200.56999999999999</ele>
        <time>2019-08-31T13:49:24Z</time>
      </trkpt>
      <trkpt lat="55.707966964691877" lon="-2.886106017976999">
        <ele>200.56999999999999</ele>
        <time>2019-08-31T13:49:31Z</time>
      </trkpt>
      <trkpt lat="55.709381997585297" lon="-2.886152034625411">
        <ele>203.46000000000001</ele>
        <time>2019-08-31T13:49:38Z</time>
      </trkpt>
      <trkpt lat="55.709571009501815" lon="-2.886183969676495">
        <ele>203.94</ele>
        <time>2019-08-31T13:49:39Z</time>
      </trkpt>
      <trkpt lat="55.710116000846028" lon="-2.886267034336925">
        <ele>204.90000000000001</ele>
        <time>2019-08-31T13:49:42Z</time>
      </trkpt>
      <trkpt lat="55.710306018590927" lon="-2.886238032951951">
        <ele>205.38</ele>
        <time>2019-08-31T13:49:43Z</time>
      </trkpt>
      <trkpt lat="55.710502993315458" lon="-2.886209031566978">
        <ele>205.38</ele>
        <time>2019-08-31T13:49:44Z</time>
      </trkpt>
      <trkpt lat="55.711891036480665" lon="-2.88535600528121">
        <ele>205.38</ele>
        <time>2019-08-31T13:49:51Z</time>
      </trkpt>
      <trkpt lat="55.712464023381472" lon="-2.884999020025134">
        <ele>204.41999999999999</ele>
        <time>2019-08-31T13:49:54Z</time>
      </trkpt>
      <trkpt lat="55.712668038904667" lon="-2.884940011426806">
        <ele>204.41999999999999</ele>
        <time>2019-08-31T13:49:55Z</time>
      </trkpt>
      <trkpt lat="55.71409204043448" lon="-2.884399965405464">
        <ele>202.49000000000001</ele>
        <time>2019-08-31T13:50:02Z</time>
      </trkpt>
      <trkpt lat="55.715386038646102" lon="-2.884007021784782">
        <ele>202.49000000000001</ele>
        <time>2019-08-31T13:50:09Z</time>
      </trkpt>
      <trkpt lat="55.717328963801265" lon="-2.883598990738392">
        <ele>203.94</ele>
        <time>2019-08-31T13:50:19Z</time>
      </trkpt>
      <trkpt lat="55.718493964523077" lon="-2.883589016273618">
        <ele>206.34</ele>
        <time>2019-08-31T13:50:25Z</time>
      </trkpt>
      <trkpt lat="55.71869102306664" lon="-2.883682977408171">
        <ele>206.81999999999999</ele>
        <time>2019-08-31T13:50:26Z</time>
      </trkpt>
      <trkpt lat="55.718881040811539" lon="-2.883772999048233">
        <ele>207.30000000000001</ele>
        <time>2019-08-31T13:50:27Z</time>
      </trkpt>
      <trkpt lat="55.719071980565786" lon="-2.883898979052901">
        <ele>207.78</ele>
        <time>2019-08-31T13:50:28Z</time>
      </trkpt>
      <trkpt lat="55.719259986653924" lon="-2.884064018726349">
        <ele>207.78</ele>
        <time>2019-08-31T13:50:29Z</time>
      </trkpt>
      <trkpt lat="55.719441035762429" lon="-2.884270967915654">
        <ele>208.25999999999999</ele>
        <time>2019-08-31T13:50:30Z</time>
      </trkpt>
      <trkpt lat="55.720329014584422" lon="-2.885405961424112">
        <ele>211.15000000000001</ele>
        <time>2019-08-31T13:50:35Z</time>
      </trkpt>
      <trkpt lat="55.720489025115967" lon="-2.885644007474184">
        <ele>211.63</ele>
        <time>2019-08-31T13:50:36Z</time>
      </trkpt>
      <trkpt lat="55.721492003649473" lon="-2.886889977380633">
        <ele>215.94999999999999</ele>
        <time>2019-08-31T13:50:42Z</time>
      </trkpt>
      <trkpt lat="55.722361039370298" lon="-2.887657005339861">
        <ele>218.84</ele>
        <time>2019-08-31T13:50:47Z</time>
      </trkpt>
      <trkpt lat="55.723059000447392" lon="-2.888512965291739">
        <ele>221.24000000000001</ele>
        <time>2019-08-31T13:50:52Z</time>
      </trkpt>
      <trkpt lat="55.723195960745215" lon="-2.888636011630297">
        <ele>221.72</ele>
        <time>2019-08-31T13:50:53Z</time>
      </trkpt>
      <trkpt lat="55.723322024568915" lon="-2.888739025220275">
        <ele>222.19999999999999</ele>
        <time>2019-08-31T13:50:54Z</time>
      </trkpt>
      <trkpt lat="55.723481029272079" lon="-2.888786969706416">
        <ele>222.68000000000001</ele>
        <time>2019-08-31T13:50:55Z</time>
      </trkpt>
      <trkpt lat="55.723644979298115" lon="-2.88883700966835">
        <ele>222.68000000000001</ele>
        <time>2019-08-31T13:50:56Z</time>
      </trkpt>
      <trkpt lat="55.723820999264717" lon="-2.888888977468014">
        <ele>223.16</ele>
        <time>2019-08-31T13:50:57Z</time>
      </trkpt>
      <trkpt lat="55.724004982039332" lon="-2.888881014660001">
        <ele>223.63999999999999</ele>
        <time>2019-08-31T13:50:58Z</time>
      </trkpt>
      <trkpt lat="55.724740996956825" lon="-2.888847989961505">
        <ele>225.56999999999999</ele>
        <time>2019-08-31T13:51:02Z</time>
      </trkpt>
      <trkpt lat="55.724905030801892" lon="-2.888914961367846">
        <ele>226.05000000000001</ele>
        <time>2019-08-31T13:51:03Z</time>
      </trkpt>
      <trkpt lat="55.725067974999547" lon="-2.889005988836289">
        <ele>226.53</ele>
        <time>2019-08-31T13:51:04Z</time>
      </trkpt>
      <trkpt lat="55.725539959967136" lon="-2.889268007129431">
        <ele>227.00999999999999</ele>
        <time>2019-08-31T13:51:07Z</time>
      </trkpt>
      <trkpt lat="55.725702987983823" lon="-2.889249986037612">
        <ele>227.00999999999999</ele>
        <time>2019-08-31T13:51:08Z</time>
      </trkpt>
      <trkpt lat="55.725861992686987" lon="-2.889221990481019">
        <ele>227.00999999999999</ele>
        <time>2019-08-31T13:51:09Z</time>
      </trkpt>
      <trkpt lat="55.726026026532054" lon="-2.889193994924426">
        <ele>227.00999999999999</ele>
        <time>2019-08-31T13:51:10Z</time>
      </trkpt>
      <trkpt lat="55.72619098238647" lon="-2.889109002426267">
        <ele>227.00999999999999</ele>
        <time>2019-08-31T13:51:11Z</time>
      </trkpt>
      <trkpt lat="55.726360967382789" lon="-2.889014035463333">
        <ele>227.00999999999999</ele>
        <time>2019-08-31T13:51:12Z</time>
      </trkpt>
      <trkpt lat="55.727190021425486" lon="-2.888548001646996">
        <ele>226.05000000000001</ele>
        <time>2019-08-31T13:51:17Z</time>
      </trkpt>
      <trkpt lat="55.72734902612865" lon="-2.888508019968867">
        <ele>225.56999999999999</ele>
        <time>2019-08-31T13:51:18Z</time>
      </trkpt>
      <trkpt lat="55.727523034438491" lon="-2.888519000262022">
        <ele>225.09</ele>
        <time>2019-08-31T13:51:19Z</time>
      </trkpt>
      <trkpt lat="55.727700982242823" lon="-2.888528974726796">
        <ele>224.61000000000001</ele>
        <time>2019-08-31T13:51:20Z</time>
      </trkpt>
      <trkpt lat="55.727875996381044" lon="-2.888540038838983">
        <ele>224.12</ele>
        <time>2019-08-31T13:51:21Z</time>
      </trkpt>
      <trkpt lat="55.728048998862505" lon="-2.888551019132137">
        <ele>223.63999999999999</ele>
        <time>2019-08-31T13:51:22Z</time>
      </trkpt>
      <trkpt lat="55.728222001343966" lon="-2.888560993596911">
        <ele>223.16</ele>
        <time>2019-08-31T13:51:23Z</time>
      </trkpt>
      <trkpt lat="55.72891702875495" lon="-2.88838597945869">
        <ele>220.28</ele>
        <time>2019-08-31T13:51:27Z</time>
      </trkpt>
      <trkpt lat="55.729085002094507" lon="-2.888335017487407">
        <ele>219.80000000000001</ele>
        <time>2019-08-31T13:51:28Z</time>
      </trkpt>
      <trkpt lat="55.730097033083439" lon="-2.888238960877061">
        <ele>216.43000000000001</ele>
        <time>2019-08-31T13:51:34Z</time>
      </trkpt>
      <trkpt lat="55.730259977281094" lon="-2.88825798779726">
        <ele>215.94999999999999</ele>
        <time>2019-08-31T13:51:35Z</time>
      </trkpt>
      <trkpt lat="55.730413030833006" lon="-2.888326970860362">
        <ele>215.47</ele>
        <time>2019-08-31T13:51:36Z</time>
      </trkpt>
      <trkpt lat="55.730564994737506" lon="-2.888448005542159">
        <ele>215.47</ele>
        <time>2019-08-31T13:51:37Z</time>
      </trkpt>
      <trkpt lat="55.730712013319135" lon="-2.888591000810266">
        <ele>214.99000000000001</ele>
        <time>2019-08-31T13:51:38Z</time>
      </trkpt>
      <trkpt lat="55.730855008587241" lon="-2.88877297192812">
        <ele>214.99000000000001</ele>
        <time>2019-08-31T13:51:39Z</time>
      </trkpt>
      <trkpt lat="55.731001021340489" lon="-2.888958966359496">
        <ele>214.99000000000001</ele>
        <time>2019-08-31T13:51:40Z</time>
      </trkpt>
      <trkpt lat="55.731136975809932" lon="-2.889177985489368">
        <ele>214.99000000000001</ele>
        <time>2019-08-31T13:51:41Z</time>
      </trkpt>
      <trkpt lat="55.731263039633632" lon="-2.889421982690692">
        <ele>214.99000000000001</ele>
        <time>2019-08-31T13:51:42Z</time>
      </trkpt>
      <trkpt lat="55.731369992718101" lon="-2.889699004590511">
        <ele>214.99000000000001</ele>
        <time>2019-08-31T13:51:43Z</time>
      </trkpt>
      <trkpt lat="55.732461987063289" lon="-2.891900008544326">
        <ele>215.94999999999999</ele>
        <time>2019-08-31T13:51:52Z</time>
      </trkpt>
      <trkpt lat="55.733110997825861" lon="-2.892877003178001">
        <ele>216.43000000000001</ele>
        <time>2019-08-31T13:51:57Z</time>
      </trkpt>
      <trkpt lat="55.733273020014167" lon="-2.893024021759629">
        <ele>216.43000000000001</ele>
        <time>2019-08-31T13:51:58Z</time>
      </trkpt>
      <trkpt lat="55.733449039980769" lon="-2.893132986500859">
        <ele>216.43000000000001</ele>
        <time>2019-08-31T13:51:59Z</time>
      </trkpt>
      <trkpt lat="55.733773000538349" lon="-2.893386036157608">
        <ele>215.94999999999999</ele>
        <time>2019-08-31T13:52:01Z</time>
      </trkpt>
      <trkpt lat="55.733913984149694" lon="-2.89354101754725">
        <ele>215.94999999999999</ele>
        <time>2019-08-31T13:52:02Z</time>
      </trkpt>
      <trkpt lat="55.734049016609788" lon="-2.893689963966608">
        <ele>215.94999999999999</ele>
        <time>2019-08-31T13:52:03Z</time>
      </trkpt>
      <trkpt lat="55.734159993007779" lon="-2.893884005025029">
        <ele>215.94999999999999</ele>
        <time>2019-08-31T13:52:04Z</time>
      </trkpt>
      <trkpt lat="55.734262000769377" lon="-2.894106041640043">
        <ele>215.94999999999999</ele>
        <time>2019-08-31T13:52:05Z</time>
      </trkpt>
      <trkpt lat="55.734329978004098" lon="-2.894253982231021">
        <ele>215.94999999999999</ele>
        <time>2019-08-31T13:52:06Z</time>
      </trkpt>
      <trkpt lat="55.734388986602426" lon="-2.894578026607633">
        <ele>216.43000000000001</ele>
        <time>2019-08-31T13:52:07Z</time>
      </trkpt>
      <trkpt lat="55.734435003250837" lon="-2.894834009930491">
        <ele>216.91</ele>
        <time>2019-08-31T13:52:08Z</time>
      </trkpt>
      <trkpt lat="55.734452018514276" lon="-2.895087981596589">
        <ele>216.91</ele>
        <time>2019-08-31T13:52:09Z</time>
      </trkpt>
      <trkpt lat="55.73443902656436" lon="-2.895345976576209">
        <ele>217.40000000000001</ele>
        <time>2019-08-31T13:52:10Z</time>
      </trkpt>
      <trkpt lat="55.734427040442824" lon="-2.895601959899068">
        <ele>218.36000000000001</ele>
        <time>2019-08-31T13:52:11Z</time>
      </trkpt>
      <trkpt lat="55.734316986054182" lon="-2.896323977038264">
        <ele>220.75999999999999</ele>
        <time>2019-08-31T13:52:14Z</time>
      </trkpt>
      <trkpt lat="55.734171979129314" lon="-2.897057980298996">
        <ele>221.72</ele>
        <time>2019-08-31T13:52:17Z</time>
      </trkpt>
      <trkpt lat="55.734144989401102" lon="-2.897327961400151">
        <ele>222.19999999999999</ele>
        <time>2019-08-31T13:52:18Z</time>
      </trkpt>
      <trkpt lat="55.734126968309283" lon="-2.897610012441874">
        <ele>222.19999999999999</ele>
        <time>2019-08-31T13:52:19Z</time>
      </trkpt>
      <trkpt lat="55.734120011329651" lon="-2.897896002978087">
        <ele>222.19999999999999</ele>
        <time>2019-08-31T13:52:20Z</time>
      </trkpt>
      <trkpt lat="55.734131997451186" lon="-2.898189034312964">
        <ele>222.68000000000001</ele>
        <time>2019-08-31T13:52:21Z</time>
      </trkpt>
      <trkpt lat="55.734173990786076" lon="-2.898481981828809">
        <ele>222.68000000000001</ele>
        <time>2019-08-31T13:52:22Z</time>
      </trkpt>
      <trkpt lat="55.734228976070881" lon="-2.898774007335305">
        <ele>222.68000000000001</ele>
        <time>2019-08-31T13:52:23Z</time>
      </trkpt>
      <trkpt lat="55.734341964125633" lon="-2.899368032813072">
        <ele>222.19999999999999</ele>
        <time>2019-08-31T13:52:25Z</time>
      </trkpt>
      <trkpt lat="55.734699033200741" lon="-2.90046296082437">
        <ele>221.24000000000001</ele>
        <time>2019-08-31T13:52:29Z</time>
      </trkpt>
      <trkpt lat="55.734801962971687" lon="-2.900754986330867">
        <ele>221.24000000000001</ele>
        <time>2019-08-31T13:52:30Z</time>
      </trkpt>
      <trkpt lat="55.734924003481865" lon="-2.900951039046049">
        <ele>220.75999999999999</ele>
        <time>2019-08-31T13:52:31Z</time>
      </trkpt>
      <trkpt lat="55.736021026968956" lon="-2.902891030535102">
        <ele>218.36000000000001</ele>
        <time>2019-08-31T13:52:39Z</time>
      </trkpt>
      <trkpt lat="55.736748995259404" lon="-2.905292026698589">
        <ele>218.84</ele>
        <time>2019-08-31T13:52:47Z</time>
      </trkpt>
      <trkpt lat="55.737720038741827" lon="-2.908531967550516">
        <ele>220.75999999999999</ele>
        <time>2019-08-31T13:52:58Z</time>
      </trkpt>
      <trkpt lat="55.738754030317068" lon="-2.910527028143406">
        <ele>221.72</ele>
        <time>2019-08-31T13:53:06Z</time>
      </trkpt>
      <trkpt lat="55.740322032943368" lon="-2.913020979613066">
        <ele>219.80000000000001</ele>
        <time>2019-08-31T13:53:18Z</time>
      </trkpt>
      <trkpt lat="55.742038981989026" lon="-2.915743002668023">
        <ele>220.75999999999999</ele>
        <time>2019-08-31T13:53:29Z</time>
      </trkpt>
      <trkpt lat="55.74365702457726" lon="-2.918339967727661">
        <ele>222.68000000000001</ele>
        <time>2019-08-31T13:53:40Z</time>
      </trkpt>
      <trkpt lat="55.745019000023603" lon="-2.919744020327926">
        <ele>225.56999999999999</ele>
        <time>2019-08-31T13:53:48Z</time>
      </trkpt>
      <trkpt lat="55.745417978614569" lon="-2.919929008930922">
        <ele>226.53</ele>
        <time>2019-08-31T13:53:50Z</time>
      </trkpt>
      <trkpt lat="55.745616964995861" lon="-2.919977959245443">
        <ele>227.00999999999999</ele>
        <time>2019-08-31T13:53:51Z</time>
      </trkpt>
      <trkpt lat="55.745823998004198" lon="-2.919967984780669">
        <ele>227.49000000000001</ele>
        <time>2019-08-31T13:53:52Z</time>
      </trkpt>
      <trkpt lat="55.746032958850265" lon="-2.919943006709218">
        <ele>227.49000000000001</ele>
        <time>2019-08-31T13:53:53Z</time>
      </trkpt>
      <trkpt lat="55.74623697437346" lon="-2.919828006997705">
        <ele>227.49000000000001</ele>
        <time>2019-08-31T13:53:54Z</time>
      </trkpt>
      <trkpt lat="55.746424980461597" lon="-2.919673025608063">
        <ele>227.49000000000001</ele>
        <time>2019-08-31T13:53:55Z</time>
      </trkpt>
      <trkpt lat="55.74660200625658" lon="-2.919462975114584">
        <ele>227.49000000000001</ele>
        <time>2019-08-31T13:53:56Z</time>
      </trkpt>
      <trkpt lat="55.746778026223183" lon="-2.919254014268518">
        <ele>227.00999999999999</ele>
        <time>2019-08-31T13:53:57Z</time>
      </trkpt>
      <trkpt lat="55.746909035369754" lon="-2.918968023732305">
        <ele>227.00999999999999</ele>
        <time>2019-08-31T13:53:58Z</time>
      </trkpt>
      <trkpt lat="55.747041972354054" lon="-2.91865898296237">
        <ele>226.53</ele>
        <time>2019-08-31T13:53:59Z</time>
      </trkpt>
      <trkpt lat="55.747177004814148" lon="-2.918343991041184">
        <ele>226.53</ele>
        <time>2019-08-31T13:54:00Z</time>
      </trkpt>
      <trkpt lat="55.747307008132339" lon="-2.918039979413152">
        <ele>226.53</ele>
        <time>2019-08-31T13:54:01Z</time>
      </trkpt>
      <trkpt lat="55.747430976480246" lon="-2.917749965563417">
        <ele>226.53</ele>
        <time>2019-08-31T13:54:02Z</time>
      </trkpt>
      <trkpt lat="55.747704980894923" lon="-2.917243028059602">
        <ele>226.05000000000001</ele>
        <time>2019-08-31T13:54:04Z</time>
      </trkpt>
      <trkpt lat="55.747850993648171" lon="-2.916998025029898">
        <ele>226.05000000000001</ele>
        <time>2019-08-31T13:54:05Z</time>
      </trkpt>
      <trkpt lat="55.74799700640142" lon="-2.916752016171813">
        <ele>226.05000000000001</ele>
        <time>2019-08-31T13:54:06Z</time>
      </trkpt>
      <trkpt lat="55.748160034418106" lon="-2.916557975113392">
        <ele>225.56999999999999</ele>
        <time>2019-08-31T13:54:07Z</time>
      </trkpt>
      <trkpt lat="55.748319961130619" lon="-2.916397964581847">
        <ele>225.56999999999999</ele>
        <time>2019-08-31T13:54:08Z</time>
      </trkpt>
      <trkpt lat="55.74851299636066" lon="-2.916252035647631">
        <ele>225.56999999999999</ele>
        <time>2019-08-31T13:54:09Z</time>
      </trkpt>
      <trkpt lat="55.748694967478514" lon="-2.916112979874015">
        <ele>225.56999999999999</ele>
        <time>2019-08-31T13:54:10Z</time>
      </trkpt>
      <trkpt lat="55.749602979049087" lon="-2.91573797352612">
        <ele>226.05000000000001</ele>
        <time>2019-08-31T13:54:15Z</time>
      </trkpt>
      <trkpt lat="55.749775981530547" lon="-2.915721964091063">
        <ele>226.05000000000001</ele>
        <time>2019-08-31T13:54:16Z</time>
      </trkpt>
      <trkpt lat="55.749958036467433" lon="-2.915739985182881">
        <ele>226.05000000000001</ele>
        <time>2019-08-31T13:54:17Z</time>
      </trkpt>
      <trkpt lat="55.75014503672719" lon="-2.915790025144815">
        <ele>226.05000000000001</ele>
        <time>2019-08-31T13:54:18Z</time>
      </trkpt>
      <trkpt lat="55.75031703338027" lon="-2.915932014584541">
        <ele>226.53</ele>
        <time>2019-08-31T13:54:19Z</time>
      </trkpt>
      <trkpt lat="55.750492969527841" lon="-2.916083978489041">
        <ele>226.53</ele>
        <time>2019-08-31T13:54:20Z</time>
      </trkpt>
      <trkpt lat="55.750663038343191" lon="-2.916267961263657">
        <ele>227.00999999999999</ele>
        <time>2019-08-31T13:54:21Z</time>
      </trkpt>
      <trkpt lat="55.750992028042674" lon="-2.916625030338764">
        <ele>227.49000000000001</ele>
        <time>2019-08-31T13:54:23Z</time>
      </trkpt>
      <trkpt lat="55.75115698389709" lon="-2.916803983971477">
        <ele>227.00999999999999</ele>
        <time>2019-08-31T13:54:24Z</time>
      </trkpt>
      <trkpt lat="55.752279991284013" lon="-2.917558019980788">
        <ele>227.49000000000001</ele>
        <time>2019-08-31T13:54:30Z</time>
      </trkpt>
      <trkpt lat="55.752441007643938" lon="-2.91773596778512">
        <ele>227.97</ele>
        <time>2019-08-31T13:54:31Z</time>
      </trkpt>
      <trkpt lat="55.752598000690341" lon="-2.917926991358399">
        <ele>227.97</ele>
        <time>2019-08-31T13:54:32Z</time>
      </trkpt>
      <trkpt lat="55.752723980695009" lon="-2.918171994388104">
        <ele>228.44999999999999</ele>
        <time>2019-08-31T13:54:33Z</time>
      </trkpt>
      <trkpt lat="55.7528539840132" lon="-2.918435018509626">
        <ele>228.44999999999999</ele>
        <time>2019-08-31T13:54:34Z</time>
      </trkpt>
      <trkpt lat="55.75298298150301" lon="-2.918697958812118">
        <ele>228.44999999999999</ele>
        <time>2019-08-31T13:54:35Z</time>
      </trkpt>
      <trkpt lat="55.753986965864897" lon="-2.920659994706512">
        <ele>230.84999999999999</ele>
        <time>2019-08-31T13:54:43Z</time>
      </trkpt>
      <trkpt lat="55.755092035979033" lon="-2.921792976558209">
        <ele>232.78</ele>
        <time>2019-08-31T13:54:50Z</time>
      </trkpt>
      <trkpt lat="55.755898961797357" lon="-2.922283988445997">
        <ele>233.25999999999999</ele>
        <time>2019-08-31T13:54:55Z</time>
      </trkpt>
      <trkpt lat="55.756035000085831" lon="-2.922416003420949">
        <ele>233.74000000000001</ele>
        <time>2019-08-31T13:54:56Z</time>
      </trkpt>
      <trkpt lat="55.75616299174726" lon="-2.922579031437635">
        <ele>233.25999999999999</ele>
        <time>2019-08-31T13:54:57Z</time>
      </trkpt>
      <trkpt lat="55.756702031940222" lon="-2.923262994736433">
        <ele>234.22</ele>
        <time>2019-08-31T13:55:01Z</time>
      </trkpt>
      <trkpt lat="55.756851984187961" lon="-2.923444965854287">
        <ele>234.22</ele>
        <time>2019-08-31T13:55:02Z</time>
      </trkpt>
      <trkpt lat="55.757029009982944" lon="-2.923562983050942">
        <ele>234.69999999999999</ele>
        <time>2019-08-31T13:55:03Z</time>
      </trkpt>
      <trkpt lat="55.759089030325413" lon="-2.925035012885928">
        <ele>238.53999999999999</ele>
        <time>2019-08-31T13:55:14Z</time>
      </trkpt>
      <trkpt lat="55.760225029662251" lon="-2.926449039950967">
        <ele>241.91</ele>
        <time>2019-08-31T13:55:21Z</time>
      </trkpt>
      <trkpt lat="55.761679038405418" lon="-2.928678961470723">
        <ele>243.83000000000001</ele>
        <time>2019-08-31T13:55:30Z</time>
      </trkpt>
      <trkpt lat="55.763415014371276" lon="-2.930442010983825">
        <ele>245.75</ele>
        <time>2019-08-31T13:55:39Z</time>
      </trkpt>
      <trkpt lat="55.764679005369544" lon="-2.932155020534992">
        <ele>248.16</ele>
        <time>2019-08-31T13:55:47Z</time>
      </trkpt>
      <trkpt lat="55.765950037166476" lon="-2.93417003005743">
        <ele>252</ele>
        <time>2019-08-31T13:55:56Z</time>
      </trkpt>
      <trkpt lat="55.767768993973732" lon="-2.936976961791515">
        <ele>250.56</ele>
        <time>2019-08-31T13:56:08Z</time>
      </trkpt>
      <trkpt lat="55.768990991637111" lon="-2.938779992982745">
        <ele>249.59999999999999</ele>
        <time>2019-08-31T13:56:16Z</time>
      </trkpt>
      <trkpt lat="55.770351039245725" lon="-2.939690016210079">
        <ele>248.16</ele>
        <time>2019-08-31T13:56:23Z</time>
      </trkpt>
      <trkpt lat="55.771875036880374" lon="-2.940933974459767">
        <ele>250.08000000000001</ele>
        <time>2019-08-31T13:56:31Z</time>
      </trkpt>
      <trkpt lat="55.773285962641239" lon="-2.942993994802237">
        <ele>253.44</ele>
        <time>2019-08-31T13:56:41Z</time>
      </trkpt>
      <trkpt lat="55.773836988955736" lon="-2.943851966410875">
        <ele>254.88999999999999</ele>
        <time>2019-08-31T13:56:45Z</time>
      </trkpt>
      <trkpt lat="55.77393296174705" lon="-2.944156983867288">
        <ele>254.88999999999999</ele>
        <time>2019-08-31T13:56:46Z</time>
      </trkpt>
      <trkpt lat="55.774033041670918" lon="-2.944470969960094">
        <ele>254.88999999999999</ele>
        <time>2019-08-31T13:56:47Z</time>
      </trkpt>
      <trkpt lat="55.775128975510597" lon="-2.947279997169972">
        <ele>257.76999999999998</ele>
        <time>2019-08-31T13:56:56Z</time>
      </trkpt>
      <trkpt lat="55.775272976607084" lon="-2.947543021291494">
        <ele>258.25</ele>
        <time>2019-08-31T13:56:57Z</time>
      </trkpt>
      <trkpt lat="55.77543399296701" lon="-2.947759022936225">
        <ele>258.73000000000002</ele>
        <time>2019-08-31T13:56:58Z</time>
      </trkpt>
      <trkpt lat="55.77560598962009" lon="-2.947959015145898">
        <ele>259.20999999999998</ele>
        <time>2019-08-31T13:56:59Z</time>
      </trkpt>
      <trkpt lat="55.77577899210155" lon="-2.948161019012332">
        <ele>259.69</ele>
        <time>2019-08-31T13:57:00Z</time>
      </trkpt>
      <trkpt lat="55.775973033159971" lon="-2.948308037593961">
        <ele>260.17000000000002</ele>
        <time>2019-08-31T13:57:01Z</time>
      </trkpt>
      <trkpt lat="55.776176964864135" lon="-2.9484389629215">
        <ele>260.64999999999998</ele>
        <time>2019-08-31T13:57:02Z</time>
      </trkpt>
      <trkpt lat="55.778267998248339" lon="-2.950078966096044">
        <ele>263.06</ele>
        <time>2019-08-31T13:57:12Z</time>
      </trkpt>
      <trkpt lat="55.780665976926684" lon="-2.95195902697742">
        <ele>261.13999999999999</ele>
        <time>2019-08-31T13:57:23Z</time>
      </trkpt>
      <trkpt lat="55.781926028430462" lon="-2.952593034133315">
        <ele>260.64999999999998</ele>
        <time>2019-08-31T13:57:30Z</time>
      </trkpt>
      <trkpt lat="55.782085033133626" lon="-2.952660005539656">
        <ele>261.13999999999999</ele>
        <time>2019-08-31T13:57:31Z</time>
      </trkpt>
      <trkpt lat="55.782240014523268" lon="-2.952641984447837">
        <ele>261.13999999999999</ele>
        <time>2019-08-31T13:57:32Z</time>
      </trkpt>
      <trkpt lat="55.782390972599387" lon="-2.952623963356018">
        <ele>261.13999999999999</ele>
        <time>2019-08-31T13:57:33Z</time>
      </trkpt>
      <trkpt lat="55.782541008666158" lon="-2.952606026083231">
        <ele>261.13999999999999</ele>
        <time>2019-08-31T13:57:34Z</time>
      </trkpt>
      <trkpt lat="55.782692972570658" lon="-2.952557997778058">
        <ele>261.62</ele>
        <time>2019-08-31T13:57:35Z</time>
      </trkpt>
      <trkpt lat="55.783682959154248" lon="-2.952142003923655">
        <ele>264.01999999999998</ele>
        <time>2019-08-31T13:57:42Z</time>
      </trkpt>
      <trkpt lat="55.783825032413006" lon="-2.952146027237177">
        <ele>264.01999999999998</ele>
        <time>2019-08-31T13:57:43Z</time>
      </trkpt>
      <trkpt lat="55.783940032124519" lon="-2.952189026400447">
        <ele>263.54000000000002</ele>
        <time>2019-08-31T13:57:44Z</time>
      </trkpt>
      <trkpt lat="55.7840930018574" lon="-2.952341996133328">
        <ele>263.54000000000002</ele>
        <time>2019-08-31T13:57:45Z</time>
      </trkpt>
      <trkpt lat="55.784214036539197" lon="-2.952523967251182">
        <ele>263.54000000000002</ele>
        <time>2019-08-31T13:57:46Z</time>
      </trkpt>
      <trkpt lat="55.784341022372246" lon="-2.952744998037815">
        <ele>264.01999999999998</ele>
        <time>2019-08-31T13:57:47Z</time>
      </trkpt>
      <trkpt lat="55.785492025315762" lon="-2.954918006435037">
        <ele>265.94</ele>
        <time>2019-08-31T13:57:56Z</time>
      </trkpt>
      <trkpt lat="55.786976963281631" lon="-2.958208993077278">
        <ele>267.38</ele>
        <time>2019-08-31T13:58:07Z</time>
      </trkpt>
      <trkpt lat="55.788773959502578" lon="-2.961721010506153">
        <ele>274.11000000000001</ele>
        <time>2019-08-31T13:58:18Z</time>
      </trkpt>
      <trkpt lat="55.790337016806006" lon="-2.963407030329108">
        <ele>272.67000000000002</ele>
        <time>2019-08-31T13:58:25Z</time>
      </trkpt>
      <trkpt lat="55.791928991675377" lon="-2.964232983067632">
        <ele>271.23000000000002</ele>
        <time>2019-08-31T13:58:32Z</time>
      </trkpt>
      <trkpt lat="55.793790025636554" lon="-2.964559961110354">
        <ele>272.67000000000002</ele>
        <time>2019-08-31T13:58:40Z</time>
      </trkpt>
      <trkpt lat="55.795434974133968" lon="-2.965095983818173">
        <ele>274.58999999999997</ele>
        <time>2019-08-31T13:58:47Z</time>
      </trkpt>
      <trkpt lat="55.796870961785316" lon="-2.965778019279242">
        <ele>279.88</ele>
        <time>2019-08-31T13:58:55Z</time>
      </trkpt>
      <trkpt lat="55.79857399687171" lon="-2.966801030561328">
        <ele>279.88</ele>
        <time>2019-08-31T13:59:04Z</time>
      </trkpt>
      <trkpt lat="55.800374010577798" lon="-2.968186978250742">
        <ele>277</ele>
        <time>2019-08-31T13:59:13Z</time>
      </trkpt>
      <trkpt lat="55.801056968048215" lon="-2.969046039506793">
        <ele>275.56</ele>
        <time>2019-08-31T13:59:17Z</time>
      </trkpt>
      <trkpt lat="55.801186971366405" lon="-2.969327000901103">
        <ele>275.06999999999999</ele>
        <time>2019-08-31T13:59:18Z</time>
      </trkpt>
      <trkpt lat="55.801314041018486" lon="-2.969625983387232">
        <ele>274.58999999999997</ele>
        <time>2019-08-31T13:59:19Z</time>
      </trkpt>
      <trkpt lat="55.801408002153039" lon="-2.969969976693392">
        <ele>274.58999999999997</ele>
        <time>2019-08-31T13:59:20Z</time>
      </trkpt>
      <trkpt lat="55.801506992429495" lon="-2.97033098526299">
        <ele>274.11000000000001</ele>
        <time>2019-08-31T13:59:21Z</time>
      </trkpt>
      <trkpt lat="55.802447022870183" lon="-2.972633996978402">
        <ele>268.82999999999998</ele>
        <time>2019-08-31T13:59:28Z</time>
      </trkpt>
      <trkpt lat="55.803697016090155" lon="-2.974080964922905">
        <ele>269.79000000000002</ele>
        <time>2019-08-31T13:59:35Z</time>
      </trkpt>
      <trkpt lat="55.804808959364891" lon="-2.975542014464736">
        <ele>272.67000000000002</ele>
        <time>2019-08-31T13:59:42Z</time>
      </trkpt>
      <trkpt lat="55.806475030258298" lon="-2.978093968704343">
        <ele>273.63</ele>
        <time>2019-08-31T13:59:53Z</time>
      </trkpt>
      <trkpt lat="55.808395994827151" lon="-2.980992011725903">
        <ele>268.82999999999998</ele>
        <time>2019-08-31T14:00:04Z</time>
      </trkpt>
      <trkpt lat="55.809861989691854" lon="-2.983202990144491">
        <ele>264.01999999999998</ele>
        <time>2019-08-31T14:00:13Z</time>
      </trkpt>
      <trkpt lat="55.811898959800601" lon="-2.986329020932317">
        <ele>256.32999999999998</ele>
        <time>2019-08-31T14:00:27Z</time>
      </trkpt>
      <trkpt lat="55.812615025788546" lon="-2.98799098469317">
        <ele>256.32999999999998</ele>
        <time>2019-08-31T14:00:34Z</time>
      </trkpt>
      <trkpt lat="55.812695994973183" lon="-2.988259959965944">
        <ele>256.32999999999998</ele>
        <time>2019-08-31T14:00:35Z</time>
      </trkpt>
      <trkpt lat="55.81331399269402" lon="-2.991233021020889">
        <ele>256.32999999999998</ele>
        <time>2019-08-31T14:00:44Z</time>
      </trkpt>
      <trkpt lat="55.814368017017841" lon="-2.996586039662361">
        <ele>252.96000000000001</ele>
        <time>2019-08-31T14:00:59Z</time>
      </trkpt>
      <trkpt lat="55.814984003081918" lon="-3.00075301900506">
        <ele>242.38999999999999</ele>
        <time>2019-08-31T14:01:10Z</time>
      </trkpt>
      <trkpt lat="55.815335037186742" lon="-3.005054024979472">
        <ele>230.84999999999999</ele>
        <time>2019-08-31T14:01:21Z</time>
      </trkpt>
      <trkpt lat="55.815681964159012" lon="-3.009316977113485">
        <ele>226.53</ele>
        <time>2019-08-31T14:01:32Z</time>
      </trkpt>
      <trkpt lat="55.816167024895549" lon="-3.014887003228068">
        <ele>224.61000000000001</ele>
        <time>2019-08-31T14:01:46Z</time>
      </trkpt>
      <trkpt lat="55.816696006804705" lon="-3.021233025938273">
        <ele>222.19999999999999</ele>
        <time>2019-08-31T14:02:02Z</time>
      </trkpt>
      <trkpt lat="55.817265976220369" lon="-3.024284960702062">
        <ele>213.55000000000001</ele>
        <time>2019-08-31T14:02:10Z</time>
      </trkpt>
      <trkpt lat="55.81821002997458" lon="-3.026781007647514">
        <ele>205.86000000000001</ele>
        <time>2019-08-31T14:02:19Z</time>
      </trkpt>
      <trkpt lat="55.820106016471982" lon="-3.030022960156202">
        <ele>203.46000000000001</ele>
        <time>2019-08-31T14:02:30Z</time>
      </trkpt>
      <trkpt lat="55.822214987128973" lon="-3.032993003726006">
        <ele>199.13</ele>
        <time>2019-08-31T14:02:41Z</time>
      </trkpt>
      <trkpt lat="55.823481995612383" lon="-3.03459201939404">
        <ele>190.96000000000001</ele>
        <time>2019-08-31T14:02:49Z</time>
      </trkpt>
      <trkpt lat="55.825572023168206" lon="-3.036839039996266">
        <ele>177.97999999999999</ele>
        <time>2019-08-31T14:03:01Z</time>
      </trkpt>
      <trkpt lat="55.827358039095998" lon="-3.038486000150442">
        <ele>167.88999999999999</ele>
        <time>2019-08-31T14:03:10Z</time>
      </trkpt>
      <trkpt lat="55.828751027584076" lon="-3.04078197106719">
        <ele>158.75</ele>
        <time>2019-08-31T14:03:19Z</time>
      </trkpt>
      <trkpt lat="55.830225991085172" lon="-3.043247004970908">
        <ele>150.58000000000001</ele>
        <time>2019-08-31T14:03:30Z</time>
      </trkpt>
      <trkpt lat="55.831303987652063" lon="-3.044478977099061">
        <ele>152.50999999999999</ele>
        <time>2019-08-31T14:03:38Z</time>
      </trkpt>
      <trkpt lat="55.832462031394243" lon="-3.045778004452586">
        <ele>153.94999999999999</ele>
        <time>2019-08-31T14:03:50Z</time>
      </trkpt>
      <trkpt lat="55.833906987681985" lon="-3.047392023727298">
        <ele>152.99000000000001</ele>
        <time>2019-08-31T14:04:04Z</time>
      </trkpt>
      <trkpt lat="55.834935028105974" lon="-3.048781994730234">
        <ele>148.66</ele>
        <time>2019-08-31T14:04:14Z</time>
      </trkpt>
      <trkpt lat="55.836137998849154" lon="-3.050946034491062">
        <ele>146.74000000000001</ele>
        <time>2019-08-31T14:04:25Z</time>
      </trkpt>
      <trkpt lat="55.837066965177655" lon="-3.052709000185132">
        <ele>144.34</ele>
        <time>2019-08-31T14:04:33Z</time>
      </trkpt>
      <trkpt lat="55.838110009208322" lon="-3.055423982441425">
        <ele>137.61000000000001</ele>
        <time>2019-08-31T14:04:42Z</time>
      </trkpt>
      <trkpt lat="55.839147018268704" lon="-3.058256981894374">
        <ele>127.03</ele>
        <time>2019-08-31T14:04:51Z</time>
      </trkpt>
      <trkpt lat="55.84012501873076" lon="-3.059522984549403">
        <ele>122.70999999999999</ele>
        <time>2019-08-31T14:04:57Z</time>
      </trkpt>
      <trkpt lat="55.841994015499949" lon="-3.060939023271203">
        <ele>119.34</ele>
        <time>2019-08-31T14:05:07Z</time>
      </trkpt>
      <trkpt lat="55.842752996832132" lon="-3.06147001683712">
        <ele>118.86</ele>
        <time>2019-08-31T14:05:11Z</time>
      </trkpt>
      <trkpt lat="55.843103025108576" lon="-3.061709990724921">
        <ele>118.38</ele>
        <time>2019-08-31T14:05:13Z</time>
      </trkpt>
      <trkpt lat="55.845072017982602" lon="-3.06299502030015">
        <ele>122.22</ele>
        <time>2019-08-31T14:05:24Z</time>
      </trkpt>
      <trkpt lat="55.846389988437295" lon="-3.063615029677749">
        <ele>121.26000000000001</ele>
        <time>2019-08-31T14:05:32Z</time>
      </trkpt>
      <trkpt lat="55.847808038815856" lon="-3.064149040728807">
        <ele>119.34</ele>
        <time>2019-08-31T14:05:42Z</time>
      </trkpt>
      <trkpt lat="55.849466985091567" lon="-3.064619014039636">
        <ele>119.34</ele>
        <time>2019-08-31T14:05:54Z</time>
      </trkpt>
      <trkpt lat="55.850162012502551" lon="-3.064810959622264">
        <ele>120.78</ele>
        <time>2019-08-31T14:06:01Z</time>
      </trkpt>
      <trkpt lat="55.850229989737272" lon="-3.064827974885702">
        <ele>120.78</ele>
        <time>2019-08-31T14:06:02Z</time>
      </trkpt>
      <trkpt lat="55.850329985842109" lon="-3.065078007057309">
        <ele>120.78</ele>
        <time>2019-08-31T14:06:03Z</time>
      </trkpt>
      <trkpt lat="55.850330991670489" lon="-3.06507901288569">
        <ele>120.78</ele>
        <time>2019-08-31T14:06:04Z</time>
      </trkpt>
      <trkpt lat="55.85039896890521" lon="-3.065158976241946">
        <ele>121.26000000000001</ele>
        <time>2019-08-31T14:06:05Z</time>
      </trkpt>
      <trkpt lat="55.85052696056664" lon="-3.065180014818907">
        <ele>121.26000000000001</ele>
        <time>2019-08-31T14:06:06Z</time>
      </trkpt>
      <trkpt lat="55.850606001913548" lon="-3.06512301787734">
        <ele>121.26000000000001</ele>
        <time>2019-08-31T14:06:07Z</time>
      </trkpt>
      <trkpt lat="55.850693006068468" lon="-3.064992008730769">
        <ele>121.26000000000001</ele>
        <time>2019-08-31T14:06:08Z</time>
      </trkpt>
      <trkpt lat="55.850795013830066" lon="-3.064992008730769">
        <ele>121.73999999999999</ele>
        <time>2019-08-31T14:06:09Z</time>
      </trkpt>
      <trkpt lat="55.850908001884818" lon="-3.064992008730769">
        <ele>121.73999999999999</ele>
        <time>2019-08-31T14:06:10Z</time>
      </trkpt>
      <trkpt lat="55.851030964404345" lon="-3.064992008730769">
        <ele>121.73999999999999</ele>
        <time>2019-08-31T14:06:11Z</time>
      </trkpt>
      <trkpt lat="55.851161973550916" lon="-3.06499402038753">
        <ele>121.26000000000001</ele>
        <time>2019-08-31T14:06:12Z</time>
      </trkpt>
      <trkpt lat="55.852450020611286" lon="-3.06505898013711">
        <ele>120.3</ele>
        <time>2019-08-31T14:06:20Z</time>
      </trkpt>
      <trkpt lat="55.85415699519217" lon="-3.065271964296699">
        <ele>120.3</ele>
        <time>2019-08-31T14:06:29Z</time>
      </trkpt>
      <trkpt lat="55.854928968474269" lon="-3.065418982878327">
        <ele>117.90000000000001</ele>
        <time>2019-08-31T14:06:35Z</time>
      </trkpt>
      <trkpt lat="55.856264960020781" lon="-3.065369026735425">
        <ele>112.61</ele>
        <time>2019-08-31T14:06:48Z</time>
      </trkpt>
      <trkpt lat="55.856531001627445" lon="-3.065336002036929">
        <ele>112.13</ele>
        <time>2019-08-31T14:06:51Z</time>
      </trkpt>
      <trkpt lat="55.856581963598728" lon="-3.065345976501703">
        <ele>112.61</ele>
        <time>2019-08-31T14:06:52Z</time>
      </trkpt>
      <trkpt lat="55.856667961925268" lon="-3.065432980656624">
        <ele>112.61</ele>
        <time>2019-08-31T14:06:53Z</time>
      </trkpt>
      <trkpt lat="55.856707021594048" lon="-3.06553297676146">
        <ele>112.13</ele>
        <time>2019-08-31T14:06:54Z</time>
      </trkpt>
      <trkpt lat="55.856753960251808" lon="-3.065653005614877">
        <ele>112.13</ele>
        <time>2019-08-31T14:06:55Z</time>
      </trkpt>
      <trkpt lat="55.856809029355645" lon="-3.065792983397842">
        <ele>111.65000000000001</ele>
        <time>2019-08-31T14:06:56Z</time>
      </trkpt>
      <trkpt lat="55.856868959963322" lon="-3.065947964787483">
        <ele>111.65000000000001</ele>
        <time>2019-08-31T14:06:57Z</time>
      </trkpt>
      <trkpt lat="55.857334993779659" lon="-3.067128974944353">
        <ele>109.73</ele>
        <time>2019-08-31T14:07:04Z</time>
      </trkpt>
      <trkpt lat="55.857414035126567" lon="-3.067327961325645">
        <ele>109.25</ele>
        <time>2019-08-31T14:07:05Z</time>
      </trkpt>
      <trkpt lat="55.858123982325196" lon="-3.069266024976969">
        <ele>106.36</ele>
        <time>2019-08-31T14:07:15Z</time>
      </trkpt>
      <trkpt lat="55.858169998973608" lon="-3.069470040500164">
        <ele>105.88</ele>
        <time>2019-08-31T14:07:16Z</time>
      </trkpt>
      <trkpt lat="55.858372002840042" lon="-3.071534000337124">
        <ele>100.11</ele>
        <time>2019-08-31T14:07:25Z</time>
      </trkpt>
      <trkpt lat="55.858423970639706" lon="-3.072147974744439">
        <ele>99.150000000000006</ele>
        <time>2019-08-31T14:07:28Z</time>
      </trkpt>
      <trkpt lat="55.85862304084003" lon="-3.07440203614533">
        <ele>96.75</ele>
        <time>2019-08-31T14:07:39Z</time>
      </trkpt>
      <trkpt lat="55.85881900973618" lon="-3.075674995779991">
        <ele>94.349999999999994</ele>
        <time>2019-08-31T14:07:44Z</time>
      </trkpt>
      <trkpt lat="55.85924900136888" lon="-3.076718961820006">
        <ele>93.870000000000005</ele>
        <time>2019-08-31T14:07:49Z</time>
      </trkpt>
      <trkpt lat="55.859352014958858" lon="-3.076880984008312">
        <ele>93.870000000000005</ele>
        <time>2019-08-31T14:07:50Z</time>
      </trkpt>
      <trkpt lat="55.859460979700089" lon="-3.077010987326503">
        <ele>93.870000000000005</ele>
        <time>2019-08-31T14:07:51Z</time>
      </trkpt>
      <trkpt lat="55.859589977189898" lon="-3.077118024230003">
        <ele>93.870000000000005</ele>
        <time>2019-08-31T14:07:52Z</time>
      </trkpt>
      <trkpt lat="55.859711011871696" lon="-3.077220031991601">
        <ele>94.349999999999994</ele>
        <time>2019-08-31T14:07:53Z</time>
      </trkpt>
      <trkpt lat="55.859825005754828" lon="-3.077314998954535">
        <ele>93.870000000000005</ele>
        <time>2019-08-31T14:07:54Z</time>
      </trkpt>
      <trkpt lat="55.859943022951484" lon="-3.077418012544513">
        <ele>93.870000000000005</ele>
        <time>2019-08-31T14:07:55Z</time>
      </trkpt>
      <trkpt lat="55.860061962157488" lon="-3.077546004205942">
        <ele>93.390000000000001</ele>
        <time>2019-08-31T14:07:56Z</time>
      </trkpt>
      <trkpt lat="55.86055800318718" lon="-3.07807800360024">
        <ele>91.459999999999994</ele>
        <time>2019-08-31T14:08:01Z</time>
      </trkpt>
      <trkpt lat="55.860649030655622" lon="-3.078175988048315">
        <ele>90.980000000000004</ele>
        <time>2019-08-31T14:08:02Z</time>
      </trkpt>
      <trkpt lat="55.86105203256011" lon="-3.078608997166157">
        <ele>86.659999999999997</ele>
        <time>2019-08-31T14:08:08Z</time>
      </trkpt>
      <trkpt lat="55.861144987866282" lon="-3.078721985220909">
        <ele>84.730000000000004</ele>
        <time>2019-08-31T14:08:10Z</time>
      </trkpt>
      <trkpt lat="55.861357972025871" lon="-3.07900202460587">
        <ele>80.409999999999997</ele>
        <time>2019-08-31T14:08:15Z</time>
      </trkpt>
      <trkpt lat="55.861408011987805" lon="-3.079077964648604">
        <ele>79.450000000000003</ele>
        <time>2019-08-31T14:08:16Z</time>
      </trkpt>
      <trkpt lat="55.861945962533355" lon="-3.080224022269249">
        <ele>77.040000000000006</ele>
        <time>2019-08-31T14:08:27Z</time>
      </trkpt>
      <trkpt lat="55.862409984692931" lon="-3.081567976623774">
        <ele>78.480000000000004</ele>
        <time>2019-08-31T14:08:36Z</time>
      </trkpt>
      <trkpt lat="55.863113980740309" lon="-3.084282958880067">
        <ele>85.689999999999998</ele>
        <time>2019-08-31T14:08:49Z</time>
      </trkpt>
      <trkpt lat="55.863726027309895" lon="-3.086775988340378">
        <ele>87.140000000000001</ele>
        <time>2019-08-31T14:09:00Z</time>
      </trkpt>
      <trkpt lat="55.864063985645771" lon="-3.087718030437827">
        <ele>85.689999999999998</ele>
        <time>2019-08-31T14:09:05Z</time>
      </trkpt>
      <trkpt lat="55.864151995629072" lon="-3.087849961593747">
        <ele>85.209999999999994</ele>
        <time>2019-08-31T14:09:06Z</time>
      </trkpt>
      <trkpt lat="55.864246962592006" lon="-3.087981976568699">
        <ele>84.730000000000004</ele>
        <time>2019-08-31T14:09:07Z</time>
      </trkpt>
      <trkpt lat="55.8643629681319" lon="-3.088061017915607">
        <ele>84.25</ele>
        <time>2019-08-31T14:09:08Z</time>
      </trkpt>
      <trkpt lat="55.864482996985316" lon="-3.088140981271863">
        <ele>83.769999999999996</ele>
        <time>2019-08-31T14:09:09Z</time>
      </trkpt>
      <trkpt lat="55.864601014181972" lon="-3.088221028447151">
        <ele>83.290000000000006</ele>
        <time>2019-08-31T14:09:10Z</time>
      </trkpt>
      <trkpt lat="55.864708973094821" lon="-3.088294034823775">
        <ele>82.810000000000002</ele>
        <time>2019-08-31T14:09:11Z</time>
      </trkpt>
      <trkpt lat="55.865104012191296" lon="-3.088614977896214">
        <ele>80.409999999999997</ele>
        <time>2019-08-31T14:09:15Z</time>
      </trkpt>
      <trkpt lat="55.865530986338854" lon="-3.089170027524233">
        <ele>80.890000000000001</ele>
        <time>2019-08-31T14:09:20Z</time>
      </trkpt>
      <trkpt lat="55.865592006593943" lon="-3.089281003922224">
        <ele>81.370000000000005</ele>
        <time>2019-08-31T14:09:21Z</time>
      </trkpt>
      <trkpt lat="55.865911021828651" lon="-3.089831024408341">
        <ele>84.25</ele>
        <time>2019-08-31T14:09:26Z</time>
      </trkpt>
      <trkpt lat="55.866003977134824" lon="-3.089942000806332">
        <ele>85.209999999999994</ele>
        <time>2019-08-31T14:09:27Z</time>
      </trkpt>
      <trkpt lat="55.866235988214612" lon="-3.09013201855123">
        <ele>86.180000000000007</ele>
        <time>2019-08-31T14:09:29Z</time>
      </trkpt>
      <trkpt lat="55.867282971739769" lon="-3.090577013790608">
        <ele>86.180000000000007</ele>
        <time>2019-08-31T14:09:38Z</time>
      </trkpt>
      <trkpt lat="55.867981016635895" lon="-3.09066703543067">
        <ele>88.099999999999994</ele>
        <time>2019-08-31T14:09:46Z</time>
      </trkpt>
      <trkpt lat="55.868059974163771" lon="-3.090662006288767">
        <ele>89.060000000000002</ele>
        <time>2019-08-31T14:09:54Z</time>
      </trkpt>
      <trkpt lat="55.868160976096988" lon="-3.090827967971563">
        <ele>90.019999999999996</ele>
        <time>2019-08-31T14:09:56Z</time>
      </trkpt>
      <trkpt lat="55.868172040209174" lon="-3.090865015983582">
        <ele>90.019999999999996</ele>
        <time>2019-08-31T14:09:57Z</time>
      </trkpt>
      <trkpt lat="55.868215961381793" lon="-3.090988984331489">
        <ele>90.019999999999996</ele>
        <time>2019-08-31T14:09:58Z</time>
      </trkpt>
      <trkpt lat="55.868300031870604" lon="-3.090967023745179">
        <ele>90.019999999999996</ele>
        <time>2019-08-31T14:09:59Z</time>
      </trkpt>
      <trkpt lat="55.868361974135041" lon="-3.090941039845347">
        <ele>90.019999999999996</ele>
        <time>2019-08-31T14:10:00Z</time>
      </trkpt>
      <trkpt lat="55.868390975520015" lon="-3.090817993506789">
        <ele>89.540000000000006</ele>
        <time>2019-08-31T14:10:01Z</time>
      </trkpt>
      <trkpt lat="55.868397010490298" lon="-3.090763008221984">
        <ele>89.540000000000006</ele>
        <time>2019-08-31T14:10:02Z</time>
      </trkpt>
      <trkpt lat="55.868460964411497" lon="-3.090450027957559">
        <ele>89.540000000000006</ele>
        <time>2019-08-31T14:10:03Z</time>
      </trkpt>
      <trkpt lat="55.868546962738037" lon="-3.090317007154226">
        <ele>90.019999999999996</ele>
        <time>2019-08-31T14:10:04Z</time>
      </trkpt>
      <trkpt lat="55.868645031005144" lon="-3.090166971087456">
        <ele>90.019999999999996</ele>
        <time>2019-08-31T14:10:05Z</time>
      </trkpt>
      <trkpt lat="55.868748966604471" lon="-3.090006960555911">
        <ele>90.019999999999996</ele>
        <time>2019-08-31T14:10:06Z</time>
      </trkpt>
      <trkpt lat="55.868859020993114" lon="-3.089835969731212">
        <ele>90.019999999999996</ele>
        <time>2019-08-31T14:10:07Z</time>
      </trkpt>
      <trkpt lat="55.869942968711257" lon="-3.088449016213417">
        <ele>88.099999999999994</ele>
        <time>2019-08-31T14:10:16Z</time>
      </trkpt>
      <trkpt lat="55.871107969433069" lon="-3.087357021868229">
        <ele>85.689999999999998</ele>
        <time>2019-08-31T14:10:26Z</time>
      </trkpt>
      <trkpt lat="55.872850986197591" lon="-3.085936959832907">
        <ele>78.969999999999999</ele>
        <time>2019-08-31T14:10:38Z</time>
      </trkpt>
      <trkpt lat="55.873996959999204" lon="-3.084923001006246">
        <ele>73.200000000000003</ele>
        <time>2019-08-31T14:10:47Z</time>
      </trkpt>
      <trkpt lat="55.875674011185765" lon="-3.083358015865088">
        <ele>62.619999999999997</ele>
        <time>2019-08-31T14:11:00Z</time>
      </trkpt>
      <trkpt lat="55.876129986718297" lon="-3.082946967333555">
        <ele>59.259999999999998</ele>
        <time>2019-08-31T14:11:05Z</time>
      </trkpt>
      <trkpt lat="55.876173991709948" lon="-3.082914026454091">
        <ele>58.780000000000001</ele>
        <time>2019-08-31T14:11:06Z</time>
      </trkpt>
      <trkpt lat="55.876209028065205" lon="-3.082887958735228">
        <ele>58.780000000000001</ele>
        <time>2019-08-31T14:11:07Z</time>
      </trkpt>
      <trkpt lat="55.876385970041156" lon="-3.082836996763945">
        <ele>58.299999999999997</ele>
        <time>2019-08-31T14:11:10Z</time>
      </trkpt>
      <trkpt lat="55.876599960029125" lon="-3.082903968170285">
        <ele>58.299999999999997</ele>
        <time>2019-08-31T14:11:12Z</time>
      </trkpt>
      <trkpt lat="55.876725018024445" lon="-3.082950990647078">
        <ele>58.299999999999997</ele>
        <time>2019-08-31T14:11:13Z</time>
      </trkpt>
      <trkpt lat="55.876862984150648" lon="-3.083051992580295">
        <ele>58.299999999999997</ele>
        <time>2019-08-31T14:11:14Z</time>
      </trkpt>
      <trkpt lat="55.877993032336235" lon="-3.084264015778899">
        <ele>60.219999999999999</ele>
        <time>2019-08-31T14:11:22Z</time>
      </trkpt>
      <trkpt lat="55.87935802526772" lon="-3.085775021463633">
        <ele>64.069999999999993</ele>
        <time>2019-08-31T14:11:33Z</time>
      </trkpt>
      <trkpt lat="55.880955029278994" lon="-3.087619040161371">
        <ele>64.549999999999997</ele>
        <time>2019-08-31T14:11:45Z</time>
      </trkpt>
      <trkpt lat="55.881811995059252" lon="-3.088535014539957">
        <ele>62.619999999999997</ele>
        <time>2019-08-31T14:11:54Z</time>
      </trkpt>
      <trkpt lat="55.882027996703982" lon="-3.088913038372994">
        <ele>65.989999999999995</ele>
        <time>2019-08-31T14:12:01Z</time>
      </trkpt>
      <trkpt lat="55.882050963118672" lon="-3.088956959545612">
        <ele>67.430000000000007</ele>
        <time>2019-08-31T14:12:12Z</time>
      </trkpt>
      <trkpt lat="55.88217300362885" lon="-3.089353004470468">
        <ele>68.870000000000005</ele>
        <time>2019-08-31T14:12:16Z</time>
      </trkpt>
      <trkpt lat="55.882212985306978" lon="-3.089442020282149">
        <ele>69.349999999999994</ele>
        <time>2019-08-31T14:12:17Z</time>
      </trkpt>
      <trkpt lat="55.882291020825505" lon="-3.089515026658773">
        <ele>69.349999999999994</ele>
        <time>2019-08-31T14:12:18Z</time>
      </trkpt>
      <trkpt lat="55.882366038858891" lon="-3.089540004730225">
        <ele>69.829999999999998</ele>
        <time>2019-08-31T14:12:19Z</time>
      </trkpt>
      <trkpt lat="55.88247399777174" lon="-3.089518966153264">
        <ele>69.829999999999998</ele>
        <time>2019-08-31T14:12:20Z</time>
      </trkpt>
      <trkpt lat="55.882574999704957" lon="-3.089550985023379">
        <ele>69.829999999999998</ele>
        <time>2019-08-31T14:12:21Z</time>
      </trkpt>
      <trkpt lat="55.882685976102948" lon="-3.089585015550256">
        <ele>70.310000000000002</ele>
        <time>2019-08-31T14:12:22Z</time>
      </trkpt>
      <trkpt lat="55.882794018834829" lon="-3.089619968086481">
        <ele>70.310000000000002</ele>
        <time>2019-08-31T14:12:23Z</time>
      </trkpt>
      <trkpt lat="55.882901977747679" lon="-3.089662967249751">
        <ele>70.310000000000002</ele>
        <time>2019-08-31T14:12:24Z</time>
      </trkpt>
      <trkpt lat="55.883005997166038" lon="-3.089743014425039">
        <ele>70.310000000000002</ele>
        <time>2019-08-31T14:12:25Z</time>
      </trkpt>
      <trkpt lat="55.883816024288535" lon="-3.090361012145877">
        <ele>71.760000000000005</ele>
        <time>2019-08-31T14:12:34Z</time>
      </trkpt>
      <trkpt lat="55.884512979537249" lon="-3.0908830370754">
        <ele>73.200000000000003</ele>
        <time>2019-08-31T14:12:41Z</time>
      </trkpt>
      <trkpt lat="55.885734977200627" lon="-3.091792976483703">
        <ele>74.159999999999997</ele>
        <time>2019-08-31T14:12:49Z</time>
      </trkpt>
      <trkpt lat="55.886939037591219" lon="-3.092704005539417">
        <ele>75.120000000000005</ele>
        <time>2019-08-31T14:12:57Z</time>
      </trkpt>
      <trkpt lat="55.887685026973486" lon="-3.093256959691644">
        <ele>76.079999999999998</ele>
        <time>2019-08-31T14:13:05Z</time>
      </trkpt>
      <trkpt lat="55.888116024434566" lon="-3.093671025708318">
        <ele>76.560000000000002</ele>
        <time>2019-08-31T14:13:14Z</time>
      </trkpt>
      <trkpt lat="55.888193976134062" lon="-3.093818966299295">
        <ele>77.040000000000006</ele>
        <time>2019-08-31T14:13:17Z</time>
      </trkpt>
      <trkpt lat="55.888224989175797" lon="-3.093877974897623">
        <ele>77.040000000000006</ele>
        <time>2019-08-31T14:13:18Z</time>
      </trkpt>
      <trkpt lat="55.888290032744408" lon="-3.093921979889274">
        <ele>77.519999999999996</ele>
        <time>2019-08-31T14:13:19Z</time>
      </trkpt>
      <trkpt lat="55.888309981673956" lon="-3.094076039269567">
        <ele>77.519999999999996</ele>
        <time>2019-08-31T14:13:20Z</time>
      </trkpt>
      <trkpt lat="55.888309981673956" lon="-3.094200007617474">
        <ele>78</ele>
        <time>2019-08-31T14:13:21Z</time>
      </trkpt>
      <trkpt lat="55.888309981673956" lon="-3.094308972358704">
        <ele>78</ele>
        <time>2019-08-31T14:13:22Z</time>
      </trkpt>
      <trkpt lat="55.888309981673956" lon="-3.094544000923634">
        <ele>78.480000000000004</ele>
        <time>2019-08-31T14:13:24Z</time>
      </trkpt>
      <trkpt lat="55.888177966699004" lon="-3.095583021640778">
        <ele>81.849999999999994</ele>
        <time>2019-08-31T14:13:31Z</time>
      </trkpt>
      <trkpt lat="55.888160029426217" lon="-3.095717970281839">
        <ele>82.329999999999998</ele>
        <time>2019-08-31T14:13:32Z</time>
      </trkpt>
      <trkpt lat="55.888047041371465" lon="-3.096539983525872">
        <ele>85.209999999999994</ele>
        <time>2019-08-31T14:13:41Z</time>
      </trkpt>
      <trkpt lat="55.888009993359447" lon="-3.096808958798647">
        <ele>86.659999999999997</ele>
        <time>2019-08-31T14:13:50Z</time>
      </trkpt>
      <trkpt lat="55.888009993359447" lon="-3.096808958798647">
        <ele>87.140000000000001</ele>
        <time>2019-08-31T14:14:03Z</time>
      </trkpt>
      <trkpt lat="55.887988032773137" lon="-3.09696402400732">
        <ele>86.659999999999997</ele>
        <time>2019-08-31T14:14:13Z</time>
      </trkpt>
      <trkpt lat="55.887988032773137" lon="-3.09696402400732">
        <ele>86.659999999999997</ele>
        <time>2019-08-31T14:14:15Z</time>
      </trkpt>
      <trkpt lat="55.887988032773137" lon="-3.09696402400732">
        <ele>86.180000000000007</ele>
        <time>2019-08-31T14:14:16Z</time>
      </trkpt>
      <trkpt lat="55.888006975874305" lon="-3.096826979890466">
        <ele>86.180000000000007</ele>
        <time>2019-08-31T14:14:17Z</time>
      </trkpt>
      <trkpt lat="55.88801602832973" lon="-3.096762020140886">
        <ele>85.689999999999998</ele>
        <time>2019-08-31T14:14:18Z</time>
      </trkpt>
      <trkpt lat="55.888029020279646" lon="-3.096667975187302">
        <ele>85.689999999999998</ele>
        <time>2019-08-31T14:14:19Z</time>
      </trkpt>
      <trkpt lat="55.888172015547752" lon="-3.095629960298538">
        <ele>83.769999999999996</ele>
        <time>2019-08-31T14:14:26Z</time>
      </trkpt>
      <trkpt lat="55.888281986117363" lon="-3.09477299451828">
        <ele>81.849999999999994</ele>
        <time>2019-08-31T14:14:35Z</time>
      </trkpt>
      <trkpt lat="55.888380976393819" lon="-3.094377033412457">
        <ele>79.450000000000003</ele>
        <time>2019-08-31T14:14:47Z</time>
      </trkpt>
      <trkpt lat="55.888380976393819" lon="-3.094377033412457">
        <ele>79.450000000000003</ele>
        <time>2019-08-31T14:15:20Z</time>
      </trkpt>
      <trkpt lat="55.888495976105332" lon="-3.094185004010797">
        <ele>79.930000000000007</ele>
        <time>2019-08-31T14:15:42Z</time>
      </trkpt>
      <trkpt lat="55.888524977490306" lon="-3.094175029546022">
        <ele>79.930000000000007</ele>
        <time>2019-08-31T14:15:43Z</time>
      </trkpt>
      <trkpt lat="55.888628996908665" lon="-3.094234960153699">
        <ele>79.930000000000007</ele>
        <time>2019-08-31T14:15:44Z</time>
      </trkpt>
      <trkpt lat="55.888703009113669" lon="-3.094277959316969">
        <ele>79.930000000000007</ele>
        <time>2019-08-31T14:15:45Z</time>
      </trkpt>
      <trkpt lat="55.888772998005152" lon="-3.09431903064251">
        <ele>79.930000000000007</ele>
        <time>2019-08-31T14:15:46Z</time>
      </trkpt>
      <trkpt lat="55.888838963583112" lon="-3.094357000663877">
        <ele>79.930000000000007</ele>
        <time>2019-08-31T14:15:47Z</time>
      </trkpt>
      <trkpt lat="55.888904007151723" lon="-3.094394970685244">
        <ele>79.930000000000007</ele>
        <time>2019-08-31T14:15:48Z</time>
      </trkpt>
      <trkpt lat="55.889454027637839" lon="-3.094912972301245">
        <ele>80.890000000000001</ele>
        <time>2019-08-31T14:15:57Z</time>
      </trkpt>
      <trkpt lat="55.889490991830826" lon="-3.094948008656502">
        <ele>80.890000000000001</ele>
        <time>2019-08-31T14:15:58Z</time>
      </trkpt>
      <trkpt lat="55.889517981559038" lon="-3.094973992556334">
        <ele>80.890000000000001</ele>
        <time>2019-08-31T14:15:59Z</time>
      </trkpt>
      <trkpt lat="55.88954396545887" lon="-3.094992013648152">
        <ele>80.890000000000001</ele>
        <time>2019-08-31T14:16:00Z</time>
      </trkpt>
      <trkpt lat="55.889569027349353" lon="-3.095011040568352">
        <ele>80.890000000000001</ele>
        <time>2019-08-31T14:16:01Z</time>
      </trkpt>
      <trkpt lat="55.889589982107282" lon="-3.095026966184378">
        <ele>80.890000000000001</ele>
        <time>2019-08-31T14:16:02Z</time>
      </trkpt>
      <trkpt lat="55.889609009027481" lon="-3.095040963962674">
        <ele>80.409999999999997</ele>
        <time>2019-08-31T14:16:03Z</time>
      </trkpt>
      <trkpt lat="55.889609009027481" lon="-3.095040963962674">
        <ele>80.409999999999997</ele>
        <time>2019-08-31T14:16:14Z</time>
      </trkpt>
      <trkpt lat="55.889791985973716" lon="-3.095177002251148">
        <ele>79.930000000000007</ele>
        <time>2019-08-31T14:16:30Z</time>
      </trkpt>
      <trkpt lat="55.89027201756835" lon="-3.095485037192702">
        <ele>78</ele>
        <time>2019-08-31T14:16:36Z</time>
      </trkpt>
      <trkpt lat="55.891718985512853" lon="-3.095960039645433">
        <ele>78</ele>
        <time>2019-08-31T14:16:48Z</time>
      </trkpt>
      <trkpt lat="55.893283970654011" lon="-3.09619196690619">
        <ele>77.519999999999996</ele>
        <time>2019-08-31T14:16:59Z</time>
      </trkpt>
      <trkpt lat="55.894389040768147" lon="-3.096003960818052">
        <ele>75.599999999999994</ele>
        <time>2019-08-31T14:17:07Z</time>
      </trkpt>
      <trkpt lat="55.894519966095686" lon="-3.095949981361628">
        <ele>75.599999999999994</ele>
        <time>2019-08-31T14:17:09Z</time>
      </trkpt>
      <trkpt lat="55.894566988572478" lon="-3.095931960269809">
        <ele>75.120000000000005</ele>
        <time>2019-08-31T14:17:10Z</time>
      </trkpt>
      <trkpt lat="55.894604958593845" lon="-3.095916034653783">
        <ele>75.120000000000005</ele>
        <time>2019-08-31T14:17:11Z</time>
      </trkpt>
      <trkpt lat="55.894924979656935" lon="-3.095786031335592">
        <ele>74.640000000000001</ele>
        <time>2019-08-31T14:17:22Z</time>
      </trkpt>
      <trkpt lat="55.895009972155094" lon="-3.095752000808716">
        <ele>73.680000000000007</ele>
        <time>2019-08-31T14:17:32Z</time>
      </trkpt>
      <trkpt lat="55.895253969356418" lon="-3.095709001645446">
        <ele>74.159999999999997</ele>
        <time>2019-08-31T14:17:38Z</time>
      </trkpt>
      <trkpt lat="55.895297974348068" lon="-3.095705984160304">
        <ele>74.159999999999997</ele>
        <time>2019-08-31T14:17:39Z</time>
      </trkpt>
      <trkpt lat="55.895333010703325" lon="-3.095703972503543">
        <ele>74.159999999999997</ele>
        <time>2019-08-31T14:17:40Z</time>
      </trkpt>
      <trkpt lat="55.895412974059582" lon="-3.095698021352291">
        <ele>74.640000000000001</ele>
        <time>2019-08-31T14:17:41Z</time>
      </trkpt>
      <trkpt lat="55.895441975444555" lon="-3.095717970281839">
        <ele>74.640000000000001</ele>
        <time>2019-08-31T14:17:42Z</time>
      </trkpt>
      <trkpt lat="55.895521016791463" lon="-3.09582500718534">
        <ele>74.640000000000001</ele>
        <time>2019-08-31T14:17:43Z</time>
      </trkpt>
      <trkpt lat="55.895589999854565" lon="-3.095956016331911">
        <ele>74.159999999999997</ele>
        <time>2019-08-31T14:17:44Z</time>
      </trkpt>
      <trkpt lat="55.895666023716331" lon="-3.096100017428398">
        <ele>73.680000000000007</ele>
        <time>2019-08-31T14:17:45Z</time>
      </trkpt>
      <trkpt lat="55.895726038143039" lon="-3.096290035173297">
        <ele>73.200000000000003</ele>
        <time>2019-08-31T14:17:46Z</time>
      </trkpt>
      <trkpt lat="55.895772976800799" lon="-3.096480974927545">
        <ele>73.680000000000007</ele>
        <time>2019-08-31T14:17:47Z</time>
      </trkpt>
      <trkpt lat="55.896071959286928" lon="-3.097623009234667">
        <ele>76.079999999999998</ele>
        <time>2019-08-31T14:17:55Z</time>
      </trkpt>
      <trkpt lat="55.896318973973393" lon="-3.098155008628964">
        <ele>76.560000000000002</ele>
        <time>2019-08-31T14:18:03Z</time>
      </trkpt>
      <trkpt lat="55.896369013935328" lon="-3.098261039704084">
        <ele>76.560000000000002</ele>
        <time>2019-08-31T14:18:05Z</time>
      </trkpt>
      <trkpt lat="55.896402038633823" lon="-3.098332034423947">
        <ele>77.040000000000006</ele>
        <time>2019-08-31T14:18:06Z</time>
      </trkpt>
      <trkpt lat="55.896435985341668" lon="-3.09840596280992">
        <ele>77.040000000000006</ele>
        <time>2019-08-31T14:18:07Z</time>
      </trkpt>
      <trkpt lat="55.896435985341668" lon="-3.098739981651306">
        <ele>77.519999999999996</ele>
        <time>2019-08-31T14:18:10Z</time>
      </trkpt>
      <trkpt lat="55.896463980898261" lon="-3.098808964714408">
        <ele>77.519999999999996</ele>
        <time>2019-08-31T14:18:11Z</time>
      </trkpt>
      <trkpt lat="55.896463980898261" lon="-3.098809970542789">
        <ele>77.519999999999996</ele>
        <time>2019-08-31T14:18:12Z</time>
      </trkpt>
      <trkpt lat="55.896463980898261" lon="-3.098809970542789">
        <ele>77.519999999999996</ele>
        <time>2019-08-31T14:18:13Z</time>
      </trkpt>
      <trkpt lat="55.896579986438155" lon="-3.098907032981515">
        <ele>77.519999999999996</ele>
        <time>2019-08-31T14:18:14Z</time>
      </trkpt>
      <trkpt lat="55.896583003923297" lon="-3.098937040194869">
        <ele>77.519999999999996</ele>
        <time>2019-08-31T14:18:15Z</time>
      </trkpt>
      <trkpt lat="55.896585015580058" lon="-3.09896101243794">
        <ele>77.519999999999996</ele>
        <time>2019-08-31T14:18:16Z</time>
      </trkpt>
      <trkpt lat="55.896587027236819" lon="-3.098985990509391">
        <ele>77.519999999999996</ele>
        <time>2019-08-31T14:18:17Z</time>
      </trkpt>
      <trkpt lat="55.896602030843496" lon="-3.099157987162471">
        <ele>78</ele>
        <time>2019-08-31T14:18:26Z</time>
      </trkpt>
      <trkpt lat="55.89661099947989" lon="-3.099256977438927">
        <ele>78</ele>
        <time>2019-08-31T14:18:27Z</time>
      </trkpt>
      <trkpt lat="55.896678976714611" lon="-3.099903976544738">
        <ele>78</ele>
        <time>2019-08-31T14:18:31Z</time>
      </trkpt>
      <trkpt lat="55.896893972530961" lon="-3.10115396976471">
        <ele>78</ele>
        <time>2019-08-31T14:18:38Z</time>
      </trkpt>
      <trkpt lat="55.897046020254493" lon="-3.103108964860439">
        <ele>79.450000000000003</ele>
        <time>2019-08-31T14:18:48Z</time>
      </trkpt>
      <trkpt lat="55.897074015811086" lon="-3.103310968726873">
        <ele>79.450000000000003</ele>
        <time>2019-08-31T14:18:49Z</time>
      </trkpt>
      <trkpt lat="55.897122966125607" lon="-3.103513978421688">
        <ele>79.450000000000003</ele>
        <time>2019-08-31T14:18:50Z</time>
      </trkpt>
      <trkpt lat="55.897175017744303" lon="-3.103730985894799">
        <ele>79.930000000000007</ele>
        <time>2019-08-31T14:18:51Z</time>
      </trkpt>
      <trkpt lat="55.897250035777688" lon="-3.103929972276092">
        <ele>79.930000000000007</ele>
        <time>2019-08-31T14:18:52Z</time>
      </trkpt>
      <trkpt lat="55.897337039932609" lon="-3.104114038869739">
        <ele>80.409999999999997</ele>
        <time>2019-08-31T14:18:53Z</time>
      </trkpt>
      <trkpt lat="55.897423960268497" lon="-3.104299027472735">
        <ele>80.890000000000001</ele>
        <time>2019-08-31T14:18:54Z</time>
      </trkpt>
      <trkpt lat="55.898127034306526" lon="-3.105831993743777">
        <ele>79.930000000000007</ele>
        <time>2019-08-31T14:19:02Z</time>
      </trkpt>
      <trkpt lat="55.898210015147924" lon="-3.10605101287365">
        <ele>78.969999999999999</ele>
        <time>2019-08-31T14:19:03Z</time>
      </trkpt>
      <trkpt lat="55.898689962923527" lon="-3.108008019626141">
        <ele>76.079999999999998</ele>
        <time>2019-08-31T14:19:12Z</time>
      </trkpt>
      <trkpt lat="55.898776967078447" lon="-3.109020972624421">
        <ele>78.969999999999999</ele>
        <time>2019-08-31T14:19:19Z</time>
      </trkpt>
      <trkpt lat="55.898717036470771" lon="-3.109988998621702">
        <ele>81.370000000000005</ele>
        <time>2019-08-31T14:19:30Z</time>
      </trkpt>
      <trkpt lat="55.898554008454084" lon="-3.110841019079089">
        <ele>83.290000000000006</ele>
        <time>2019-08-31T14:19:42Z</time>
      </trkpt>
      <trkpt lat="55.898410007357597" lon="-3.111261958256364">
        <ele>83.769999999999996</ele>
        <time>2019-08-31T14:19:53Z</time>
      </trkpt>
      <trkpt lat="55.898344963788986" lon="-3.111454993486404">
        <ele>84.25</ele>
        <time>2019-08-31T14:20:02Z</time>
      </trkpt>
      <trkpt lat="55.898340018466115" lon="-3.111468991264701">
        <ele>84.25</ele>
        <time>2019-08-31T14:20:07Z</time>
      </trkpt>
      <trkpt lat="55.89832903817296" lon="-3.111500004306436">
        <ele>84.25</ele>
        <time>2019-08-31T14:20:08Z</time>
      </trkpt>
      <trkpt lat="55.898314034566283" lon="-3.111545015126467">
        <ele>84.730000000000004</ele>
        <time>2019-08-31T14:20:09Z</time>
      </trkpt>
      <trkpt lat="55.898300036787987" lon="-3.111586002632976">
        <ele>84.730000000000004</ele>
        <time>2019-08-31T14:20:10Z</time>
      </trkpt>
      <trkpt lat="55.898161986842752" lon="-3.111787000671029">
        <ele>85.209999999999994</ele>
        <time>2019-08-31T14:20:18Z</time>
      </trkpt>
      <trkpt lat="55.898148994892836" lon="-3.111953968182206">
        <ele>85.209999999999994</ele>
        <time>2019-08-31T14:20:21Z</time>
      </trkpt>
      <trkpt lat="55.898162992671132" lon="-3.111996967345476">
        <ele>85.209999999999994</ele>
        <time>2019-08-31T14:20:22Z</time>
      </trkpt>
      <trkpt lat="55.898214038461447" lon="-3.112049018964171">
        <ele>84.730000000000004</ele>
        <time>2019-08-31T14:20:23Z</time>
      </trkpt>
      <trkpt lat="55.89824496768415" lon="-3.112049018964171">
        <ele>84.730000000000004</ele>
        <time>2019-08-31T14:20:24Z</time>
      </trkpt>
      <trkpt lat="55.898281009867787" lon="-3.112055975943804">
        <ele>84.730000000000004</ele>
        <time>2019-08-31T14:20:25Z</time>
      </trkpt>
      <trkpt lat="55.898684011772275" lon="-3.11217600479722">
        <ele>84.25</ele>
        <time>2019-08-31T14:20:35Z</time>
      </trkpt>
      <trkpt lat="55.89893102645874" lon="-3.112300978973508">
        <ele>83.290000000000006</ele>
        <time>2019-08-31T14:20:41Z</time>
      </trkpt>
      <trkpt lat="55.899264039471745" lon="-3.112446991726756">
        <ele>84.25</ele>
        <time>2019-08-31T14:20:47Z</time>
      </trkpt>
      <trkpt lat="55.899540977552533" lon="-3.112766006961465">
        <ele>85.209999999999994</ele>
        <time>2019-08-31T14:20:52Z</time>
      </trkpt>
      <trkpt lat="55.899596968665719" lon="-3.112821998074651">
        <ele>85.209999999999994</ele>
        <time>2019-08-31T14:20:53Z</time>
      </trkpt>
      <trkpt lat="55.899725966155529" lon="-3.112778998911381">
        <ele>85.689999999999998</ele>
        <time>2019-08-31T14:20:54Z</time>
      </trkpt>
      <trkpt lat="55.899841971695423" lon="-3.11284001916647">
        <ele>85.689999999999998</ele>
        <time>2019-08-31T14:20:55Z</time>
      </trkpt>
      <trkpt lat="55.89989896863699" lon="-3.112963987514377">
        <ele>85.689999999999998</ele>
        <time>2019-08-31T14:20:56Z</time>
      </trkpt>
      <trkpt lat="55.899960994720459" lon="-3.113096002489328">
        <ele>86.180000000000007</ele>
        <time>2019-08-31T14:20:57Z</time>
      </trkpt>
      <trkpt lat="55.900016985833645" lon="-3.113274034112692">
        <ele>86.659999999999997</ele>
        <time>2019-08-31T14:20:58Z</time>
      </trkpt>
      <trkpt lat="55.900060990825295" lon="-3.113445024937391">
        <ele>87.140000000000001</ele>
        <time>2019-08-31T14:20:59Z</time>
      </trkpt>
      <trkpt lat="55.900104995816946" lon="-3.113611992448568">
        <ele>87.620000000000005</ele>
        <time>2019-08-31T14:21:00Z</time>
      </trkpt>
      <trkpt lat="55.900621991604567" lon="-3.115604035556316">
        <ele>90.980000000000004</ele>
        <time>2019-08-31T14:21:12Z</time>
      </trkpt>
      <trkpt lat="55.901191961020231" lon="-3.117776960134506">
        <ele>94.829999999999998</ele>
        <time>2019-08-31T14:21:22Z</time>
      </trkpt>
      <trkpt lat="55.901729995384812" lon="-3.119607986882329">
        <ele>99.150000000000006</ele>
        <time>2019-08-31T14:21:31Z</time>
      </trkpt>
      <trkpt lat="55.902383029460907" lon="-3.12182298861444">
        <ele>103.48</ele>
        <time>2019-08-31T14:21:44Z</time>
      </trkpt>
      <trkpt lat="55.902853002771735" lon="-3.123403983190656">
        <ele>106.84</ele>
        <time>2019-08-31T14:21:55Z</time>
      </trkpt>
      <trkpt lat="55.90312298387289" lon="-3.124297996982932">
        <ele>107.81</ele>
        <time>2019-08-31T14:22:05Z</time>
      </trkpt>
      <trkpt lat="55.903131030499935" lon="-3.124328004196286">
        <ele>108.29000000000001</ele>
        <time>2019-08-31T14:22:06Z</time>
      </trkpt>
      <trkpt lat="55.90314301662147" lon="-3.124369997531176">
        <ele>108.29000000000001</ele>
        <time>2019-08-31T14:22:09Z</time>
      </trkpt>
      <trkpt lat="55.903216022998095" lon="-3.124627992510796">
        <ele>109.25</ele>
        <time>2019-08-31T14:22:20Z</time>
      </trkpt>
      <trkpt lat="55.903219962492585" lon="-3.124815998598933">
        <ele>109.25</ele>
        <time>2019-08-31T14:22:38Z</time>
      </trkpt>
      <trkpt lat="55.903190961107612" lon="-3.124886993318796">
        <ele>108.77</ele>
        <time>2019-08-31T14:22:47Z</time>
      </trkpt>
      <trkpt lat="55.903160031884909" lon="-3.124904008582234">
        <ele>109.25</ele>
        <time>2019-08-31T14:22:48Z</time>
      </trkpt>
      <trkpt lat="55.903116026893258" lon="-3.124929992482066">
        <ele>109.25</ele>
        <time>2019-08-31T14:22:49Z</time>
      </trkpt>
      <trkpt lat="55.902573969215155" lon="-3.12523802742362">
        <ele>108.29000000000001</ele>
        <time>2019-08-31T14:22:57Z</time>
      </trkpt>
      <trkpt lat="55.902450000867248" lon="-3.125309022143483">
        <ele>108.29000000000001</ele>
        <time>2019-08-31T14:22:59Z</time>
      </trkpt>
      <trkpt lat="55.902375988662243" lon="-3.125351015478373">
        <ele>108.77</ele>
        <time>2019-08-31T14:23:00Z</time>
      </trkpt>
      <trkpt lat="55.901591023430228" lon="-3.125871028751135">
        <ele>109.73</ele>
        <time>2019-08-31T14:23:10Z</time>
      </trkpt>
      <trkpt lat="55.901512987911701" lon="-3.125942023470998">
        <ele>110.20999999999999</ele>
        <time>2019-08-31T14:23:11Z</time>
      </trkpt>
      <trkpt lat="55.901435036212206" lon="-3.126013018190861">
        <ele>110.20999999999999</ele>
        <time>2019-08-31T14:23:12Z</time>
      </trkpt>
      <trkpt lat="55.900507997721434" lon="-3.126931004226208">
        <ele>111.17</ele>
        <time>2019-08-31T14:23:22Z</time>
      </trkpt>
      <trkpt lat="55.899345008656383" lon="-3.128174040466547">
        <ele>112.61</ele>
        <time>2019-08-31T14:23:33Z</time>
      </trkpt>
      <trkpt lat="55.897842971608043" lon="-3.129802979528904">
        <ele>116.94</ele>
        <time>2019-08-31T14:23:45Z</time>
      </trkpt>
      <trkpt lat="55.896276980638504" lon="-3.131500985473394">
        <ele>118.86</ele>
        <time>2019-08-31T14:23:58Z</time>
      </trkpt>
      <trkpt lat="55.894916011020541" lon="-3.132977038621903">
        <ele>116.94</ele>
        <time>2019-08-31T14:24:09Z</time>
      </trkpt>
      <trkpt lat="55.894379988312721" lon="-3.133664019405842">
        <ele>116.94</ele>
        <time>2019-08-31T14:24:16Z</time>
      </trkpt>
      <trkpt lat="55.894217966124415" lon="-3.134049000218511">
        <ele>118.38</ele>
        <time>2019-08-31T14:24:23Z</time>
      </trkpt>
      <trkpt lat="55.894125010818243" lon="-3.134343959391117">
        <ele>119.81999999999999</ele>
        <time>2019-08-31T14:24:31Z</time>
      </trkpt>
      <trkpt lat="55.894060973078012" lon="-3.134450996294618">
        <ele>119.81999999999999</ele>
        <time>2019-08-31T14:24:32Z</time>
      </trkpt>
      <trkpt lat="55.893986038863659" lon="-3.134431969374418">
        <ele>119.81999999999999</ele>
        <time>2019-08-31T14:24:33Z</time>
      </trkpt>
      <trkpt lat="55.8938820194453" lon="-3.134335996583104">
        <ele>119.81999999999999</ele>
        <time>2019-08-31T14:24:34Z</time>
      </trkpt>
      <trkpt lat="55.893780011683702" lon="-3.134224014356732">
        <ele>119.34</ele>
        <time>2019-08-31T14:24:35Z</time>
      </trkpt>
      <trkpt lat="55.893658977001905" lon="-3.134082024917007">
        <ele>118.38</ele>
        <time>2019-08-31T14:24:36Z</time>
      </trkpt>
      <trkpt lat="55.893006026744843" lon="-3.1332500372082">
        <ele>113.56999999999999</ele>
        <time>2019-08-31T14:24:42Z</time>
      </trkpt>
      <trkpt lat="55.892770998179913" lon="-3.133010985329747">
        <ele>114.05</ele>
        <time>2019-08-31T14:24:46Z</time>
      </trkpt>
      <trkpt lat="55.892730010673404" lon="-3.132969997823238">
        <ele>113.56999999999999</ele>
        <time>2019-08-31T14:24:47Z</time>
      </trkpt>
      <trkpt lat="55.892692040652037" lon="-3.132932027801871">
        <ele>113.56999999999999</ele>
        <time>2019-08-31T14:24:48Z</time>
      </trkpt>
      <trkpt lat="55.892575029283762" lon="-3.13293001614511">
        <ele>114.05</ele>
        <time>2019-08-31T14:24:49Z</time>
      </trkpt>
      <trkpt lat="55.89255197905004" lon="-3.133006040006876">
        <ele>114.05</ele>
        <time>2019-08-31T14:24:50Z</time>
      </trkpt>
      <trkpt lat="55.892523983493447" lon="-3.13310100696981">
        <ele>114.05</ele>
        <time>2019-08-31T14:24:51Z</time>
      </trkpt>
      <trkpt lat="55.89248601347208" lon="-3.133224975317717">
        <ele>114.05</ele>
        <time>2019-08-31T14:24:52Z</time>
      </trkpt>
      <trkpt lat="55.892133973538876" lon="-3.134399028494954">
        <ele>116.94</ele>
        <time>2019-08-31T14:24:58Z</time>
      </trkpt>
      <trkpt lat="55.891537014394999" lon="-3.136670021340251">
        <ele>122.22</ele>
        <time>2019-08-31T14:25:09Z</time>
      </trkpt>
      <trkpt lat="55.890978025272489" lon="-3.13971902243793">
        <ele>128.47</ele>
        <time>2019-08-31T14:25:20Z</time>
      </trkpt>
      <trkpt lat="55.890456000342965" lon="-3.143036998808384">
        <ele>135.19999999999999</ele>
        <time>2019-08-31T14:25:30Z</time>
      </trkpt>
      <trkpt lat="55.890048975124955" lon="-3.146340977400541">
        <ele>141.93000000000001</ele>
        <time>2019-08-31T14:25:41Z</time>
      </trkpt>
      <trkpt lat="55.889815036207438" lon="-3.149740006774664">
        <ele>146.25999999999999</ele>
        <time>2019-08-31T14:25:50Z</time>
      </trkpt>
      <trkpt lat="55.889704981818795" lon="-3.154604025185108">
        <ele>148.66</ele>
        <time>2019-08-31T14:26:02Z</time>
      </trkpt>
      <trkpt lat="55.889753010123968" lon="-3.160692974925041">
        <ele>148.66</ele>
        <time>2019-08-31T14:26:16Z</time>
      </trkpt>
      <trkpt lat="55.889932969585061" lon="-3.164766998961568">
        <ele>145.30000000000001</ele>
        <time>2019-08-31T14:26:26Z</time>
      </trkpt>
      <trkpt lat="55.890370002016425" lon="-3.168943030759692">
        <ele>141.93000000000001</ele>
        <time>2019-08-31T14:26:37Z</time>
      </trkpt>
      <trkpt lat="55.890852967277169" lon="-3.17325702868402">
        <ele>139.05000000000001</ele>
        <time>2019-08-31T14:26:49Z</time>
      </trkpt>
      <trkpt lat="55.891385972499847" lon="-3.178217019885778">
        <ele>135.19999999999999</ele>
        <time>2019-08-31T14:27:02Z</time>
      </trkpt>
      <trkpt lat="55.891898022964597" lon="-3.183513963595033">
        <ele>134.24000000000001</ele>
        <time>2019-08-31T14:27:15Z</time>
      </trkpt>
      <trkpt lat="55.89218501932919" lon="-3.186500016599894">
        <ele>135.68000000000001</ele>
        <time>2019-08-31T14:27:23Z</time>
      </trkpt>
      <trkpt lat="55.892662033438683" lon="-3.190660960972309">
        <ele>141.93000000000001</ele>
        <time>2019-08-31T14:27:36Z</time>
      </trkpt>
      <trkpt lat="55.893334010615945" lon="-3.194374982267618">
        <ele>148.18000000000001</ele>
        <time>2019-08-31T14:27:47Z</time>
      </trkpt>
      <trkpt lat="55.89405401609838" lon="-3.197496989741921">
        <ele>150.09999999999999</ele>
        <time>2019-08-31T14:27:57Z</time>
      </trkpt>
      <trkpt lat="55.895131006836891" lon="-3.201085031032562">
        <ele>149.62</ele>
        <time>2019-08-31T14:28:07Z</time>
      </trkpt>
      <trkpt lat="55.895769959315658" lon="-3.202883033081889">
        <ele>149.13999999999999</ele>
        <time>2019-08-31T14:28:12Z</time>
      </trkpt>
      <trkpt lat="55.895878002047539" lon="-3.203215962275863">
        <ele>148.66</ele>
        <time>2019-08-31T14:28:13Z</time>
      </trkpt>
      <trkpt lat="55.896922973915935" lon="-3.206821018829942">
        <ele>152.50999999999999</ele>
        <time>2019-08-31T14:28:24Z</time>
      </trkpt>
      <trkpt lat="55.897573996335268" lon="-3.210190963000059">
        <ele>154.43000000000001</ele>
        <time>2019-08-31T14:28:34Z</time>
      </trkpt>
      <trkpt lat="55.897787986323237" lon="-3.21173700504005">
        <ele>155.87</ele>
        <time>2019-08-31T14:28:40Z</time>
      </trkpt>
      <trkpt lat="55.898100966587663" lon="-3.214264987036586">
        <ele>158.75</ele>
        <time>2019-08-31T14:28:48Z</time>
      </trkpt>
      <trkpt lat="55.898477984592319" lon="-3.217460000887513">
        <ele>162.12</ele>
        <time>2019-08-31T14:28:56Z</time>
      </trkpt>
      <trkpt lat="55.898881992325187" lon="-3.22172898799181">
        <ele>164.52000000000001</ele>
        <time>2019-08-31T14:29:08Z</time>
      </trkpt>
      <trkpt lat="55.899235960096121" lon="-3.226514970883727">
        <ele>164.03999999999999</ele>
        <time>2019-08-31T14:29:21Z</time>
      </trkpt>
      <trkpt lat="55.899436958134174" lon="-3.230925025418401">
        <ele>163.56</ele>
        <time>2019-08-31T14:29:34Z</time>
      </trkpt>
      <trkpt lat="55.899452967569232" lon="-3.231291985139251">
        <ele>163.56</ele>
        <time>2019-08-31T14:29:35Z</time>
      </trkpt>
      <trkpt lat="55.899467971175909" lon="-3.231656011193991">
        <ele>163.56</ele>
        <time>2019-08-31T14:29:36Z</time>
      </trkpt>
      <trkpt lat="55.899441987276077" lon="-3.2355029694736">
        <ele>165.96000000000001</ele>
        <time>2019-08-31T14:29:47Z</time>
      </trkpt>
      <trkpt lat="55.899181980639696" lon="-3.239156976342201">
        <ele>166.44999999999999</ele>
        <time>2019-08-31T14:29:57Z</time>
      </trkpt>
      <trkpt lat="55.898850979283452" lon="-3.243070989847183">
        <ele>163.56</ele>
        <time>2019-08-31T14:30:07Z</time>
      </trkpt>
      <trkpt lat="55.898396009579301" lon="-3.248612014576793">
        <ele>159.24000000000001</ele>
        <time>2019-08-31T14:30:21Z</time>
      </trkpt>
      <trkpt lat="55.898261982947588" lon="-3.251996962353587">
        <ele>156.34999999999999</ele>
        <time>2019-08-31T14:30:30Z</time>
      </trkpt>
      <trkpt lat="55.898334989324212" lon="-3.256580019369721">
        <ele>157.78999999999999</ele>
        <time>2019-08-31T14:30:43Z</time>
      </trkpt>
      <trkpt lat="55.898661967366934" lon="-3.261441020295024">
        <ele>155.38999999999999</ele>
        <time>2019-08-31T14:30:56Z</time>
      </trkpt>
      <trkpt lat="55.899269990622997" lon="-3.265062002465129">
        <ele>156.34999999999999</ele>
        <time>2019-08-31T14:31:06Z</time>
      </trkpt>
      <trkpt lat="55.900210021063685" lon="-3.268217034637928">
        <ele>153.94999999999999</ele>
        <time>2019-08-31T14:31:15Z</time>
      </trkpt>
      <trkpt lat="55.901503013446927" lon="-3.271021032705903">
        <ele>147.22</ele>
        <time>2019-08-31T14:31:24Z</time>
      </trkpt>
      <trkpt lat="55.902891978621483" lon="-3.272987008094788">
        <ele>140.49000000000001</ele>
        <time>2019-08-31T14:31:32Z</time>
      </trkpt>
      <trkpt lat="55.904759969562292" lon="-3.274864973500371">
        <ele>131.84</ele>
        <time>2019-08-31T14:31:42Z</time>
      </trkpt>
      <trkpt lat="55.907070022076368" lon="-3.276863973587751">
        <ele>126.55</ele>
        <time>2019-08-31T14:31:55Z</time>
      </trkpt>
      <trkpt lat="55.908998027443886" lon="-3.278994988650084">
        <ele>121.73999999999999</ele>
        <time>2019-08-31T14:32:05Z</time>
      </trkpt>
      <trkpt lat="55.910566030070186" lon="-3.281539985910058">
        <ele>115.01000000000001</ele>
        <time>2019-08-31T14:32:14Z</time>
      </trkpt>
      <trkpt lat="55.91186597943306" lon="-3.284834995865822">
        <ele>103.48</ele>
        <time>2019-08-31T14:32:24Z</time>
      </trkpt>
      <trkpt lat="55.912836017087102" lon="-3.288700981065631">
        <ele>89.540000000000006</ele>
        <time>2019-08-31T14:32:34Z</time>
      </trkpt>
      <trkpt lat="55.913763977587223" lon="-3.293009027838707">
        <ele>79.450000000000003</ele>
        <time>2019-08-31T14:32:45Z</time>
      </trkpt>
      <trkpt lat="55.914795035496354" lon="-3.29634603112936">
        <ele>78.480000000000004</ele>
        <time>2019-08-31T14:32:55Z</time>
      </trkpt>
      <trkpt lat="55.916156005114317" lon="-3.299208031967282">
        <ele>77.519999999999996</ele>
        <time>2019-08-31T14:33:05Z</time>
      </trkpt>
      <trkpt lat="55.917632980272174" lon="-3.301515989005566">
        <ele>74.640000000000001</ele>
        <time>2019-08-31T14:33:15Z</time>
      </trkpt>
      <trkpt lat="55.918965032324195" lon="-3.30347903072834">
        <ele>74.159999999999997</ele>
        <time>2019-08-31T14:33:25Z</time>
      </trkpt>
      <trkpt lat="55.920044034719467" lon="-3.305074023082852">
        <ele>73.200000000000003</ele>
        <time>2019-08-31T14:33:33Z</time>
      </trkpt>
      <trkpt lat="55.921873971819878" lon="-3.307754974812269">
        <ele>70.310000000000002</ele>
        <time>2019-08-31T14:33:45Z</time>
      </trkpt>
      <trkpt lat="55.92338003218174" lon="-3.309951033443213">
        <ele>61.659999999999997</ele>
        <time>2019-08-31T14:33:55Z</time>
      </trkpt>
      <trkpt lat="55.925645995885134" lon="-3.313165996223688">
        <ele>61.18</ele>
        <time>2019-08-31T14:34:09Z</time>
      </trkpt>
      <trkpt lat="55.927350036799908" lon="-3.315520975738764">
        <ele>62.140000000000001</ele>
        <time>2019-08-31T14:34:20Z</time>
      </trkpt>
      <trkpt lat="55.929450960829854" lon="-3.317976035177708">
        <ele>60.219999999999999</ele>
        <time>2019-08-31T14:34:33Z</time>
      </trkpt>
      <trkpt lat="55.931437974795699" lon="-3.319544037804008">
        <ele>57.82</ele>
        <time>2019-08-31T14:34:44Z</time>
      </trkpt>
      <trkpt lat="55.934334006160498" lon="-3.320869971066713">
        <ele>52.049999999999997</ele>
        <time>2019-08-31T14:34:59Z</time>
      </trkpt>
      <trkpt lat="55.93670298345387" lon="-3.321946039795876">
        <ele>49.159999999999997</ele>
        <time>2019-08-31T14:35:12Z</time>
      </trkpt>
      <trkpt lat="55.937759019434452" lon="-3.322390029206872">
        <ele>49.649999999999999</ele>
        <time>2019-08-31T14:35:20Z</time>
      </trkpt>
      <trkpt lat="55.938293030485511" lon="-3.322617011144757">
        <ele>50.609999999999999</ele>
        <time>2019-08-31T14:35:27Z</time>
      </trkpt>
      <trkpt lat="55.938545996323228" lon="-3.322823038324714">
        <ele>52.530000000000001</ele>
        <time>2019-08-31T14:35:38Z</time>
      </trkpt>
      <trkpt lat="55.938738025724888" lon="-3.323005009442568">
        <ele>52.530000000000001</ele>
        <time>2019-08-31T14:35:53Z</time>
      </trkpt>
      <trkpt lat="55.939010018482804" lon="-3.323345985263586">
        <ele>53.009999999999998</ele>
        <time>2019-08-31T14:35:58Z</time>
      </trkpt>
      <trkpt lat="55.939198024570942" lon="-3.323490992188454">
        <ele>53.490000000000002</ele>
        <time>2019-08-31T14:36:08Z</time>
      </trkpt>
      <trkpt lat="55.939358035102487" lon="-3.323557041585445">
        <ele>53.969999999999999</ele>
        <time>2019-08-31T14:36:18Z</time>
      </trkpt>
      <trkpt lat="55.939458031207323" lon="-3.32354698330164">
        <ele>53.969999999999999</ele>
        <time>2019-08-31T14:36:19Z</time>
      </trkpt>
      <trkpt lat="55.939541012048721" lon="-3.323537008836865">
        <ele>53.969999999999999</ele>
        <time>2019-08-31T14:36:20Z</time>
      </trkpt>
      <trkpt lat="55.939683001488447" lon="-3.323442041873932">
        <ele>54.450000000000003</ele>
        <time>2019-08-31T14:36:22Z</time>
      </trkpt>
      <trkpt lat="55.93973002396524" lon="-3.323387978598476">
        <ele>54.450000000000003</ele>
        <time>2019-08-31T14:36:23Z</time>
      </trkpt>
      <trkpt lat="55.939782997593284" lon="-3.32331296056509">
        <ele>54.450000000000003</ele>
        <time>2019-08-31T14:36:24Z</time>
      </trkpt>
      <trkpt lat="55.939833037555218" lon="-3.323240960016847">
        <ele>54.450000000000003</ele>
        <time>2019-08-31T14:36:25Z</time>
      </trkpt>
      <trkpt lat="55.939861033111811" lon="-3.323187986388803">
        <ele>53.969999999999999</ele>
        <time>2019-08-31T14:36:26Z</time>
      </trkpt>
      <trkpt lat="55.939897997304797" lon="-3.323082961142063">
        <ele>53.969999999999999</ele>
        <time>2019-08-31T14:36:27Z</time>
      </trkpt>
      <trkpt lat="55.939977038651705" lon="-3.322857990860939">
        <ele>53.490000000000002</ele>
        <time>2019-08-31T14:36:29Z</time>
      </trkpt>
      <trkpt lat="55.939985001459718" lon="-3.322766963392496">
        <ele>53.009999999999998</ele>
        <time>2019-08-31T14:36:30Z</time>
      </trkpt>
      <trkpt lat="55.939993970096111" lon="-3.322607958689332">
        <ele>52.530000000000001</ele>
        <time>2019-08-31T14:36:31Z</time>
      </trkpt>
      <trkpt lat="55.940002016723156" lon="-3.322454988956451">
        <ele>52.530000000000001</ele>
        <time>2019-08-31T14:36:32Z</time>
      </trkpt>
      <trkpt lat="55.940002016723156" lon="-3.322281986474991">
        <ele>52.530000000000001</ele>
        <time>2019-08-31T14:36:33Z</time>
      </trkpt>
      <trkpt lat="55.939993970096111" lon="-3.32212901674211">
        <ele>52.530000000000001</ele>
        <time>2019-08-31T14:36:34Z</time>
      </trkpt>
      <trkpt lat="55.939980978146195" lon="-3.321971017867327">
        <ele>53.009999999999998</ele>
        <time>2019-08-31T14:36:35Z</time>
      </trkpt>
      <trkpt lat="55.939969997853041" lon="-3.321820981800556">
        <ele>53.009999999999998</ele>
        <time>2019-08-31T14:36:36Z</time>
      </trkpt>
      <trkpt lat="55.939958011731505" lon="-3.321669017896056">
        <ele>53.009999999999998</ele>
        <time>2019-08-31T14:36:37Z</time>
      </trkpt>
      <trkpt lat="55.93994501978159" lon="-3.32150598987937">
        <ele>53.009999999999998</ele>
        <time>2019-08-31T14:36:38Z</time>
      </trkpt>
      <trkpt lat="55.939947031438351" lon="-3.321315972134471">
        <ele>53.009999999999998</ele>
        <time>2019-08-31T14:36:39Z</time>
      </trkpt>
      <trkpt lat="55.939964968711138" lon="-3.321129977703095">
        <ele>53.009999999999998</ele>
        <time>2019-08-31T14:36:40Z</time>
      </trkpt>
      <trkpt lat="55.939983995631337" lon="-3.320939959958196">
        <ele>52.530000000000001</ele>
        <time>2019-08-31T14:36:41Z</time>
      </trkpt>
      <trkpt lat="55.94013998284936" lon="-3.319367012009025">
        <ele>52.530000000000001</ele>
        <time>2019-08-31T14:36:49Z</time>
      </trkpt>
      <trkpt lat="55.940241990610957" lon="-3.317911997437477">
        <ele>54.93</ele>
        <time>2019-08-31T14:36:59Z</time>
      </trkpt>
      <trkpt lat="55.940395966172218" lon="-3.316358998417854">
        <ele>53.009999999999998</ele>
        <time>2019-08-31T14:37:09Z</time>
      </trkpt>
      <trkpt lat="55.940594030544162" lon="-3.31460801884532">
        <ele>50.130000000000003</ele>
        <time>2019-08-31T14:37:20Z</time>
      </trkpt>
      <trkpt lat="55.940795028582215" lon="-3.313847025856376">
        <ele>49.159999999999997</ele>
        <time>2019-08-31T14:37:25Z</time>
      </trkpt>
      <trkpt lat="55.94082604162395" lon="-3.313757004216313">
        <ele>49.159999999999997</ele>
        <time>2019-08-31T14:37:26Z</time>
      </trkpt>
      <trkpt lat="55.94084900803864" lon="-3.313596993684769">
        <ele>49.159999999999997</ele>
        <time>2019-08-31T14:37:27Z</time>
      </trkpt>
      <trkpt lat="55.9409149736166" lon="-3.313551982864738">
        <ele>49.159999999999997</ele>
        <time>2019-08-31T14:37:28Z</time>
      </trkpt>
      <trkpt lat="55.940985968336463" lon="-3.313495991751552">
        <ele>48.68</ele>
        <time>2019-08-31T14:37:29Z</time>
      </trkpt>
      <trkpt lat="55.941062998026609" lon="-3.313419967889786">
        <ele>48.68</ele>
        <time>2019-08-31T14:37:30Z</time>
      </trkpt>
      <trkpt lat="55.941144973039627" lon="-3.313336987048388">
        <ele>48.200000000000003</ele>
        <time>2019-08-31T14:37:31Z</time>
      </trkpt>
      <trkpt lat="55.941228959709406" lon="-3.313253000378609">
        <ele>48.68</ele>
        <time>2019-08-31T14:37:32Z</time>
      </trkpt>
      <trkpt lat="55.941568007692695" lon="-3.312914036214352">
        <ele>48.68</ele>
        <time>2019-08-31T14:37:36Z</time>
      </trkpt>
      <trkpt lat="55.942149041220546" lon="-3.312693005427718">
        <ele>50.609999999999999</ele>
        <time>2019-08-31T14:37:42Z</time>
      </trkpt>
      <trkpt lat="55.942473001778126" lon="-3.312745979055762">
        <ele>51.57</ele>
        <time>2019-08-31T14:37:45Z</time>
      </trkpt>
      <trkpt lat="55.942574003711343" lon="-3.312772968783975">
        <ele>51.57</ele>
        <time>2019-08-31T14:37:46Z</time>
      </trkpt>
      <trkpt lat="55.942677017301321" lon="-3.312799958512187">
        <ele>51.57</ele>
        <time>2019-08-31T14:37:47Z</time>
      </trkpt>
      <trkpt lat="55.942780030891299" lon="-3.312839018180966">
        <ele>52.049999999999997</ele>
        <time>2019-08-31T14:37:48Z</time>
      </trkpt>
      <trkpt lat="55.942882038652897" lon="-3.312883023172617">
        <ele>52.049999999999997</ele>
        <time>2019-08-31T14:37:49Z</time>
      </trkpt>
      <trkpt lat="55.942986980080605" lon="-3.312928033992648">
        <ele>52.530000000000001</ele>
        <time>2019-08-31T14:37:50Z</time>
      </trkpt>
      <trkpt lat="55.944166984409094" lon="-3.313440000638366">
        <ele>55.890000000000001</ele>
        <time>2019-08-31T14:38:01Z</time>
      </trkpt>
      <trkpt lat="55.945784021168947" lon="-3.314206022769213">
        <ele>61.18</ele>
        <time>2019-08-31T14:38:13Z</time>
      </trkpt>
      <trkpt lat="55.947378007695079" lon="-3.314371984452009">
        <ele>61.18</ele>
        <time>2019-08-31T14:38:24Z</time>
      </trkpt>
      <trkpt lat="55.94866999424994" lon="-3.314056992530823">
        <ele>57.340000000000003</ele>
        <time>2019-08-31T14:38:34Z</time>
      </trkpt>
      <trkpt lat="55.949399974197149" lon="-3.313730014488101">
        <ele>53.490000000000002</ele>
        <time>2019-08-31T14:38:42Z</time>
      </trkpt>
      <trkpt lat="55.949510028585792" lon="-3.313765972852707">
        <ele>52.530000000000001</ele>
        <time>2019-08-31T14:38:44Z</time>
      </trkpt>
      <trkpt lat="55.949750002473593" lon="-3.313780976459384">
        <ele>51.090000000000003</ele>
        <time>2019-08-31T14:38:47Z</time>
      </trkpt>
      <trkpt lat="55.949847986921668" lon="-3.313703024759889">
        <ele>50.609999999999999</ele>
        <time>2019-08-31T14:38:48Z</time>
      </trkpt>
      <trkpt lat="55.949914958328009" lon="-3.313536979258061">
        <ele>50.130000000000003</ele>
        <time>2019-08-31T14:38:49Z</time>
      </trkpt>
      <trkpt lat="55.95008703880012" lon="-3.313303962349892">
        <ele>50.130000000000003</ele>
        <time>2019-08-31T14:38:51Z</time>
      </trkpt>
      <trkpt lat="55.950188040733337" lon="-3.313167002052069">
        <ele>50.130000000000003</ele>
        <time>2019-08-31T14:38:52Z</time>
      </trkpt>
      <trkpt lat="55.950314020738006" lon="-3.313057031482458">
        <ele>49.649999999999999</ele>
        <time>2019-08-31T14:38:53Z</time>
      </trkpt>
      <trkpt lat="55.951424036175013" lon="-3.312287991866469">
        <ele>46.280000000000001</ele>
        <time>2019-08-31T14:39:00Z</time>
      </trkpt>
      <trkpt lat="55.952892964705825" lon="-3.311240002512932">
        <ele>41.469999999999999</ele>
        <time>2019-08-31T14:39:09Z</time>
      </trkpt>
      <trkpt lat="55.954356025904417" lon="-3.310196036472917">
        <ele>38.590000000000003</ele>
        <time>2019-08-31T14:39:20Z</time>
      </trkpt>
      <trkpt lat="55.95612502656877" lon="-3.308933973312378">
        <ele>39.07</ele>
        <time>2019-08-31T14:39:32Z</time>
      </trkpt>
      <trkpt lat="55.957277035340667" lon="-3.308111960068345">
        <ele>40.990000000000002</ele>
        <time>2019-08-31T14:39:40Z</time>
      </trkpt>
      <trkpt lat="55.95874797552824" lon="-3.307014014571905">
        <ele>43.399999999999999</ele>
        <time>2019-08-31T14:39:53Z</time>
      </trkpt>
      <trkpt lat="55.959916999563575" lon="-3.306271964684129">
        <ele>44.359999999999999</ele>
        <time>2019-08-31T14:40:05Z</time>
      </trkpt>
      <trkpt lat="55.960269039496779" lon="-3.305982034653425">
        <ele>46.280000000000001</ele>
        <time>2019-08-31T14:40:10Z</time>
      </trkpt>
      <trkpt lat="55.96033601090312" lon="-3.305969964712858">
        <ele>46.759999999999998</ele>
        <time>2019-08-31T14:40:11Z</time>
      </trkpt>
      <trkpt lat="55.960394013673067" lon="-3.305958984419704">
        <ele>47.240000000000002</ele>
        <time>2019-08-31T14:40:12Z</time>
      </trkpt>
      <trkpt lat="55.960443969815969" lon="-3.30595001578331">
        <ele>47.719999999999999</ele>
        <time>2019-08-31T14:40:13Z</time>
      </trkpt>
      <trkpt lat="55.960483029484749" lon="-3.305942974984646">
        <ele>48.200000000000003</ele>
        <time>2019-08-31T14:40:14Z</time>
      </trkpt>
      <trkpt lat="55.960546983405948" lon="-3.306046994403005">
        <ele>50.130000000000003</ele>
        <time>2019-08-31T14:40:22Z</time>
      </trkpt>
      <trkpt lat="55.960675980895758" lon="-3.306304989382625">
        <ele>51.090000000000003</ele>
        <time>2019-08-31T14:40:39Z</time>
      </trkpt>
      <trkpt lat="55.960710011422634" lon="-3.306396016851068">
        <ele>51.57</ele>
        <time>2019-08-31T14:40:40Z</time>
      </trkpt>
      <trkpt lat="55.960746975615621" lon="-3.306506993249059">
        <ele>51.57</ele>
        <time>2019-08-31T14:40:41Z</time>
      </trkpt>
      <trkpt lat="55.960770025849342" lon="-3.306632973253727">
        <ele>51.57</ele>
        <time>2019-08-31T14:40:42Z</time>
      </trkpt>
      <trkpt lat="55.960792992264032" lon="-3.306780997663736">
        <ele>51.57</ele>
        <time>2019-08-31T14:40:43Z</time>
      </trkpt>
      <trkpt lat="55.960819981992245" lon="-3.306944025680423">
        <ele>51.57</ele>
        <time>2019-08-31T14:40:44Z</time>
      </trkpt>
      <trkpt lat="55.960847977548838" lon="-3.307119039818645">
        <ele>52.049999999999997</ele>
        <time>2019-08-31T14:40:45Z</time>
      </trkpt>
      <trkpt lat="55.961071019992232" lon="-3.309472007676959">
        <ele>49.649999999999999</ele>
        <time>2019-08-31T14:40:56Z</time>
      </trkpt>
      <trkpt lat="55.96130495890975" lon="-3.311847019940615">
        <ele>45.32</ele>
        <time>2019-08-31T14:41:07Z</time>
      </trkpt>
      <trkpt lat="55.961347036063671" lon="-3.312013987451792">
        <ele>44.840000000000003</ele>
        <time>2019-08-31T14:41:08Z</time>
      </trkpt>
      <trkpt lat="55.961391041055322" lon="-3.312192019075155">
        <ele>44.359999999999999</ele>
        <time>2019-08-31T14:41:09Z</time>
      </trkpt>
      <trkpt lat="55.961436973884702" lon="-3.312377007678151">
        <ele>43.880000000000003</ele>
        <time>2019-08-31T14:41:10Z</time>
      </trkpt>
      <trkpt lat="55.961500005796552" lon="-3.312541041523218">
        <ele>43.399999999999999</ele>
        <time>2019-08-31T14:41:11Z</time>
      </trkpt>
      <trkpt lat="55.961580974981189" lon="-3.312697028741241">
        <ele>42.920000000000002</ele>
        <time>2019-08-31T14:41:12Z</time>
      </trkpt>
      <trkpt lat="55.961662027984858" lon="-3.312853015959263">
        <ele>42.439999999999998</ele>
        <time>2019-08-31T14:41:13Z</time>
      </trkpt>
      <trkpt lat="55.962105011567473" lon="-3.313588025048375">
        <ele>39.07</ele>
        <time>2019-08-31T14:41:20Z</time>
      </trkpt>
      <trkpt lat="55.962298968806863" lon="-3.313893964514136">
        <ele>35.710000000000001</ele>
        <time>2019-08-31T14:41:29Z</time>
      </trkpt>
      <trkpt lat="55.962487980723381" lon="-3.314179033041">
        <ele>32.82</ele>
        <time>2019-08-31T14:41:37Z</time>
      </trkpt>
      <trkpt lat="55.963102960959077" lon="-3.315012026578188">
        <ele>29.460000000000001</ele>
        <time>2019-08-31T14:41:45Z</time>
      </trkpt>
      <trkpt lat="55.964155979454517" lon="-3.316423036158085">
        <ele>26.09</ele>
        <time>2019-08-31T14:41:57Z</time>
      </trkpt>
      <trkpt lat="55.965360039845109" lon="-3.318036971613765">
        <ele>28.02</ele>
        <time>2019-08-31T14:42:08Z</time>
      </trkpt>
      <trkpt lat="55.966599974781275" lon="-3.319972017779946">
        <ele>36.670000000000002</ele>
        <time>2019-08-31T14:42:20Z</time>
      </trkpt>
      <trkpt lat="55.967777967453003" lon="-3.321984009817243">
        <ele>44.840000000000003</ele>
        <time>2019-08-31T14:42:31Z</time>
      </trkpt>
      <trkpt lat="55.96882201731205" lon="-3.323951996862888">
        <ele>52.530000000000001</ele>
        <time>2019-08-31T14:42:42Z</time>
      </trkpt>
      <trkpt lat="55.969947036355734" lon="-3.326074965298176">
        <ele>55.409999999999997</ele>
        <time>2019-08-31T14:42:52Z</time>
      </trkpt>
      <trkpt lat="55.971721988171339" lon="-3.329494027420878">
        <ele>55.409999999999997</ele>
        <time>2019-08-31T14:43:08Z</time>
      </trkpt>
      <trkpt lat="55.973081029951572" lon="-3.332507992163301">
        <ele>54.450000000000003</ele>
        <time>2019-08-31T14:43:20Z</time>
      </trkpt>
      <trkpt lat="55.974577032029629" lon="-3.336089998483658">
        <ele>47.719999999999999</ele>
        <time>2019-08-31T14:43:33Z</time>
      </trkpt>
      <trkpt lat="55.975813027471304" lon="-3.338710013777018">
        <ele>39.549999999999997</ele>
        <time>2019-08-31T14:43:44Z</time>
      </trkpt>
      <trkpt lat="55.976746017113328" lon="-3.340641958639026">
        <ele>33.299999999999997</ele>
        <time>2019-08-31T14:43:54Z</time>
      </trkpt>
      <trkpt lat="55.977637013420463" lon="-3.342478014528751">
        <ele>30.420000000000002</ele>
        <time>2019-08-31T14:44:04Z</time>
      </trkpt>
      <trkpt lat="55.978205977007747" lon="-3.344297977164388">
        <ele>30.420000000000002</ele>
        <time>2019-08-31T14:44:12Z</time>
      </trkpt>
      <trkpt lat="55.97862197086215" lon="-3.345866985619068">
        <ele>32.340000000000003</ele>
        <time>2019-08-31T14:44:20Z</time>
      </trkpt>
      <trkpt lat="55.978703023865819" lon="-3.346029007807374">
        <ele>32.82</ele>
        <time>2019-08-31T14:44:21Z</time>
      </trkpt>
      <trkpt lat="55.978796985000372" lon="-3.346217013895512">
        <ele>32.82</ele>
        <time>2019-08-31T14:44:22Z</time>
      </trkpt>
      <trkpt lat="55.97887896001339" lon="-3.346336036920548">
        <ele>33.299999999999997</ele>
        <time>2019-08-31T14:44:23Z</time>
      </trkpt>
      <trkpt lat="55.978978034108877" lon="-3.346480038017035">
        <ele>33.780000000000001</ele>
        <time>2019-08-31T14:44:24Z</time>
      </trkpt>
      <trkpt lat="55.979827037081122" lon="-3.347569014877081">
        <ele>34.740000000000002</ele>
        <time>2019-08-31T14:44:33Z</time>
      </trkpt>
      <trkpt lat="55.980706969276071" lon="-3.349074991419911">
        <ele>35.229999999999997</ele>
        <time>2019-08-31T14:44:42Z</time>
      </trkpt>
      <trkpt lat="55.981407025828958" lon="-3.35063997656107">
        <ele>40.030000000000001</ele>
        <time>2019-08-31T14:44:52Z</time>
      </trkpt>
      <trkpt lat="55.982056958600879" lon="-3.352270005270839">
        <ele>41.469999999999999</ele>
        <time>2019-08-31T14:45:00Z</time>
      </trkpt>
      <trkpt lat="55.983156999573112" lon="-3.355181962251663">
        <ele>45.32</ele>
        <time>2019-08-31T14:45:11Z</time>
      </trkpt>
      <trkpt lat="55.983526976779103" lon="-3.356163986027241">
        <ele>49.649999999999999</ele>
        <time>2019-08-31T14:45:16Z</time>
      </trkpt>
      <trkpt lat="55.983594032004476" lon="-3.356346040964127">
        <ele>50.130000000000003</ele>
        <time>2019-08-31T14:45:17Z</time>
      </trkpt>
      <trkpt lat="55.984274977818131" lon="-3.358557019382715">
        <ele>58.299999999999997</ele>
        <time>2019-08-31T14:45:27Z</time>
      </trkpt>
      <trkpt lat="55.984988026320934" lon="-3.36065199226141">
        <ele>59.259999999999998</ele>
        <time>2019-08-31T14:45:35Z</time>
      </trkpt>
      <trkpt lat="55.986192002892494" lon="-3.363877013325691">
        <ele>65.030000000000001</ele>
        <time>2019-08-31T14:45:48Z</time>
      </trkpt>
      <trkpt lat="55.986661976203322" lon="-3.365132035687566">
        <ele>69.829999999999998</ele>
        <time>2019-08-31T14:45:54Z</time>
      </trkpt>
      <trkpt lat="55.986712016165257" lon="-3.365323981270194">
        <ele>69.829999999999998</ele>
        <time>2019-08-31T14:45:55Z</time>
      </trkpt>
      <trkpt lat="55.986760966479778" lon="-3.365510981529951">
        <ele>70.310000000000002</ele>
        <time>2019-08-31T14:45:56Z</time>
      </trkpt>
      <trkpt lat="55.986812012270093" lon="-3.365703010931611">
        <ele>70.310000000000002</ele>
        <time>2019-08-31T14:45:57Z</time>
      </trkpt>
      <trkpt lat="55.986864985898137" lon="-3.365907026454806">
        <ele>69.829999999999998</ele>
        <time>2019-08-31T14:45:58Z</time>
      </trkpt>
      <trkpt lat="55.987483989447355" lon="-3.367963023483753">
        <ele>63.100000000000001</ele>
        <time>2019-08-31T14:46:08Z</time>
      </trkpt>
      <trkpt lat="55.988152027130127" lon="-3.370209960266948">
        <ele>54.93</ele>
        <time>2019-08-31T14:46:18Z</time>
      </trkpt>
      <trkpt lat="55.988193014636636" lon="-3.370466027408838">
        <ele>54.450000000000003</ele>
        <time>2019-08-31T14:46:19Z</time>
      </trkpt>
      <trkpt lat="55.988561986014247" lon="-3.372971965000033">
        <ele>50.609999999999999</ele>
        <time>2019-08-31T14:46:29Z</time>
      </trkpt>
      <trkpt lat="55.988907990977168" lon="-3.375189984217286">
        <ele>48.200000000000003</ele>
        <time>2019-08-31T14:46:38Z</time>
      </trkpt>
      <trkpt lat="55.989195993170142" lon="-3.376919003203511">
        <ele>47.719999999999999</ele>
        <time>2019-08-31T14:46:47Z</time>
      </trkpt>
      <trkpt lat="55.9896229673177" lon="-3.3792370185256">
        <ele>40.990000000000002</ele>
        <time>2019-08-31T14:46:59Z</time>
      </trkpt>
      <trkpt lat="55.989824971184134" lon="-3.380769984796643">
        <ele>30.899999999999999</ele>
        <time>2019-08-31T14:47:07Z</time>
      </trkpt>
      <trkpt lat="55.989847015589476" lon="-3.380981041118503">
        <ele>29.460000000000001</ele>
        <time>2019-08-31T14:47:08Z</time>
      </trkpt>
      <trkpt lat="55.989868976175785" lon="-3.381194025278091">
        <ele>28.02</ele>
        <time>2019-08-31T14:47:09Z</time>
      </trkpt>
      <trkpt lat="55.989891020581126" lon="-3.3814060036093">
        <ele>26.57</ele>
        <time>2019-08-31T14:47:10Z</time>
      </trkpt>
      <trkpt lat="55.990014988929033" lon="-3.382251989096403">
        <ele>18.879999999999999</ele>
        <time>2019-08-31T14:47:15Z</time>
      </trkpt>
      <trkpt lat="55.990039967000484" lon="-3.382387021556497">
        <ele>17.440000000000001</ele>
        <time>2019-08-31T14:47:16Z</time>
      </trkpt>
      <trkpt lat="55.990066034719348" lon="-3.382525993511081">
        <ele>16</ele>
        <time>2019-08-31T14:47:17Z</time>
      </trkpt>
      <trkpt lat="55.990122025832534" lon="-3.382778959348798">
        <ele>13.119999999999999</ele>
        <time>2019-08-31T14:47:19Z</time>
      </trkpt>
      <trkpt lat="55.990172987803817" lon="-3.382903011515737">
        <ele>12.15</ele>
        <time>2019-08-31T14:47:20Z</time>
      </trkpt>
      <trkpt lat="55.990217998623848" lon="-3.383011976256967">
        <ele>10.710000000000001</ele>
        <time>2019-08-31T14:47:21Z</time>
      </trkpt>
      <trkpt lat="55.990331992506981" lon="-3.383282963186503">
        <ele>6.39</ele>
        <time>2019-08-31T14:47:24Z</time>
      </trkpt>
      <trkpt lat="55.990368034690619" lon="-3.383368039503694">
        <ele>4.94</ele>
        <time>2019-08-31T14:47:25Z</time>
      </trkpt>
      <trkpt lat="55.990512035787106" lon="-3.383764000609517">
        <ele>0.14</ele>
        <time>2019-08-31T14:47:29Z</time>
      </trkpt>
      <trkpt lat="55.990530978888273" lon="-3.383858967572451">
        <ele>-1.3</ele>
        <time>2019-08-31T14:47:30Z</time>
      </trkpt>
      <trkpt lat="55.990556040778756" lon="-3.383992994204164">
        <ele>-2.75</ele>
        <time>2019-08-31T14:47:31Z</time>
      </trkpt>
      <trkpt lat="55.990556040778756" lon="-3.384073041379452">
        <ele>-3.71</ele>
        <time>2019-08-31T14:47:32Z</time>
      </trkpt>
      <trkpt lat="55.990556040778756" lon="-3.384149987250567">
        <ele>-4.67</ele>
        <time>2019-08-31T14:47:33Z</time>
      </trkpt>
      <trkpt lat="55.990556040778756" lon="-3.384424997493625">
        <ele>-8.51</ele>
        <time>2019-08-31T14:47:37Z</time>
      </trkpt>
      <trkpt lat="55.990556040778756" lon="-3.384494986385107">
        <ele>-9.48</ele>
        <time>2019-08-31T14:47:38Z</time>
      </trkpt>
      <trkpt lat="55.990556040778756" lon="-3.384539997205138">
        <ele>-10.44</ele>
        <time>2019-08-31T14:47:39Z</time>
      </trkpt>
      <trkpt lat="55.990539025515318" lon="-3.384662037715316">
        <ele>-10.92</ele>
        <time>2019-08-31T14:47:40Z</time>
      </trkpt>
      <trkpt lat="55.990529973059893" lon="-3.384723979979754">
        <ele>-11.880000000000001</ele>
        <time>2019-08-31T14:47:41Z</time>
      </trkpt>
      <trkpt lat="55.990521004423499" lon="-3.384781982749701">
        <ele>-12.359999999999999</ele>
        <time>2019-08-31T14:47:42Z</time>
      </trkpt>
      <trkpt lat="55.990513041615486" lon="-3.384837973862886">
        <ele>-13.32</ele>
        <time>2019-08-31T14:47:43Z</time>
      </trkpt>
      <trkpt lat="55.990504994988441" lon="-3.384893964976072">
        <ele>-13.800000000000001</ele>
        <time>2019-08-31T14:47:44Z</time>
      </trkpt>
      <trkpt lat="55.990497032180429" lon="-3.3849529735744">
        <ele>-13.800000000000001</ele>
        <time>2019-08-31T14:47:45Z</time>
      </trkpt>
      <trkpt lat="55.990484040230513" lon="-3.385023968294263">
        <ele>-13.800000000000001</ele>
        <time>2019-08-31T14:47:46Z</time>
      </trkpt>
      <trkpt lat="55.990365017205477" lon="-3.385583041235805">
        <ele>-12.359999999999999</ele>
        <time>2019-08-31T14:47:58Z</time>
      </trkpt>
      <trkpt lat="55.990255968645215" lon="-3.386087967082858">
        <ele>-10.44</ele>
        <time>2019-08-31T14:48:10Z</time>
      </trkpt>
      <trkpt lat="55.990239959210157" lon="-3.386164996773005">
        <ele>-9.960000000000001</ele>
        <time>2019-08-31T14:48:11Z</time>
      </trkpt>
      <trkpt lat="55.990026975050569" lon="-3.387159006670117">
        <ele>-7.55</ele>
        <time>2019-08-31T14:48:20Z</time>
      </trkpt>
      <trkpt lat="55.99000602029264" lon="-3.387254979461432">
        <ele>-7.07</ele>
        <time>2019-08-31T14:48:21Z</time>
      </trkpt>
      <trkpt lat="55.989989005029202" lon="-3.38733502663672">
        <ele>-6.59</ele>
        <time>2019-08-31T14:48:22Z</time>
      </trkpt>
      <trkpt lat="55.989952962845564" lon="-3.387502999976277">
        <ele>-5.15</ele>
        <time>2019-08-31T14:48:25Z</time>
      </trkpt>
      <trkpt lat="55.989946005865932" lon="-3.387538036331534">
        <ele>-5.15</ele>
        <time>2019-08-31T14:48:26Z</time>
      </trkpt>
      <trkpt lat="55.989940976724029" lon="-3.387562008574605">
        <ele>-4.67</ele>
        <time>2019-08-31T14:48:27Z</time>
      </trkpt>
      <trkpt lat="55.989950029179454" lon="-3.387519009411335">
        <ele>-1.3</ele>
        <time>2019-08-31T14:48:32Z</time>
      </trkpt>
      <trkpt lat="55.989957991987467" lon="-3.387480033561587">
        <ele>-0.82</ele>
        <time>2019-08-31T14:48:33Z</time>
      </trkpt>
      <trkpt lat="55.989967966452241" lon="-3.387433011084795">
        <ele>-0.34</ele>
        <time>2019-08-31T14:48:34Z</time>
      </trkpt>
      <trkpt lat="55.989979030564427" lon="-3.387383976951242">
        <ele>0.14</ele>
        <time>2019-08-31T14:48:35Z</time>
      </trkpt>
      <trkpt lat="55.989989005029202" lon="-3.387334020808339">
        <ele>0.62</ele>
        <time>2019-08-31T14:48:36Z</time>
      </trkpt>
      <trkpt lat="55.990023035556078" lon="-3.387175016105175">
        <ele>2.06</ele>
        <time>2019-08-31T14:48:47Z</time>
      </trkpt>
      <trkpt lat="55.990023035556078" lon="-3.387175016105175">
        <ele>2.06</ele>
        <time>2019-08-31T14:49:16Z</time>
      </trkpt>
      <trkpt lat="55.990023035556078" lon="-3.387175016105175">
        <ele>2.54</ele>
        <time>2019-08-31T14:49:41Z</time>
      </trkpt>
      <trkpt lat="55.990023035556078" lon="-3.387175016105175">
        <ele>2.54</ele>
        <time>2019-08-31T14:50:01Z</time>
      </trkpt>
      <trkpt lat="55.990023035556078" lon="-3.387175016105175">
        <ele>2.54</ele>
        <time>2019-08-31T14:50:42Z</time>
      </trkpt>
      <trkpt lat="55.990023035556078" lon="-3.387175016105175">
        <ele>3.02</ele>
        <time>2019-08-31T14:51:23Z</time>
      </trkpt>
      <trkpt lat="55.990023035556078" lon="-3.387175016105175">
        <ele>3.02</ele>
        <time>2019-08-31T14:52:14Z</time>
      </trkpt>
      <trkpt lat="55.990102998912334" lon="-3.387253973633051">
        <ele>10.710000000000001</ele>
        <time>2019-08-31T15:25:38Z</time>
      </trkpt>
      <trkpt lat="55.990142980590463" lon="-3.387327985838056">
        <ele>7.83</ele>
        <time>2019-08-31T15:26:22Z</time>
      </trkpt>
      <trkpt lat="55.990099981427193" lon="-3.387366039678454">
        <ele>7.35</ele>
        <time>2019-08-31T15:27:05Z</time>
      </trkpt>
      <trkpt lat="55.990110961720347" lon="-3.387339971959591">
        <ele>6.87</ele>
        <time>2019-08-31T15:27:47Z</time>
      </trkpt>
      <trkpt lat="55.990110961720347" lon="-3.387340977787972">
        <ele>6.87</ele>
        <time>2019-08-31T15:28:26Z</time>
      </trkpt>
      <trkpt lat="55.990110039710999" lon="-3.387342989444733">
        <ele>6.87</ele>
        <time>2019-08-31T15:29:16Z</time>
      </trkpt>
      <trkpt lat="55.990112973377109" lon="-3.387345001101494">
        <ele>5.91</ele>
        <time>2019-08-31T15:30:07Z</time>
      </trkpt>
      <trkpt lat="55.990112973377109" lon="-3.38733502663672">
        <ele>5.91</ele>
        <time>2019-08-31T15:30:59Z</time>
      </trkpt>
      <trkpt lat="55.990112973377109" lon="-3.38733502663672">
        <ele>5.91</ele>
        <time>2019-08-31T15:31:07Z</time>
      </trkpt>
      <trkpt lat="55.98998699337244" lon="-3.387345001101494">
        <ele>5.91</ele>
        <time>2019-08-31T15:31:12Z</time>
      </trkpt>
      <trkpt lat="55.989979030564427" lon="-3.387383976951242">
        <ele>5.91</ele>
        <time>2019-08-31T15:31:13Z</time>
      </trkpt>
      <trkpt lat="55.989970983937383" lon="-3.387418007478118">
        <ele>5.91</ele>
        <time>2019-08-31T15:31:14Z</time>
      </trkpt>
      <trkpt lat="55.98996402695775" lon="-3.387452038004994">
        <ele>5.91</ele>
        <time>2019-08-31T15:31:15Z</time>
      </trkpt>
      <trkpt lat="55.989955980330706" lon="-3.387489002197981">
        <ele>5.91</ele>
        <time>2019-08-31T15:31:16Z</time>
      </trkpt>
      <trkpt lat="55.989948017522693" lon="-3.387528983876109">
        <ele>5.91</ele>
        <time>2019-08-31T15:31:17Z</time>
      </trkpt>
      <trkpt lat="55.989938965067267" lon="-3.387569971382618">
        <ele>5.91</ele>
        <time>2019-08-31T15:31:18Z</time>
      </trkpt>
      <trkpt lat="55.989911975339055" lon="-3.387694023549557">
        <ele>5.91</ele>
        <time>2019-08-31T15:31:21Z</time>
      </trkpt>
      <trkpt lat="55.989892026409507" lon="-3.387813968583942">
        <ele>5.91</ele>
        <time>2019-08-31T15:31:22Z</time>
      </trkpt>
      <trkpt lat="55.989870987832546" lon="-3.387930979952216">
        <ele>5.91</ele>
        <time>2019-08-31T15:31:23Z</time>
      </trkpt>
      <trkpt lat="55.989669989794493" lon="-3.389337966218591">
        <ele>7.35</ele>
        <time>2019-08-31T15:31:34Z</time>
      </trkpt>
      <trkpt lat="55.989658003672957" lon="-3.38946302421391">
        <ele>7.35</ele>
        <time>2019-08-31T15:31:35Z</time>
      </trkpt>
      <trkpt lat="55.989648029208183" lon="-3.389577018097043">
        <ele>7.35</ele>
        <time>2019-08-31T15:31:37Z</time>
      </trkpt>
      <trkpt lat="55.989633025601506" lon="-3.389733005315065">
        <ele>7.83</ele>
        <time>2019-08-31T15:31:38Z</time>
      </trkpt>
      <trkpt lat="55.989625984802842" lon="-3.390083033591509">
        <ele>7.83</ele>
        <time>2019-08-31T15:31:41Z</time>
      </trkpt>
      <trkpt lat="55.989616010338068" lon="-3.390518976375461">
        <ele>8.310000000000001</ele>
        <time>2019-08-31T15:31:44Z</time>
      </trkpt>
      <trkpt lat="55.989625984802842" lon="-3.39111702516675">
        <ele>8.789999999999999</ele>
        <time>2019-08-31T15:31:49Z</time>
      </trkpt>
      <trkpt lat="55.989649035036564" lon="-3.391405027359724">
        <ele>8.310000000000001</ele>
        <time>2019-08-31T15:31:51Z</time>
      </trkpt>
      <trkpt lat="55.989778032526374" lon="-3.392102988436818">
        <ele>7.35</ele>
        <time>2019-08-31T15:31:58Z</time>
      </trkpt>
      <trkpt lat="55.989836035296321" lon="-3.39255603030324">
        <ele>8.310000000000001</ele>
        <time>2019-08-31T15:32:05Z</time>
      </trkpt>
      <trkpt lat="55.989799993112683" lon="-3.39279399253428">
        <ele>7.83</ele>
        <time>2019-08-31T15:32:08Z</time>
      </trkpt>
      <trkpt lat="55.989785995334387" lon="-3.392882002517581">
        <ele>7.35</ele>
        <time>2019-08-31T15:32:09Z</time>
      </trkpt>
      <trkpt lat="55.989673007279634" lon="-3.393581975251436">
        <ele>7.35</ele>
        <time>2019-08-31T15:32:17Z</time>
      </trkpt>
      <trkpt lat="55.989667978137732" lon="-3.393746009096503">
        <ele>7.83</ele>
        <time>2019-08-31T15:32:19Z</time>
      </trkpt>
      <trkpt lat="55.989659009501338" lon="-3.39416996575892">
        <ele>8.310000000000001</ele>
        <time>2019-08-31T15:32:23Z</time>
      </trkpt>
      <trkpt lat="55.989839974790812" lon="-3.395279981195927">
        <ele>8.789999999999999</ele>
        <time>2019-08-31T15:32:35Z</time>
      </trkpt>
      <trkpt lat="55.9899009950459" lon="-3.395506963133812">
        <ele>8.310000000000001</ele>
        <time>2019-08-31T15:32:38Z</time>
      </trkpt>
      <trkpt lat="55.990005014464259" lon="-3.395806029438973">
        <ele>8.310000000000001</ele>
        <time>2019-08-31T15:32:41Z</time>
      </trkpt>
      <trkpt lat="55.990215986967087" lon="-3.396394019946456">
        <ele>10.710000000000001</ele>
        <time>2019-08-31T15:32:50Z</time>
      </trkpt>
      <trkpt lat="55.990395024418831" lon="-3.396932976320386">
        <ele>11.19</ele>
        <time>2019-08-31T15:32:56Z</time>
      </trkpt>
      <trkpt lat="55.99041698500514" lon="-3.396998019888997">
        <ele>10.710000000000001</ele>
        <time>2019-08-31T15:32:57Z</time>
      </trkpt>
      <trkpt lat="55.990512035787106" lon="-3.397274035960436">
        <ele>10.23</ele>
        <time>2019-08-31T15:33:05Z</time>
      </trkpt>
      <trkpt lat="55.990599039942026" lon="-3.39752197265625">
        <ele>10.710000000000001</ele>
        <time>2019-08-31T15:33:11Z</time>
      </trkpt>
      <trkpt lat="55.990521004423499" lon="-3.397557009011507">
        <ele>10.710000000000001</ele>
        <time>2019-08-31T15:33:12Z</time>
      </trkpt>
      <trkpt lat="55.99045897834003" lon="-3.3975850045681">
        <ele>10.710000000000001</ele>
        <time>2019-08-31T15:33:13Z</time>
      </trkpt>
      <trkpt lat="55.989489024505019" lon="-3.397623980417848">
        <ele>17.440000000000001</ele>
        <time>2019-08-31T15:33:24Z</time>
      </trkpt>
      <trkpt lat="55.988574977964163" lon="-3.397215027362108">
        <ele>25.129999999999999</ele>
        <time>2019-08-31T15:33:35Z</time>
      </trkpt>
      <trkpt lat="55.988364005461335" lon="-3.397149983793497">
        <ele>28.5</ele>
        <time>2019-08-31T15:33:39Z</time>
      </trkpt>
      <trkpt lat="55.987626984715462" lon="-3.396986033767462">
        <ele>37.149999999999999</ele>
        <time>2019-08-31T15:33:48Z</time>
      </trkpt>
      <trkpt lat="55.986383026465774" lon="-3.396771037951112">
        <ele>41.469999999999999</ele>
        <time>2019-08-31T15:33:59Z</time>
      </trkpt>
      <trkpt lat="55.985120963305235" lon="-3.3964469935745">
        <ele>44.359999999999999</ele>
        <time>2019-08-31T15:34:12Z</time>
      </trkpt>
      <trkpt lat="55.983940036967397" lon="-3.39638002216816">
        <ele>47.240000000000002</ele>
        <time>2019-08-31T15:34:24Z</time>
      </trkpt>
      <trkpt lat="55.983853032812476" lon="-3.396387984976172">
        <ele>47.240000000000002</ele>
        <time>2019-08-31T15:34:25Z</time>
      </trkpt>
      <trkpt lat="55.983695033937693" lon="-3.396449005231261">
        <ele>47.240000000000002</ele>
        <time>2019-08-31T15:34:27Z</time>
      </trkpt>
      <trkpt lat="55.983621021732688" lon="-3.396477000787854">
        <ele>46.759999999999998</ele>
        <time>2019-08-31T15:34:29Z</time>
      </trkpt>
      <trkpt lat="55.983406025916338" lon="-3.396622007712722">
        <ele>46.759999999999998</ele>
        <time>2019-08-31T15:34:36Z</time>
      </trkpt>
      <trkpt lat="55.983336037024856" lon="-3.396645979955792">
        <ele>47.240000000000002</ele>
        <time>2019-08-31T15:34:47Z</time>
      </trkpt>
      <trkpt lat="55.983152976259589" lon="-3.396685039624572">
        <ele>47.719999999999999</ele>
        <time>2019-08-31T15:34:50Z</time>
      </trkpt>
      <trkpt lat="55.983097990974784" lon="-3.396726027131081">
        <ele>47.719999999999999</ele>
        <time>2019-08-31T15:34:51Z</time>
      </trkpt>
      <trkpt lat="55.983050968497992" lon="-3.396821999922395">
        <ele>48.68</ele>
        <time>2019-08-31T15:34:52Z</time>
      </trkpt>
      <trkpt lat="55.983031019568443" lon="-3.396911015734077">
        <ele>48.68</ele>
        <time>2019-08-31T15:34:53Z</time>
      </trkpt>
      <trkpt lat="55.98302599042654" lon="-3.397014029324055">
        <ele>49.159999999999997</ele>
        <time>2019-08-31T15:34:54Z</time>
      </trkpt>
      <trkpt lat="55.983053985983133" lon="-3.397104972973466">
        <ele>49.159999999999997</ele>
        <time>2019-08-31T15:34:55Z</time>
      </trkpt>
      <trkpt lat="55.983100002631545" lon="-3.397174039855599">
        <ele>49.159999999999997</ele>
        <time>2019-08-31T15:34:56Z</time>
      </trkpt>
      <trkpt lat="55.983195975422859" lon="-3.397221984341741">
        <ele>49.159999999999997</ele>
        <time>2019-08-31T15:34:57Z</time>
      </trkpt>
      <trkpt lat="55.983234029263258" lon="-3.397242017090321">
        <ele>49.159999999999997</ele>
        <time>2019-08-31T15:34:58Z</time>
      </trkpt>
      <trkpt lat="55.983309969305992" lon="-3.39728401042521">
        <ele>49.159999999999997</ele>
        <time>2019-08-31T15:34:59Z</time>
      </trkpt>
      <trkpt lat="55.983393033966422" lon="-3.397329021245241">
        <ele>48.68</ele>
        <time>2019-08-31T15:35:00Z</time>
      </trkpt>
      <trkpt lat="55.983479032292962" lon="-3.397423988208175">
        <ele>48.68</ele>
        <time>2019-08-31T15:35:01Z</time>
      </trkpt>
      <trkpt lat="55.983552038669586" lon="-3.397538987919688">
        <ele>48.200000000000003</ele>
        <time>2019-08-31T15:35:02Z</time>
      </trkpt>
      <trkpt lat="55.983979012817144" lon="-3.398727038875222">
        <ele>49.159999999999997</ele>
        <time>2019-08-31T15:35:09Z</time>
      </trkpt>
      <trkpt lat="55.984017988666892" lon="-3.398905992507935">
        <ele>49.159999999999997</ele>
        <time>2019-08-31T15:35:10Z</time>
      </trkpt>
      <trkpt lat="55.984218986704946" lon="-3.400527974590659">
        <ele>49.159999999999997</ele>
        <time>2019-08-31T15:35:20Z</time>
      </trkpt>
      <trkpt lat="55.984261985868216" lon="-3.402144005522132">
        <ele>53.969999999999999</ele>
        <time>2019-08-31T15:35:31Z</time>
      </trkpt>
      <trkpt lat="55.9842489939183" lon="-3.402306027710438">
        <ele>53.969999999999999</ele>
        <time>2019-08-31T15:35:32Z</time>
      </trkpt>
      <trkpt lat="55.984174981713295" lon="-3.402573997154832">
        <ele>54.450000000000003</ele>
        <time>2019-08-31T15:35:33Z</time>
      </trkpt>
      <trkpt lat="55.98414396867156" lon="-3.40267701074481">
        <ele>54.450000000000003</ele>
        <time>2019-08-31T15:35:34Z</time>
      </trkpt>
      <trkpt lat="55.984112033620477" lon="-3.40278597548604">
        <ele>54.93</ele>
        <time>2019-08-31T15:35:36Z</time>
      </trkpt>
      <trkpt lat="55.983993010595441" lon="-3.403001977130771">
        <ele>54.93</ele>
        <time>2019-08-31T15:35:38Z</time>
      </trkpt>
      <trkpt lat="55.983942970633507" lon="-3.403146984055638">
        <ele>54.93</ele>
        <time>2019-08-31T15:35:39Z</time>
      </trkpt>
      <trkpt lat="55.983822019770741" lon="-3.403662974014878">
        <ele>54.450000000000003</ele>
        <time>2019-08-31T15:35:42Z</time>
      </trkpt>
      <trkpt lat="55.98377700895071" lon="-3.404007973149419">
        <ele>54.450000000000003</ele>
        <time>2019-08-31T15:35:43Z</time>
      </trkpt>
      <trkpt lat="55.983808021992445" lon="-3.404154991731048">
        <ele>54.450000000000003</ele>
        <time>2019-08-31T15:35:44Z</time>
      </trkpt>
      <trkpt lat="55.983845992013812" lon="-3.404466966167092">
        <ele>54.93</ele>
        <time>2019-08-31T15:35:47Z</time>
      </trkpt>
      <trkpt lat="55.983852026984096" lon="-3.404642986133695">
        <ele>54.93</ele>
        <time>2019-08-31T15:35:48Z</time>
      </trkpt>
      <trkpt lat="55.983848003670573" lon="-3.405026039108634">
        <ele>54.93</ele>
        <time>2019-08-31T15:35:49Z</time>
      </trkpt>
      <trkpt lat="55.983700985088944" lon="-3.406453980132937">
        <ele>52.049999999999997</ele>
        <time>2019-08-31T15:35:56Z</time>
      </trkpt>
      <trkpt lat="55.983878010883927" lon="-3.40847996994853">
        <ele>49.649999999999999</ele>
        <time>2019-08-31T15:36:06Z</time>
      </trkpt>
      <trkpt lat="55.984329963102937" lon="-3.410926982760429">
        <ele>51.57</ele>
        <time>2019-08-31T15:36:18Z</time>
      </trkpt>
      <trkpt lat="55.984947960823774" lon="-3.414196008816361">
        <ele>52.530000000000001</ele>
        <time>2019-08-31T15:36:32Z</time>
      </trkpt>
      <trkpt lat="55.985368983820081" lon="-3.416585018858314">
        <ele>49.159999999999997</ele>
        <time>2019-08-31T15:36:43Z</time>
      </trkpt>
      <trkpt lat="55.985404020175338" lon="-3.417377024888992">
        <ele>51.57</ele>
        <time>2019-08-31T15:36:47Z</time>
      </trkpt>
      <trkpt lat="55.985396979376674" lon="-3.418587958440185">
        <ele>53.490000000000002</ele>
        <time>2019-08-31T15:36:54Z</time>
      </trkpt>
      <trkpt lat="55.98532397300005" lon="-3.419038988649845">
        <ele>53.490000000000002</ele>
        <time>2019-08-31T15:36:57Z</time>
      </trkpt>
      <trkpt lat="55.985206039622426" lon="-3.420195020735264">
        <ele>55.409999999999997</ele>
        <time>2019-08-31T15:37:08Z</time>
      </trkpt>
      <trkpt lat="55.985196987167001" lon="-3.420322006568313">
        <ele>56.369999999999997</ele>
        <time>2019-08-31T15:37:11Z</time>
      </trkpt>
      <trkpt lat="55.98519204184413" lon="-3.420396018773317">
        <ele>56.859999999999999</ele>
        <time>2019-08-31T15:37:21Z</time>
      </trkpt>
      <trkpt lat="55.985120041295886" lon="-3.420578995719552">
        <ele>57.340000000000003</ele>
        <time>2019-08-31T15:37:28Z</time>
      </trkpt>
      <trkpt lat="55.98508601076901" lon="-3.420668011531234">
        <ele>57.82</ele>
        <time>2019-08-31T15:37:29Z</time>
      </trkpt>
      <trkpt lat="55.985048962756991" lon="-3.420762978494167">
        <ele>57.82</ele>
        <time>2019-08-31T15:37:30Z</time>
      </trkpt>
      <trkpt lat="55.984986014664173" lon="-3.420815030112863">
        <ele>57.82</ele>
        <time>2019-08-31T15:37:31Z</time>
      </trkpt>
      <trkpt lat="55.984918037429452" lon="-3.420874960720539">
        <ele>58.299999999999997</ele>
        <time>2019-08-31T15:37:32Z</time>
      </trkpt>
      <trkpt lat="55.984867997467518" lon="-3.420967999845743">
        <ele>58.299999999999997</ele>
        <time>2019-08-31T15:37:33Z</time>
      </trkpt>
      <trkpt lat="55.984817035496235" lon="-3.421061960980296">
        <ele>58.780000000000001</ele>
        <time>2019-08-31T15:37:34Z</time>
      </trkpt>
      <trkpt lat="55.98478501662612" lon="-3.421192970126867">
        <ele>58.780000000000001</ele>
        <time>2019-08-31T15:37:35Z</time>
      </trkpt>
      <trkpt lat="55.984762972220778" lon="-3.421315010637045">
        <ele>58.780000000000001</ele>
        <time>2019-08-31T15:37:36Z</time>
      </trkpt>
      <trkpt lat="55.984741011634469" lon="-3.421435039490461">
        <ele>58.780000000000001</ele>
        <time>2019-08-31T15:37:37Z</time>
      </trkpt>
      <trkpt lat="55.984597010537982" lon="-3.422351013869047">
        <ele>62.619999999999997</ele>
        <time>2019-08-31T15:37:48Z</time>
      </trkpt>
      <trkpt lat="55.984594998881221" lon="-3.422386972233653">
        <ele>63.579999999999998</ele>
        <time>2019-08-31T15:37:57Z</time>
      </trkpt>
      <trkpt lat="55.98457102663815" lon="-3.422768013551831">
        <ele>63.100000000000001</ele>
        <time>2019-08-31T15:38:14Z</time>
      </trkpt>
      <trkpt lat="55.984569014981389" lon="-3.422848982736468">
        <ele>63.100000000000001</ele>
        <time>2019-08-31T15:38:15Z</time>
      </trkpt>
      <trkpt lat="55.984569014981389" lon="-3.422943027690053">
        <ele>62.619999999999997</ele>
        <time>2019-08-31T15:38:17Z</time>
      </trkpt>
      <trkpt lat="55.98459399305284" lon="-3.422969011589885">
        <ele>63.100000000000001</ele>
        <time>2019-08-31T15:38:18Z</time>
      </trkpt>
      <trkpt lat="55.98467999137938" lon="-3.423112006857991">
        <ele>63.100000000000001</ele>
        <time>2019-08-31T15:38:19Z</time>
      </trkpt>
      <trkpt lat="55.984698012471199" lon="-3.423142014071345">
        <ele>63.579999999999998</ele>
        <time>2019-08-31T15:38:20Z</time>
      </trkpt>
      <trkpt lat="55.984748974442482" lon="-3.423148971050978">
        <ele>63.100000000000001</ele>
        <time>2019-08-31T15:38:21Z</time>
      </trkpt>
      <trkpt lat="55.984814018011093" lon="-3.423157017678022">
        <ele>62.619999999999997</ele>
        <time>2019-08-31T15:38:22Z</time>
      </trkpt>
      <trkpt lat="55.984870009124279" lon="-3.423163974657655">
        <ele>62.619999999999997</ele>
        <time>2019-08-31T15:38:23Z</time>
      </trkpt>
      <trkpt lat="55.98491501994431" lon="-3.42313002794981">
        <ele>62.140000000000001</ele>
        <time>2019-08-31T15:38:24Z</time>
      </trkpt>
      <trkpt lat="55.985027002170682" lon="-3.423122987151146">
        <ele>61.659999999999997</ele>
        <time>2019-08-31T15:38:26Z</time>
      </trkpt>
      <trkpt lat="55.985101014375687" lon="-3.423147965222597">
        <ele>61.18</ele>
        <time>2019-08-31T15:38:27Z</time>
      </trkpt>
      <trkpt lat="55.985267981886864" lon="-3.423212002962828">
        <ele>60.700000000000003</ele>
        <time>2019-08-31T15:38:29Z</time>
      </trkpt>
      <trkpt lat="55.986449997872114" lon="-3.423490030691028">
        <ele>55.409999999999997</ele>
        <time>2019-08-31T15:38:37Z</time>
      </trkpt>
      <trkpt lat="55.987741984426975" lon="-3.423242010176182">
        <ele>48.68</ele>
        <time>2019-08-31T15:38:45Z</time>
      </trkpt>
      <trkpt lat="55.989488018676639" lon="-3.422340033575892">
        <ele>43.880000000000003</ele>
        <time>2019-08-31T15:38:56Z</time>
      </trkpt>
      <trkpt lat="55.990987038239837" lon="-3.421371001750231">
        <ele>41.469999999999999</ele>
        <time>2019-08-31T15:39:05Z</time>
      </trkpt>
      <trkpt lat="55.993087962269783" lon="-3.420073986053467">
        <ele>40.990000000000002</ele>
        <time>2019-08-31T15:39:17Z</time>
      </trkpt>
      <trkpt lat="55.995186036452651" lon="-3.418734977021813">
        <ele>44.840000000000003</ele>
        <time>2019-08-31T15:39:28Z</time>
      </trkpt>
      <trkpt lat="55.997443031519651" lon="-3.417314998805523">
        <ele>50.130000000000003</ele>
        <time>2019-08-31T15:39:41Z</time>
      </trkpt>
      <trkpt lat="55.998949008062482" lon="-3.416367005556822">
        <ele>52.530000000000001</ele>
        <time>2019-08-31T15:39:49Z</time>
      </trkpt>
      <trkpt lat="56.000239988788962" lon="-3.415543986484408">
        <ele>57.340000000000003</ele>
        <time>2019-08-31T15:39:56Z</time>
      </trkpt>
      <trkpt lat="56.002343008294702" lon="-3.414217969402671">
        <ele>61.659999999999997</ele>
        <time>2019-08-31T15:40:07Z</time>
      </trkpt>
      <trkpt lat="56.004377966746688" lon="-3.412942998111248">
        <ele>61.659999999999997</ele>
        <time>2019-08-31T15:40:18Z</time>
      </trkpt>
      <trkpt lat="56.006450979039073" lon="-3.411630978807807">
        <ele>57.82</ele>
        <time>2019-08-31T15:40:29Z</time>
      </trkpt>
      <trkpt lat="56.008426006883383" lon="-3.410376040264964">
        <ele>57.340000000000003</ele>
        <time>2019-08-31T15:40:39Z</time>
      </trkpt>
      <trkpt lat="56.010810993611813" lon="-3.408865034580231">
        <ele>53.009999999999998</ele>
        <time>2019-08-31T15:40:51Z</time>
      </trkpt>
      <trkpt lat="56.012889035046101" lon="-3.407558966428042">
        <ele>44.359999999999999</ele>
        <time>2019-08-31T15:41:02Z</time>
      </trkpt>
      <trkpt lat="56.015134966000915" lon="-3.406165977939963">
        <ele>34.740000000000002</ele>
        <time>2019-08-31T15:41:14Z</time>
      </trkpt>
      <trkpt lat="56.017042016610503" lon="-3.405524007976055">
        <ele>28.02</ele>
        <time>2019-08-31T15:41:23Z</time>
      </trkpt>
      <trkpt lat="56.018977984786034" lon="-3.405778985470533">
        <ele>21.289999999999999</ele>
        <time>2019-08-31T15:41:32Z</time>
      </trkpt>
      <trkpt lat="56.020590998232365" lon="-3.406725972890854">
        <ele>19.359999999999999</ele>
        <time>2019-08-31T15:41:40Z</time>
      </trkpt>
      <trkpt lat="56.022597961127758" lon="-3.408104041591287">
        <ele>22.25</ele>
        <time>2019-08-31T15:41:50Z</time>
      </trkpt>
      <trkpt lat="56.024328991770744" lon="-3.408420039340854">
        <ele>28.5</ele>
        <time>2019-08-31T15:41:58Z</time>
      </trkpt>
      <trkpt lat="56.026422036811709" lon="-3.408171012997627">
        <ele>28.98</ele>
        <time>2019-08-31T15:42:08Z</time>
      </trkpt>
      <trkpt lat="56.027965983375907" lon="-3.408046960830689">
        <ele>31.379999999999999</ele>
        <time>2019-08-31T15:42:17Z</time>
      </trkpt>
      <trkpt lat="56.029799021780491" lon="-3.408161038532853">
        <ele>42.920000000000002</ele>
        <time>2019-08-31T15:42:28Z</time>
      </trkpt>
      <trkpt lat="56.03132201358676" lon="-3.408450968563557">
        <ele>46.759999999999998</ele>
        <time>2019-08-31T15:42:35Z</time>
      </trkpt>
      <trkpt lat="56.033209031447768" lon="-3.408794961869717">
        <ele>40.509999999999998</ele>
        <time>2019-08-31T15:42:43Z</time>
      </trkpt>
      <trkpt lat="56.035271985456347" lon="-3.408826980739832">
        <ele>28.98</ele>
        <time>2019-08-31T15:42:52Z</time>
      </trkpt>
      <trkpt lat="56.037108963355422" lon="-3.407913018018007">
        <ele>21.77</ele>
        <time>2019-08-31T15:43:00Z</time>
      </trkpt>
      <trkpt lat="56.039281971752644" lon="-3.406897969543934">
        <ele>13.6</ele>
        <time>2019-08-31T15:43:10Z</time>
      </trkpt>
      <trkpt lat="56.04073497466743" lon="-3.406393965706229">
        <ele>14.08</ele>
        <time>2019-08-31T15:43:20Z</time>
      </trkpt>
      <trkpt lat="56.042535994201899" lon="-3.40572802349925">
        <ele>21.289999999999999</ele>
        <time>2019-08-31T15:43:28Z</time>
      </trkpt>
      <trkpt lat="56.044101985171437" lon="-3.404636029154062">
        <ele>27.530000000000001</ele>
        <time>2019-08-31T15:43:35Z</time>
      </trkpt>
      <trkpt lat="56.045361030846834" lon="-3.40293399989605">
        <ele>33.780000000000001</ele>
        <time>2019-08-31T15:43:41Z</time>
      </trkpt>
      <trkpt lat="56.04664396494627" lon="-3.399832025170326">
        <ele>39.07</ele>
        <time>2019-08-31T15:43:49Z</time>
      </trkpt>
      <trkpt lat="56.047798991203308" lon="-3.396683027967811">
        <ele>43.399999999999999</ele>
        <time>2019-08-31T15:43:57Z</time>
      </trkpt>
      <trkpt lat="56.048931973055005" lon="-3.393711978569627">
        <ele>46.759999999999998</ele>
        <time>2019-08-31T15:44:05Z</time>
      </trkpt>
      <trkpt lat="56.050109965726733" lon="-3.391425982117653">
        <ele>49.649999999999999</ele>
        <time>2019-08-31T15:44:12Z</time>
      </trkpt>
      <trkpt lat="56.051677968353033" lon="-3.389477021992207">
        <ele>58.299999999999997</ele>
        <time>2019-08-31T15:44:20Z</time>
      </trkpt>
      <trkpt lat="56.053747963160276" lon="-3.388021001592279">
        <ele>67.909999999999997</ele>
        <time>2019-08-31T15:44:29Z</time>
      </trkpt>
      <trkpt lat="56.055593993514776" lon="-3.387590004131198">
        <ele>75.599999999999994</ele>
        <time>2019-08-31T15:44:37Z</time>
      </trkpt>
      <trkpt lat="56.056851027533412" lon="-3.387521021068096">
        <ele>77.040000000000006</ele>
        <time>2019-08-31T15:44:44Z</time>
      </trkpt>
      <trkpt lat="56.059010038152337" lon="-3.387463018298149">
        <ele>79.930000000000007</ele>
        <time>2019-08-31T15:44:57Z</time>
      </trkpt>
      <trkpt lat="56.060471003875136" lon="-3.387419013306499">
        <ele>82.329999999999998</ele>
        <time>2019-08-31T15:45:07Z</time>
      </trkpt>
      <trkpt lat="56.062322985380888" lon="-3.387363022193313">
        <ele>83.769999999999996</ele>
        <time>2019-08-31T15:45:20Z</time>
      </trkpt>
      <trkpt lat="56.064197011291981" lon="-3.387307031080127">
        <ele>88.579999999999998</ele>
        <time>2019-08-31T15:45:32Z</time>
      </trkpt>
      <trkpt lat="56.065412973985076" lon="-3.387269983068109">
        <ele>93.390000000000001</ele>
        <time>2019-08-31T15:45:40Z</time>
      </trkpt>
      <trkpt lat="56.0657640080899" lon="-3.387259002774954">
        <ele>93.870000000000005</ele>
        <time>2019-08-31T15:45:43Z</time>
      </trkpt>
      <trkpt lat="56.065875990316272" lon="-3.387255985289812">
        <ele>93.390000000000001</ele>
        <time>2019-08-31T15:45:44Z</time>
      </trkpt>
      <trkpt lat="56.066948035731912" lon="-3.387304013594985">
        <ele>86.659999999999997</ele>
        <time>2019-08-31T15:45:52Z</time>
      </trkpt>
      <trkpt lat="56.068521989509463" lon="-3.387552034109831">
        <ele>90.5</ele>
        <time>2019-08-31T15:46:01Z</time>
      </trkpt>
      <trkpt lat="56.070827012881637" lon="-3.38823800906539">
        <ele>97.709999999999994</ele>
        <time>2019-08-31T15:46:14Z</time>
      </trkpt>
      <trkpt lat="56.072893990203738" lon="-3.389249034225941">
        <ele>104.44</ele>
        <time>2019-08-31T15:46:26Z</time>
      </trkpt>
      <trkpt lat="56.074997009709477" lon="-3.39068996720016">
        <ele>109.25</ele>
        <time>2019-08-31T15:46:39Z</time>
      </trkpt>
      <trkpt lat="56.076838010922074" lon="-3.392268028110266">
        <ele>110.20999999999999</ele>
        <time>2019-08-31T15:46:52Z</time>
      </trkpt>
      <trkpt lat="56.078650010749698" lon="-3.394152028486133">
        <ele>111.17</ele>
        <time>2019-08-31T15:47:05Z</time>
      </trkpt>
      <trkpt lat="56.080176020041108" lon="-3.39612303301692">
        <ele>111.65000000000001</ele>
        <time>2019-08-31T15:47:17Z</time>
      </trkpt>
      <trkpt lat="56.081119989976287" lon="-3.397381994873285">
        <ele>112.61</ele>
        <time>2019-08-31T15:47:24Z</time>
      </trkpt>
      <trkpt lat="56.081253010779619" lon="-3.397559020668268">
        <ele>112.61</ele>
        <time>2019-08-31T15:47:25Z</time>
      </trkpt>
      <trkpt lat="56.08243502676487" lon="-3.399107996374369">
        <ele>112.61</ele>
        <time>2019-08-31T15:47:35Z</time>
      </trkpt>
      <trkpt lat="56.084143007174134" lon="-3.400888983160257">
        <ele>113.09</ele>
        <time>2019-08-31T15:47:48Z</time>
      </trkpt>
      <trkpt lat="56.084969965741038" lon="-3.401502035558224">
        <ele>115.5</ele>
        <time>2019-08-31T15:47:55Z</time>
      </trkpt>
      <trkpt lat="56.085657030344009" lon="-3.401874024420977">
        <ele>116.45999999999999</ele>
        <time>2019-08-31T15:48:02Z</time>
      </trkpt>
      <trkpt lat="56.086771991103888" lon="-3.402317008003593">
        <ele>121.73999999999999</ele>
        <time>2019-08-31T15:48:09Z</time>
      </trkpt>
      <trkpt lat="56.088353991508484" lon="-3.402471989393234">
        <ele>127.98999999999999</ele>
        <time>2019-08-31T15:48:16Z</time>
      </trkpt>
      <trkpt lat="56.090452987700701" lon="-3.402044009417296">
        <ele>136.63999999999999</ele>
        <time>2019-08-31T15:48:24Z</time>
      </trkpt>
      <trkpt lat="56.092633036896586" lon="-3.400632999837399">
        <ele>145.30000000000001</ele>
        <time>2019-08-31T15:48:33Z</time>
      </trkpt>
      <trkpt lat="56.094538997858763" lon="-3.398476000875235">
        <ele>152.50999999999999</ele>
        <time>2019-08-31T15:48:42Z</time>
      </trkpt>
      <trkpt lat="56.09687302261591" lon="-3.395444015040994">
        <ele>163.56</ele>
        <time>2019-08-31T15:48:53Z</time>
      </trkpt>
      <trkpt lat="56.100006010383368" lon="-3.391423970460892">
        <ele>172.69</ele>
        <time>2019-08-31T15:49:09Z</time>
      </trkpt>
      <trkpt lat="56.102069970220327" lon="-3.389704003930092">
        <ele>172.69</ele>
        <time>2019-08-31T15:49:17Z</time>
      </trkpt>
      <trkpt lat="56.103905020281672" lon="-3.388982992619276">
        <ele>169.81</ele>
        <time>2019-08-31T15:49:25Z</time>
      </trkpt>
      <trkpt lat="56.104108029976487" lon="-3.38892700150609">
        <ele>169.33000000000001</ele>
        <time>2019-08-31T15:49:26Z</time>
      </trkpt>
      <trkpt lat="56.104310033842921" lon="-3.388886013999581">
        <ele>168.84999999999999</ele>
        <time>2019-08-31T15:49:27Z</time>
      </trkpt>
      <trkpt lat="56.106293024495244" lon="-3.388940999284387">
        <ele>163.56</ele>
        <time>2019-08-31T15:49:37Z</time>
      </trkpt>
      <trkpt lat="56.108405012637377" lon="-3.389855967834592">
        <ele>157.78999999999999</ele>
        <time>2019-08-31T15:49:47Z</time>
      </trkpt>
      <trkpt lat="56.11068899743259" lon="-3.391441991552711">
        <ele>151.53999999999999</ele>
        <time>2019-08-31T15:49:57Z</time>
      </trkpt>
      <trkpt lat="56.11354898661375" lon="-3.393342001363635">
        <ele>142.41</ele>
        <time>2019-08-31T15:50:10Z</time>
      </trkpt>
      <trkpt lat="56.115613030269742" lon="-3.393957987427712">
        <ele>136.16</ele>
        <time>2019-08-31T15:50:19Z</time>
      </trkpt>
      <trkpt lat="56.117921993136406" lon="-3.393722036853433">
        <ele>132.80000000000001</ele>
        <time>2019-08-31T15:50:29Z</time>
      </trkpt>
      <trkpt lat="56.12018896266818" lon="-3.392850989475846">
        <ele>137.61000000000001</ele>
        <time>2019-08-31T15:50:39Z</time>
      </trkpt>
      <trkpt lat="56.121853021904826" lon="-3.392172977328301">
        <ele>145.30000000000001</ele>
        <time>2019-08-31T15:50:47Z</time>
      </trkpt>
      <trkpt lat="56.124381003901362" lon="-3.391578029841185">
        <ele>158.75</ele>
        <time>2019-08-31T15:50:59Z</time>
      </trkpt>
      <trkpt lat="56.126407999545336" lon="-3.391930991783738">
        <ele>169.33000000000001</ele>
        <time>2019-08-31T15:51:08Z</time>
      </trkpt>
      <trkpt lat="56.128302980214357" lon="-3.393005970865488">
        <ele>175.09999999999999</ele>
        <time>2019-08-31T15:51:16Z</time>
      </trkpt>
      <trkpt lat="56.131178978830576" lon="-3.395299008116126">
        <ele>179.90000000000001</ele>
        <time>2019-08-31T15:51:28Z</time>
      </trkpt>
      <trkpt lat="56.13385297358036" lon="-3.397169010713697">
        <ele>178.94</ele>
        <time>2019-08-31T15:51:40Z</time>
      </trkpt>
      <trkpt lat="56.136203007772565" lon="-3.397856997326016">
        <ele>173.16999999999999</ele>
        <time>2019-08-31T15:51:50Z</time>
      </trkpt>
      <trkpt lat="56.138252969831228" lon="-3.397737974300981">
        <ele>163.08000000000001</ele>
        <time>2019-08-31T15:51:59Z</time>
      </trkpt>
      <trkpt lat="56.140543995425105" lon="-3.396755028516054">
        <ele>152.03</ele>
        <time>2019-08-31T15:52:09Z</time>
      </trkpt>
      <trkpt lat="56.142712980508804" lon="-3.395061967894435">
        <ele>144.34</ele>
        <time>2019-08-31T15:52:19Z</time>
      </trkpt>
      <trkpt lat="56.144702006131411" lon="-3.393679037690163">
        <ele>138.56999999999999</ele>
        <time>2019-08-31T15:52:28Z</time>
      </trkpt>
      <trkpt lat="56.146821035072207" lon="-3.393002031370997">
        <ele>135.68000000000001</ele>
        <time>2019-08-31T15:52:37Z</time>
      </trkpt>
      <trkpt lat="56.148939980193973" lon="-3.393219960853458">
        <ele>133.75999999999999</ele>
        <time>2019-08-31T15:52:46Z</time>
      </trkpt>
      <trkpt lat="56.150988014414907" lon="-3.394258981570602">
        <ele>133.75999999999999</ele>
        <time>2019-08-31T15:52:55Z</time>
      </trkpt>
      <trkpt lat="56.152837984263897" lon="-3.396003004163504">
        <ele>132.80000000000001</ele>
        <time>2019-08-31T15:53:04Z</time>
      </trkpt>
      <trkpt lat="56.155052985996008" lon="-3.398440964519978">
        <ele>129.91999999999999</ele>
        <time>2019-08-31T15:53:16Z</time>
      </trkpt>
      <trkpt lat="56.157809039577842" lon="-3.400726960971952">
        <ele>127.03</ele>
        <time>2019-08-31T15:53:31Z</time>
      </trkpt>
      <trkpt lat="56.160812024027109" lon="-3.402426978573203">
        <ele>124.63</ele>
        <time>2019-08-31T15:53:44Z</time>
      </trkpt>
      <trkpt lat="56.163738984614611" lon="-3.403317974880338">
        <ele>121.26000000000001</ele>
        <time>2019-08-31T15:53:57Z</time>
      </trkpt>
      <trkpt lat="56.166875995695591" lon="-3.404111992567778">
        <ele>119.34</ele>
        <time>2019-08-31T15:54:10Z</time>
      </trkpt>
      <trkpt lat="56.169489976018667" lon="-3.405404984951019">
        <ele>117.42</ele>
        <time>2019-08-31T15:54:21Z</time>
      </trkpt>
      <trkpt lat="56.172191966325045" lon="-3.40744698420167">
        <ele>115.5</ele>
        <time>2019-08-31T15:54:33Z</time>
      </trkpt>
      <trkpt lat="56.17516603320837" lon="-3.410130031406879">
        <ele>115.5</ele>
        <time>2019-08-31T15:54:47Z</time>
      </trkpt>
      <trkpt lat="56.177543979138136" lon="-3.412089971825481">
        <ele>115.98</ele>
        <time>2019-08-31T15:54:59Z</time>
      </trkpt>
      <trkpt lat="56.180370021611452" lon="-3.414203971624374">
        <ele>118.38</ele>
        <time>2019-08-31T15:55:12Z</time>
      </trkpt>
      <trkpt lat="56.183414999395609" lon="-3.416247982531786">
        <ele>122.22</ele>
        <time>2019-08-31T15:55:26Z</time>
      </trkpt>
      <trkpt lat="56.186516974121332" lon="-3.418067023158073">
        <ele>124.63</ele>
        <time>2019-08-31T15:55:40Z</time>
      </trkpt>
      <trkpt lat="56.190086994320154" lon="-3.419917998835445">
        <ele>125.59</ele>
        <time>2019-08-31T15:55:56Z</time>
      </trkpt>
      <trkpt lat="56.192618999630213" lon="-3.421402014791966">
        <ele>124.63</ele>
        <time>2019-08-31T15:56:07Z</time>
      </trkpt>
      <trkpt lat="56.195301041007042" lon="-3.423677030950785">
        <ele>122.70999999999999</ele>
        <time>2019-08-31T15:56:19Z</time>
      </trkpt>
      <trkpt lat="56.197843020781875" lon="-3.426585970446467">
        <ele>119.34</ele>
        <time>2019-08-31T15:56:31Z</time>
      </trkpt>
      <trkpt lat="56.200371002778411" lon="-3.429910987615585">
        <ele>120.78</ele>
        <time>2019-08-31T15:56:44Z</time>
      </trkpt>
      <trkpt lat="56.203145999461412" lon="-3.432822022587061">
        <ele>123.67</ele>
        <time>2019-08-31T15:56:57Z</time>
      </trkpt>
      <trkpt lat="56.206028033047915" lon="-3.435072982683778">
        <ele>125.59</ele>
        <time>2019-08-31T15:57:10Z</time>
      </trkpt>
      <trkpt lat="56.208834964782" lon="-3.436548030003905">
        <ele>127.51000000000001</ele>
        <time>2019-08-31T15:57:22Z</time>
      </trkpt>
      <trkpt lat="56.210742015391588" lon="-3.43720399774611">
        <ele>127.98999999999999</ele>
        <time>2019-08-31T15:57:30Z</time>
      </trkpt>
      <trkpt lat="56.213913979008794" lon="-3.437700038775802">
        <ele>128.47</ele>
        <time>2019-08-31T15:57:43Z</time>
      </trkpt>
      <trkpt lat="56.21686901897192" lon="-3.437523012980819">
        <ele>127.98999999999999</ele>
        <time>2019-08-31T15:57:55Z</time>
      </trkpt>
      <trkpt lat="56.219318965449929" lon="-3.436914989724755">
        <ele>126.06999999999999</ele>
        <time>2019-08-31T15:58:05Z</time>
      </trkpt>
      <trkpt lat="56.222281968221068" lon="-3.43557002954185">
        <ele>125.11</ele>
        <time>2019-08-31T15:58:17Z</time>
      </trkpt>
      <trkpt lat="56.225390983745456" lon="-3.433339018374682">
        <ele>124.15000000000001</ele>
        <time>2019-08-31T15:58:31Z</time>
      </trkpt>
      <trkpt lat="56.22752602212131" lon="-3.430982027202845">
        <ele>122.22</ele>
        <time>2019-08-31T15:58:40Z</time>
      </trkpt>
      <trkpt lat="56.229366017505527" lon="-3.4278379753232">
        <ele>122.70999999999999</ele>
        <time>2019-08-31T15:58:50Z</time>
      </trkpt>
      <trkpt lat="56.230595977976918" lon="-3.424632987007499">
        <ele>124.63</ele>
        <time>2019-08-31T15:58:58Z</time>
      </trkpt>
      <trkpt lat="56.231507007032633" lon="-3.420560974627733">
        <ele>125.59</ele>
        <time>2019-08-31T15:59:07Z</time>
      </trkpt>
      <trkpt lat="56.231938004493713" lon="-3.416717033833265">
        <ele>126.06999999999999</ele>
        <time>2019-08-31T15:59:15Z</time>
      </trkpt>
      <trkpt lat="56.231976980343461" lon="-3.412482999265194">
        <ele>127.03</ele>
        <time>2019-08-31T15:59:24Z</time>
      </trkpt>
      <trkpt lat="56.232299013063312" lon="-3.408063976094127">
        <ele>127.98999999999999</ele>
        <time>2019-08-31T15:59:34Z</time>
      </trkpt>
      <trkpt lat="56.232953974977136" lon="-3.404627982527018">
        <ele>128.47</ele>
        <time>2019-08-31T15:59:42Z</time>
      </trkpt>
      <trkpt lat="56.23405602760613" lon="-3.401096016168594">
        <ele>128.94999999999999</ele>
        <time>2019-08-31T15:59:52Z</time>
      </trkpt>
      <trkpt lat="56.235682033002377" lon="-3.397672008723021">
        <ele>129.43000000000001</ele>
        <time>2019-08-31T16:00:02Z</time>
      </trkpt>
      <trkpt lat="56.238719969987869" lon="-3.392511019483209">
        <ele>131.84</ele>
        <time>2019-08-31T16:00:17Z</time>
      </trkpt>
      <trkpt lat="56.241711974143982" lon="-3.387498976662755">
        <ele>136.63999999999999</ele>
        <time>2019-08-31T16:00:33Z</time>
      </trkpt>
      <trkpt lat="56.243381984531879" lon="-3.384755998849869">
        <ele>137.61000000000001</ele>
        <time>2019-08-31T16:00:42Z</time>
      </trkpt>
      <trkpt lat="56.245563039556146" lon="-3.381762988865376">
        <ele>143.84999999999999</ele>
        <time>2019-08-31T16:00:53Z</time>
      </trkpt>
      <trkpt lat="56.247327011078596" lon="-3.379963980987668">
        <ele>147.69999999999999</ele>
        <time>2019-08-31T16:01:02Z</time>
      </trkpt>
      <trkpt lat="56.249489039182663" lon="-3.378432020545006">
        <ele>151.06</ele>
        <time>2019-08-31T16:01:12Z</time>
      </trkpt>
      <trkpt lat="56.252312986180186" lon="-3.377250004559755">
        <ele>154.43000000000001</ele>
        <time>2019-08-31T16:01:23Z</time>
      </trkpt>
      <trkpt lat="56.255188984796405" lon="-3.376951022073627">
        <ele>154.91</ele>
        <time>2019-08-31T16:01:34Z</time>
      </trkpt>
      <trkpt lat="56.257690982893109" lon="-3.377330973744392">
        <ele>151.06</ele>
        <time>2019-08-31T16:01:44Z</time>
      </trkpt>
      <trkpt lat="56.26067996956408" lon="-3.378346022218466">
        <ele>146.25999999999999</ele>
        <time>2019-08-31T16:01:56Z</time>
      </trkpt>
      <trkpt lat="56.263225972652435" lon="-3.37970900349319">
        <ele>139.53</ele>
        <time>2019-08-31T16:02:06Z</time>
      </trkpt>
      <trkpt lat="56.266143964603543" lon="-3.381932973861694">
        <ele>137.13</ele>
        <time>2019-08-31T16:02:18Z</time>
      </trkpt>
      <trkpt lat="56.267627980560064" lon="-3.383374996483326">
        <ele>134.24000000000001</ele>
        <time>2019-08-31T16:02:26Z</time>
      </trkpt>
      <trkpt lat="56.268931031227112" lon="-3.385083982720971">
        <ele>137.61000000000001</ele>
        <time>2019-08-31T16:02:33Z</time>
      </trkpt>
      <trkpt lat="56.270287977531552" lon="-3.387771975249052">
        <ele>140.97</ele>
        <time>2019-08-31T16:02:41Z</time>
      </trkpt>
      <trkpt lat="56.271940972656012" lon="-3.391837030649185">
        <ele>145.78</ele>
        <time>2019-08-31T16:02:53Z</time>
      </trkpt>
      <trkpt lat="56.273198006674647" lon="-3.394433995708823">
        <ele>147.69999999999999</ele>
        <time>2019-08-31T16:03:01Z</time>
      </trkpt>
      <trkpt lat="56.27481403760612" lon="-3.396450011059642">
        <ele>149.62</ele>
        <time>2019-08-31T16:03:09Z</time>
      </trkpt>
      <trkpt lat="56.276435013860464" lon="-3.39747897349298">
        <ele>149.13999999999999</ele>
        <time>2019-08-31T16:03:16Z</time>
      </trkpt>
      <trkpt lat="56.27814601175487" lon="-3.397786002606154">
        <ele>148.18000000000001</ele>
        <time>2019-08-31T16:03:23Z</time>
      </trkpt>
      <trkpt lat="56.279875030741096" lon="-3.397538987919688">
        <ele>147.22</ele>
        <time>2019-08-31T16:03:30Z</time>
      </trkpt>
      <trkpt lat="56.282581966370344" lon="-3.396777994930744">
        <ele>137.61000000000001</ele>
        <time>2019-08-31T16:03:41Z</time>
      </trkpt>
      <trkpt lat="56.285286974161863" lon="-3.395656999200583">
        <ele>131.84</ele>
        <time>2019-08-31T16:03:52Z</time>
      </trkpt>
      <trkpt lat="56.287155970931053" lon="-3.394171977415681">
        <ele>129.43000000000001</ele>
        <time>2019-08-31T16:04:00Z</time>
      </trkpt>
      <trkpt lat="56.288594976067543" lon="-3.392212959006429">
        <ele>123.67</ele>
        <time>2019-08-31T16:04:07Z</time>
      </trkpt>
      <trkpt lat="56.29077703692019" lon="-3.389122970402241">
        <ele>118.86</ele>
        <time>2019-08-31T16:04:18Z</time>
      </trkpt>
      <trkpt lat="56.292530028149486" lon="-3.387227989733219">
        <ele>121.73999999999999</ele>
        <time>2019-08-31T16:04:26Z</time>
      </trkpt>
      <trkpt lat="56.294875033199787" lon="-3.385603995993733">
        <ele>129.91999999999999</ele>
        <time>2019-08-31T16:04:36Z</time>
      </trkpt>
      <trkpt lat="56.297458000481129" lon="-3.384760022163391">
        <ele>141.44999999999999</ele>
        <time>2019-08-31T16:04:46Z</time>
      </trkpt>
      <trkpt lat="56.299981959164143" lon="-3.384735966101289">
        <ele>152.99000000000001</ele>
        <time>2019-08-31T16:04:56Z</time>
      </trkpt>
      <trkpt lat="56.302177011966705" lon="-3.38540299795568">
        <ele>157.78999999999999</ele>
        <time>2019-08-31T16:05:05Z</time>
      </trkpt>
      <trkpt lat="56.303496994078159" lon="-3.38587699458003">
        <ele>159.72</ele>
        <time>2019-08-31T16:05:12Z</time>
      </trkpt>
      <trkpt lat="56.305224001407623" lon="-3.385972967371345">
        <ele>159.72</ele>
        <time>2019-08-31T16:05:20Z</time>
      </trkpt>
      <trkpt lat="56.306746993213892" lon="-3.385346001014113">
        <ele>156.83000000000001</ele>
        <time>2019-08-31T16:05:26Z</time>
      </trkpt>
      <trkpt lat="56.308265039697289" lon="-3.383957035839558">
        <ele>148.66</ele>
        <time>2019-08-31T16:05:32Z</time>
      </trkpt>
      <trkpt lat="56.309541016817093" lon="-3.381850998848677">
        <ele>141.93000000000001</ele>
        <time>2019-08-31T16:05:39Z</time>
      </trkpt>
      <trkpt lat="56.310840966179967" lon="-3.378727985545993">
        <ele>133.75999999999999</ele>
        <time>2019-08-31T16:05:48Z</time>
      </trkpt>
      <trkpt lat="56.31230503320694" lon="-3.37483199313283">
        <ele>120.3</ele>
        <time>2019-08-31T16:05:59Z</time>
      </trkpt>
      <trkpt lat="56.313571035861969" lon="-3.372874986380339">
        <ele>112.61</ele>
        <time>2019-08-31T16:06:06Z</time>
      </trkpt>
      <trkpt lat="56.314780041575432" lon="-3.372072000056505">
        <ele>105.40000000000001</ele>
        <time>2019-08-31T16:06:11Z</time>
      </trkpt>
      <trkpt lat="56.316315019503236" lon="-3.372091026976705">
        <ele>95.790000000000006</ele>
        <time>2019-08-31T16:06:17Z</time>
      </trkpt>
      <trkpt lat="56.317742960527539" lon="-3.373039020225406">
        <ele>87.620000000000005</ele>
        <time>2019-08-31T16:06:23Z</time>
      </trkpt>
      <trkpt lat="56.318763960152864" lon="-3.374741971492767">
        <ele>82.329999999999998</ele>
        <time>2019-08-31T16:06:29Z</time>
      </trkpt>
      <trkpt lat="56.319468962028623" lon="-3.377059986814857">
        <ele>78</ele>
        <time>2019-08-31T16:06:36Z</time>
      </trkpt>
      <trkpt lat="56.319766016677022" lon="-3.379879994317889">
        <ele>71.760000000000005</ele>
        <time>2019-08-31T16:06:43Z</time>
      </trkpt>
      <trkpt lat="56.320033986121416" lon="-3.384394990280271">
        <ele>62.619999999999997</ele>
        <time>2019-08-31T16:06:54Z</time>
      </trkpt>
      <trkpt lat="56.320542013272643" lon="-3.387902984395623">
        <ele>58.299999999999997</ele>
        <time>2019-08-31T16:07:03Z</time>
      </trkpt>
      <trkpt lat="56.321544991806149" lon="-3.391700992360711">
        <ele>53.490000000000002</ele>
        <time>2019-08-31T16:07:13Z</time>
      </trkpt>
      <trkpt lat="56.322775036096573" lon="-3.39457699097693">
        <ele>51.57</ele>
        <time>2019-08-31T16:07:22Z</time>
      </trkpt>
      <trkpt lat="56.324282018467784" lon="-3.396533997729421">
        <ele>49.649999999999999</ele>
        <time>2019-08-31T16:07:30Z</time>
      </trkpt>
      <trkpt lat="56.326212035492063" lon="-3.398018013685942">
        <ele>46.280000000000001</ele>
        <time>2019-08-31T16:07:39Z</time>
      </trkpt>
      <trkpt lat="56.328338021412492" lon="-3.399213021621108">
        <ele>43.880000000000003</ele>
        <time>2019-08-31T16:07:48Z</time>
      </trkpt>
      <trkpt lat="56.330027980729938" lon="-3.399795982986689">
        <ele>40.509999999999998</ele>
        <time>2019-08-31T16:07:56Z</time>
      </trkpt>
      <trkpt lat="56.331914998590946" lon="-3.40009898878634">
        <ele>38.590000000000003</ele>
        <time>2019-08-31T16:08:05Z</time>
      </trkpt>
      <trkpt lat="56.334481034427881" lon="-3.399974014610052">
        <ele>33.780000000000001</ele>
        <time>2019-08-31T16:08:16Z</time>
      </trkpt>
      <trkpt lat="56.337005998939276" lon="-3.399214027449489">
        <ele>28.98</ele>
        <time>2019-08-31T16:08:28Z</time>
      </trkpt>
      <trkpt lat="56.339802034199238" lon="-3.398185987025499">
        <ele>27.050000000000001</ele>
        <time>2019-08-31T16:08:41Z</time>
      </trkpt>
      <trkpt lat="56.342123989015818" lon="-3.397572012618184">
        <ele>25.609999999999999</ele>
        <time>2019-08-31T16:08:51Z</time>
      </trkpt>
      <trkpt lat="56.344988001510501" lon="-3.397043030709028">
        <ele>22.25</ele>
        <time>2019-08-31T16:09:03Z</time>
      </trkpt>
      <trkpt lat="56.346905026584864" lon="-3.396870028227568">
        <ele>20.809999999999999</ele>
        <time>2019-08-31T16:09:12Z</time>
      </trkpt>
      <trkpt lat="56.348567996174097" lon="-3.397011011838913">
        <ele>19.84</ele>
        <time>2019-08-31T16:09:21Z</time>
      </trkpt>
      <trkpt lat="56.350387036800385" lon="-3.397599002346396">
        <ele>19.84</ele>
        <time>2019-08-31T16:09:29Z</time>
      </trkpt>
      <trkpt lat="56.352475974708796" lon="-3.39885301887989">
        <ele>18.399999999999999</ele>
        <time>2019-08-31T16:09:39Z</time>
      </trkpt>
      <trkpt lat="56.355111999437213" lon="-3.401055028662086">
        <ele>23.690000000000001</ele>
        <time>2019-08-31T16:09:51Z</time>
      </trkpt>
      <trkpt lat="56.35652300901711" lon="-3.402681034058332">
        <ele>28.02</ele>
        <time>2019-08-31T16:09:59Z</time>
      </trkpt>
      <trkpt lat="56.357997972518206" lon="-3.404795033857226">
        <ele>30.420000000000002</ele>
        <time>2019-08-31T16:10:08Z</time>
      </trkpt>
      <trkpt lat="56.359590031206608" lon="-3.407540023326874">
        <ele>35.229999999999997</ele>
        <time>2019-08-31T16:10:17Z</time>
      </trkpt>
      <trkpt lat="56.360707003623247" lon="-3.410100024193525">
        <ele>38.590000000000003</ele>
        <time>2019-08-31T16:10:25Z</time>
      </trkpt>
      <trkpt lat="56.361937969923019" lon="-3.413560995832086">
        <ele>44.840000000000003</ele>
        <time>2019-08-31T16:10:36Z</time>
      </trkpt>
      <trkpt lat="56.362738022580743" lon="-3.416460966691375">
        <ele>51.090000000000003</ele>
        <time>2019-08-31T16:10:45Z</time>
      </trkpt>
      <trkpt lat="56.363747036084533" lon="-3.419943982735276">
        <ele>61.18</ele>
        <time>2019-08-31T16:10:58Z</time>
      </trkpt>
      <trkpt lat="56.365028964355588" lon="-3.422388983890414">
        <ele>65.989999999999995</ele>
        <time>2019-08-31T16:11:07Z</time>
      </trkpt>
      <trkpt lat="56.365835973992944" lon="-3.423382993787527">
        <ele>67.430000000000007</ele>
        <time>2019-08-31T16:11:11Z</time>
      </trkpt>
      <trkpt lat="56.366178961470723" lon="-3.423683987930417">
        <ele>68.390000000000001</ele>
        <time>2019-08-31T16:11:14Z</time>
      </trkpt>
      <trkpt lat="56.367647973820567" lon="-3.424194026738405">
        <ele>67.909999999999997</ele>
        <time>2019-08-31T16:11:22Z</time>
      </trkpt>
      <trkpt lat="56.368908025324345" lon="-3.424010965973139">
        <ele>65.030000000000001</ele>
        <time>2019-08-31T16:11:30Z</time>
      </trkpt>
      <trkpt lat="56.369077004492283" lon="-3.423966038972139">
        <ele>65.030000000000001</ele>
        <time>2019-08-31T16:11:31Z</time>
      </trkpt>
      <trkpt lat="56.371355960145593" lon="-3.423422975465655">
        <ele>69.349999999999994</ele>
        <time>2019-08-31T16:11:44Z</time>
      </trkpt>
      <trkpt lat="56.371782012283802" lon="-3.423466980457306">
        <ele>68.390000000000001</ele>
        <time>2019-08-31T16:11:47Z</time>
      </trkpt>
      <trkpt lat="56.371922995895147" lon="-3.423507967963815">
        <ele>67.909999999999997</ele>
        <time>2019-08-31T16:11:48Z</time>
      </trkpt>
      <trkpt lat="56.373115992173553" lon="-3.424010965973139">
        <ele>63.100000000000001</ele>
        <time>2019-08-31T16:11:57Z</time>
      </trkpt>
      <trkpt lat="56.373327970504761" lon="-3.424172988161445">
        <ele>61.659999999999997</ele>
        <time>2019-08-31T16:11:59Z</time>
      </trkpt>
      <trkpt lat="56.373426960781217" lon="-3.42424800619483">
        <ele>61.18</ele>
        <time>2019-08-31T16:12:00Z</time>
      </trkpt>
      <trkpt lat="56.373527962714434" lon="-3.424324030056596">
        <ele>60.700000000000003</ele>
        <time>2019-08-31T16:12:01Z</time>
      </trkpt>
      <trkpt lat="56.373617984354496" lon="-3.424434000626206">
        <ele>59.740000000000002</ele>
        <time>2019-08-31T16:12:02Z</time>
      </trkpt>
      <trkpt lat="56.373704988509417" lon="-3.424557968974114">
        <ele>59.259999999999998</ele>
        <time>2019-08-31T16:12:03Z</time>
      </trkpt>
      <trkpt lat="56.373795010149479" lon="-3.424685960635543">
        <ele>58.780000000000001</ele>
        <time>2019-08-31T16:12:04Z</time>
      </trkpt>
      <trkpt lat="56.373873967677355" lon="-3.424832979217172">
        <ele>57.82</ele>
        <time>2019-08-31T16:12:05Z</time>
      </trkpt>
      <trkpt lat="56.373953009024262" lon="-3.424991983920336">
        <ele>57.340000000000003</ele>
        <time>2019-08-31T16:12:06Z</time>
      </trkpt>
      <trkpt lat="56.374009000137448" lon="-3.425164986401796">
        <ele>56.369999999999997</ele>
        <time>2019-08-31T16:12:07Z</time>
      </trkpt>
      <trkpt lat="56.374053005129099" lon="-3.425359027460218">
        <ele>55.890000000000001</ele>
        <time>2019-08-31T16:12:08Z</time>
      </trkpt>
      <trkpt lat="56.37409801594913" lon="-3.425556002184749">
        <ele>54.93</ele>
        <time>2019-08-31T16:12:09Z</time>
      </trkpt>
      <trkpt lat="56.374286022037268" lon="-3.426382038742304">
        <ele>52.049999999999997</ele>
        <time>2019-08-31T16:12:13Z</time>
      </trkpt>
      <trkpt lat="56.374626997858286" lon="-3.427541004493833">
        <ele>49.159999999999997</ele>
        <time>2019-08-31T16:12:18Z</time>
      </trkpt>
      <trkpt lat="56.3747229706496" lon="-3.427721969783306">
        <ele>48.68</ele>
        <time>2019-08-31T16:12:19Z</time>
      </trkpt>
      <trkpt lat="56.375233009457588" lon="-3.428607014939189">
        <ele>46.280000000000001</ele>
        <time>2019-08-31T16:12:24Z</time>
      </trkpt>
      <trkpt lat="56.375339962542057" lon="-3.428741963580251">
        <ele>46.280000000000001</ele>
        <time>2019-08-31T16:12:25Z</time>
      </trkpt>
      <trkpt lat="56.375630982220173" lon="-3.429034994915128">
        <ele>44.840000000000003</ele>
        <time>2019-08-31T16:12:29Z</time>
      </trkpt>
      <trkpt lat="56.376152001321316" lon="-3.429572023451328">
        <ele>44.840000000000003</ele>
        <time>2019-08-31T16:12:34Z</time>
      </trkpt>
      <trkpt lat="56.376418964937329" lon="-3.430022969841957">
        <ele>43.399999999999999</ele>
        <time>2019-08-31T16:12:37Z</time>
      </trkpt>
      <trkpt lat="56.376573024317622" lon="-3.430370986461639">
        <ele>42.920000000000002</ele>
        <time>2019-08-31T16:12:39Z</time>
      </trkpt>
      <trkpt lat="56.37663597241044" lon="-3.430554969236255">
        <ele>41.950000000000003</ele>
        <time>2019-08-31T16:12:41Z</time>
      </trkpt>
      <trkpt lat="56.377104017883539" lon="-3.431920967996121">
        <ele>39.549999999999997</ele>
        <time>2019-08-31T16:12:50Z</time>
      </trkpt>
      <trkpt lat="56.377315996214747" lon="-3.432508036494255">
        <ele>39.549999999999997</ele>
        <time>2019-08-31T16:12:53Z</time>
      </trkpt>
      <trkpt lat="56.37773098424077" lon="-3.433215972036123">
        <ele>38.109999999999999</ele>
        <time>2019-08-31T16:12:58Z</time>
      </trkpt>
      <trkpt lat="56.377818994224072" lon="-3.43335896730423">
        <ele>37.630000000000003</ele>
        <time>2019-08-31T16:12:59Z</time>
      </trkpt>
      <trkpt lat="56.378579987213016" lon="-3.434421960264444">
        <ele>33.780000000000001</ele>
        <time>2019-08-31T16:13:07Z</time>
      </trkpt>
      <trkpt lat="56.378689035773277" lon="-3.43451701104641">
        <ele>33.299999999999997</ele>
        <time>2019-08-31T16:13:08Z</time>
      </trkpt>
      <trkpt lat="56.37880302965641" lon="-3.434616001322866">
        <ele>32.82</ele>
        <time>2019-08-31T16:13:09Z</time>
      </trkpt>
      <trkpt lat="56.37893102131784" lon="-3.434665035456419">
        <ele>32.340000000000003</ele>
        <time>2019-08-31T16:13:10Z</time>
      </trkpt>
      <trkpt lat="56.379058007150888" lon="-3.43470904044807">
        <ele>31.859999999999999</ele>
        <time>2019-08-31T16:13:11Z</time>
      </trkpt>
      <trkpt lat="56.379176024347544" lon="-3.434751033782959">
        <ele>30.899999999999999</ele>
        <time>2019-08-31T16:13:12Z</time>
      </trkpt>
      <trkpt lat="56.379299992695451" lon="-3.43475497327745">
        <ele>30.420000000000002</ele>
        <time>2019-08-31T16:13:13Z</time>
      </trkpt>
      <trkpt lat="56.37974901124835" lon="-3.434770982712507">
        <ele>28.02</ele>
        <time>2019-08-31T16:13:18Z</time>
      </trkpt>
      <trkpt lat="56.380248991772532" lon="-3.434749022126198">
        <ele>26.57</ele>
        <time>2019-08-31T16:13:26Z</time>
      </trkpt>
      <trkpt lat="56.380606982856989" lon="-3.434710968285799">
        <ele>24.170000000000002</ele>
        <time>2019-08-31T16:13:34Z</time>
      </trkpt>
      <trkpt lat="56.380806975066662" lon="-3.434665035456419">
        <ele>21.289999999999999</ele>
        <time>2019-08-31T16:13:44Z</time>
      </trkpt>
      <trkpt lat="56.380858020856977" lon="-3.434657994657755">
        <ele>20.809999999999999</ele>
        <time>2019-08-31T16:13:59Z</time>
      </trkpt>
      <trkpt lat="56.381355989724398" lon="-3.434592029079795">
        <ele>19.84</ele>
        <time>2019-08-31T16:14:07Z</time>
      </trkpt>
      <trkpt lat="56.381413992494345" lon="-3.43458398245275">
        <ele>19.84</ele>
        <time>2019-08-31T16:14:08Z</time>
      </trkpt>
      <trkpt lat="56.381480041891336" lon="-3.434575013816357">
        <ele>19.359999999999999</ele>
        <time>2019-08-31T16:14:09Z</time>
      </trkpt>
      <trkpt lat="56.381555981934071" lon="-3.434563027694821">
        <ele>19.359999999999999</ele>
        <time>2019-08-31T16:14:10Z</time>
      </trkpt>
      <trkpt lat="56.381995026022196" lon="-3.434463031589985">
        <ele>17.440000000000001</ele>
        <time>2019-08-31T16:14:15Z</time>
      </trkpt>
      <trkpt lat="56.382464999333024" lon="-3.43428298830986">
        <ele>15.52</ele>
        <time>2019-08-31T16:14:20Z</time>
      </trkpt>
      <trkpt lat="56.382558960467577" lon="-3.434247029945254">
        <ele>14.56</ele>
        <time>2019-08-31T16:14:21Z</time>
      </trkpt>
      <trkpt lat="56.382655017077923" lon="-3.434188021346927">
        <ele>14.08</ele>
        <time>2019-08-31T16:14:22Z</time>
      </trkpt>
      <trkpt lat="56.382747972384095" lon="-3.434119960293174">
        <ele>13.6</ele>
        <time>2019-08-31T16:14:23Z</time>
      </trkpt>
      <trkpt lat="56.382838999852538" lon="-3.434055000543594">
        <ele>13.6</ele>
        <time>2019-08-31T16:14:24Z</time>
      </trkpt>
      <trkpt lat="56.383865028619766" lon="-3.433318985626102">
        <ele>12.630000000000001</ele>
        <time>2019-08-31T16:14:35Z</time>
      </trkpt>
      <trkpt lat="56.384855015203357" lon="-3.432641979306936">
        <ele>10.710000000000001</ele>
        <time>2019-08-31T16:14:45Z</time>
      </trkpt>
      <trkpt lat="56.385709969326854" lon="-3.43209195882082">
        <ele>9.27</ele>
        <time>2019-08-31T16:14:56Z</time>
      </trkpt>
      <trkpt lat="56.38576302677393" lon="-3.432060023769736">
        <ele>9.27</ele>
        <time>2019-08-31T16:14:57Z</time>
      </trkpt>
      <trkpt lat="56.385811977088451" lon="-3.432030016556382">
        <ele>9.27</ele>
        <time>2019-08-31T16:14:58Z</time>
      </trkpt>
      <trkpt lat="56.386121017858386" lon="-3.431841004639864">
        <ele>7.83</ele>
        <time>2019-08-31T16:15:08Z</time>
      </trkpt>
      <trkpt lat="56.386165022850037" lon="-3.431814014911652">
        <ele>7.35</ele>
        <time>2019-08-31T16:15:19Z</time>
      </trkpt>
      <trkpt lat="56.386165022850037" lon="-3.431814014911652">
        <ele>7.35</ele>
        <time>2019-08-31T16:15:48Z</time>
      </trkpt>
      <trkpt lat="56.386165022850037" lon="-3.431814014911652">
        <ele>6.87</ele>
        <time>2019-08-31T16:16:27Z</time>
      </trkpt>
      <trkpt lat="56.386165022850037" lon="-3.431814014911652">
        <ele>6.39</ele>
        <time>2019-08-31T16:17:10Z</time>
      </trkpt>
      <trkpt lat="56.386165022850037" lon="-3.431814014911652">
        <ele>6.87</ele>
        <time>2019-08-31T16:18:04Z</time>
      </trkpt>
      <trkpt lat="56.386165022850037" lon="-3.431814014911652">
        <ele>6.87</ele>
        <time>2019-08-31T16:18:49Z</time>
      </trkpt>
      <trkpt lat="56.386165022850037" lon="-3.431814014911652">
        <ele>7.83</ele>
        <time>2019-08-31T16:19:28Z</time>
      </trkpt>
      <trkpt lat="56.386165022850037" lon="-3.431814014911652">
        <ele>8.789999999999999</ele>
        <time>2019-08-31T16:20:19Z</time>
      </trkpt>
      <trkpt lat="56.386165022850037" lon="-3.431814014911652">
        <ele>8.789999999999999</ele>
        <time>2019-08-31T16:21:14Z</time>
      </trkpt>
      <trkpt lat="56.386165022850037" lon="-3.431814014911652">
        <ele>8.789999999999999</ele>
        <time>2019-08-31T16:21:57Z</time>
      </trkpt>
      <trkpt lat="56.386214978992939" lon="-3.431783001869917">
        <ele>8.789999999999999</ele>
        <time>2019-08-31T16:22:16Z</time>
      </trkpt>
      <trkpt lat="56.3862360175699" lon="-3.431770009920001">
        <ele>8.789999999999999</ele>
        <time>2019-08-31T16:22:17Z</time>
      </trkpt>
      <trkpt lat="56.386254960671067" lon="-3.431758023798466">
        <ele>8.789999999999999</ele>
        <time>2019-08-31T16:22:18Z</time>
      </trkpt>
      <trkpt lat="56.386254960671067" lon="-3.431758023798466">
        <ele>7.35</ele>
        <time>2019-08-31T16:22:34Z</time>
      </trkpt>
      <trkpt lat="56.386334002017975" lon="-3.431709995493293">
        <ele>6.39</ele>
        <time>2019-08-31T16:22:52Z</time>
      </trkpt>
      <trkpt lat="56.386352023109794" lon="-3.431699015200138">
        <ele>6.39</ele>
        <time>2019-08-31T16:22:53Z</time>
      </trkpt>
      <trkpt lat="56.386371972039342" lon="-3.431687029078603">
        <ele>5.91</ele>
        <time>2019-08-31T16:22:54Z</time>
      </trkpt>
      <trkpt lat="56.386390998959541" lon="-3.431674959138036">
        <ele>5.91</ele>
        <time>2019-08-31T16:22:55Z</time>
      </trkpt>
      <trkpt lat="56.386420000344515" lon="-3.431657021865249">
        <ele>6.87</ele>
        <time>2019-08-31T16:22:56Z</time>
      </trkpt>
      <trkpt lat="56.386447995901108" lon="-3.431640006601811">
        <ele>7.83</ele>
        <time>2019-08-31T16:22:57Z</time>
      </trkpt>
      <trkpt lat="56.386481020599604" lon="-3.431619973853231">
        <ele>7.83</ele>
        <time>2019-08-31T16:22:58Z</time>
      </trkpt>
      <trkpt lat="56.386528965085745" lon="-3.431590972468257">
        <ele>6.87</ele>
        <time>2019-08-31T16:23:00Z</time>
      </trkpt>
      <trkpt lat="56.386844962835312" lon="-3.431387040764093">
        <ele>5.42</ele>
        <time>2019-08-31T16:23:03Z</time>
      </trkpt>
      <trkpt lat="56.387797985225916" lon="-3.430727971717715">
        <ele>3.02</ele>
        <time>2019-08-31T16:23:13Z</time>
      </trkpt>
      <trkpt lat="56.388829965144396" lon="-3.430032022297382">
        <ele>4.94</ele>
        <time>2019-08-31T16:23:24Z</time>
      </trkpt>
      <trkpt lat="56.38969698920846" lon="-3.429446965456009">
        <ele>9.27</ele>
        <time>2019-08-31T16:23:33Z</time>
      </trkpt>
      <trkpt lat="56.390730980783701" lon="-3.428763002157211">
        <ele>8.310000000000001</ele>
        <time>2019-08-31T16:23:43Z</time>
      </trkpt>
      <trkpt lat="56.390842041000724" lon="-3.428714973852038">
        <ele>8.789999999999999</ele>
        <time>2019-08-31T16:23:44Z</time>
      </trkpt>
      <trkpt lat="56.391101041808724" lon="-3.428605003282428">
        <ele>8.789999999999999</ele>
        <time>2019-08-31T16:23:47Z</time>
      </trkpt>
      <trkpt lat="56.391359958797693" lon="-3.428562004119158">
        <ele>10.23</ele>
        <time>2019-08-31T16:23:54Z</time>
      </trkpt>
      <trkpt lat="56.391388038173318" lon="-3.428557980805636">
        <ele>10.710000000000001</ele>
        <time>2019-08-31T16:23:55Z</time>
      </trkpt>
      <trkpt lat="56.391413016244769" lon="-3.428554963320494">
        <ele>10.710000000000001</ele>
        <time>2019-08-31T16:23:56Z</time>
      </trkpt>
      <trkpt lat="56.391492979601026" lon="-3.428543983027339">
        <ele>11.19</ele>
        <time>2019-08-31T16:24:01Z</time>
      </trkpt>
      <trkpt lat="56.391986003145576" lon="-3.428487991914153">
        <ele>11.67</ele>
        <time>2019-08-31T16:24:07Z</time>
      </trkpt>
      <trkpt lat="56.392209967598319" lon="-3.428484974429011">
        <ele>11.67</ele>
        <time>2019-08-31T16:24:11Z</time>
      </trkpt>
      <trkpt lat="56.392276016995311" lon="-3.428483968600631">
        <ele>11.67</ele>
        <time>2019-08-31T16:24:12Z</time>
      </trkpt>
      <trkpt lat="56.39233997091651" lon="-3.428478017449379">
        <ele>11.67</ele>
        <time>2019-08-31T16:24:13Z</time>
      </trkpt>
      <trkpt lat="56.392405014485121" lon="-3.428470976650715">
        <ele>12.15</ele>
        <time>2019-08-31T16:24:14Z</time>
      </trkpt>
      <trkpt lat="56.392473997548223" lon="-3.428464019671083">
        <ele>12.15</ele>
        <time>2019-08-31T16:24:15Z</time>
      </trkpt>
      <trkpt lat="56.392537029460073" lon="-3.428456978872418">
        <ele>12.15</ele>
        <time>2019-08-31T16:24:16Z</time>
      </trkpt>
      <trkpt lat="56.3925960380584" lon="-3.428451027721167">
        <ele>12.630000000000001</ele>
        <time>2019-08-31T16:24:17Z</time>
      </trkpt>
      <trkpt lat="56.392978001385927" lon="-3.42841599136591">
        <ele>13.6</ele>
        <time>2019-08-31T16:24:22Z</time>
      </trkpt>
      <trkpt lat="56.393487034365535" lon="-3.428358994424343">
        <ele>14.08</ele>
        <time>2019-08-31T16:24:28Z</time>
      </trkpt>
      <trkpt lat="56.393965976312757" lon="-3.428306020796299">
        <ele>15.52</ele>
        <time>2019-08-31T16:24:37Z</time>
      </trkpt>
      <trkpt lat="56.394037976861" lon="-3.428297974169254">
        <ele>15.52</ele>
        <time>2019-08-31T16:24:48Z</time>
      </trkpt>
      <trkpt lat="56.394037976861" lon="-3.428297974169254">
        <ele>15.52</ele>
        <time>2019-08-31T16:25:18Z</time>
      </trkpt>
      <trkpt lat="56.394279040396214" lon="-3.428270984441042">
        <ele>14.56</ele>
        <time>2019-08-31T16:25:41Z</time>
      </trkpt>
      <trkpt lat="56.394776003435254" lon="-3.42820200137794">
        <ele>14.08</ele>
        <time>2019-08-31T16:25:49Z</time>
      </trkpt>
      <trkpt lat="56.394814979285002" lon="-3.428196972236037">
        <ele>14.08</ele>
        <time>2019-08-31T16:25:50Z</time>
      </trkpt>
      <trkpt lat="56.394845992326736" lon="-3.428193032741547">
        <ele>14.08</ele>
        <time>2019-08-31T16:25:51Z</time>
      </trkpt>
      <trkpt lat="56.394873987883329" lon="-3.428189009428024">
        <ele>14.08</ele>
        <time>2019-08-31T16:25:52Z</time>
      </trkpt>
      <trkpt lat="56.394903995096684" lon="-3.428184986114502">
        <ele>14.08</ele>
        <time>2019-08-31T16:25:53Z</time>
      </trkpt>
      <trkpt lat="56.395055036991835" lon="-3.428164031356573">
        <ele>14.08</ele>
        <time>2019-08-31T16:25:58Z</time>
      </trkpt>
      <trkpt lat="56.395055036991835" lon="-3.428164031356573">
        <ele>14.08</ele>
        <time>2019-08-31T16:25:59Z</time>
      </trkpt>
      <trkpt lat="56.395061993971467" lon="-3.42807199805975">
        <ele>14.08</ele>
        <time>2019-08-31T16:26:00Z</time>
      </trkpt>
      <trkpt lat="56.395065011456609" lon="-3.428021958097816">
        <ele>14.08</ele>
        <time>2019-08-31T16:26:01Z</time>
      </trkpt>
      <trkpt lat="56.395069034770131" lon="-3.427976025268436">
        <ele>13.6</ele>
        <time>2019-08-31T16:26:02Z</time>
      </trkpt>
      <trkpt lat="56.395070962607861" lon="-3.427947023883462">
        <ele>13.119999999999999</ele>
        <time>2019-08-31T16:26:03Z</time>
      </trkpt>
      <trkpt lat="56.395072974264622" lon="-3.427919028326869">
        <ele>13.119999999999999</ele>
        <time>2019-08-31T16:26:04Z</time>
      </trkpt>
      <trkpt lat="56.395074985921383" lon="-3.427894972264767">
        <ele>13.119999999999999</ele>
        <time>2019-08-31T16:26:05Z</time>
      </trkpt>
      <trkpt lat="56.395074985921383" lon="-3.427894972264767">
        <ele>13.119999999999999</ele>
        <time>2019-08-31T16:26:22Z</time>
      </trkpt>
      <trkpt lat="56.395081020891666" lon="-3.427812997251749">
        <ele>15.039999999999999</ele>
        <time>2019-08-31T16:26:36Z</time>
      </trkpt>
      <trkpt lat="56.395081020891666" lon="-3.427812997251749">
        <ele>15.039999999999999</ele>
        <time>2019-08-31T16:27:08Z</time>
      </trkpt>
      <trkpt lat="56.395081020891666" lon="-3.427812997251749">
        <ele>15.039999999999999</ele>
        <time>2019-08-31T16:27:39Z</time>
      </trkpt>
      <trkpt lat="56.395081020891666" lon="-3.427812997251749">
        <ele>15.039999999999999</ele>
        <time>2019-08-31T16:28:20Z</time>
      </trkpt>
      <trkpt lat="56.395081020891666" lon="-3.427812997251749">
        <ele>15.039999999999999</ele>
        <time>2019-08-31T16:29:02Z</time>
      </trkpt>
      <trkpt lat="56.395081020891666" lon="-3.427812997251749">
        <ele>15.039999999999999</ele>
        <time>2019-08-31T16:29:44Z</time>
      </trkpt>
      <trkpt lat="56.395081020891666" lon="-3.427812997251749">
        <ele>15.039999999999999</ele>
        <time>2019-08-31T16:30:17Z</time>
      </trkpt>
      <trkpt lat="56.395081020891666" lon="-3.427812997251749">
        <ele>14.56</ele>
        <time>2019-08-31T16:30:57Z</time>
      </trkpt>
      <trkpt lat="56.395081020891666" lon="-3.427812997251749">
        <ele>14.08</ele>
        <time>2019-08-31T16:31:39Z</time>
      </trkpt>
      <trkpt lat="56.395081020891666" lon="-3.427812997251749">
        <ele>14.08</ele>
        <time>2019-08-31T16:32:19Z</time>
      </trkpt>
    </trkseg>
  </trk>

</gpx>